<?xml version="1.0" encoding="UTF-8" standalone="no" ?>
<gpx xmlns="http://www.topografix.com/GPX/1/1" xmlns:xsi="http://www.w3.org/2001/XMLSchema-instance" xsi:schemaLocation="http://www.topografix.com/GPX/1/1 http://www.topografix.com/GPX/1/1/gpx.xsd" version="1.1" creator="VisuGPX - https://www.visugpx.com">
  <metadata>
    <name>Thines_Joyeuse</name>
    <desc><![CDATA[Difficultés assez variées. Portage au début. Descentes accessibles techniquement, de superbes point de vues.]]></desc>
  </metadata>
  <trk>
    <name><![CDATA[Thines_Joyeuse]]></name>
    <trkseg>
      <trkpt lat="44.49287" lon="4.05023">
        <ele>501.4</ele>
        <time>2018-03-31T15:55:01Z</time>
      </trkpt>
      <trkpt lat="44.49282" lon="4.05034">
        <ele>507.5</ele>
        <time>2018-03-31T15:55:40Z</time>
      </trkpt>
      <trkpt lat="44.49284" lon="4.05048">
        <ele>508.9</ele>
        <time>2018-03-31T15:55:50Z</time>
      </trkpt>
      <trkpt lat="44.49285" lon="4.05061">
        <ele>510.3</ele>
        <time>2018-03-31T15:55:58Z</time>
      </trkpt>
      <trkpt lat="44.49287" lon="4.05076">
        <ele>511</ele>
        <time>2018-03-31T15:56:06Z</time>
      </trkpt>
      <trkpt lat="44.49289" lon="4.05089">
        <ele>511.4</ele>
        <time>2018-03-31T15:56:13Z</time>
      </trkpt>
      <trkpt lat="44.49295" lon="4.051">
        <ele>512.4</ele>
        <time>2018-03-31T15:56:20Z</time>
      </trkpt>
      <trkpt lat="44.49303" lon="4.05108">
        <ele>513.4</ele>
        <time>2018-03-31T15:56:27Z</time>
      </trkpt>
      <trkpt lat="44.49312" lon="4.0511">
        <ele>515.7</ele>
        <time>2018-03-31T15:56:36Z</time>
      </trkpt>
      <trkpt lat="44.49321" lon="4.05114">
        <ele>518.1</ele>
        <time>2018-03-31T15:56:44Z</time>
      </trkpt>
      <trkpt lat="44.49331" lon="4.05113">
        <ele>521.4</ele>
        <time>2018-03-31T15:56:55Z</time>
      </trkpt>
      <trkpt lat="44.49339" lon="4.05119">
        <ele>535.3</ele>
        <time>2018-03-31T16:01:50Z</time>
      </trkpt>
      <trkpt lat="44.49331" lon="4.05125">
        <ele>544.7</ele>
        <time>2018-03-31T16:05:22Z</time>
      </trkpt>
      <trkpt lat="44.49334" lon="4.05113">
        <ele>549.8</ele>
        <time>2018-03-31T16:07:36Z</time>
      </trkpt>
      <trkpt lat="44.49324" lon="4.05114">
        <ele>548.9</ele>
        <time>2018-03-31T16:07:42Z</time>
      </trkpt>
      <trkpt lat="44.49314" lon="4.05114">
        <ele>546.2</ele>
        <time>2018-03-31T16:07:48Z</time>
      </trkpt>
      <trkpt lat="44.49321" lon="4.05122">
        <ele>545</ele>
        <time>2018-03-31T16:08:01Z</time>
      </trkpt>
      <trkpt lat="44.49329" lon="4.05131">
        <ele>545.9</ele>
        <time>2018-03-31T16:08:08Z</time>
      </trkpt>
      <trkpt lat="44.49338" lon="4.05138">
        <ele>547.8</ele>
        <time>2018-03-31T16:08:15Z</time>
      </trkpt>
      <trkpt lat="44.49327" lon="4.05128">
        <ele>548.4</ele>
        <time>2018-03-31T16:08:25Z</time>
      </trkpt>
      <trkpt lat="44.49315" lon="4.05118">
        <ele>547.9</ele>
        <time>2018-03-31T16:08:28Z</time>
      </trkpt>
      <trkpt lat="44.49306" lon="4.05111">
        <ele>547.2</ele>
        <time>2018-03-31T16:08:30Z</time>
      </trkpt>
      <trkpt lat="44.49295" lon="4.05102">
        <ele>546</ele>
        <time>2018-03-31T16:08:33Z</time>
      </trkpt>
      <trkpt lat="44.49289" lon="4.05091">
        <ele>545.2</ele>
        <time>2018-03-31T16:08:36Z</time>
      </trkpt>
      <trkpt lat="44.49286" lon="4.05076">
        <ele>544.4</ele>
        <time>2018-03-31T16:08:40Z</time>
      </trkpt>
      <trkpt lat="44.49285" lon="4.05062">
        <ele>545.2</ele>
        <time>2018-03-31T16:08:50Z</time>
      </trkpt>
      <trkpt lat="44.49284" lon="4.05047">
        <ele>546.1</ele>
        <time>2018-03-31T16:08:55Z</time>
      </trkpt>
      <trkpt lat="44.49287" lon="4.05035">
        <ele>544.4</ele>
        <time>2018-03-31T16:09:00Z</time>
      </trkpt>
      <trkpt lat="44.49281" lon="4.05048">
        <ele>542.5</ele>
        <time>2018-03-31T16:09:08Z</time>
      </trkpt>
      <trkpt lat="44.49283" lon="4.0507">
        <ele>545.5</ele>
        <time>2018-03-31T16:09:15Z</time>
      </trkpt>
      <trkpt lat="44.49287" lon="4.05084">
        <ele>546.3</ele>
        <time>2018-03-31T16:09:18Z</time>
      </trkpt>
      <trkpt lat="44.49293" lon="4.05096">
        <ele>547</ele>
        <time>2018-03-31T16:09:22Z</time>
      </trkpt>
      <trkpt lat="44.49301" lon="4.05107">
        <ele>547.9</ele>
        <time>2018-03-31T16:09:26Z</time>
      </trkpt>
      <trkpt lat="44.49309" lon="4.05113">
        <ele>548.3</ele>
        <time>2018-03-31T16:09:29Z</time>
      </trkpt>
      <trkpt lat="44.49318" lon="4.0512">
        <ele>549</ele>
        <time>2018-03-31T16:09:33Z</time>
      </trkpt>
      <trkpt lat="44.49326" lon="4.05128">
        <ele>550.1</ele>
        <time>2018-03-31T16:09:37Z</time>
      </trkpt>
      <trkpt lat="44.49335" lon="4.05136">
        <ele>551.6</ele>
        <time>2018-03-31T16:09:41Z</time>
      </trkpt>
      <trkpt lat="44.49345" lon="4.05142">
        <ele>552.5</ele>
        <time>2018-03-31T16:09:46Z</time>
      </trkpt>
      <trkpt lat="44.49354" lon="4.05149">
        <ele>553.3</ele>
        <time>2018-03-31T16:09:51Z</time>
      </trkpt>
      <trkpt lat="44.49364" lon="4.05153">
        <ele>554.3</ele>
        <time>2018-03-31T16:09:56Z</time>
      </trkpt>
      <trkpt lat="44.49373" lon="4.05158">
        <ele>555.3</ele>
        <time>2018-03-31T16:10:01Z</time>
      </trkpt>
      <trkpt lat="44.49384" lon="4.05161">
        <ele>556.8</ele>
        <time>2018-03-31T16:10:06Z</time>
      </trkpt>
      <trkpt lat="44.49393" lon="4.05164">
        <ele>557.6</ele>
        <time>2018-03-31T16:10:10Z</time>
      </trkpt>
      <trkpt lat="44.49403" lon="4.05164">
        <ele>558.3</ele>
        <time>2018-03-31T16:10:14Z</time>
      </trkpt>
      <trkpt lat="44.49413" lon="4.05165">
        <ele>560.8</ele>
        <time>2018-03-31T16:10:26Z</time>
      </trkpt>
      <trkpt lat="44.49408" lon="4.05153">
        <ele>562.7</ele>
        <time>2018-03-31T16:10:38Z</time>
      </trkpt>
      <trkpt lat="44.4941" lon="4.05141">
        <ele>566.2</ele>
        <time>2018-03-31T16:11:25Z</time>
      </trkpt>
      <trkpt lat="44.49411" lon="4.05155">
        <ele>567.3</ele>
        <time>2018-03-31T16:11:54Z</time>
      </trkpt>
      <trkpt lat="44.4942" lon="4.05163">
        <ele>566.3</ele>
        <time>2018-03-31T16:11:59Z</time>
      </trkpt>
      <trkpt lat="44.49425" lon="4.05174">
        <ele>564</ele>
        <time>2018-03-31T16:12:12Z</time>
      </trkpt>
      <trkpt lat="44.49435" lon="4.0518">
        <ele>563.5</ele>
        <time>2018-03-31T16:12:17Z</time>
      </trkpt>
      <trkpt lat="44.49443" lon="4.05187">
        <ele>563.5</ele>
        <time>2018-03-31T16:12:21Z</time>
      </trkpt>
      <trkpt lat="44.49451" lon="4.05194">
        <ele>564.5</ele>
        <time>2018-03-31T16:12:25Z</time>
      </trkpt>
      <trkpt lat="44.49457" lon="4.05204">
        <ele>565.6</ele>
        <time>2018-03-31T16:12:29Z</time>
      </trkpt>
      <trkpt lat="44.49465" lon="4.05216">
        <ele>565.6</ele>
        <time>2018-03-31T16:12:34Z</time>
      </trkpt>
      <trkpt lat="44.4947" lon="4.05227">
        <ele>564.8</ele>
        <time>2018-03-31T16:12:38Z</time>
      </trkpt>
      <trkpt lat="44.49474" lon="4.05239">
        <ele>563.8</ele>
        <time>2018-03-31T16:12:43Z</time>
      </trkpt>
      <trkpt lat="44.49479" lon="4.0525">
        <ele>563.4</ele>
        <time>2018-03-31T16:12:48Z</time>
      </trkpt>
      <trkpt lat="44.49482" lon="4.05264">
        <ele>564.2</ele>
        <time>2018-03-31T16:12:54Z</time>
      </trkpt>
      <trkpt lat="44.49487" lon="4.05276">
        <ele>566.1</ele>
        <time>2018-03-31T16:13:00Z</time>
      </trkpt>
      <trkpt lat="44.4949" lon="4.05289">
        <ele>568.9</ele>
        <time>2018-03-31T16:13:07Z</time>
      </trkpt>
      <trkpt lat="44.4949" lon="4.05302">
        <ele>571.2</ele>
        <time>2018-03-31T16:13:13Z</time>
      </trkpt>
      <trkpt lat="44.49494" lon="4.05316">
        <ele>572.4</ele>
        <time>2018-03-31T16:13:19Z</time>
      </trkpt>
      <trkpt lat="44.495" lon="4.05327">
        <ele>572.4</ele>
        <time>2018-03-31T16:13:34Z</time>
      </trkpt>
      <trkpt lat="44.49505" lon="4.05337">
        <ele>574.3</ele>
        <time>2018-03-31T16:13:46Z</time>
      </trkpt>
      <trkpt lat="44.49514" lon="4.05334">
        <ele>579.2</ele>
        <time>2018-03-31T16:13:56Z</time>
      </trkpt>
      <trkpt lat="44.49523" lon="4.05337">
        <ele>581.3</ele>
        <time>2018-03-31T16:14:03Z</time>
      </trkpt>
      <trkpt lat="44.49532" lon="4.0534">
        <ele>581.9</ele>
        <time>2018-03-31T16:14:09Z</time>
      </trkpt>
      <trkpt lat="44.49541" lon="4.05344">
        <ele>582.4</ele>
        <time>2018-03-31T16:14:16Z</time>
      </trkpt>
      <trkpt lat="44.49551" lon="4.05349">
        <ele>583.4</ele>
        <time>2018-03-31T16:14:24Z</time>
      </trkpt>
      <trkpt lat="44.49558" lon="4.05358">
        <ele>583.5</ele>
        <time>2018-03-31T16:14:33Z</time>
      </trkpt>
      <trkpt lat="44.49563" lon="4.0537">
        <ele>584.4</ele>
        <time>2018-03-31T16:14:39Z</time>
      </trkpt>
      <trkpt lat="44.49569" lon="4.05381">
        <ele>585.9</ele>
        <time>2018-03-31T16:14:44Z</time>
      </trkpt>
      <trkpt lat="44.49577" lon="4.05388">
        <ele>587.4</ele>
        <time>2018-03-31T16:14:48Z</time>
      </trkpt>
      <trkpt lat="44.49582" lon="4.054">
        <ele>590.2</ele>
        <time>2018-03-31T16:14:54Z</time>
      </trkpt>
      <trkpt lat="44.49582" lon="4.05413">
        <ele>592</ele>
        <time>2018-03-31T16:15:04Z</time>
      </trkpt>
      <trkpt lat="44.49573" lon="4.05417">
        <ele>592.3</ele>
        <time>2018-03-31T16:15:24Z</time>
      </trkpt>
      <trkpt lat="44.49564" lon="4.05417">
        <ele>593.9</ele>
        <time>2018-03-31T16:15:38Z</time>
      </trkpt>
      <trkpt lat="44.49554" lon="4.05415">
        <ele>593.4</ele>
        <time>2018-03-31T16:15:44Z</time>
      </trkpt>
      <trkpt lat="44.49544" lon="4.05419">
        <ele>593.1</ele>
        <time>2018-03-31T16:15:51Z</time>
      </trkpt>
      <trkpt lat="44.49536" lon="4.05421">
        <ele>593.5</ele>
        <time>2018-03-31T16:16:30Z</time>
      </trkpt>
      <trkpt lat="44.49526" lon="4.05421">
        <ele>591</ele>
        <time>2018-03-31T16:17:43Z</time>
      </trkpt>
      <trkpt lat="44.4952" lon="4.05431">
        <ele>591.7</ele>
        <time>2018-03-31T16:17:49Z</time>
      </trkpt>
      <trkpt lat="44.49514" lon="4.05441">
        <ele>593.3</ele>
        <time>2018-03-31T16:17:54Z</time>
      </trkpt>
      <trkpt lat="44.4951" lon="4.05457">
        <ele>594.9</ele>
        <time>2018-03-31T16:18:02Z</time>
      </trkpt>
      <trkpt lat="44.49504" lon="4.05467">
        <ele>596.3</ele>
        <time>2018-03-31T16:18:08Z</time>
      </trkpt>
      <trkpt lat="44.49498" lon="4.05479">
        <ele>597.8</ele>
        <time>2018-03-31T16:18:14Z</time>
      </trkpt>
      <trkpt lat="44.49489" lon="4.05485">
        <ele>598.5</ele>
        <time>2018-03-31T16:18:19Z</time>
      </trkpt>
      <trkpt lat="44.49481" lon="4.05492">
        <ele>598.7</ele>
        <time>2018-03-31T16:18:25Z</time>
      </trkpt>
      <trkpt lat="44.49475" lon="4.05503">
        <ele>599.6</ele>
        <time>2018-03-31T16:18:32Z</time>
      </trkpt>
      <trkpt lat="44.4947" lon="4.05516">
        <ele>602.2</ele>
        <time>2018-03-31T16:18:40Z</time>
      </trkpt>
      <trkpt lat="44.49463" lon="4.05526">
        <ele>603.5</ele>
        <time>2018-03-31T16:18:48Z</time>
      </trkpt>
      <trkpt lat="44.49454" lon="4.05523">
        <ele>603.8</ele>
        <time>2018-03-31T16:18:53Z</time>
      </trkpt>
      <trkpt lat="44.49444" lon="4.05519">
        <ele>603.7</ele>
        <time>2018-03-31T16:18:59Z</time>
      </trkpt>
      <trkpt lat="44.49435" lon="4.05515">
        <ele>604.5</ele>
        <time>2018-03-31T16:19:10Z</time>
      </trkpt>
      <trkpt lat="44.49427" lon="4.05511">
        <ele>604.4</ele>
        <time>2018-03-31T16:19:19Z</time>
      </trkpt>
      <trkpt lat="44.49416" lon="4.05511">
        <ele>603.3</ele>
        <time>2018-03-31T16:23:25Z</time>
      </trkpt>
      <trkpt lat="44.49407" lon="4.05506">
        <ele>598.4</ele>
        <time>2018-03-31T16:26:50Z</time>
      </trkpt>
      <trkpt lat="44.49399" lon="4.055">
        <ele>598</ele>
        <time>2018-03-31T16:26:54Z</time>
      </trkpt>
      <trkpt lat="44.49392" lon="4.05491">
        <ele>598.3</ele>
        <time>2018-03-31T16:27:05Z</time>
      </trkpt>
      <trkpt lat="44.49387" lon="4.0548">
        <ele>603.6</ele>
        <time>2018-03-31T16:27:19Z</time>
      </trkpt>
      <trkpt lat="44.49379" lon="4.05471">
        <ele>604</ele>
        <time>2018-03-31T16:27:26Z</time>
      </trkpt>
      <trkpt lat="44.49372" lon="4.05463">
        <ele>603.9</ele>
        <time>2018-03-31T16:27:31Z</time>
      </trkpt>
      <trkpt lat="44.49367" lon="4.05452">
        <ele>601.9</ele>
        <time>2018-03-31T16:27:36Z</time>
      </trkpt>
      <trkpt lat="44.49359" lon="4.05443">
        <ele>602.1</ele>
        <time>2018-03-31T16:27:47Z</time>
      </trkpt>
      <trkpt lat="44.49349" lon="4.05443">
        <ele>606</ele>
        <time>2018-03-31T16:28:02Z</time>
      </trkpt>
      <trkpt lat="44.49341" lon="4.05449">
        <ele>608.3</ele>
        <time>2018-03-31T16:28:10Z</time>
      </trkpt>
      <trkpt lat="44.49333" lon="4.05457">
        <ele>607.8</ele>
        <time>2018-03-31T16:28:17Z</time>
      </trkpt>
      <trkpt lat="44.49325" lon="4.05462">
        <ele>610.2</ele>
        <time>2018-03-31T16:28:29Z</time>
      </trkpt>
      <trkpt lat="44.49318" lon="4.05472">
        <ele>610.5</ele>
        <time>2018-03-31T16:28:36Z</time>
      </trkpt>
      <trkpt lat="44.49313" lon="4.05483">
        <ele>610.2</ele>
        <time>2018-03-31T16:28:44Z</time>
      </trkpt>
      <trkpt lat="44.49309" lon="4.05496">
        <ele>610.3</ele>
        <time>2018-03-31T16:28:52Z</time>
      </trkpt>
      <trkpt lat="44.49311" lon="4.05509">
        <ele>610.2</ele>
        <time>2018-03-31T16:29:00Z</time>
      </trkpt>
      <trkpt lat="44.49317" lon="4.0552">
        <ele>612.1</ele>
        <time>2018-03-31T16:29:11Z</time>
      </trkpt>
      <trkpt lat="44.49323" lon="4.05531">
        <ele>614.9</ele>
        <time>2018-03-31T16:29:21Z</time>
      </trkpt>
      <trkpt lat="44.49323" lon="4.05544">
        <ele>616.7</ele>
        <time>2018-03-31T16:29:29Z</time>
      </trkpt>
      <trkpt lat="44.49318" lon="4.05554">
        <ele>619.1</ele>
        <time>2018-03-31T16:29:37Z</time>
      </trkpt>
      <trkpt lat="44.49311" lon="4.05563">
        <ele>617.6</ele>
        <time>2018-03-31T16:29:45Z</time>
      </trkpt>
      <trkpt lat="44.49302" lon="4.0557">
        <ele>617.9</ele>
        <time>2018-03-31T16:29:54Z</time>
      </trkpt>
      <trkpt lat="44.49293" lon="4.05576">
        <ele>618</ele>
        <time>2018-03-31T16:29:59Z</time>
      </trkpt>
      <trkpt lat="44.49284" lon="4.05579">
        <ele>617.5</ele>
        <time>2018-03-31T16:30:03Z</time>
      </trkpt>
      <trkpt lat="44.49275" lon="4.05581">
        <ele>616.9</ele>
        <time>2018-03-31T16:30:06Z</time>
      </trkpt>
      <trkpt lat="44.49266" lon="4.05586">
        <ele>616.3</ele>
        <time>2018-03-31T16:30:09Z</time>
      </trkpt>
      <trkpt lat="44.49259" lon="4.05595">
        <ele>616.3</ele>
        <time>2018-03-31T16:30:16Z</time>
      </trkpt>
      <trkpt lat="44.49253" lon="4.05604">
        <ele>617.4</ele>
        <time>2018-03-31T16:30:26Z</time>
      </trkpt>
      <trkpt lat="44.49245" lon="4.05612">
        <ele>617</ele>
        <time>2018-03-31T16:30:34Z</time>
      </trkpt>
      <trkpt lat="44.49239" lon="4.05623">
        <ele>617.7</ele>
        <time>2018-03-31T16:30:42Z</time>
      </trkpt>
      <trkpt lat="44.49235" lon="4.05635">
        <ele>619.5</ele>
        <time>2018-03-31T16:30:49Z</time>
      </trkpt>
      <trkpt lat="44.49236" lon="4.05648">
        <ele>617.7</ele>
        <time>2018-03-31T16:31:02Z</time>
      </trkpt>
      <trkpt lat="44.49245" lon="4.05651">
        <ele>617.8</ele>
        <time>2018-03-31T16:31:08Z</time>
      </trkpt>
      <trkpt lat="44.49255" lon="4.05654">
        <ele>619</ele>
        <time>2018-03-31T16:31:14Z</time>
      </trkpt>
      <trkpt lat="44.49265" lon="4.05658">
        <ele>620.1</ele>
        <time>2018-03-31T16:31:21Z</time>
      </trkpt>
      <trkpt lat="44.49274" lon="4.05662">
        <ele>620.8</ele>
        <time>2018-03-31T16:31:27Z</time>
      </trkpt>
      <trkpt lat="44.49283" lon="4.05663">
        <ele>621.6</ele>
        <time>2018-03-31T16:31:33Z</time>
      </trkpt>
      <trkpt lat="44.49292" lon="4.05663">
        <ele>622.8</ele>
        <time>2018-03-31T16:31:39Z</time>
      </trkpt>
      <trkpt lat="44.49301" lon="4.05664">
        <ele>623.4</ele>
        <time>2018-03-31T16:31:47Z</time>
      </trkpt>
      <trkpt lat="44.4931" lon="4.05668">
        <ele>622.8</ele>
        <time>2018-03-31T16:31:53Z</time>
      </trkpt>
      <trkpt lat="44.4932" lon="4.05673">
        <ele>623.1</ele>
        <time>2018-03-31T16:31:59Z</time>
      </trkpt>
      <trkpt lat="44.49328" lon="4.0568">
        <ele>623</ele>
        <time>2018-03-31T16:32:05Z</time>
      </trkpt>
      <trkpt lat="44.49336" lon="4.05685">
        <ele>623</ele>
        <time>2018-03-31T16:32:24Z</time>
      </trkpt>
      <trkpt lat="44.49345" lon="4.05693">
        <ele>627.1</ele>
        <time>2018-03-31T16:32:39Z</time>
      </trkpt>
      <trkpt lat="44.49355" lon="4.05698">
        <ele>627.9</ele>
        <time>2018-03-31T16:32:45Z</time>
      </trkpt>
      <trkpt lat="44.49365" lon="4.057">
        <ele>627.8</ele>
        <time>2018-03-31T16:32:50Z</time>
      </trkpt>
      <trkpt lat="44.49374" lon="4.05699">
        <ele>627.1</ele>
        <time>2018-03-31T16:32:55Z</time>
      </trkpt>
      <trkpt lat="44.49385" lon="4.05699">
        <ele>626.5</ele>
        <time>2018-03-31T16:33:00Z</time>
      </trkpt>
      <trkpt lat="44.49394" lon="4.05697">
        <ele>627.3</ele>
        <time>2018-03-31T16:33:06Z</time>
      </trkpt>
      <trkpt lat="44.49404" lon="4.05697">
        <ele>628.7</ele>
        <time>2018-03-31T16:33:12Z</time>
      </trkpt>
      <trkpt lat="44.49414" lon="4.05699">
        <ele>630</ele>
        <time>2018-03-31T16:33:18Z</time>
      </trkpt>
      <trkpt lat="44.49424" lon="4.057">
        <ele>629.4</ele>
        <time>2018-03-31T16:33:24Z</time>
      </trkpt>
      <trkpt lat="44.49434" lon="4.05702">
        <ele>630.7</ele>
        <time>2018-03-31T16:33:30Z</time>
      </trkpt>
      <trkpt lat="44.49444" lon="4.05704">
        <ele>632.9</ele>
        <time>2018-03-31T16:33:37Z</time>
      </trkpt>
      <trkpt lat="44.49454" lon="4.05707">
        <ele>632.4</ele>
        <time>2018-03-31T16:33:43Z</time>
      </trkpt>
      <trkpt lat="44.49463" lon="4.05709">
        <ele>634.3</ele>
        <time>2018-03-31T16:33:53Z</time>
      </trkpt>
      <trkpt lat="44.49472" lon="4.05713">
        <ele>634.3</ele>
        <time>2018-03-31T16:34:07Z</time>
      </trkpt>
      <trkpt lat="44.4948" lon="4.0572">
        <ele>634</ele>
        <time>2018-03-31T16:34:15Z</time>
      </trkpt>
      <trkpt lat="44.49489" lon="4.05726">
        <ele>634.7</ele>
        <time>2018-03-31T16:34:21Z</time>
      </trkpt>
      <trkpt lat="44.49498" lon="4.0573">
        <ele>635</ele>
        <time>2018-03-31T16:34:23Z</time>
      </trkpt>
      <trkpt lat="44.49507" lon="4.05736">
        <ele>635.5</ele>
        <time>2018-03-31T16:34:27Z</time>
      </trkpt>
      <trkpt lat="44.49515" lon="4.05744">
        <ele>634.9</ele>
        <time>2018-03-31T16:34:33Z</time>
      </trkpt>
      <trkpt lat="44.49524" lon="4.05751">
        <ele>635.7</ele>
        <time>2018-03-31T16:34:41Z</time>
      </trkpt>
      <trkpt lat="44.49536" lon="4.05757">
        <ele>636</ele>
        <time>2018-03-31T16:34:46Z</time>
      </trkpt>
      <trkpt lat="44.49545" lon="4.05763">
        <ele>637.8</ele>
        <time>2018-03-31T16:34:52Z</time>
      </trkpt>
      <trkpt lat="44.49555" lon="4.05769">
        <ele>638.6</ele>
        <time>2018-03-31T16:34:57Z</time>
      </trkpt>
      <trkpt lat="44.49563" lon="4.05775">
        <ele>638.6</ele>
        <time>2018-03-31T16:35:02Z</time>
      </trkpt>
      <trkpt lat="44.49572" lon="4.05778">
        <ele>639.1</ele>
        <time>2018-03-31T16:35:11Z</time>
      </trkpt>
      <trkpt lat="44.49582" lon="4.05784">
        <ele>640.1</ele>
        <time>2018-03-31T16:35:19Z</time>
      </trkpt>
      <trkpt lat="44.49592" lon="4.05785">
        <ele>641.3</ele>
        <time>2018-03-31T16:35:27Z</time>
      </trkpt>
      <trkpt lat="44.49604" lon="4.0579">
        <ele>642.6</ele>
        <time>2018-03-31T16:35:35Z</time>
      </trkpt>
      <trkpt lat="44.49614" lon="4.05796">
        <ele>643</ele>
        <time>2018-03-31T16:35:42Z</time>
      </trkpt>
      <trkpt lat="44.49623" lon="4.058">
        <ele>644</ele>
        <time>2018-03-31T16:35:48Z</time>
      </trkpt>
      <trkpt lat="44.49633" lon="4.05807">
        <ele>646.3</ele>
        <time>2018-03-31T16:35:55Z</time>
      </trkpt>
      <trkpt lat="44.4964" lon="4.05816">
        <ele>646.2</ele>
        <time>2018-03-31T16:36:00Z</time>
      </trkpt>
      <trkpt lat="44.4964" lon="4.05829">
        <ele>645.5</ele>
        <time>2018-03-31T16:36:09Z</time>
      </trkpt>
      <trkpt lat="44.49633" lon="4.05836">
        <ele>646.4</ele>
        <time>2018-03-31T16:36:16Z</time>
      </trkpt>
      <trkpt lat="44.49629" lon="4.05848">
        <ele>646.6</ele>
        <time>2018-03-31T16:36:28Z</time>
      </trkpt>
      <trkpt lat="44.49627" lon="4.05861">
        <ele>646</ele>
        <time>2018-03-31T16:36:37Z</time>
      </trkpt>
      <trkpt lat="44.49627" lon="4.05874">
        <ele>646.6</ele>
        <time>2018-03-31T16:36:47Z</time>
      </trkpt>
      <trkpt lat="44.49625" lon="4.05887">
        <ele>646.7</ele>
        <time>2018-03-31T16:36:55Z</time>
      </trkpt>
      <trkpt lat="44.49625" lon="4.059">
        <ele>646.7</ele>
        <time>2018-03-31T16:37:05Z</time>
      </trkpt>
      <trkpt lat="44.49622" lon="4.05913">
        <ele>649.1</ele>
        <time>2018-03-31T16:37:17Z</time>
      </trkpt>
      <trkpt lat="44.49624" lon="4.05926">
        <ele>650.1</ele>
        <time>2018-03-31T16:37:28Z</time>
      </trkpt>
      <trkpt lat="44.49631" lon="4.05933">
        <ele>649.9</ele>
        <time>2018-03-31T16:37:37Z</time>
      </trkpt>
      <trkpt lat="44.4964" lon="4.05938">
        <ele>649.4</ele>
        <time>2018-03-31T16:37:45Z</time>
      </trkpt>
      <trkpt lat="44.49647" lon="4.05946">
        <ele>648.7</ele>
        <time>2018-03-31T16:37:52Z</time>
      </trkpt>
      <trkpt lat="44.49655" lon="4.05955">
        <ele>648.7</ele>
        <time>2018-03-31T16:37:58Z</time>
      </trkpt>
      <trkpt lat="44.49663" lon="4.05963">
        <ele>649.3</ele>
        <time>2018-03-31T16:38:04Z</time>
      </trkpt>
      <trkpt lat="44.4967" lon="4.05971">
        <ele>650.7</ele>
        <time>2018-03-31T16:38:12Z</time>
      </trkpt>
      <trkpt lat="44.49678" lon="4.0598">
        <ele>651.9</ele>
        <time>2018-03-31T16:38:19Z</time>
      </trkpt>
      <trkpt lat="44.49684" lon="4.0599">
        <ele>652.5</ele>
        <time>2018-03-31T16:38:25Z</time>
      </trkpt>
      <trkpt lat="44.49688" lon="4.06002">
        <ele>652.4</ele>
        <time>2018-03-31T16:38:31Z</time>
      </trkpt>
      <trkpt lat="44.49695" lon="4.06011">
        <ele>652.2</ele>
        <time>2018-03-31T16:38:38Z</time>
      </trkpt>
      <trkpt lat="44.49703" lon="4.06018">
        <ele>652.2</ele>
        <time>2018-03-31T16:38:42Z</time>
      </trkpt>
      <trkpt lat="44.49711" lon="4.06026">
        <ele>652.3</ele>
        <time>2018-03-31T16:38:46Z</time>
      </trkpt>
      <trkpt lat="44.49715" lon="4.06039">
        <ele>653.2</ele>
        <time>2018-03-31T16:38:54Z</time>
      </trkpt>
      <trkpt lat="44.49715" lon="4.06053">
        <ele>654</ele>
        <time>2018-03-31T16:39:00Z</time>
      </trkpt>
      <trkpt lat="44.49707" lon="4.06064">
        <ele>654.2</ele>
        <time>2018-03-31T16:39:04Z</time>
      </trkpt>
      <trkpt lat="44.49708" lon="4.06079">
        <ele>656.1</ele>
        <time>2018-03-31T16:39:11Z</time>
      </trkpt>
      <trkpt lat="44.49717" lon="4.06088">
        <ele>657.5</ele>
        <time>2018-03-31T16:39:16Z</time>
      </trkpt>
      <trkpt lat="44.49724" lon="4.06098">
        <ele>657.9</ele>
        <time>2018-03-31T16:39:30Z</time>
      </trkpt>
      <trkpt lat="44.49733" lon="4.06103">
        <ele>658.1</ele>
        <time>2018-03-31T16:39:41Z</time>
      </trkpt>
      <trkpt lat="44.4974" lon="4.06113">
        <ele>658.1</ele>
        <time>2018-03-31T16:40:04Z</time>
      </trkpt>
      <trkpt lat="44.49748" lon="4.06124">
        <ele>658.5</ele>
        <time>2018-03-31T16:40:10Z</time>
      </trkpt>
      <trkpt lat="44.49755" lon="4.06134">
        <ele>658.4</ele>
        <time>2018-03-31T16:40:15Z</time>
      </trkpt>
      <trkpt lat="44.49763" lon="4.06143">
        <ele>657.2</ele>
        <time>2018-03-31T16:40:20Z</time>
      </trkpt>
      <trkpt lat="44.49768" lon="4.06154">
        <ele>655</ele>
        <time>2018-03-31T16:40:47Z</time>
      </trkpt>
      <trkpt lat="44.49776" lon="4.06161">
        <ele>655.5</ele>
        <time>2018-03-31T16:41:03Z</time>
      </trkpt>
      <trkpt lat="44.49768" lon="4.06168">
        <ele>655.5</ele>
        <time>2018-03-31T16:41:14Z</time>
      </trkpt>
      <trkpt lat="44.49759" lon="4.06164">
        <ele>655.5</ele>
        <time>2018-03-31T16:41:22Z</time>
      </trkpt>
      <trkpt lat="44.49749" lon="4.06163">
        <ele>656.5</ele>
        <time>2018-03-31T16:41:35Z</time>
      </trkpt>
      <trkpt lat="44.49739" lon="4.0616">
        <ele>656.5</ele>
        <time>2018-03-31T16:41:39Z</time>
      </trkpt>
      <trkpt lat="44.4973" lon="4.06156">
        <ele>656.6</ele>
        <time>2018-03-31T16:41:49Z</time>
      </trkpt>
      <trkpt lat="44.49721" lon="4.06156">
        <ele>655.3</ele>
        <time>2018-03-31T16:41:57Z</time>
      </trkpt>
      <trkpt lat="44.49711" lon="4.06153">
        <ele>653.6</ele>
        <time>2018-03-31T16:42:02Z</time>
      </trkpt>
      <trkpt lat="44.49701" lon="4.06153">
        <ele>651.8</ele>
        <time>2018-03-31T16:42:09Z</time>
      </trkpt>
      <trkpt lat="44.49692" lon="4.06149">
        <ele>650.9</ele>
        <time>2018-03-31T16:42:15Z</time>
      </trkpt>
      <trkpt lat="44.49683" lon="4.06152">
        <ele>650.8</ele>
        <time>2018-03-31T16:42:20Z</time>
      </trkpt>
      <trkpt lat="44.49671" lon="4.06154">
        <ele>649.4</ele>
        <time>2018-03-31T16:42:24Z</time>
      </trkpt>
      <trkpt lat="44.49662" lon="4.06156">
        <ele>648.5</ele>
        <time>2018-03-31T16:42:30Z</time>
      </trkpt>
      <trkpt lat="44.49653" lon="4.0615">
        <ele>649.1</ele>
        <time>2018-03-31T16:42:36Z</time>
      </trkpt>
      <trkpt lat="44.49644" lon="4.06144">
        <ele>649.3</ele>
        <time>2018-03-31T16:42:47Z</time>
      </trkpt>
      <trkpt lat="44.49635" lon="4.06143">
        <ele>648.8</ele>
        <time>2018-03-31T16:42:59Z</time>
      </trkpt>
      <trkpt lat="44.49627" lon="4.06149">
        <ele>651</ele>
        <time>2018-03-31T16:43:13Z</time>
      </trkpt>
      <trkpt lat="44.49622" lon="4.0616">
        <ele>650.7</ele>
        <time>2018-03-31T16:43:23Z</time>
      </trkpt>
      <trkpt lat="44.49621" lon="4.06174">
        <ele>649.3</ele>
        <time>2018-03-31T16:43:29Z</time>
      </trkpt>
      <trkpt lat="44.4962" lon="4.06186">
        <ele>649.9</ele>
        <time>2018-03-31T16:43:35Z</time>
      </trkpt>
      <trkpt lat="44.49619" lon="4.06199">
        <ele>651.7</ele>
        <time>2018-03-31T16:43:47Z</time>
      </trkpt>
      <trkpt lat="44.49614" lon="4.0621">
        <ele>651.1</ele>
        <time>2018-03-31T16:43:56Z</time>
      </trkpt>
      <trkpt lat="44.49608" lon="4.0622">
        <ele>649.8</ele>
        <time>2018-03-31T16:44:06Z</time>
      </trkpt>
      <trkpt lat="44.49598" lon="4.0622">
        <ele>650.6</ele>
        <time>2018-03-31T16:44:14Z</time>
      </trkpt>
      <trkpt lat="44.49589" lon="4.06218">
        <ele>650.9</ele>
        <time>2018-03-31T16:44:25Z</time>
      </trkpt>
      <trkpt lat="44.49581" lon="4.06211">
        <ele>649.1</ele>
        <time>2018-03-31T16:44:34Z</time>
      </trkpt>
      <trkpt lat="44.49573" lon="4.06204">
        <ele>652.7</ele>
        <time>2018-03-31T16:44:47Z</time>
      </trkpt>
      <trkpt lat="44.49563" lon="4.06206">
        <ele>652</ele>
        <time>2018-03-31T16:44:57Z</time>
      </trkpt>
      <trkpt lat="44.49556" lon="4.06212">
        <ele>649.6</ele>
        <time>2018-03-31T16:45:05Z</time>
      </trkpt>
      <trkpt lat="44.49549" lon="4.06221">
        <ele>649</ele>
        <time>2018-03-31T16:45:12Z</time>
      </trkpt>
      <trkpt lat="44.49541" lon="4.06231">
        <ele>649.3</ele>
        <time>2018-03-31T16:45:18Z</time>
      </trkpt>
      <trkpt lat="44.49531" lon="4.06232">
        <ele>647.8</ele>
        <time>2018-03-31T16:45:25Z</time>
      </trkpt>
      <trkpt lat="44.49521" lon="4.0623">
        <ele>648.7</ele>
        <time>2018-03-31T16:45:33Z</time>
      </trkpt>
      <trkpt lat="44.49512" lon="4.06228">
        <ele>650.9</ele>
        <time>2018-03-31T16:45:39Z</time>
      </trkpt>
      <trkpt lat="44.49503" lon="4.06223">
        <ele>652.1</ele>
        <time>2018-03-31T16:45:44Z</time>
      </trkpt>
      <trkpt lat="44.49493" lon="4.06221">
        <ele>652.9</ele>
        <time>2018-03-31T16:45:50Z</time>
      </trkpt>
      <trkpt lat="44.49484" lon="4.06224">
        <ele>654.5</ele>
        <time>2018-03-31T16:45:57Z</time>
      </trkpt>
      <trkpt lat="44.49474" lon="4.06229">
        <ele>654.7</ele>
        <time>2018-03-31T16:46:02Z</time>
      </trkpt>
      <trkpt lat="44.49465" lon="4.06231">
        <ele>655.3</ele>
        <time>2018-03-31T16:46:13Z</time>
      </trkpt>
      <trkpt lat="44.49457" lon="4.06225">
        <ele>658.9</ele>
        <time>2018-03-31T16:46:34Z</time>
      </trkpt>
      <trkpt lat="44.49447" lon="4.06221">
        <ele>659.3</ele>
        <time>2018-03-31T16:46:43Z</time>
      </trkpt>
      <trkpt lat="44.49438" lon="4.06217">
        <ele>658.7</ele>
        <time>2018-03-31T16:46:53Z</time>
      </trkpt>
      <trkpt lat="44.49428" lon="4.06213">
        <ele>659.3</ele>
        <time>2018-03-31T16:47:02Z</time>
      </trkpt>
      <trkpt lat="44.49419" lon="4.06213">
        <ele>659.9</ele>
        <time>2018-03-31T16:47:07Z</time>
      </trkpt>
      <trkpt lat="44.49411" lon="4.06206">
        <ele>659.3</ele>
        <time>2018-03-31T16:47:11Z</time>
      </trkpt>
      <trkpt lat="44.49401" lon="4.06207">
        <ele>656.7</ele>
        <time>2018-03-31T16:47:29Z</time>
      </trkpt>
      <trkpt lat="44.49393" lon="4.06213">
        <ele>656.8</ele>
        <time>2018-03-31T16:47:38Z</time>
      </trkpt>
      <trkpt lat="44.49385" lon="4.0622">
        <ele>657.9</ele>
        <time>2018-03-31T16:47:46Z</time>
      </trkpt>
      <trkpt lat="44.49375" lon="4.06225">
        <ele>659.9</ele>
        <time>2018-03-31T16:47:56Z</time>
      </trkpt>
      <trkpt lat="44.49368" lon="4.06233">
        <ele>661.2</ele>
        <time>2018-03-31T16:48:05Z</time>
      </trkpt>
      <trkpt lat="44.49358" lon="4.06238">
        <ele>663.5</ele>
        <time>2018-03-31T16:48:16Z</time>
      </trkpt>
      <trkpt lat="44.4935" lon="4.06245">
        <ele>663.8</ele>
        <time>2018-03-31T16:48:24Z</time>
      </trkpt>
      <trkpt lat="44.49342" lon="4.06253">
        <ele>664.8</ele>
        <time>2018-03-31T16:48:33Z</time>
      </trkpt>
      <trkpt lat="44.49334" lon="4.0626">
        <ele>664.5</ele>
        <time>2018-03-31T16:48:50Z</time>
      </trkpt>
      <trkpt lat="44.49326" lon="4.06266">
        <ele>663.5</ele>
        <time>2018-03-31T16:49:01Z</time>
      </trkpt>
      <trkpt lat="44.49316" lon="4.06269">
        <ele>662.4</ele>
        <time>2018-03-31T16:49:10Z</time>
      </trkpt>
      <trkpt lat="44.49307" lon="4.06267">
        <ele>662.1</ele>
        <time>2018-03-31T16:49:19Z</time>
      </trkpt>
      <trkpt lat="44.49298" lon="4.0627">
        <ele>660</ele>
        <time>2018-03-31T16:49:29Z</time>
      </trkpt>
      <trkpt lat="44.49287" lon="4.06275">
        <ele>659.6</ele>
        <time>2018-03-31T16:49:35Z</time>
      </trkpt>
      <trkpt lat="44.49278" lon="4.06281">
        <ele>658.7</ele>
        <time>2018-03-31T16:49:39Z</time>
      </trkpt>
      <trkpt lat="44.49269" lon="4.06288">
        <ele>658.1</ele>
        <time>2018-03-31T16:49:43Z</time>
      </trkpt>
      <trkpt lat="44.4926" lon="4.06295">
        <ele>657.1</ele>
        <time>2018-03-31T16:49:47Z</time>
      </trkpt>
      <trkpt lat="44.49251" lon="4.06303">
        <ele>656.4</ele>
        <time>2018-03-31T16:49:52Z</time>
      </trkpt>
      <trkpt lat="44.49243" lon="4.06309">
        <ele>654.2</ele>
        <time>2018-03-31T16:50:10Z</time>
      </trkpt>
      <trkpt lat="44.49233" lon="4.06313">
        <ele>654.5</ele>
        <time>2018-03-31T16:50:18Z</time>
      </trkpt>
      <trkpt lat="44.49224" lon="4.06315">
        <ele>650.7</ele>
        <time>2018-03-31T16:50:28Z</time>
      </trkpt>
      <trkpt lat="44.49214" lon="4.06308">
        <ele>647.7</ele>
        <time>2018-03-31T16:50:38Z</time>
      </trkpt>
      <trkpt lat="44.49205" lon="4.06302">
        <ele>645.2</ele>
        <time>2018-03-31T16:50:43Z</time>
      </trkpt>
      <trkpt lat="44.49196" lon="4.06295">
        <ele>643.4</ele>
        <time>2018-03-31T16:50:48Z</time>
      </trkpt>
      <trkpt lat="44.49187" lon="4.06292">
        <ele>643.1</ele>
        <time>2018-03-31T16:50:52Z</time>
      </trkpt>
      <trkpt lat="44.49177" lon="4.06288">
        <ele>643.5</ele>
        <time>2018-03-31T16:50:56Z</time>
      </trkpt>
      <trkpt lat="44.49168" lon="4.06283">
        <ele>645</ele>
        <time>2018-03-31T16:51:00Z</time>
      </trkpt>
      <trkpt lat="44.49159" lon="4.06283">
        <ele>646.5</ele>
        <time>2018-03-31T16:51:06Z</time>
      </trkpt>
      <trkpt lat="44.4915" lon="4.06282">
        <ele>647.7</ele>
        <time>2018-03-31T16:51:12Z</time>
      </trkpt>
      <trkpt lat="44.4914" lon="4.06282">
        <ele>648.7</ele>
        <time>2018-03-31T16:51:20Z</time>
      </trkpt>
      <trkpt lat="44.49131" lon="4.06283">
        <ele>647.8</ele>
        <time>2018-03-31T16:51:35Z</time>
      </trkpt>
      <trkpt lat="44.49121" lon="4.06285">
        <ele>648</ele>
        <time>2018-03-31T16:51:44Z</time>
      </trkpt>
      <trkpt lat="44.49112" lon="4.06287">
        <ele>647.3</ele>
        <time>2018-03-31T16:51:53Z</time>
      </trkpt>
      <trkpt lat="44.49102" lon="4.06291">
        <ele>647.9</ele>
        <time>2018-03-31T16:52:02Z</time>
      </trkpt>
      <trkpt lat="44.49091" lon="4.06292">
        <ele>649.3</ele>
        <time>2018-03-31T16:52:08Z</time>
      </trkpt>
      <trkpt lat="44.49081" lon="4.06292">
        <ele>649.4</ele>
        <time>2018-03-31T16:52:14Z</time>
      </trkpt>
      <trkpt lat="44.49071" lon="4.06293">
        <ele>650.4</ele>
        <time>2018-03-31T16:52:20Z</time>
      </trkpt>
      <trkpt lat="44.49062" lon="4.06292">
        <ele>653.9</ele>
        <time>2018-03-31T16:52:32Z</time>
      </trkpt>
      <trkpt lat="44.49052" lon="4.06293">
        <ele>657</ele>
        <time>2018-03-31T16:52:41Z</time>
      </trkpt>
      <trkpt lat="44.49042" lon="4.06294">
        <ele>659.7</ele>
        <time>2018-03-31T16:52:49Z</time>
      </trkpt>
      <trkpt lat="44.49033" lon="4.06293">
        <ele>661.7</ele>
        <time>2018-03-31T16:52:59Z</time>
      </trkpt>
      <trkpt lat="44.49026" lon="4.06285">
        <ele>660.6</ele>
        <time>2018-03-31T16:53:06Z</time>
      </trkpt>
      <trkpt lat="44.49016" lon="4.06284">
        <ele>657.5</ele>
        <time>2018-03-31T16:53:17Z</time>
      </trkpt>
      <trkpt lat="44.49007" lon="4.0628">
        <ele>657.2</ele>
        <time>2018-03-31T16:53:25Z</time>
      </trkpt>
      <trkpt lat="44.48998" lon="4.06281">
        <ele>657.7</ele>
        <time>2018-03-31T16:53:36Z</time>
      </trkpt>
      <trkpt lat="44.48988" lon="4.06282">
        <ele>660.1</ele>
        <time>2018-03-31T16:53:45Z</time>
      </trkpt>
      <trkpt lat="44.48979" lon="4.06284">
        <ele>660.2</ele>
        <time>2018-03-31T16:53:53Z</time>
      </trkpt>
      <trkpt lat="44.48971" lon="4.06276">
        <ele>659.9</ele>
        <time>2018-03-31T16:54:02Z</time>
      </trkpt>
      <trkpt lat="44.48964" lon="4.06269">
        <ele>657.5</ele>
        <time>2018-03-31T16:54:11Z</time>
      </trkpt>
      <trkpt lat="44.48956" lon="4.06264">
        <ele>659.2</ele>
        <time>2018-03-31T16:54:17Z</time>
      </trkpt>
      <trkpt lat="44.48946" lon="4.0626">
        <ele>662.2</ele>
        <time>2018-03-31T16:54:24Z</time>
      </trkpt>
      <trkpt lat="44.48937" lon="4.06255">
        <ele>663.5</ele>
        <time>2018-03-31T16:54:31Z</time>
      </trkpt>
      <trkpt lat="44.48928" lon="4.06252">
        <ele>664.5</ele>
        <time>2018-03-31T16:54:36Z</time>
      </trkpt>
      <trkpt lat="44.48919" lon="4.06249">
        <ele>666.4</ele>
        <time>2018-03-31T16:54:43Z</time>
      </trkpt>
      <trkpt lat="44.48909" lon="4.06244">
        <ele>668.2</ele>
        <time>2018-03-31T16:54:50Z</time>
      </trkpt>
      <trkpt lat="44.489" lon="4.06242">
        <ele>669.1</ele>
        <time>2018-03-31T16:54:55Z</time>
      </trkpt>
      <trkpt lat="44.4889" lon="4.06238">
        <ele>668.8</ele>
        <time>2018-03-31T16:54:59Z</time>
      </trkpt>
      <trkpt lat="44.4888" lon="4.06233">
        <ele>667.6</ele>
        <time>2018-03-31T16:55:03Z</time>
      </trkpt>
      <trkpt lat="44.4887" lon="4.06231">
        <ele>667.3</ele>
        <time>2018-03-31T16:55:08Z</time>
      </trkpt>
      <trkpt lat="44.48861" lon="4.06228">
        <ele>669.1</ele>
        <time>2018-03-31T16:55:15Z</time>
      </trkpt>
      <trkpt lat="44.48853" lon="4.0622">
        <ele>670.4</ele>
        <time>2018-03-31T16:55:29Z</time>
      </trkpt>
      <trkpt lat="44.48842" lon="4.06219">
        <ele>668.9</ele>
        <time>2018-03-31T16:55:34Z</time>
      </trkpt>
      <trkpt lat="44.48832" lon="4.06218">
        <ele>668.9</ele>
        <time>2018-03-31T16:55:38Z</time>
      </trkpt>
      <trkpt lat="44.48822" lon="4.06213">
        <ele>669.9</ele>
        <time>2018-03-31T16:55:43Z</time>
      </trkpt>
      <trkpt lat="44.48812" lon="4.06207">
        <ele>672.2</ele>
        <time>2018-03-31T16:55:50Z</time>
      </trkpt>
      <trkpt lat="44.48803" lon="4.06198">
        <ele>672.9</ele>
        <time>2018-03-31T16:55:54Z</time>
      </trkpt>
      <trkpt lat="44.48793" lon="4.06195">
        <ele>674</ele>
        <time>2018-03-31T16:55:58Z</time>
      </trkpt>
      <trkpt lat="44.48784" lon="4.06191">
        <ele>676.4</ele>
        <time>2018-03-31T16:56:03Z</time>
      </trkpt>
      <trkpt lat="44.48773" lon="4.06186">
        <ele>677.6</ele>
        <time>2018-03-31T16:56:08Z</time>
      </trkpt>
      <trkpt lat="44.48764" lon="4.06183">
        <ele>677.3</ele>
        <time>2018-03-31T16:56:12Z</time>
      </trkpt>
      <trkpt lat="44.48756" lon="4.06179">
        <ele>676.4</ele>
        <time>2018-03-31T16:56:15Z</time>
      </trkpt>
      <trkpt lat="44.48745" lon="4.06178">
        <ele>676.4</ele>
        <time>2018-03-31T16:56:19Z</time>
      </trkpt>
      <trkpt lat="44.48735" lon="4.06174">
        <ele>678</ele>
        <time>2018-03-31T16:56:25Z</time>
      </trkpt>
      <trkpt lat="44.48726" lon="4.06169">
        <ele>678.6</ele>
        <time>2018-03-31T16:56:50Z</time>
      </trkpt>
      <trkpt lat="44.48719" lon="4.06158">
        <ele>673.1</ele>
        <time>2018-03-31T16:57:11Z</time>
      </trkpt>
      <trkpt lat="44.48711" lon="4.06157">
        <ele>671.6</ele>
        <time>2018-03-31T16:57:15Z</time>
      </trkpt>
      <trkpt lat="44.48701" lon="4.06162">
        <ele>669.3</ele>
        <time>2018-03-31T16:57:21Z</time>
      </trkpt>
      <trkpt lat="44.48692" lon="4.0617">
        <ele>667</ele>
        <time>2018-03-31T16:57:33Z</time>
      </trkpt>
      <trkpt lat="44.48685" lon="4.06178">
        <ele>665.6</ele>
        <time>2018-03-31T16:58:02Z</time>
      </trkpt>
      <trkpt lat="44.48684" lon="4.06191">
        <ele>666.3</ele>
        <time>2018-03-31T16:58:09Z</time>
      </trkpt>
      <trkpt lat="44.48685" lon="4.06204">
        <ele>668.6</ele>
        <time>2018-03-31T16:59:30Z</time>
      </trkpt>
      <trkpt lat="44.48687" lon="4.06217">
        <ele>669.4</ele>
        <time>2018-03-31T16:59:36Z</time>
      </trkpt>
      <trkpt lat="44.48688" lon="4.0623">
        <ele>671.2</ele>
        <time>2018-03-31T16:59:42Z</time>
      </trkpt>
      <trkpt lat="44.48692" lon="4.06242">
        <ele>671.4</ele>
        <time>2018-03-31T16:59:48Z</time>
      </trkpt>
      <trkpt lat="44.48697" lon="4.06254">
        <ele>670.7</ele>
        <time>2018-03-31T16:59:54Z</time>
      </trkpt>
      <trkpt lat="44.48704" lon="4.06265">
        <ele>670.6</ele>
        <time>2018-03-31T17:00:00Z</time>
      </trkpt>
      <trkpt lat="44.48711" lon="4.06273">
        <ele>671.5</ele>
        <time>2018-03-31T17:00:05Z</time>
      </trkpt>
      <trkpt lat="44.48719" lon="4.06282">
        <ele>672.1</ele>
        <time>2018-03-31T17:00:09Z</time>
      </trkpt>
      <trkpt lat="44.48726" lon="4.06289">
        <ele>672.6</ele>
        <time>2018-03-31T17:00:13Z</time>
      </trkpt>
      <trkpt lat="44.48734" lon="4.06296">
        <ele>673.6</ele>
        <time>2018-03-31T17:00:17Z</time>
      </trkpt>
      <trkpt lat="44.48742" lon="4.06305">
        <ele>674.4</ele>
        <time>2018-03-31T17:00:21Z</time>
      </trkpt>
      <trkpt lat="44.4875" lon="4.06317">
        <ele>675.2</ele>
        <time>2018-03-31T17:00:25Z</time>
      </trkpt>
      <trkpt lat="44.48757" lon="4.0633">
        <ele>675.9</ele>
        <time>2018-03-31T17:00:29Z</time>
      </trkpt>
      <trkpt lat="44.4876" lon="4.06346">
        <ele>677</ele>
        <time>2018-03-31T17:00:33Z</time>
      </trkpt>
      <trkpt lat="44.48758" lon="4.06361">
        <ele>677.3</ele>
        <time>2018-03-31T17:00:36Z</time>
      </trkpt>
      <trkpt lat="44.48758" lon="4.06373">
        <ele>677.6</ele>
        <time>2018-03-31T17:00:39Z</time>
      </trkpt>
      <trkpt lat="44.48759" lon="4.0639">
        <ele>677.8</ele>
        <time>2018-03-31T17:00:43Z</time>
      </trkpt>
      <trkpt lat="44.48762" lon="4.06405">
        <ele>678.3</ele>
        <time>2018-03-31T17:00:47Z</time>
      </trkpt>
      <trkpt lat="44.48765" lon="4.0642">
        <ele>678.5</ele>
        <time>2018-03-31T17:00:51Z</time>
      </trkpt>
      <trkpt lat="44.48769" lon="4.06435">
        <ele>679.1</ele>
        <time>2018-03-31T17:00:55Z</time>
      </trkpt>
      <trkpt lat="44.48771" lon="4.0645">
        <ele>680</ele>
        <time>2018-03-31T17:00:59Z</time>
      </trkpt>
      <trkpt lat="44.48772" lon="4.06465">
        <ele>680.7</ele>
        <time>2018-03-31T17:01:03Z</time>
      </trkpt>
      <trkpt lat="44.48772" lon="4.06482">
        <ele>681.3</ele>
        <time>2018-03-31T17:01:07Z</time>
      </trkpt>
      <trkpt lat="44.48771" lon="4.06498">
        <ele>682.3</ele>
        <time>2018-03-31T17:01:11Z</time>
      </trkpt>
      <trkpt lat="44.4877" lon="4.06514">
        <ele>683.6</ele>
        <time>2018-03-31T17:01:15Z</time>
      </trkpt>
      <trkpt lat="44.48769" lon="4.0653">
        <ele>684.7</ele>
        <time>2018-03-31T17:01:19Z</time>
      </trkpt>
      <trkpt lat="44.4877" lon="4.06545">
        <ele>685.7</ele>
        <time>2018-03-31T17:01:23Z</time>
      </trkpt>
      <trkpt lat="44.48772" lon="4.0656">
        <ele>686.9</ele>
        <time>2018-03-31T17:01:27Z</time>
      </trkpt>
      <trkpt lat="44.48774" lon="4.06575">
        <ele>688</ele>
        <time>2018-03-31T17:01:31Z</time>
      </trkpt>
      <trkpt lat="44.48769" lon="4.06586">
        <ele>688.5</ele>
        <time>2018-03-31T17:01:35Z</time>
      </trkpt>
      <trkpt lat="44.4876" lon="4.06594">
        <ele>689.3</ele>
        <time>2018-03-31T17:01:39Z</time>
      </trkpt>
      <trkpt lat="44.48752" lon="4.06604">
        <ele>689.3</ele>
        <time>2018-03-31T17:01:43Z</time>
      </trkpt>
      <trkpt lat="44.48745" lon="4.06614">
        <ele>689.8</ele>
        <time>2018-03-31T17:01:47Z</time>
      </trkpt>
      <trkpt lat="44.48735" lon="4.06617">
        <ele>689.9</ele>
        <time>2018-03-31T17:01:51Z</time>
      </trkpt>
      <trkpt lat="44.48725" lon="4.06616">
        <ele>690.3</ele>
        <time>2018-03-31T17:01:55Z</time>
      </trkpt>
      <trkpt lat="44.48716" lon="4.06609">
        <ele>691.8</ele>
        <time>2018-03-31T17:02:00Z</time>
      </trkpt>
      <trkpt lat="44.48708" lon="4.06601">
        <ele>693.6</ele>
        <time>2018-03-31T17:02:04Z</time>
      </trkpt>
      <trkpt lat="44.487" lon="4.06595">
        <ele>696.3</ele>
        <time>2018-03-31T17:02:08Z</time>
      </trkpt>
      <trkpt lat="44.48691" lon="4.066">
        <ele>697.5</ele>
        <time>2018-03-31T17:02:12Z</time>
      </trkpt>
      <trkpt lat="44.48685" lon="4.06612">
        <ele>700.3</ele>
        <time>2018-03-31T17:02:16Z</time>
      </trkpt>
      <trkpt lat="44.48684" lon="4.06628">
        <ele>700.4</ele>
        <time>2018-03-31T17:02:20Z</time>
      </trkpt>
      <trkpt lat="44.48685" lon="4.06644">
        <ele>699.9</ele>
        <time>2018-03-31T17:02:24Z</time>
      </trkpt>
      <trkpt lat="44.48687" lon="4.06661">
        <ele>699.7</ele>
        <time>2018-03-31T17:02:28Z</time>
      </trkpt>
      <trkpt lat="44.4869" lon="4.06673">
        <ele>700.1</ele>
        <time>2018-03-31T17:02:31Z</time>
      </trkpt>
      <trkpt lat="44.48692" lon="4.06686">
        <ele>700.8</ele>
        <time>2018-03-31T17:02:34Z</time>
      </trkpt>
      <trkpt lat="44.48695" lon="4.06699">
        <ele>700.9</ele>
        <time>2018-03-31T17:02:37Z</time>
      </trkpt>
      <trkpt lat="44.48698" lon="4.06712">
        <ele>701.4</ele>
        <time>2018-03-31T17:02:40Z</time>
      </trkpt>
      <trkpt lat="44.487" lon="4.06726">
        <ele>701.9</ele>
        <time>2018-03-31T17:02:43Z</time>
      </trkpt>
      <trkpt lat="44.48702" lon="4.0674">
        <ele>702.4</ele>
        <time>2018-03-31T17:02:46Z</time>
      </trkpt>
      <trkpt lat="44.48705" lon="4.06754">
        <ele>703.1</ele>
        <time>2018-03-31T17:02:49Z</time>
      </trkpt>
      <trkpt lat="44.48708" lon="4.06768">
        <ele>703.7</ele>
        <time>2018-03-31T17:02:52Z</time>
      </trkpt>
      <trkpt lat="44.48712" lon="4.06782">
        <ele>704</ele>
        <time>2018-03-31T17:02:55Z</time>
      </trkpt>
      <trkpt lat="44.48717" lon="4.06796">
        <ele>703.9</ele>
        <time>2018-03-31T17:02:58Z</time>
      </trkpt>
      <trkpt lat="44.48722" lon="4.06811">
        <ele>703.5</ele>
        <time>2018-03-31T17:03:01Z</time>
      </trkpt>
      <trkpt lat="44.48726" lon="4.06827">
        <ele>702.8</ele>
        <time>2018-03-31T17:03:04Z</time>
      </trkpt>
      <trkpt lat="44.48727" lon="4.0684">
        <ele>702.4</ele>
        <time>2018-03-31T17:03:06Z</time>
      </trkpt>
      <trkpt lat="44.48729" lon="4.06855">
        <ele>702</ele>
        <time>2018-03-31T17:03:08Z</time>
      </trkpt>
      <trkpt lat="44.48734" lon="4.06872">
        <ele>701.7</ele>
        <time>2018-03-31T17:03:10Z</time>
      </trkpt>
      <trkpt lat="44.48737" lon="4.06887">
        <ele>701.2</ele>
        <time>2018-03-31T17:03:12Z</time>
      </trkpt>
      <trkpt lat="44.48739" lon="4.06902">
        <ele>700.6</ele>
        <time>2018-03-31T17:03:14Z</time>
      </trkpt>
      <trkpt lat="44.48742" lon="4.06914">
        <ele>699</ele>
        <time>2018-03-31T17:03:16Z</time>
      </trkpt>
      <trkpt lat="44.48744" lon="4.06931">
        <ele>699.9</ele>
        <time>2018-03-31T17:03:19Z</time>
      </trkpt>
      <trkpt lat="44.48744" lon="4.06946">
        <ele>699.7</ele>
        <time>2018-03-31T17:03:22Z</time>
      </trkpt>
      <trkpt lat="44.48745" lon="4.06962">
        <ele>699.8</ele>
        <time>2018-03-31T17:03:26Z</time>
      </trkpt>
      <trkpt lat="44.48745" lon="4.06978">
        <ele>700.3</ele>
        <time>2018-03-31T17:03:30Z</time>
      </trkpt>
      <trkpt lat="44.48742" lon="4.06992">
        <ele>701.4</ele>
        <time>2018-03-31T17:03:34Z</time>
      </trkpt>
      <trkpt lat="44.48739" lon="4.07005">
        <ele>703.3</ele>
        <time>2018-03-31T17:03:38Z</time>
      </trkpt>
      <trkpt lat="44.48739" lon="4.07021">
        <ele>705</ele>
        <time>2018-03-31T17:03:42Z</time>
      </trkpt>
      <trkpt lat="44.48744" lon="4.07034">
        <ele>706.5</ele>
        <time>2018-03-31T17:03:46Z</time>
      </trkpt>
      <trkpt lat="44.48753" lon="4.07045">
        <ele>707.6</ele>
        <time>2018-03-31T17:03:50Z</time>
      </trkpt>
      <trkpt lat="44.48761" lon="4.07058">
        <ele>708.5</ele>
        <time>2018-03-31T17:03:54Z</time>
      </trkpt>
      <trkpt lat="44.48768" lon="4.07066">
        <ele>709.1</ele>
        <time>2018-03-31T17:03:57Z</time>
      </trkpt>
      <trkpt lat="44.48775" lon="4.07075">
        <ele>709.6</ele>
        <time>2018-03-31T17:04:00Z</time>
      </trkpt>
      <trkpt lat="44.48783" lon="4.07087">
        <ele>710</ele>
        <time>2018-03-31T17:04:04Z</time>
      </trkpt>
      <trkpt lat="44.48789" lon="4.07097">
        <ele>710.8</ele>
        <time>2018-03-31T17:04:07Z</time>
      </trkpt>
      <trkpt lat="44.48795" lon="4.07107">
        <ele>710</ele>
        <time>2018-03-31T17:04:10Z</time>
      </trkpt>
      <trkpt lat="44.48798" lon="4.07119">
        <ele>711.6</ele>
        <time>2018-03-31T17:04:13Z</time>
      </trkpt>
      <trkpt lat="44.48801" lon="4.07132">
        <ele>712</ele>
        <time>2018-03-31T17:04:16Z</time>
      </trkpt>
      <trkpt lat="44.48806" lon="4.07144">
        <ele>712.2</ele>
        <time>2018-03-31T17:04:19Z</time>
      </trkpt>
      <trkpt lat="44.48812" lon="4.07155">
        <ele>712</ele>
        <time>2018-03-31T17:04:22Z</time>
      </trkpt>
      <trkpt lat="44.48821" lon="4.07167">
        <ele>712</ele>
        <time>2018-03-31T17:04:26Z</time>
      </trkpt>
      <trkpt lat="44.48832" lon="4.07171">
        <ele>713.1</ele>
        <time>2018-03-31T17:04:30Z</time>
      </trkpt>
      <trkpt lat="44.48841" lon="4.07172">
        <ele>713</ele>
        <time>2018-03-31T17:04:33Z</time>
      </trkpt>
      <trkpt lat="44.48852" lon="4.0718">
        <ele>713</ele>
        <time>2018-03-31T17:04:37Z</time>
      </trkpt>
      <trkpt lat="44.48862" lon="4.07189">
        <ele>713</ele>
        <time>2018-03-31T17:04:41Z</time>
      </trkpt>
      <trkpt lat="44.48869" lon="4.07198">
        <ele>713.6</ele>
        <time>2018-03-31T17:04:44Z</time>
      </trkpt>
      <trkpt lat="44.48877" lon="4.07209">
        <ele>714</ele>
        <time>2018-03-31T17:04:47Z</time>
      </trkpt>
      <trkpt lat="44.48884" lon="4.0722">
        <ele>714.9</ele>
        <time>2018-03-31T17:04:50Z</time>
      </trkpt>
      <trkpt lat="44.4889" lon="4.07233">
        <ele>715.8</ele>
        <time>2018-03-31T17:04:54Z</time>
      </trkpt>
      <trkpt lat="44.48896" lon="4.07245">
        <ele>716.8</ele>
        <time>2018-03-31T17:04:58Z</time>
      </trkpt>
      <trkpt lat="44.48904" lon="4.07256">
        <ele>717.4</ele>
        <time>2018-03-31T17:05:02Z</time>
      </trkpt>
      <trkpt lat="44.48912" lon="4.07264">
        <ele>717.8</ele>
        <time>2018-03-31T17:05:06Z</time>
      </trkpt>
      <trkpt lat="44.48919" lon="4.07273">
        <ele>718</ele>
        <time>2018-03-31T17:05:10Z</time>
      </trkpt>
      <trkpt lat="44.48925" lon="4.07281">
        <ele>718.4</ele>
        <time>2018-03-31T17:05:14Z</time>
      </trkpt>
      <trkpt lat="44.48934" lon="4.07285">
        <ele>718.8</ele>
        <time>2018-03-31T17:05:18Z</time>
      </trkpt>
      <trkpt lat="44.48944" lon="4.07284">
        <ele>719.6</ele>
        <time>2018-03-31T17:05:22Z</time>
      </trkpt>
      <trkpt lat="44.48953" lon="4.07278">
        <ele>720.3</ele>
        <time>2018-03-31T17:05:26Z</time>
      </trkpt>
      <trkpt lat="44.48961" lon="4.07269">
        <ele>721</ele>
        <time>2018-03-31T17:05:30Z</time>
      </trkpt>
      <trkpt lat="44.48969" lon="4.07259">
        <ele>721.4</ele>
        <time>2018-03-31T17:05:34Z</time>
      </trkpt>
      <trkpt lat="44.48977" lon="4.0725">
        <ele>721.6</ele>
        <time>2018-03-31T17:05:38Z</time>
      </trkpt>
      <trkpt lat="44.48985" lon="4.07241">
        <ele>722.5</ele>
        <time>2018-03-31T17:05:42Z</time>
      </trkpt>
      <trkpt lat="44.48993" lon="4.0723">
        <ele>724.3</ele>
        <time>2018-03-31T17:05:47Z</time>
      </trkpt>
      <trkpt lat="44.48998" lon="4.07219">
        <ele>726.2</ele>
        <time>2018-03-31T17:05:51Z</time>
      </trkpt>
      <trkpt lat="44.49011" lon="4.07219">
        <ele>728</ele>
        <time>2018-03-31T17:05:57Z</time>
      </trkpt>
      <trkpt lat="44.49013" lon="4.07231">
        <ele>729.8</ele>
        <time>2018-03-31T17:06:01Z</time>
      </trkpt>
      <trkpt lat="44.49015" lon="4.07247">
        <ele>731.6</ele>
        <time>2018-03-31T17:06:07Z</time>
      </trkpt>
      <trkpt lat="44.49018" lon="4.07261">
        <ele>733</ele>
        <time>2018-03-31T17:06:11Z</time>
      </trkpt>
      <trkpt lat="44.4902" lon="4.07276">
        <ele>734.4</ele>
        <time>2018-03-31T17:06:16Z</time>
      </trkpt>
      <trkpt lat="44.4901" lon="4.07281">
        <ele>735.3</ele>
        <time>2018-03-31T17:06:21Z</time>
      </trkpt>
      <trkpt lat="44.49" lon="4.07285">
        <ele>736</ele>
        <time>2018-03-31T17:06:26Z</time>
      </trkpt>
      <trkpt lat="44.48995" lon="4.07297">
        <ele>736.5</ele>
        <time>2018-03-31T17:06:30Z</time>
      </trkpt>
      <trkpt lat="44.48993" lon="4.0731">
        <ele>736.9</ele>
        <time>2018-03-31T17:06:34Z</time>
      </trkpt>
      <trkpt lat="44.48993" lon="4.07323">
        <ele>737.1</ele>
        <time>2018-03-31T17:06:38Z</time>
      </trkpt>
      <trkpt lat="44.48994" lon="4.07337">
        <ele>737.4</ele>
        <time>2018-03-31T17:06:42Z</time>
      </trkpt>
      <trkpt lat="44.48994" lon="4.07349">
        <ele>738.9</ele>
        <time>2018-03-31T17:06:47Z</time>
      </trkpt>
      <trkpt lat="44.48985" lon="4.07354">
        <ele>739.9</ele>
        <time>2018-03-31T17:06:52Z</time>
      </trkpt>
      <trkpt lat="44.48975" lon="4.07353">
        <ele>740.3</ele>
        <time>2018-03-31T17:06:56Z</time>
      </trkpt>
      <trkpt lat="44.48963" lon="4.07355">
        <ele>740.8</ele>
        <time>2018-03-31T17:07:00Z</time>
      </trkpt>
      <trkpt lat="44.48953" lon="4.07357">
        <ele>741.2</ele>
        <time>2018-03-31T17:07:04Z</time>
      </trkpt>
      <trkpt lat="44.48944" lon="4.07359">
        <ele>741.7</ele>
        <time>2018-03-31T17:07:08Z</time>
      </trkpt>
      <trkpt lat="44.48934" lon="4.07357">
        <ele>742.4</ele>
        <time>2018-03-31T17:07:12Z</time>
      </trkpt>
      <trkpt lat="44.48925" lon="4.07352">
        <ele>742.9</ele>
        <time>2018-03-31T17:07:16Z</time>
      </trkpt>
      <trkpt lat="44.48915" lon="4.07347">
        <ele>743.5</ele>
        <time>2018-03-31T17:07:20Z</time>
      </trkpt>
      <trkpt lat="44.48905" lon="4.07347">
        <ele>744.8</ele>
        <time>2018-03-31T17:07:24Z</time>
      </trkpt>
      <trkpt lat="44.48896" lon="4.0735">
        <ele>746.2</ele>
        <time>2018-03-31T17:07:28Z</time>
      </trkpt>
      <trkpt lat="44.48886" lon="4.07353">
        <ele>747.4</ele>
        <time>2018-03-31T17:07:32Z</time>
      </trkpt>
      <trkpt lat="44.48877" lon="4.0735">
        <ele>748.5</ele>
        <time>2018-03-31T17:07:36Z</time>
      </trkpt>
      <trkpt lat="44.48868" lon="4.07342">
        <ele>750</ele>
        <time>2018-03-31T17:07:40Z</time>
      </trkpt>
      <trkpt lat="44.4886" lon="4.07335">
        <ele>751.4</ele>
        <time>2018-03-31T17:07:44Z</time>
      </trkpt>
      <trkpt lat="44.4885" lon="4.07329">
        <ele>752.5</ele>
        <time>2018-03-31T17:07:48Z</time>
      </trkpt>
      <trkpt lat="44.48842" lon="4.07323">
        <ele>753.7</ele>
        <time>2018-03-31T17:07:52Z</time>
      </trkpt>
      <trkpt lat="44.48833" lon="4.0732">
        <ele>754.8</ele>
        <time>2018-03-31T17:07:56Z</time>
      </trkpt>
      <trkpt lat="44.48822" lon="4.07317">
        <ele>755.5</ele>
        <time>2018-03-31T17:08:00Z</time>
      </trkpt>
      <trkpt lat="44.48811" lon="4.07315">
        <ele>756.2</ele>
        <time>2018-03-31T17:08:04Z</time>
      </trkpt>
      <trkpt lat="44.48801" lon="4.07314">
        <ele>756.8</ele>
        <time>2018-03-31T17:08:08Z</time>
      </trkpt>
      <trkpt lat="44.48791" lon="4.07312">
        <ele>757.7</ele>
        <time>2018-03-31T17:08:12Z</time>
      </trkpt>
      <trkpt lat="44.48781" lon="4.07309">
        <ele>758.8</ele>
        <time>2018-03-31T17:08:16Z</time>
      </trkpt>
      <trkpt lat="44.48771" lon="4.07307">
        <ele>759.9</ele>
        <time>2018-03-31T17:08:20Z</time>
      </trkpt>
      <trkpt lat="44.48761" lon="4.07304">
        <ele>760.8</ele>
        <time>2018-03-31T17:08:24Z</time>
      </trkpt>
      <trkpt lat="44.48752" lon="4.07301">
        <ele>761.7</ele>
        <time>2018-03-31T17:08:28Z</time>
      </trkpt>
      <trkpt lat="44.48743" lon="4.07302">
        <ele>763.1</ele>
        <time>2018-03-31T17:08:32Z</time>
      </trkpt>
      <trkpt lat="44.48733" lon="4.07305">
        <ele>764.3</ele>
        <time>2018-03-31T17:08:36Z</time>
      </trkpt>
      <trkpt lat="44.48725" lon="4.07312">
        <ele>764.9</ele>
        <time>2018-03-31T17:08:40Z</time>
      </trkpt>
      <trkpt lat="44.48718" lon="4.0732">
        <ele>765.9</ele>
        <time>2018-03-31T17:08:44Z</time>
      </trkpt>
      <trkpt lat="44.48712" lon="4.07329">
        <ele>767.2</ele>
        <time>2018-03-31T17:08:48Z</time>
      </trkpt>
      <trkpt lat="44.48706" lon="4.0734">
        <ele>769.1</ele>
        <time>2018-03-31T17:08:52Z</time>
      </trkpt>
      <trkpt lat="44.48701" lon="4.07351">
        <ele>770.4</ele>
        <time>2018-03-31T17:08:56Z</time>
      </trkpt>
      <trkpt lat="44.48695" lon="4.07363">
        <ele>770.8</ele>
        <time>2018-03-31T17:09:00Z</time>
      </trkpt>
      <trkpt lat="44.4869" lon="4.07375">
        <ele>771.9</ele>
        <time>2018-03-31T17:09:04Z</time>
      </trkpt>
      <trkpt lat="44.48685" lon="4.07387">
        <ele>772.9</ele>
        <time>2018-03-31T17:09:08Z</time>
      </trkpt>
      <trkpt lat="44.4868" lon="4.074">
        <ele>773.9</ele>
        <time>2018-03-31T17:09:12Z</time>
      </trkpt>
      <trkpt lat="44.48674" lon="4.07411">
        <ele>774.7</ele>
        <time>2018-03-31T17:09:16Z</time>
      </trkpt>
      <trkpt lat="44.48667" lon="4.07423">
        <ele>775.4</ele>
        <time>2018-03-31T17:09:20Z</time>
      </trkpt>
      <trkpt lat="44.48653" lon="4.07426">
        <ele>777.1</ele>
        <time>2018-03-31T17:09:27Z</time>
      </trkpt>
      <trkpt lat="44.48645" lon="4.07415">
        <ele>778.5</ele>
        <time>2018-03-31T17:09:32Z</time>
      </trkpt>
      <trkpt lat="44.48637" lon="4.07408">
        <ele>779.2</ele>
        <time>2018-03-31T17:09:36Z</time>
      </trkpt>
      <trkpt lat="44.4863" lon="4.074">
        <ele>779.6</ele>
        <time>2018-03-31T17:09:40Z</time>
      </trkpt>
      <trkpt lat="44.48622" lon="4.07392">
        <ele>780.8</ele>
        <time>2018-03-31T17:09:44Z</time>
      </trkpt>
      <trkpt lat="44.48614" lon="4.07383">
        <ele>781.8</ele>
        <time>2018-03-31T17:09:48Z</time>
      </trkpt>
      <trkpt lat="44.48606" lon="4.07376">
        <ele>782.6</ele>
        <time>2018-03-31T17:09:52Z</time>
      </trkpt>
      <trkpt lat="44.48599" lon="4.07383">
        <ele>783</ele>
        <time>2018-03-31T17:09:57Z</time>
      </trkpt>
      <trkpt lat="44.48598" lon="4.07397">
        <ele>783.8</ele>
        <time>2018-03-31T17:10:02Z</time>
      </trkpt>
      <trkpt lat="44.48591" lon="4.07406">
        <ele>785.4</ele>
        <time>2018-03-31T17:10:07Z</time>
      </trkpt>
      <trkpt lat="44.48577" lon="4.07409">
        <ele>787.2</ele>
        <time>2018-03-31T17:10:13Z</time>
      </trkpt>
      <trkpt lat="44.48568" lon="4.0741">
        <ele>788.5</ele>
        <time>2018-03-31T17:10:17Z</time>
      </trkpt>
      <trkpt lat="44.48559" lon="4.07411">
        <ele>789.5</ele>
        <time>2018-03-31T17:10:21Z</time>
      </trkpt>
      <trkpt lat="44.48548" lon="4.07413">
        <ele>789.8</ele>
        <time>2018-03-31T17:10:25Z</time>
      </trkpt>
      <trkpt lat="44.48538" lon="4.07416">
        <ele>792.5</ele>
        <time>2018-03-31T17:10:29Z</time>
      </trkpt>
      <trkpt lat="44.48528" lon="4.07419">
        <ele>793.8</ele>
        <time>2018-03-31T17:10:33Z</time>
      </trkpt>
      <trkpt lat="44.48518" lon="4.07422">
        <ele>793.1</ele>
        <time>2018-03-31T17:10:37Z</time>
      </trkpt>
      <trkpt lat="44.48507" lon="4.07424">
        <ele>793</ele>
        <time>2018-03-31T17:10:40Z</time>
      </trkpt>
      <trkpt lat="44.48497" lon="4.07423">
        <ele>792.9</ele>
        <time>2018-03-31T17:10:43Z</time>
      </trkpt>
      <trkpt lat="44.48487" lon="4.07418">
        <ele>792.7</ele>
        <time>2018-03-31T17:10:47Z</time>
      </trkpt>
      <trkpt lat="44.48479" lon="4.07412">
        <ele>793.1</ele>
        <time>2018-03-31T17:10:51Z</time>
      </trkpt>
      <trkpt lat="44.4847" lon="4.07404">
        <ele>793</ele>
        <time>2018-03-31T17:10:55Z</time>
      </trkpt>
      <trkpt lat="44.4846" lon="4.07397">
        <ele>793.5</ele>
        <time>2018-03-31T17:11:00Z</time>
      </trkpt>
      <trkpt lat="44.48451" lon="4.0739">
        <ele>794.2</ele>
        <time>2018-03-31T17:11:04Z</time>
      </trkpt>
      <trkpt lat="44.48442" lon="4.07383">
        <ele>794.7</ele>
        <time>2018-03-31T17:11:08Z</time>
      </trkpt>
      <trkpt lat="44.48434" lon="4.07377">
        <ele>795.5</ele>
        <time>2018-03-31T17:11:12Z</time>
      </trkpt>
      <trkpt lat="44.48425" lon="4.07371">
        <ele>795.8</ele>
        <time>2018-03-31T17:11:16Z</time>
      </trkpt>
      <trkpt lat="44.48418" lon="4.07364">
        <ele>795</ele>
        <time>2018-03-31T17:11:20Z</time>
      </trkpt>
      <trkpt lat="44.48409" lon="4.07356">
        <ele>795.6</ele>
        <time>2018-03-31T17:11:25Z</time>
      </trkpt>
      <trkpt lat="44.48399" lon="4.07349">
        <ele>795.9</ele>
        <time>2018-03-31T17:11:30Z</time>
      </trkpt>
      <trkpt lat="44.4839" lon="4.07343">
        <ele>797</ele>
        <time>2018-03-31T17:11:35Z</time>
      </trkpt>
      <trkpt lat="44.48379" lon="4.07338">
        <ele>797.4</ele>
        <time>2018-03-31T17:11:40Z</time>
      </trkpt>
      <trkpt lat="44.48369" lon="4.07331">
        <ele>798</ele>
        <time>2018-03-31T17:11:45Z</time>
      </trkpt>
      <trkpt lat="44.48377" lon="4.07337">
        <ele>798.7</ele>
        <time>2018-03-31T17:11:56Z</time>
      </trkpt>
      <trkpt lat="44.48388" lon="4.07344">
        <ele>798.3</ele>
        <time>2018-03-31T17:12:01Z</time>
      </trkpt>
      <trkpt lat="44.48403" lon="4.07354">
        <ele>798.1</ele>
        <time>2018-03-31T17:12:07Z</time>
      </trkpt>
      <trkpt lat="44.48412" lon="4.07364">
        <ele>797.5</ele>
        <time>2018-03-31T17:12:10Z</time>
      </trkpt>
      <trkpt lat="44.48423" lon="4.07373">
        <ele>796.4</ele>
        <time>2018-03-31T17:12:13Z</time>
      </trkpt>
      <trkpt lat="44.48431" lon="4.07379">
        <ele>795.7</ele>
        <time>2018-03-31T17:12:15Z</time>
      </trkpt>
      <trkpt lat="44.48439" lon="4.07386">
        <ele>794.9</ele>
        <time>2018-03-31T17:12:17Z</time>
      </trkpt>
      <trkpt lat="44.48451" lon="4.07395">
        <ele>793.6</ele>
        <time>2018-03-31T17:12:20Z</time>
      </trkpt>
      <trkpt lat="44.48462" lon="4.07402">
        <ele>792.7</ele>
        <time>2018-03-31T17:12:23Z</time>
      </trkpt>
      <trkpt lat="44.48472" lon="4.07408">
        <ele>792.5</ele>
        <time>2018-03-31T17:12:26Z</time>
      </trkpt>
      <trkpt lat="44.48481" lon="4.0741">
        <ele>792.1</ele>
        <time>2018-03-31T17:12:30Z</time>
      </trkpt>
      <trkpt lat="44.48486" lon="4.07411">
        <ele>792.5</ele>
        <time>2018-03-31T17:12:42Z</time>
      </trkpt>
      <trkpt lat="44.48507" lon="4.07424">
        <ele>767.1</ele>
        <time>2018-03-31T21:13:04Z</time>
      </trkpt>
      <trkpt lat="44.48604" lon="4.07537">
        <ele>773.5</ele>
        <time>2018-03-31T21:13:04Z</time>
      </trkpt>
      <trkpt lat="44.48806" lon="4.07623">
        <ele>787.2</ele>
        <time>2018-04-01T23:33:37Z</time>
      </trkpt>
      <trkpt lat="44.48863" lon="4.07693">
        <ele>790.2</ele>
        <time>2018-04-02T08:54:48Z</time>
      </trkpt>
      <trkpt lat="44.49364" lon="4.07577">
        <ele>813</ele>
        <time>2018-04-05T00:07:01Z</time>
      </trkpt>
      <trkpt lat="44.49536" lon="4.07578">
        <ele>825.6</ele>
        <time>2018-04-05T21:33:51Z</time>
      </trkpt>
      <trkpt lat="44.49633" lon="4.07637">
        <ele>837.1</ele>
        <time>2018-04-06T10:43:59Z</time>
      </trkpt>
      <trkpt lat="44.49734" lon="4.07592">
        <ele>830</ele>
        <time>2018-04-06T23:56:51Z</time>
      </trkpt>
      <trkpt lat="44.49764" lon="4.07553">
        <ele>832.3</ele>
        <time>2018-04-07T04:59:24Z</time>
      </trkpt>
      <trkpt lat="44.49785" lon="4.07558">
        <ele>816.7</ele>
        <time>2018-04-07T08:09:55Z</time>
      </trkpt>
      <trkpt lat="44.49785" lon="4.07558">
        <ele>816</ele>
        <time>2018-04-07T08:09:59Z</time>
      </trkpt>
      <trkpt lat="44.49794" lon="4.07556">
        <ele>817.4</ele>
        <time>2018-04-07T08:19:56Z</time>
      </trkpt>
      <trkpt lat="44.49785" lon="4.07559">
        <ele>820.4</ele>
        <time>2018-04-07T08:24:45Z</time>
      </trkpt>
      <trkpt lat="44.49779" lon="4.07571">
        <ele>820.5</ele>
        <time>2018-04-07T08:25:53Z</time>
      </trkpt>
      <trkpt lat="44.4977" lon="4.07569">
        <ele>819.8</ele>
        <time>2018-04-07T08:26:02Z</time>
      </trkpt>
      <trkpt lat="44.49776" lon="4.07557">
        <ele>820.7</ele>
        <time>2018-04-07T08:26:10Z</time>
      </trkpt>
      <trkpt lat="44.49769" lon="4.07566">
        <ele>821.2</ele>
        <time>2018-04-07T08:26:20Z</time>
      </trkpt>
      <trkpt lat="44.49778" lon="4.0757">
        <ele>821.1</ele>
        <time>2018-04-07T08:26:26Z</time>
      </trkpt>
      <trkpt lat="44.49783" lon="4.0756">
        <ele>821.3</ele>
        <time>2018-04-07T08:26:35Z</time>
      </trkpt>
      <trkpt lat="44.49788" lon="4.07571">
        <ele>823.4</ele>
        <time>2018-04-07T08:31:54Z</time>
      </trkpt>
      <trkpt lat="44.49799" lon="4.0757">
        <ele>821.8</ele>
        <time>2018-04-07T08:31:59Z</time>
      </trkpt>
      <trkpt lat="44.4981" lon="4.07567">
        <ele>821.1</ele>
        <time>2018-04-07T08:32:02Z</time>
      </trkpt>
      <trkpt lat="44.49819" lon="4.07563">
        <ele>819.7</ele>
        <time>2018-04-07T08:32:05Z</time>
      </trkpt>
      <trkpt lat="44.49828" lon="4.07558">
        <ele>818.3</ele>
        <time>2018-04-07T08:32:08Z</time>
      </trkpt>
      <trkpt lat="44.4984" lon="4.07555">
        <ele>816</ele>
        <time>2018-04-07T08:32:10Z</time>
      </trkpt>
      <trkpt lat="44.49851" lon="4.07552">
        <ele>814.6</ele>
        <time>2018-04-07T08:32:13Z</time>
      </trkpt>
      <trkpt lat="44.4986" lon="4.07549">
        <ele>813.2</ele>
        <time>2018-04-07T08:32:15Z</time>
      </trkpt>
      <trkpt lat="44.49869" lon="4.07545">
        <ele>811.7</ele>
        <time>2018-04-07T08:32:18Z</time>
      </trkpt>
      <trkpt lat="44.49878" lon="4.07539">
        <ele>809.6</ele>
        <time>2018-04-07T08:32:22Z</time>
      </trkpt>
      <trkpt lat="44.49887" lon="4.07532">
        <ele>806.9</ele>
        <time>2018-04-07T08:32:38Z</time>
      </trkpt>
      <trkpt lat="44.49885" lon="4.07545">
        <ele>804.9</ele>
        <time>2018-04-07T08:32:54Z</time>
      </trkpt>
      <trkpt lat="44.49881" lon="4.07559">
        <ele>803.8</ele>
        <time>2018-04-07T08:32:59Z</time>
      </trkpt>
      <trkpt lat="44.49874" lon="4.07567">
        <ele>803.1</ele>
        <time>2018-04-07T08:33:03Z</time>
      </trkpt>
      <trkpt lat="44.4987" lon="4.07581">
        <ele>802.2</ele>
        <time>2018-04-07T08:33:07Z</time>
      </trkpt>
      <trkpt lat="44.49866" lon="4.07594">
        <ele>800.4</ele>
        <time>2018-04-07T08:33:12Z</time>
      </trkpt>
      <trkpt lat="44.49862" lon="4.07606">
        <ele>798.5</ele>
        <time>2018-04-07T08:33:16Z</time>
      </trkpt>
      <trkpt lat="44.49861" lon="4.07621">
        <ele>796.8</ele>
        <time>2018-04-07T08:33:21Z</time>
      </trkpt>
      <trkpt lat="44.49858" lon="4.07636">
        <ele>795.7</ele>
        <time>2018-04-07T08:33:25Z</time>
      </trkpt>
      <trkpt lat="44.49854" lon="4.07654">
        <ele>793.9</ele>
        <time>2018-04-07T08:33:28Z</time>
      </trkpt>
      <trkpt lat="44.49852" lon="4.07666">
        <ele>792.1</ele>
        <time>2018-04-07T08:33:31Z</time>
      </trkpt>
      <trkpt lat="44.49852" lon="4.07683">
        <ele>790.1</ele>
        <time>2018-04-07T08:33:34Z</time>
      </trkpt>
      <trkpt lat="44.49849" lon="4.07699">
        <ele>787.7</ele>
        <time>2018-04-07T08:33:37Z</time>
      </trkpt>
      <trkpt lat="44.49848" lon="4.07714">
        <ele>785.7</ele>
        <time>2018-04-07T08:33:40Z</time>
      </trkpt>
      <trkpt lat="44.49844" lon="4.07727">
        <ele>783.8</ele>
        <time>2018-04-07T08:33:43Z</time>
      </trkpt>
      <trkpt lat="44.49842" lon="4.07743">
        <ele>782.1</ele>
        <time>2018-04-07T08:33:46Z</time>
      </trkpt>
      <trkpt lat="44.49841" lon="4.07757">
        <ele>780.1</ele>
        <time>2018-04-07T08:33:49Z</time>
      </trkpt>
      <trkpt lat="44.49841" lon="4.07771">
        <ele>777.8</ele>
        <time>2018-04-07T08:33:52Z</time>
      </trkpt>
      <trkpt lat="44.49842" lon="4.07788">
        <ele>775.1</ele>
        <time>2018-04-07T08:33:55Z</time>
      </trkpt>
      <trkpt lat="44.49843" lon="4.07803">
        <ele>773</ele>
        <time>2018-04-07T08:33:58Z</time>
      </trkpt>
      <trkpt lat="44.49837" lon="4.07816">
        <ele>769.8</ele>
        <time>2018-04-07T08:34:02Z</time>
      </trkpt>
      <trkpt lat="44.49838" lon="4.07829">
        <ele>767.4</ele>
        <time>2018-04-07T08:34:05Z</time>
      </trkpt>
      <trkpt lat="44.49836" lon="4.07843">
        <ele>764.7</ele>
        <time>2018-04-07T08:34:08Z</time>
      </trkpt>
      <trkpt lat="44.49836" lon="4.07858">
        <ele>762.3</ele>
        <time>2018-04-07T08:34:11Z</time>
      </trkpt>
      <trkpt lat="44.49832" lon="4.07874">
        <ele>759.8</ele>
        <time>2018-04-07T08:34:15Z</time>
      </trkpt>
      <trkpt lat="44.49831" lon="4.07889">
        <ele>758.2</ele>
        <time>2018-04-07T08:34:19Z</time>
      </trkpt>
      <trkpt lat="44.49833" lon="4.07902">
        <ele>756.9</ele>
        <time>2018-04-07T08:34:22Z</time>
      </trkpt>
      <trkpt lat="44.49831" lon="4.07919">
        <ele>755</ele>
        <time>2018-04-07T08:34:25Z</time>
      </trkpt>
      <trkpt lat="44.4983" lon="4.07932">
        <ele>753</ele>
        <time>2018-04-07T08:34:28Z</time>
      </trkpt>
      <trkpt lat="44.49823" lon="4.07948">
        <ele>751.9</ele>
        <time>2018-04-07T08:34:30Z</time>
      </trkpt>
      <trkpt lat="44.49817" lon="4.07958">
        <ele>750.6</ele>
        <time>2018-04-07T08:34:32Z</time>
      </trkpt>
      <trkpt lat="44.49811" lon="4.0797">
        <ele>749.7</ele>
        <time>2018-04-07T08:34:35Z</time>
      </trkpt>
      <trkpt lat="44.49805" lon="4.07982">
        <ele>748.5</ele>
        <time>2018-04-07T08:34:38Z</time>
      </trkpt>
      <trkpt lat="44.49798" lon="4.07997">
        <ele>747.5</ele>
        <time>2018-04-07T08:34:40Z</time>
      </trkpt>
      <trkpt lat="44.4979" lon="4.08009">
        <ele>746.5</ele>
        <time>2018-04-07T08:34:42Z</time>
      </trkpt>
      <trkpt lat="44.49779" lon="4.08023">
        <ele>744.1</ele>
        <time>2018-04-07T08:34:45Z</time>
      </trkpt>
      <trkpt lat="44.49768" lon="4.08033">
        <ele>741.5</ele>
        <time>2018-04-07T08:34:48Z</time>
      </trkpt>
      <trkpt lat="44.4976" lon="4.0804">
        <ele>739.2</ele>
        <time>2018-04-07T08:34:51Z</time>
      </trkpt>
      <trkpt lat="44.49752" lon="4.08046">
        <ele>736.9</ele>
        <time>2018-04-07T08:34:54Z</time>
      </trkpt>
      <trkpt lat="44.4974" lon="4.08054">
        <ele>733.3</ele>
        <time>2018-04-07T08:34:58Z</time>
      </trkpt>
      <trkpt lat="44.49731" lon="4.08062">
        <ele>731.7</ele>
        <time>2018-04-07T08:35:00Z</time>
      </trkpt>
      <trkpt lat="44.4972" lon="4.08071">
        <ele>729.8</ele>
        <time>2018-04-07T08:35:03Z</time>
      </trkpt>
      <trkpt lat="44.49709" lon="4.08074">
        <ele>727.7</ele>
        <time>2018-04-07T08:35:07Z</time>
      </trkpt>
      <trkpt lat="44.49703" lon="4.08085">
        <ele>725.4</ele>
        <time>2018-04-07T08:35:12Z</time>
      </trkpt>
      <trkpt lat="44.49698" lon="4.08096">
        <ele>722</ele>
        <time>2018-04-07T08:35:18Z</time>
      </trkpt>
      <trkpt lat="44.49693" lon="4.08106">
        <ele>719.9</ele>
        <time>2018-04-07T08:35:22Z</time>
      </trkpt>
      <trkpt lat="44.49689" lon="4.0812">
        <ele>716.8</ele>
        <time>2018-04-07T08:35:27Z</time>
      </trkpt>
      <trkpt lat="44.49686" lon="4.08132">
        <ele>713.6</ele>
        <time>2018-04-07T08:35:32Z</time>
      </trkpt>
      <trkpt lat="44.49679" lon="4.08143">
        <ele>710.5</ele>
        <time>2018-04-07T08:35:36Z</time>
      </trkpt>
      <trkpt lat="44.49671" lon="4.08151">
        <ele>707.3</ele>
        <time>2018-04-07T08:35:41Z</time>
      </trkpt>
      <trkpt lat="44.49663" lon="4.08162">
        <ele>703.7</ele>
        <time>2018-04-07T08:35:47Z</time>
      </trkpt>
      <trkpt lat="44.49653" lon="4.0817">
        <ele>700.4</ele>
        <time>2018-04-07T08:35:51Z</time>
      </trkpt>
      <trkpt lat="44.49646" lon="4.08178">
        <ele>698.2</ele>
        <time>2018-04-07T08:35:54Z</time>
      </trkpt>
      <trkpt lat="44.49638" lon="4.08185">
        <ele>695.5</ele>
        <time>2018-04-07T08:35:58Z</time>
      </trkpt>
      <trkpt lat="44.49631" lon="4.08194">
        <ele>693.8</ele>
        <time>2018-04-07T08:36:01Z</time>
      </trkpt>
      <trkpt lat="44.49627" lon="4.08208">
        <ele>692.6</ele>
        <time>2018-04-07T08:36:06Z</time>
      </trkpt>
      <trkpt lat="44.4962" lon="4.08218">
        <ele>692.4</ele>
        <time>2018-04-07T08:36:11Z</time>
      </trkpt>
      <trkpt lat="44.49613" lon="4.08227">
        <ele>693.7</ele>
        <time>2018-04-07T08:36:32Z</time>
      </trkpt>
      <trkpt lat="44.49604" lon="4.08232">
        <ele>694.2</ele>
        <time>2018-04-07T08:36:41Z</time>
      </trkpt>
      <trkpt lat="44.49597" lon="4.08239">
        <ele>694.7</ele>
        <time>2018-04-07T08:36:50Z</time>
      </trkpt>
      <trkpt lat="44.49593" lon="4.0825">
        <ele>694.9</ele>
        <time>2018-04-07T08:36:55Z</time>
      </trkpt>
      <trkpt lat="44.49589" lon="4.08264">
        <ele>695.1</ele>
        <time>2018-04-07T08:37:00Z</time>
      </trkpt>
      <trkpt lat="44.49586" lon="4.08276">
        <ele>695</ele>
        <time>2018-04-07T08:37:04Z</time>
      </trkpt>
      <trkpt lat="44.49586" lon="4.08289">
        <ele>695</ele>
        <time>2018-04-07T08:37:08Z</time>
      </trkpt>
      <trkpt lat="44.49587" lon="4.08305">
        <ele>694.4</ele>
        <time>2018-04-07T08:37:13Z</time>
      </trkpt>
      <trkpt lat="44.49582" lon="4.08318">
        <ele>693.5</ele>
        <time>2018-04-07T08:37:18Z</time>
      </trkpt>
      <trkpt lat="44.49573" lon="4.08324">
        <ele>692.5</ele>
        <time>2018-04-07T08:37:35Z</time>
      </trkpt>
      <trkpt lat="44.49564" lon="4.08329">
        <ele>692.3</ele>
        <time>2018-04-07T08:37:42Z</time>
      </trkpt>
      <trkpt lat="44.49555" lon="4.08334">
        <ele>691.7</ele>
        <time>2018-04-07T08:37:46Z</time>
      </trkpt>
      <trkpt lat="44.49547" lon="4.08343">
        <ele>689.3</ele>
        <time>2018-04-07T08:37:52Z</time>
      </trkpt>
      <trkpt lat="44.49538" lon="4.08352">
        <ele>687.5</ele>
        <time>2018-04-07T08:38:14Z</time>
      </trkpt>
      <trkpt lat="44.49529" lon="4.08358">
        <ele>686.4</ele>
        <time>2018-04-07T08:38:18Z</time>
      </trkpt>
      <trkpt lat="44.49522" lon="4.08367">
        <ele>684.2</ele>
        <time>2018-04-07T08:38:51Z</time>
      </trkpt>
      <trkpt lat="44.49513" lon="4.08373">
        <ele>685.1</ele>
        <time>2018-04-07T08:40:32Z</time>
      </trkpt>
      <trkpt lat="44.49505" lon="4.08384">
        <ele>684.3</ele>
        <time>2018-04-07T08:40:37Z</time>
      </trkpt>
      <trkpt lat="44.49501" lon="4.08395">
        <ele>683.1</ele>
        <time>2018-04-07T08:40:49Z</time>
      </trkpt>
      <trkpt lat="44.49496" lon="4.08406">
        <ele>682</ele>
        <time>2018-04-07T08:40:52Z</time>
      </trkpt>
      <trkpt lat="44.49489" lon="4.08418">
        <ele>680.7</ele>
        <time>2018-04-07T08:40:56Z</time>
      </trkpt>
      <trkpt lat="44.49483" lon="4.0843">
        <ele>678.6</ele>
        <time>2018-04-07T08:41:00Z</time>
      </trkpt>
      <trkpt lat="44.49477" lon="4.08445">
        <ele>676.8</ele>
        <time>2018-04-07T08:41:04Z</time>
      </trkpt>
      <trkpt lat="44.49473" lon="4.08459">
        <ele>675.1</ele>
        <time>2018-04-07T08:41:08Z</time>
      </trkpt>
      <trkpt lat="44.4947" lon="4.08472">
        <ele>673.7</ele>
        <time>2018-04-07T08:41:12Z</time>
      </trkpt>
      <trkpt lat="44.49463" lon="4.08485">
        <ele>672.5</ele>
        <time>2018-04-07T08:41:17Z</time>
      </trkpt>
      <trkpt lat="44.49454" lon="4.08493">
        <ele>671.4</ele>
        <time>2018-04-07T08:41:21Z</time>
      </trkpt>
      <trkpt lat="44.49446" lon="4.085">
        <ele>670.1</ele>
        <time>2018-04-07T08:41:25Z</time>
      </trkpt>
      <trkpt lat="44.49436" lon="4.08508">
        <ele>669</ele>
        <time>2018-04-07T08:41:28Z</time>
      </trkpt>
      <trkpt lat="44.49426" lon="4.0852">
        <ele>668.2</ele>
        <time>2018-04-07T08:41:31Z</time>
      </trkpt>
      <trkpt lat="44.49419" lon="4.08533">
        <ele>667.7</ele>
        <time>2018-04-07T08:41:34Z</time>
      </trkpt>
      <trkpt lat="44.49413" lon="4.08544">
        <ele>667.3</ele>
        <time>2018-04-07T08:41:38Z</time>
      </trkpt>
      <trkpt lat="44.49407" lon="4.08554">
        <ele>667.5</ele>
        <time>2018-04-07T08:41:42Z</time>
      </trkpt>
      <trkpt lat="44.494" lon="4.08563">
        <ele>668.3</ele>
        <time>2018-04-07T08:41:46Z</time>
      </trkpt>
      <trkpt lat="44.49393" lon="4.08573">
        <ele>669.3</ele>
        <time>2018-04-07T08:41:53Z</time>
      </trkpt>
      <trkpt lat="44.49388" lon="4.08584">
        <ele>669.8</ele>
        <time>2018-04-07T08:41:58Z</time>
      </trkpt>
      <trkpt lat="44.49384" lon="4.08596">
        <ele>670.4</ele>
        <time>2018-04-07T08:42:04Z</time>
      </trkpt>
      <trkpt lat="44.49381" lon="4.08608">
        <ele>671.9</ele>
        <time>2018-04-07T08:42:10Z</time>
      </trkpt>
      <trkpt lat="44.49375" lon="4.08623">
        <ele>672.2</ele>
        <time>2018-04-07T08:42:15Z</time>
      </trkpt>
      <trkpt lat="44.49372" lon="4.08639">
        <ele>671.6</ele>
        <time>2018-04-07T08:42:19Z</time>
      </trkpt>
      <trkpt lat="44.49372" lon="4.08654">
        <ele>671</ele>
        <time>2018-04-07T08:42:22Z</time>
      </trkpt>
      <trkpt lat="44.49374" lon="4.08668">
        <ele>670.8</ele>
        <time>2018-04-07T08:42:26Z</time>
      </trkpt>
      <trkpt lat="44.49374" lon="4.0868">
        <ele>670.9</ele>
        <time>2018-04-07T08:42:30Z</time>
      </trkpt>
      <trkpt lat="44.49374" lon="4.08696">
        <ele>671</ele>
        <time>2018-04-07T08:42:35Z</time>
      </trkpt>
      <trkpt lat="44.49374" lon="4.08709">
        <ele>671.1</ele>
        <time>2018-04-07T08:42:40Z</time>
      </trkpt>
      <trkpt lat="44.49374" lon="4.08723">
        <ele>671.3</ele>
        <time>2018-04-07T08:42:44Z</time>
      </trkpt>
      <trkpt lat="44.49373" lon="4.08736">
        <ele>670.9</ele>
        <time>2018-04-07T08:42:47Z</time>
      </trkpt>
      <trkpt lat="44.4937" lon="4.0875">
        <ele>669.9</ele>
        <time>2018-04-07T08:42:51Z</time>
      </trkpt>
      <trkpt lat="44.49362" lon="4.08757">
        <ele>668.5</ele>
        <time>2018-04-07T08:43:53Z</time>
      </trkpt>
      <trkpt lat="44.49359" lon="4.08773">
        <ele>667.1</ele>
        <time>2018-04-07T08:45:02Z</time>
      </trkpt>
      <trkpt lat="44.49361" lon="4.08787">
        <ele>666</ele>
        <time>2018-04-07T08:45:06Z</time>
      </trkpt>
      <trkpt lat="44.49366" lon="4.08801">
        <ele>663.8</ele>
        <time>2018-04-07T08:45:11Z</time>
      </trkpt>
      <trkpt lat="44.49374" lon="4.08809">
        <ele>660.7</ele>
        <time>2018-04-07T08:45:17Z</time>
      </trkpt>
      <trkpt lat="44.4938" lon="4.08819">
        <ele>658.8</ele>
        <time>2018-04-07T08:45:22Z</time>
      </trkpt>
      <trkpt lat="44.49381" lon="4.08833">
        <ele>657.6</ele>
        <time>2018-04-07T08:45:26Z</time>
      </trkpt>
      <trkpt lat="44.49385" lon="4.08846">
        <ele>657.1</ele>
        <time>2018-04-07T08:45:29Z</time>
      </trkpt>
      <trkpt lat="44.49385" lon="4.08859">
        <ele>656.6</ele>
        <time>2018-04-07T08:45:34Z</time>
      </trkpt>
      <trkpt lat="44.49386" lon="4.08872">
        <ele>655.9</ele>
        <time>2018-04-07T08:45:47Z</time>
      </trkpt>
      <trkpt lat="44.4939" lon="4.08884">
        <ele>655.5</ele>
        <time>2018-04-07T08:45:50Z</time>
      </trkpt>
      <trkpt lat="44.49394" lon="4.08897">
        <ele>655</ele>
        <time>2018-04-07T08:45:53Z</time>
      </trkpt>
      <trkpt lat="44.49399" lon="4.08908">
        <ele>654.1</ele>
        <time>2018-04-07T08:45:56Z</time>
      </trkpt>
      <trkpt lat="44.49403" lon="4.08922">
        <ele>652.8</ele>
        <time>2018-04-07T08:45:59Z</time>
      </trkpt>
      <trkpt lat="44.49406" lon="4.08936">
        <ele>651.4</ele>
        <time>2018-04-07T08:46:03Z</time>
      </trkpt>
      <trkpt lat="44.49409" lon="4.08952">
        <ele>649.9</ele>
        <time>2018-04-07T08:46:07Z</time>
      </trkpt>
      <trkpt lat="44.49413" lon="4.08967">
        <ele>648.5</ele>
        <time>2018-04-07T08:46:10Z</time>
      </trkpt>
      <trkpt lat="44.49418" lon="4.0898">
        <ele>647</ele>
        <time>2018-04-07T08:46:13Z</time>
      </trkpt>
      <trkpt lat="44.49423" lon="4.08992">
        <ele>645.8</ele>
        <time>2018-04-07T08:46:16Z</time>
      </trkpt>
      <trkpt lat="44.49428" lon="4.09003">
        <ele>645</ele>
        <time>2018-04-07T08:46:19Z</time>
      </trkpt>
      <trkpt lat="44.49434" lon="4.09014">
        <ele>644.1</ele>
        <time>2018-04-07T08:46:22Z</time>
      </trkpt>
      <trkpt lat="44.49439" lon="4.09025">
        <ele>642.7</ele>
        <time>2018-04-07T08:46:26Z</time>
      </trkpt>
      <trkpt lat="44.49432" lon="4.09036">
        <ele>639.3</ele>
        <time>2018-04-07T08:46:35Z</time>
      </trkpt>
      <trkpt lat="44.49422" lon="4.09038">
        <ele>636</ele>
        <time>2018-04-07T08:46:41Z</time>
      </trkpt>
      <trkpt lat="44.49416" lon="4.09027">
        <ele>634</ele>
        <time>2018-04-07T08:46:47Z</time>
      </trkpt>
      <trkpt lat="44.49419" lon="4.09041">
        <ele>633.3</ele>
        <time>2018-04-07T08:47:14Z</time>
      </trkpt>
      <trkpt lat="44.49421" lon="4.09054">
        <ele>633.1</ele>
        <time>2018-04-07T08:47:18Z</time>
      </trkpt>
      <trkpt lat="44.49427" lon="4.09067">
        <ele>632.5</ele>
        <time>2018-04-07T08:47:22Z</time>
      </trkpt>
      <trkpt lat="44.49432" lon="4.0908">
        <ele>631.7</ele>
        <time>2018-04-07T08:47:26Z</time>
      </trkpt>
      <trkpt lat="44.49438" lon="4.09091">
        <ele>629.5</ele>
        <time>2018-04-07T08:47:39Z</time>
      </trkpt>
      <trkpt lat="44.49443" lon="4.09101">
        <ele>627.1</ele>
        <time>2018-04-07T08:47:44Z</time>
      </trkpt>
      <trkpt lat="44.49449" lon="4.09112">
        <ele>624.4</ele>
        <time>2018-04-07T08:47:48Z</time>
      </trkpt>
      <trkpt lat="44.49455" lon="4.09125">
        <ele>622.1</ele>
        <time>2018-04-07T08:47:52Z</time>
      </trkpt>
      <trkpt lat="44.4946" lon="4.09139">
        <ele>619.9</ele>
        <time>2018-04-07T08:47:56Z</time>
      </trkpt>
      <trkpt lat="44.49465" lon="4.09153">
        <ele>618.1</ele>
        <time>2018-04-07T08:48:00Z</time>
      </trkpt>
      <trkpt lat="44.49466" lon="4.09166">
        <ele>616.6</ele>
        <time>2018-04-07T08:48:03Z</time>
      </trkpt>
      <trkpt lat="44.49467" lon="4.09183">
        <ele>614.6</ele>
        <time>2018-04-07T08:48:07Z</time>
      </trkpt>
      <trkpt lat="44.49471" lon="4.09195">
        <ele>612.7</ele>
        <time>2018-04-07T08:48:11Z</time>
      </trkpt>
      <trkpt lat="44.4948" lon="4.09206">
        <ele>610.4</ele>
        <time>2018-04-07T08:48:17Z</time>
      </trkpt>
      <trkpt lat="44.49489" lon="4.09212">
        <ele>609.2</ele>
        <time>2018-04-07T08:48:20Z</time>
      </trkpt>
      <trkpt lat="44.49499" lon="4.09214">
        <ele>608</ele>
        <time>2018-04-07T08:48:23Z</time>
      </trkpt>
      <trkpt lat="44.49508" lon="4.09212">
        <ele>606.5</ele>
        <time>2018-04-07T08:48:27Z</time>
      </trkpt>
      <trkpt lat="44.49518" lon="4.09217">
        <ele>604.4</ele>
        <time>2018-04-07T08:48:32Z</time>
      </trkpt>
      <trkpt lat="44.49527" lon="4.09219">
        <ele>602.7</ele>
        <time>2018-04-07T08:48:35Z</time>
      </trkpt>
      <trkpt lat="44.49538" lon="4.09219">
        <ele>600</ele>
        <time>2018-04-07T08:48:45Z</time>
      </trkpt>
      <trkpt lat="44.49547" lon="4.09222">
        <ele>598.3</ele>
        <time>2018-04-07T08:48:50Z</time>
      </trkpt>
      <trkpt lat="44.49558" lon="4.09224">
        <ele>596.4</ele>
        <time>2018-04-07T08:48:54Z</time>
      </trkpt>
      <trkpt lat="44.49567" lon="4.09226">
        <ele>594.9</ele>
        <time>2018-04-07T08:48:57Z</time>
      </trkpt>
      <trkpt lat="44.49577" lon="4.09229">
        <ele>593.3</ele>
        <time>2018-04-07T08:49:02Z</time>
      </trkpt>
      <trkpt lat="44.49588" lon="4.09232">
        <ele>591</ele>
        <time>2018-04-07T08:49:06Z</time>
      </trkpt>
      <trkpt lat="44.49598" lon="4.09236">
        <ele>589.8</ele>
        <time>2018-04-07T08:49:09Z</time>
      </trkpt>
      <trkpt lat="44.49609" lon="4.09243">
        <ele>588.3</ele>
        <time>2018-04-07T08:49:12Z</time>
      </trkpt>
      <trkpt lat="44.49614" lon="4.09256">
        <ele>586.7</ele>
        <time>2018-04-07T08:49:17Z</time>
      </trkpt>
      <trkpt lat="44.49614" lon="4.09269">
        <ele>585.6</ele>
        <time>2018-04-07T08:49:32Z</time>
      </trkpt>
      <trkpt lat="44.49604" lon="4.09273">
        <ele>584.9</ele>
        <time>2018-04-07T08:49:36Z</time>
      </trkpt>
      <trkpt lat="44.49595" lon="4.09275">
        <ele>582.8</ele>
        <time>2018-04-07T08:53:15Z</time>
      </trkpt>
      <trkpt lat="44.49587" lon="4.09281">
        <ele>583</ele>
        <time>2018-04-07T08:53:19Z</time>
      </trkpt>
      <trkpt lat="44.49578" lon="4.09291">
        <ele>582.4</ele>
        <time>2018-04-07T08:53:23Z</time>
      </trkpt>
      <trkpt lat="44.49571" lon="4.09301">
        <ele>582</ele>
        <time>2018-04-07T08:53:26Z</time>
      </trkpt>
      <trkpt lat="44.49566" lon="4.09314">
        <ele>581.3</ele>
        <time>2018-04-07T08:53:29Z</time>
      </trkpt>
      <trkpt lat="44.49563" lon="4.09326">
        <ele>581.1</ele>
        <time>2018-04-07T08:53:32Z</time>
      </trkpt>
      <trkpt lat="44.49559" lon="4.0934">
        <ele>580.4</ele>
        <time>2018-04-07T08:53:35Z</time>
      </trkpt>
      <trkpt lat="44.49551" lon="4.0935">
        <ele>580.3</ele>
        <time>2018-04-07T08:53:39Z</time>
      </trkpt>
      <trkpt lat="44.49544" lon="4.09358">
        <ele>580.3</ele>
        <time>2018-04-07T08:53:42Z</time>
      </trkpt>
      <trkpt lat="44.49534" lon="4.09363">
        <ele>580.3</ele>
        <time>2018-04-07T08:53:46Z</time>
      </trkpt>
      <trkpt lat="44.49523" lon="4.09369">
        <ele>580.5</ele>
        <time>2018-04-07T08:53:50Z</time>
      </trkpt>
      <trkpt lat="44.49516" lon="4.09378">
        <ele>580.8</ele>
        <time>2018-04-07T08:53:54Z</time>
      </trkpt>
      <trkpt lat="44.4951" lon="4.0939">
        <ele>581.6</ele>
        <time>2018-04-07T08:53:59Z</time>
      </trkpt>
      <trkpt lat="44.49505" lon="4.09401">
        <ele>582.7</ele>
        <time>2018-04-07T08:54:04Z</time>
      </trkpt>
      <trkpt lat="44.49499" lon="4.09413">
        <ele>584.1</ele>
        <time>2018-04-07T08:54:10Z</time>
      </trkpt>
      <trkpt lat="44.49494" lon="4.09424">
        <ele>585.5</ele>
        <time>2018-04-07T08:54:16Z</time>
      </trkpt>
      <trkpt lat="44.49488" lon="4.09437">
        <ele>586.1</ele>
        <time>2018-04-07T08:54:21Z</time>
      </trkpt>
      <trkpt lat="44.49482" lon="4.09446">
        <ele>586.3</ele>
        <time>2018-04-07T08:54:25Z</time>
      </trkpt>
      <trkpt lat="44.49474" lon="4.09454">
        <ele>586.4</ele>
        <time>2018-04-07T08:54:28Z</time>
      </trkpt>
      <trkpt lat="44.49468" lon="4.09464">
        <ele>587.1</ele>
        <time>2018-04-07T08:54:32Z</time>
      </trkpt>
      <trkpt lat="44.49459" lon="4.09471">
        <ele>587.7</ele>
        <time>2018-04-07T08:54:36Z</time>
      </trkpt>
      <trkpt lat="44.49448" lon="4.09479">
        <ele>588.2</ele>
        <time>2018-04-07T08:54:41Z</time>
      </trkpt>
      <trkpt lat="44.4944" lon="4.09486">
        <ele>588.9</ele>
        <time>2018-04-07T08:54:45Z</time>
      </trkpt>
      <trkpt lat="44.49431" lon="4.09494">
        <ele>589.6</ele>
        <time>2018-04-07T08:54:50Z</time>
      </trkpt>
      <trkpt lat="44.49422" lon="4.09499">
        <ele>590</ele>
        <time>2018-04-07T08:54:54Z</time>
      </trkpt>
      <trkpt lat="44.49413" lon="4.09507">
        <ele>590.5</ele>
        <time>2018-04-07T08:54:59Z</time>
      </trkpt>
      <trkpt lat="44.49404" lon="4.09513">
        <ele>591.5</ele>
        <time>2018-04-07T08:55:05Z</time>
      </trkpt>
      <trkpt lat="44.49394" lon="4.09515">
        <ele>592</ele>
        <time>2018-04-07T08:55:09Z</time>
      </trkpt>
      <trkpt lat="44.49384" lon="4.09515">
        <ele>593.2</ele>
        <time>2018-04-07T08:55:14Z</time>
      </trkpt>
      <trkpt lat="44.49375" lon="4.09517">
        <ele>594.2</ele>
        <time>2018-04-07T08:55:18Z</time>
      </trkpt>
      <trkpt lat="44.49366" lon="4.09519">
        <ele>594.9</ele>
        <time>2018-04-07T08:55:22Z</time>
      </trkpt>
      <trkpt lat="44.49355" lon="4.09518">
        <ele>596</ele>
        <time>2018-04-07T08:55:27Z</time>
      </trkpt>
      <trkpt lat="44.49346" lon="4.09511">
        <ele>597.8</ele>
        <time>2018-04-07T08:55:32Z</time>
      </trkpt>
      <trkpt lat="44.49337" lon="4.09506">
        <ele>599</ele>
        <time>2018-04-07T08:55:37Z</time>
      </trkpt>
      <trkpt lat="44.49327" lon="4.09505">
        <ele>599.4</ele>
        <time>2018-04-07T08:55:41Z</time>
      </trkpt>
      <trkpt lat="44.49319" lon="4.0951">
        <ele>599.4</ele>
        <time>2018-04-07T08:55:44Z</time>
      </trkpt>
      <trkpt lat="44.49308" lon="4.0952">
        <ele>599</ele>
        <time>2018-04-07T08:55:47Z</time>
      </trkpt>
      <trkpt lat="44.49296" lon="4.09531">
        <ele>598.2</ele>
        <time>2018-04-07T08:55:50Z</time>
      </trkpt>
      <trkpt lat="44.49287" lon="4.09542">
        <ele>597.8</ele>
        <time>2018-04-07T08:55:53Z</time>
      </trkpt>
      <trkpt lat="44.4928" lon="4.0955">
        <ele>597.7</ele>
        <time>2018-04-07T08:55:55Z</time>
      </trkpt>
      <trkpt lat="44.49273" lon="4.0956">
        <ele>597.4</ele>
        <time>2018-04-07T08:55:57Z</time>
      </trkpt>
      <trkpt lat="44.49266" lon="4.0957">
        <ele>597.2</ele>
        <time>2018-04-07T08:55:59Z</time>
      </trkpt>
      <trkpt lat="44.49258" lon="4.09581">
        <ele>597.1</ele>
        <time>2018-04-07T08:56:01Z</time>
      </trkpt>
      <trkpt lat="44.49251" lon="4.09589">
        <ele>597.3</ele>
        <time>2018-04-07T08:56:03Z</time>
      </trkpt>
      <trkpt lat="44.49242" lon="4.096">
        <ele>597.7</ele>
        <time>2018-04-07T08:56:06Z</time>
      </trkpt>
      <trkpt lat="44.49234" lon="4.09609">
        <ele>598.3</ele>
        <time>2018-04-07T08:56:09Z</time>
      </trkpt>
      <trkpt lat="44.49225" lon="4.09619">
        <ele>598.6</ele>
        <time>2018-04-07T08:56:12Z</time>
      </trkpt>
      <trkpt lat="44.49218" lon="4.09627">
        <ele>598.9</ele>
        <time>2018-04-07T08:56:15Z</time>
      </trkpt>
      <trkpt lat="44.49211" lon="4.09636">
        <ele>599</ele>
        <time>2018-04-07T08:56:18Z</time>
      </trkpt>
      <trkpt lat="44.49203" lon="4.09643">
        <ele>598.6</ele>
        <time>2018-04-07T08:56:21Z</time>
      </trkpt>
      <trkpt lat="44.49194" lon="4.09653">
        <ele>598</ele>
        <time>2018-04-07T08:56:24Z</time>
      </trkpt>
      <trkpt lat="44.49186" lon="4.09662">
        <ele>597.4</ele>
        <time>2018-04-07T08:56:27Z</time>
      </trkpt>
      <trkpt lat="44.49177" lon="4.09672">
        <ele>596.8</ele>
        <time>2018-04-07T08:56:30Z</time>
      </trkpt>
      <trkpt lat="44.49168" lon="4.09682">
        <ele>596.4</ele>
        <time>2018-04-07T08:56:32Z</time>
      </trkpt>
      <trkpt lat="44.4916" lon="4.09694">
        <ele>596.2</ele>
        <time>2018-04-07T08:56:35Z</time>
      </trkpt>
      <trkpt lat="44.49157" lon="4.09709">
        <ele>596.2</ele>
        <time>2018-04-07T08:56:38Z</time>
      </trkpt>
      <trkpt lat="44.49158" lon="4.09723">
        <ele>596.4</ele>
        <time>2018-04-07T08:56:40Z</time>
      </trkpt>
      <trkpt lat="44.4916" lon="4.09736">
        <ele>596.2</ele>
        <time>2018-04-07T08:56:42Z</time>
      </trkpt>
      <trkpt lat="44.49165" lon="4.09752">
        <ele>595.8</ele>
        <time>2018-04-07T08:56:45Z</time>
      </trkpt>
      <trkpt lat="44.49172" lon="4.09765">
        <ele>595.8</ele>
        <time>2018-04-07T08:56:48Z</time>
      </trkpt>
      <trkpt lat="44.49179" lon="4.09777">
        <ele>595.8</ele>
        <time>2018-04-07T08:56:51Z</time>
      </trkpt>
      <trkpt lat="44.49186" lon="4.0979">
        <ele>596</ele>
        <time>2018-04-07T08:56:54Z</time>
      </trkpt>
      <trkpt lat="44.49193" lon="4.09804">
        <ele>596.1</ele>
        <time>2018-04-07T08:56:57Z</time>
      </trkpt>
      <trkpt lat="44.492" lon="4.09818">
        <ele>596.2</ele>
        <time>2018-04-07T08:57:00Z</time>
      </trkpt>
      <trkpt lat="44.49205" lon="4.09832">
        <ele>596.4</ele>
        <time>2018-04-07T08:57:04Z</time>
      </trkpt>
      <trkpt lat="44.4921" lon="4.09843">
        <ele>597.1</ele>
        <time>2018-04-07T08:57:08Z</time>
      </trkpt>
      <trkpt lat="44.49215" lon="4.09853">
        <ele>597.6</ele>
        <time>2018-04-07T08:57:12Z</time>
      </trkpt>
      <trkpt lat="44.49219" lon="4.09867">
        <ele>598.2</ele>
        <time>2018-04-07T08:57:16Z</time>
      </trkpt>
      <trkpt lat="44.49221" lon="4.09879">
        <ele>598.7</ele>
        <time>2018-04-07T08:57:20Z</time>
      </trkpt>
      <trkpt lat="44.49225" lon="4.09892">
        <ele>599.2</ele>
        <time>2018-04-07T08:57:24Z</time>
      </trkpt>
      <trkpt lat="44.4923" lon="4.09905">
        <ele>599.9</ele>
        <time>2018-04-07T08:57:28Z</time>
      </trkpt>
      <trkpt lat="44.49234" lon="4.09918">
        <ele>600.7</ele>
        <time>2018-04-07T08:57:32Z</time>
      </trkpt>
      <trkpt lat="44.49239" lon="4.0993">
        <ele>601.6</ele>
        <time>2018-04-07T08:57:36Z</time>
      </trkpt>
      <trkpt lat="44.49235" lon="4.09942">
        <ele>602.7</ele>
        <time>2018-04-07T08:57:41Z</time>
      </trkpt>
      <trkpt lat="44.49226" lon="4.09942">
        <ele>604</ele>
        <time>2018-04-07T08:57:46Z</time>
      </trkpt>
      <trkpt lat="44.49216" lon="4.09942">
        <ele>605.2</ele>
        <time>2018-04-07T08:57:51Z</time>
      </trkpt>
      <trkpt lat="44.49207" lon="4.09946">
        <ele>606.7</ele>
        <time>2018-04-07T08:57:58Z</time>
      </trkpt>
      <trkpt lat="44.49196" lon="4.09946">
        <ele>607.9</ele>
        <time>2018-04-07T08:58:03Z</time>
      </trkpt>
      <trkpt lat="44.49187" lon="4.09951">
        <ele>609.3</ele>
        <time>2018-04-07T08:58:09Z</time>
      </trkpt>
      <trkpt lat="44.49177" lon="4.09954">
        <ele>610.5</ele>
        <time>2018-04-07T08:58:15Z</time>
      </trkpt>
      <trkpt lat="44.49166" lon="4.09958">
        <ele>611.8</ele>
        <time>2018-04-07T08:58:22Z</time>
      </trkpt>
      <trkpt lat="44.49156" lon="4.0996">
        <ele>612.9</ele>
        <time>2018-04-07T08:58:28Z</time>
      </trkpt>
      <trkpt lat="44.49147" lon="4.09962">
        <ele>614.1</ele>
        <time>2018-04-07T08:58:33Z</time>
      </trkpt>
      <trkpt lat="44.49136" lon="4.09966">
        <ele>615.6</ele>
        <time>2018-04-07T08:58:40Z</time>
      </trkpt>
      <trkpt lat="44.49127" lon="4.09968">
        <ele>617.2</ele>
        <time>2018-04-07T08:58:46Z</time>
      </trkpt>
      <trkpt lat="44.49118" lon="4.0997">
        <ele>618.5</ele>
        <time>2018-04-07T08:58:51Z</time>
      </trkpt>
      <trkpt lat="44.49109" lon="4.09972">
        <ele>619.4</ele>
        <time>2018-04-07T08:58:56Z</time>
      </trkpt>
      <trkpt lat="44.491" lon="4.09974">
        <ele>620.7</ele>
        <time>2018-04-07T08:59:02Z</time>
      </trkpt>
      <trkpt lat="44.49088" lon="4.09975">
        <ele>622.5</ele>
        <time>2018-04-07T08:59:09Z</time>
      </trkpt>
      <trkpt lat="44.49078" lon="4.09978">
        <ele>624.1</ele>
        <time>2018-04-07T08:59:15Z</time>
      </trkpt>
      <trkpt lat="44.49068" lon="4.09978">
        <ele>625.7</ele>
        <time>2018-04-07T08:59:21Z</time>
      </trkpt>
      <trkpt lat="44.4906" lon="4.09971">
        <ele>626.5</ele>
        <time>2018-04-07T08:59:26Z</time>
      </trkpt>
      <trkpt lat="44.49055" lon="4.09959">
        <ele>628</ele>
        <time>2018-04-07T08:59:33Z</time>
      </trkpt>
      <trkpt lat="44.49052" lon="4.09947">
        <ele>630.4</ele>
        <time>2018-04-07T09:00:56Z</time>
      </trkpt>
      <trkpt lat="44.4905" lon="4.09959">
        <ele>636.1</ele>
        <time>2018-04-07T09:04:55Z</time>
      </trkpt>
      <trkpt lat="44.49042" lon="4.09968">
        <ele>636.6</ele>
        <time>2018-04-07T09:05:02Z</time>
      </trkpt>
      <trkpt lat="44.49036" lon="4.09977">
        <ele>636.6</ele>
        <time>2018-04-07T09:05:07Z</time>
      </trkpt>
      <trkpt lat="44.49029" lon="4.09987">
        <ele>637.2</ele>
        <time>2018-04-07T09:05:12Z</time>
      </trkpt>
      <trkpt lat="44.49022" lon="4.09997">
        <ele>637.6</ele>
        <time>2018-04-07T09:05:18Z</time>
      </trkpt>
      <trkpt lat="44.49012" lon="4.10005">
        <ele>638.2</ele>
        <time>2018-04-07T09:05:23Z</time>
      </trkpt>
      <trkpt lat="44.49003" lon="4.10011">
        <ele>638</ele>
        <time>2018-04-07T09:05:27Z</time>
      </trkpt>
      <trkpt lat="44.48994" lon="4.10017">
        <ele>639.2</ele>
        <time>2018-04-07T09:05:37Z</time>
      </trkpt>
      <trkpt lat="44.48984" lon="4.10015">
        <ele>639.3</ele>
        <time>2018-04-07T09:05:44Z</time>
      </trkpt>
      <trkpt lat="44.48975" lon="4.10013">
        <ele>639.3</ele>
        <time>2018-04-07T09:05:47Z</time>
      </trkpt>
      <trkpt lat="44.48964" lon="4.10009">
        <ele>639.7</ele>
        <time>2018-04-07T09:05:50Z</time>
      </trkpt>
      <trkpt lat="44.48951" lon="4.10004">
        <ele>638.6</ele>
        <time>2018-04-07T09:05:53Z</time>
      </trkpt>
      <trkpt lat="44.48943" lon="4.09993">
        <ele>638</ele>
        <time>2018-04-07T09:05:55Z</time>
      </trkpt>
      <trkpt lat="44.48937" lon="4.0998">
        <ele>637.4</ele>
        <time>2018-04-07T09:05:57Z</time>
      </trkpt>
      <trkpt lat="44.48931" lon="4.09965">
        <ele>637</ele>
        <time>2018-04-07T09:05:59Z</time>
      </trkpt>
      <trkpt lat="44.48924" lon="4.09951">
        <ele>636.5</ele>
        <time>2018-04-07T09:06:01Z</time>
      </trkpt>
      <trkpt lat="44.48912" lon="4.09942">
        <ele>635.9</ele>
        <time>2018-04-07T09:06:03Z</time>
      </trkpt>
      <trkpt lat="44.489" lon="4.09948">
        <ele>635.2</ele>
        <time>2018-04-07T09:06:05Z</time>
      </trkpt>
      <trkpt lat="44.4889" lon="4.0996">
        <ele>634.5</ele>
        <time>2018-04-07T09:06:07Z</time>
      </trkpt>
      <trkpt lat="44.48881" lon="4.09973">
        <ele>633.6</ele>
        <time>2018-04-07T09:06:09Z</time>
      </trkpt>
      <trkpt lat="44.48873" lon="4.09988">
        <ele>632.8</ele>
        <time>2018-04-07T09:06:11Z</time>
      </trkpt>
      <trkpt lat="44.48867" lon="4.10005">
        <ele>632.1</ele>
        <time>2018-04-07T09:06:13Z</time>
      </trkpt>
      <trkpt lat="44.48859" lon="4.10022">
        <ele>631.3</ele>
        <time>2018-04-07T09:06:15Z</time>
      </trkpt>
      <trkpt lat="44.48856" lon="4.10042">
        <ele>630.4</ele>
        <time>2018-04-07T09:06:17Z</time>
      </trkpt>
      <trkpt lat="44.48854" lon="4.10062">
        <ele>629.4</ele>
        <time>2018-04-07T09:06:19Z</time>
      </trkpt>
      <trkpt lat="44.48853" lon="4.10081">
        <ele>628.5</ele>
        <time>2018-04-07T09:06:21Z</time>
      </trkpt>
      <trkpt lat="44.48853" lon="4.101">
        <ele>627.7</ele>
        <time>2018-04-07T09:06:23Z</time>
      </trkpt>
      <trkpt lat="44.48854" lon="4.10118">
        <ele>627.1</ele>
        <time>2018-04-07T09:06:25Z</time>
      </trkpt>
      <trkpt lat="44.48853" lon="4.10137">
        <ele>626.4</ele>
        <time>2018-04-07T09:06:27Z</time>
      </trkpt>
      <trkpt lat="44.48849" lon="4.10155">
        <ele>625.7</ele>
        <time>2018-04-07T09:06:29Z</time>
      </trkpt>
      <trkpt lat="44.48845" lon="4.10174">
        <ele>625.1</ele>
        <time>2018-04-07T09:06:31Z</time>
      </trkpt>
      <trkpt lat="44.48842" lon="4.10191">
        <ele>624.3</ele>
        <time>2018-04-07T09:06:33Z</time>
      </trkpt>
      <trkpt lat="44.4884" lon="4.10207">
        <ele>623.3</ele>
        <time>2018-04-07T09:06:36Z</time>
      </trkpt>
      <trkpt lat="44.48836" lon="4.10219">
        <ele>621.8</ele>
        <time>2018-04-07T09:06:45Z</time>
      </trkpt>
      <trkpt lat="44.48836" lon="4.10235">
        <ele>621.4</ele>
        <time>2018-04-07T09:06:50Z</time>
      </trkpt>
      <trkpt lat="44.48835" lon="4.10248">
        <ele>621</ele>
        <time>2018-04-07T09:06:53Z</time>
      </trkpt>
      <trkpt lat="44.48837" lon="4.10265">
        <ele>620.4</ele>
        <time>2018-04-07T09:06:56Z</time>
      </trkpt>
      <trkpt lat="44.48837" lon="4.10279">
        <ele>620.1</ele>
        <time>2018-04-07T09:06:58Z</time>
      </trkpt>
      <trkpt lat="44.48833" lon="4.10292">
        <ele>619.7</ele>
        <time>2018-04-07T09:07:00Z</time>
      </trkpt>
      <trkpt lat="44.48825" lon="4.10305">
        <ele>619.1</ele>
        <time>2018-04-07T09:07:02Z</time>
      </trkpt>
      <trkpt lat="44.48817" lon="4.10316">
        <ele>618.6</ele>
        <time>2018-04-07T09:07:04Z</time>
      </trkpt>
      <trkpt lat="44.48807" lon="4.10328">
        <ele>618</ele>
        <time>2018-04-07T09:07:06Z</time>
      </trkpt>
      <trkpt lat="44.48799" lon="4.10338">
        <ele>617.5</ele>
        <time>2018-04-07T09:07:08Z</time>
      </trkpt>
      <trkpt lat="44.48792" lon="4.10353">
        <ele>617.1</ele>
        <time>2018-04-07T09:07:10Z</time>
      </trkpt>
      <trkpt lat="44.48787" lon="4.10371">
        <ele>616.6</ele>
        <time>2018-04-07T09:07:12Z</time>
      </trkpt>
      <trkpt lat="44.48787" lon="4.10389">
        <ele>615.9</ele>
        <time>2018-04-07T09:07:14Z</time>
      </trkpt>
      <trkpt lat="44.48787" lon="4.10406">
        <ele>615.3</ele>
        <time>2018-04-07T09:07:16Z</time>
      </trkpt>
      <trkpt lat="44.48789" lon="4.10425">
        <ele>614.5</ele>
        <time>2018-04-07T09:07:18Z</time>
      </trkpt>
      <trkpt lat="44.4879" lon="4.10444">
        <ele>613.8</ele>
        <time>2018-04-07T09:07:20Z</time>
      </trkpt>
      <trkpt lat="44.48792" lon="4.10463">
        <ele>613.2</ele>
        <time>2018-04-07T09:07:22Z</time>
      </trkpt>
      <trkpt lat="44.48795" lon="4.10481">
        <ele>612.5</ele>
        <time>2018-04-07T09:07:24Z</time>
      </trkpt>
      <trkpt lat="44.48798" lon="4.10499">
        <ele>611.6</ele>
        <time>2018-04-07T09:07:26Z</time>
      </trkpt>
      <trkpt lat="44.48803" lon="4.10514">
        <ele>610.8</ele>
        <time>2018-04-07T09:07:28Z</time>
      </trkpt>
      <trkpt lat="44.48808" lon="4.10529">
        <ele>610.2</ele>
        <time>2018-04-07T09:07:30Z</time>
      </trkpt>
      <trkpt lat="44.48813" lon="4.10545">
        <ele>609.7</ele>
        <time>2018-04-07T09:07:32Z</time>
      </trkpt>
      <trkpt lat="44.48816" lon="4.10562">
        <ele>609.2</ele>
        <time>2018-04-07T09:07:34Z</time>
      </trkpt>
      <trkpt lat="44.4882" lon="4.10578">
        <ele>608.6</ele>
        <time>2018-04-07T09:07:36Z</time>
      </trkpt>
      <trkpt lat="44.48825" lon="4.10593">
        <ele>608</ele>
        <time>2018-04-07T09:07:38Z</time>
      </trkpt>
      <trkpt lat="44.4883" lon="4.10606">
        <ele>607.4</ele>
        <time>2018-04-07T09:07:40Z</time>
      </trkpt>
      <trkpt lat="44.48834" lon="4.1062">
        <ele>607.1</ele>
        <time>2018-04-07T09:07:42Z</time>
      </trkpt>
      <trkpt lat="44.48837" lon="4.10633">
        <ele>607</ele>
        <time>2018-04-07T09:07:44Z</time>
      </trkpt>
      <trkpt lat="44.48837" lon="4.10647">
        <ele>606.8</ele>
        <time>2018-04-07T09:07:46Z</time>
      </trkpt>
      <trkpt lat="44.48837" lon="4.10661">
        <ele>606.5</ele>
        <time>2018-04-07T09:07:48Z</time>
      </trkpt>
      <trkpt lat="44.48836" lon="4.10676">
        <ele>606.3</ele>
        <time>2018-04-07T09:07:50Z</time>
      </trkpt>
      <trkpt lat="44.48835" lon="4.10692">
        <ele>606.1</ele>
        <time>2018-04-07T09:07:52Z</time>
      </trkpt>
      <trkpt lat="44.48837" lon="4.10707">
        <ele>606.1</ele>
        <time>2018-04-07T09:07:54Z</time>
      </trkpt>
      <trkpt lat="44.48841" lon="4.10722">
        <ele>605.9</ele>
        <time>2018-04-07T09:07:56Z</time>
      </trkpt>
      <trkpt lat="44.4885" lon="4.10733">
        <ele>605.7</ele>
        <time>2018-04-07T09:07:58Z</time>
      </trkpt>
      <trkpt lat="44.48859" lon="4.10742">
        <ele>605.4</ele>
        <time>2018-04-07T09:08:00Z</time>
      </trkpt>
      <trkpt lat="44.48868" lon="4.10752">
        <ele>605.1</ele>
        <time>2018-04-07T09:08:02Z</time>
      </trkpt>
      <trkpt lat="44.48879" lon="4.10764">
        <ele>604.8</ele>
        <time>2018-04-07T09:08:04Z</time>
      </trkpt>
      <trkpt lat="44.48889" lon="4.10777">
        <ele>604.4</ele>
        <time>2018-04-07T09:08:06Z</time>
      </trkpt>
      <trkpt lat="44.48901" lon="4.10792">
        <ele>604</ele>
        <time>2018-04-07T09:08:08Z</time>
      </trkpt>
      <trkpt lat="44.48912" lon="4.10808">
        <ele>603.2</ele>
        <time>2018-04-07T09:08:10Z</time>
      </trkpt>
      <trkpt lat="44.48921" lon="4.10826">
        <ele>602.7</ele>
        <time>2018-04-07T09:08:12Z</time>
      </trkpt>
      <trkpt lat="44.48929" lon="4.10844">
        <ele>602.4</ele>
        <time>2018-04-07T09:08:14Z</time>
      </trkpt>
      <trkpt lat="44.48935" lon="4.10859">
        <ele>602.2</ele>
        <time>2018-04-07T09:08:16Z</time>
      </trkpt>
      <trkpt lat="44.48941" lon="4.10872">
        <ele>602.1</ele>
        <time>2018-04-07T09:08:18Z</time>
      </trkpt>
      <trkpt lat="44.48949" lon="4.10881">
        <ele>602.1</ele>
        <time>2018-04-07T09:08:20Z</time>
      </trkpt>
      <trkpt lat="44.48958" lon="4.10885">
        <ele>602.2</ele>
        <time>2018-04-07T09:08:23Z</time>
      </trkpt>
      <trkpt lat="44.4897" lon="4.1089">
        <ele>602.9</ele>
        <time>2018-04-07T09:08:27Z</time>
      </trkpt>
      <trkpt lat="44.48979" lon="4.10895">
        <ele>603.1</ele>
        <time>2018-04-07T09:08:30Z</time>
      </trkpt>
      <trkpt lat="44.4899" lon="4.10896">
        <ele>603.3</ele>
        <time>2018-04-07T09:08:33Z</time>
      </trkpt>
      <trkpt lat="44.49" lon="4.10893">
        <ele>603.4</ele>
        <time>2018-04-07T09:08:35Z</time>
      </trkpt>
      <trkpt lat="44.49009" lon="4.10895">
        <ele>603.6</ele>
        <time>2018-04-07T09:08:38Z</time>
      </trkpt>
      <trkpt lat="44.49019" lon="4.10896">
        <ele>604.3</ele>
        <time>2018-04-07T09:08:42Z</time>
      </trkpt>
      <trkpt lat="44.49029" lon="4.10897">
        <ele>605.4</ele>
        <time>2018-04-07T09:08:46Z</time>
      </trkpt>
      <trkpt lat="44.4904" lon="4.10896">
        <ele>606.4</ele>
        <time>2018-04-07T09:08:50Z</time>
      </trkpt>
      <trkpt lat="44.4905" lon="4.10895">
        <ele>607.8</ele>
        <time>2018-04-07T09:08:55Z</time>
      </trkpt>
      <trkpt lat="44.49059" lon="4.10892">
        <ele>608.8</ele>
        <time>2018-04-07T09:08:59Z</time>
      </trkpt>
      <trkpt lat="44.4907" lon="4.10885">
        <ele>609.8</ele>
        <time>2018-04-07T09:09:03Z</time>
      </trkpt>
      <trkpt lat="44.49079" lon="4.1088">
        <ele>610.4</ele>
        <time>2018-04-07T09:09:06Z</time>
      </trkpt>
      <trkpt lat="44.49089" lon="4.10872">
        <ele>611.1</ele>
        <time>2018-04-07T09:09:10Z</time>
      </trkpt>
      <trkpt lat="44.491" lon="4.10866">
        <ele>611.8</ele>
        <time>2018-04-07T09:09:14Z</time>
      </trkpt>
      <trkpt lat="44.49111" lon="4.1086">
        <ele>612.7</ele>
        <time>2018-04-07T09:09:18Z</time>
      </trkpt>
      <trkpt lat="44.49119" lon="4.10853">
        <ele>613.1</ele>
        <time>2018-04-07T09:09:21Z</time>
      </trkpt>
      <trkpt lat="44.49129" lon="4.10848">
        <ele>613.6</ele>
        <time>2018-04-07T09:09:24Z</time>
      </trkpt>
      <trkpt lat="44.49138" lon="4.10844">
        <ele>613.9</ele>
        <time>2018-04-07T09:09:27Z</time>
      </trkpt>
      <trkpt lat="44.49147" lon="4.10838">
        <ele>614.5</ele>
        <time>2018-04-07T09:09:30Z</time>
      </trkpt>
      <trkpt lat="44.49156" lon="4.10828">
        <ele>615.3</ele>
        <time>2018-04-07T09:09:34Z</time>
      </trkpt>
      <trkpt lat="44.49164" lon="4.10817">
        <ele>616</ele>
        <time>2018-04-07T09:09:38Z</time>
      </trkpt>
      <trkpt lat="44.4917" lon="4.10807">
        <ele>616.6</ele>
        <time>2018-04-07T09:09:41Z</time>
      </trkpt>
      <trkpt lat="44.49178" lon="4.10797">
        <ele>617</ele>
        <time>2018-04-07T09:09:44Z</time>
      </trkpt>
      <trkpt lat="44.49187" lon="4.10797">
        <ele>617.7</ele>
        <time>2018-04-07T09:09:48Z</time>
      </trkpt>
      <trkpt lat="44.49196" lon="4.10802">
        <ele>618.4</ele>
        <time>2018-04-07T09:09:52Z</time>
      </trkpt>
      <trkpt lat="44.49207" lon="4.10803">
        <ele>618.9</ele>
        <time>2018-04-07T09:09:55Z</time>
      </trkpt>
      <trkpt lat="44.49216" lon="4.10801">
        <ele>619.1</ele>
        <time>2018-04-07T09:09:57Z</time>
      </trkpt>
      <trkpt lat="44.49229" lon="4.10799">
        <ele>619.3</ele>
        <time>2018-04-07T09:10:00Z</time>
      </trkpt>
      <trkpt lat="44.49238" lon="4.10801">
        <ele>619.4</ele>
        <time>2018-04-07T09:10:03Z</time>
      </trkpt>
      <trkpt lat="44.49247" lon="4.10806">
        <ele>619.4</ele>
        <time>2018-04-07T09:10:06Z</time>
      </trkpt>
      <trkpt lat="44.49259" lon="4.10811">
        <ele>619.4</ele>
        <time>2018-04-07T09:10:09Z</time>
      </trkpt>
      <trkpt lat="44.4927" lon="4.10813">
        <ele>619.4</ele>
        <time>2018-04-07T09:10:12Z</time>
      </trkpt>
      <trkpt lat="44.49283" lon="4.10811">
        <ele>619.7</ele>
        <time>2018-04-07T09:10:15Z</time>
      </trkpt>
      <trkpt lat="44.49295" lon="4.10809">
        <ele>620</ele>
        <time>2018-04-07T09:10:18Z</time>
      </trkpt>
      <trkpt lat="44.49305" lon="4.10808">
        <ele>620.1</ele>
        <time>2018-04-07T09:10:20Z</time>
      </trkpt>
      <trkpt lat="44.49315" lon="4.10801">
        <ele>620.4</ele>
        <time>2018-04-07T09:10:23Z</time>
      </trkpt>
      <trkpt lat="44.49321" lon="4.10788">
        <ele>620.7</ele>
        <time>2018-04-07T09:10:26Z</time>
      </trkpt>
      <trkpt lat="44.49328" lon="4.10776">
        <ele>620.9</ele>
        <time>2018-04-07T09:10:29Z</time>
      </trkpt>
      <trkpt lat="44.49337" lon="4.10768">
        <ele>620.7</ele>
        <time>2018-04-07T09:10:32Z</time>
      </trkpt>
      <trkpt lat="44.49344" lon="4.10756">
        <ele>620.5</ele>
        <time>2018-04-07T09:10:35Z</time>
      </trkpt>
      <trkpt lat="44.4935" lon="4.10745">
        <ele>620.3</ele>
        <time>2018-04-07T09:10:37Z</time>
      </trkpt>
      <trkpt lat="44.49362" lon="4.10739">
        <ele>619.7</ele>
        <time>2018-04-07T09:10:41Z</time>
      </trkpt>
      <trkpt lat="44.49379" lon="4.10741">
        <ele>619.3</ele>
        <time>2018-04-07T09:10:44Z</time>
      </trkpt>
      <trkpt lat="44.49388" lon="4.10742">
        <ele>619.1</ele>
        <time>2018-04-07T09:10:45Z</time>
      </trkpt>
      <trkpt lat="44.49399" lon="4.10743">
        <ele>618.8</ele>
        <time>2018-04-07T09:10:47Z</time>
      </trkpt>
      <trkpt lat="44.49411" lon="4.10745">
        <ele>618.4</ele>
        <time>2018-04-07T09:10:49Z</time>
      </trkpt>
      <trkpt lat="44.49423" lon="4.10747">
        <ele>618</ele>
        <time>2018-04-07T09:10:51Z</time>
      </trkpt>
      <trkpt lat="44.49432" lon="4.1075">
        <ele>617.8</ele>
        <time>2018-04-07T09:10:53Z</time>
      </trkpt>
      <trkpt lat="44.49445" lon="4.10754">
        <ele>617.6</ele>
        <time>2018-04-07T09:10:56Z</time>
      </trkpt>
      <trkpt lat="44.49454" lon="4.10755">
        <ele>617.6</ele>
        <time>2018-04-07T09:10:58Z</time>
      </trkpt>
      <trkpt lat="44.49464" lon="4.10753">
        <ele>617.6</ele>
        <time>2018-04-07T09:11:01Z</time>
      </trkpt>
      <trkpt lat="44.49472" lon="4.10746">
        <ele>617.6</ele>
        <time>2018-04-07T09:11:03Z</time>
      </trkpt>
      <trkpt lat="44.49481" lon="4.1074">
        <ele>617.4</ele>
        <time>2018-04-07T09:11:05Z</time>
      </trkpt>
      <trkpt lat="44.49491" lon="4.10736">
        <ele>617.2</ele>
        <time>2018-04-07T09:11:07Z</time>
      </trkpt>
      <trkpt lat="44.49504" lon="4.10738">
        <ele>616.9</ele>
        <time>2018-04-07T09:11:10Z</time>
      </trkpt>
      <trkpt lat="44.49514" lon="4.10744">
        <ele>616.9</ele>
        <time>2018-04-07T09:11:12Z</time>
      </trkpt>
      <trkpt lat="44.4952" lon="4.10758">
        <ele>617.6</ele>
        <time>2018-04-07T09:11:16Z</time>
      </trkpt>
      <trkpt lat="44.49528" lon="4.10769">
        <ele>618.5</ele>
        <time>2018-04-07T09:11:20Z</time>
      </trkpt>
      <trkpt lat="44.49533" lon="4.10781">
        <ele>619.8</ele>
        <time>2018-04-07T09:11:24Z</time>
      </trkpt>
      <trkpt lat="44.49539" lon="4.10794">
        <ele>621.5</ele>
        <time>2018-04-07T09:11:29Z</time>
      </trkpt>
      <trkpt lat="44.49542" lon="4.10808">
        <ele>623.5</ele>
        <time>2018-04-07T09:11:35Z</time>
      </trkpt>
      <trkpt lat="44.49539" lon="4.10822">
        <ele>625.4</ele>
        <time>2018-04-07T09:11:40Z</time>
      </trkpt>
      <trkpt lat="44.49536" lon="4.10835">
        <ele>626.7</ele>
        <time>2018-04-07T09:11:44Z</time>
      </trkpt>
      <trkpt lat="44.4953" lon="4.10847">
        <ele>627.9</ele>
        <time>2018-04-07T09:11:48Z</time>
      </trkpt>
      <trkpt lat="44.49522" lon="4.10854">
        <ele>629.3</ele>
        <time>2018-04-07T09:11:52Z</time>
      </trkpt>
      <trkpt lat="44.49513" lon="4.10861">
        <ele>630.3</ele>
        <time>2018-04-07T09:11:56Z</time>
      </trkpt>
      <trkpt lat="44.49505" lon="4.10866">
        <ele>631.4</ele>
        <time>2018-04-07T09:12:00Z</time>
      </trkpt>
      <trkpt lat="44.49496" lon="4.1087">
        <ele>632.6</ele>
        <time>2018-04-07T09:12:04Z</time>
      </trkpt>
      <trkpt lat="44.49488" lon="4.10878">
        <ele>633.5</ele>
        <time>2018-04-07T09:12:08Z</time>
      </trkpt>
      <trkpt lat="44.49484" lon="4.10891">
        <ele>634.4</ele>
        <time>2018-04-07T09:12:12Z</time>
      </trkpt>
      <trkpt lat="44.49485" lon="4.10906">
        <ele>635.3</ele>
        <time>2018-04-07T09:12:16Z</time>
      </trkpt>
      <trkpt lat="44.49487" lon="4.10922">
        <ele>635.5</ele>
        <time>2018-04-07T09:12:20Z</time>
      </trkpt>
      <trkpt lat="44.49489" lon="4.10936">
        <ele>635.8</ele>
        <time>2018-04-07T09:12:24Z</time>
      </trkpt>
      <trkpt lat="44.49493" lon="4.10948">
        <ele>636.5</ele>
        <time>2018-04-07T09:12:28Z</time>
      </trkpt>
      <trkpt lat="44.49497" lon="4.1096">
        <ele>637.4</ele>
        <time>2018-04-07T09:12:32Z</time>
      </trkpt>
      <trkpt lat="44.49499" lon="4.10974">
        <ele>638.9</ele>
        <time>2018-04-07T09:12:37Z</time>
      </trkpt>
      <trkpt lat="44.49497" lon="4.10989">
        <ele>640.7</ele>
        <time>2018-04-07T09:12:43Z</time>
      </trkpt>
      <trkpt lat="44.49498" lon="4.11002">
        <ele>642.7</ele>
        <time>2018-04-07T09:12:49Z</time>
      </trkpt>
      <trkpt lat="44.49503" lon="4.11014">
        <ele>644.2</ele>
        <time>2018-04-07T09:12:55Z</time>
      </trkpt>
      <trkpt lat="44.49511" lon="4.11021">
        <ele>645.8</ele>
        <time>2018-04-07T09:13:01Z</time>
      </trkpt>
      <trkpt lat="44.49518" lon="4.1103">
        <ele>647.3</ele>
        <time>2018-04-07T09:13:07Z</time>
      </trkpt>
      <trkpt lat="44.49521" lon="4.11043">
        <ele>648.8</ele>
        <time>2018-04-07T09:13:13Z</time>
      </trkpt>
      <trkpt lat="44.49521" lon="4.11058">
        <ele>649.9</ele>
        <time>2018-04-07T09:13:19Z</time>
      </trkpt>
      <trkpt lat="44.49521" lon="4.11072">
        <ele>650.7</ele>
        <time>2018-04-07T09:13:24Z</time>
      </trkpt>
      <trkpt lat="44.49521" lon="4.11086">
        <ele>651.5</ele>
        <time>2018-04-07T09:13:29Z</time>
      </trkpt>
      <trkpt lat="44.4952" lon="4.111">
        <ele>652.3</ele>
        <time>2018-04-07T09:13:34Z</time>
      </trkpt>
      <trkpt lat="44.49514" lon="4.11115">
        <ele>653</ele>
        <time>2018-04-07T09:13:39Z</time>
      </trkpt>
      <trkpt lat="44.49507" lon="4.11126">
        <ele>653</ele>
        <time>2018-04-07T09:13:43Z</time>
      </trkpt>
      <trkpt lat="44.495" lon="4.11134">
        <ele>653.2</ele>
        <time>2018-04-07T09:13:47Z</time>
      </trkpt>
      <trkpt lat="44.49493" lon="4.11144">
        <ele>653.5</ele>
        <time>2018-04-07T09:13:51Z</time>
      </trkpt>
      <trkpt lat="44.49486" lon="4.11153">
        <ele>654.2</ele>
        <time>2018-04-07T09:13:55Z</time>
      </trkpt>
      <trkpt lat="44.49482" lon="4.11165">
        <ele>654.5</ele>
        <time>2018-04-07T09:14:00Z</time>
      </trkpt>
      <trkpt lat="44.49482" lon="4.11177">
        <ele>655.7</ele>
        <time>2018-04-07T09:14:40Z</time>
      </trkpt>
      <trkpt lat="44.49478" lon="4.1119">
        <ele>657.1</ele>
        <time>2018-04-07T09:14:48Z</time>
      </trkpt>
      <trkpt lat="44.4948" lon="4.11177">
        <ele>658.2</ele>
        <time>2018-04-07T09:15:06Z</time>
      </trkpt>
      <trkpt lat="44.49471" lon="4.11181">
        <ele>656.3</ele>
        <time>2018-04-07T09:15:21Z</time>
      </trkpt>
      <trkpt lat="44.49464" lon="4.1119">
        <ele>655.2</ele>
        <time>2018-04-07T09:15:27Z</time>
      </trkpt>
      <trkpt lat="44.49459" lon="4.11201">
        <ele>654.7</ele>
        <time>2018-04-07T09:15:31Z</time>
      </trkpt>
      <trkpt lat="44.49453" lon="4.11211">
        <ele>653.7</ele>
        <time>2018-04-07T09:15:35Z</time>
      </trkpt>
      <trkpt lat="44.49459" lon="4.112">
        <ele>653.7</ele>
        <time>2018-04-07T09:15:58Z</time>
      </trkpt>
      <trkpt lat="44.49465" lon="4.11191">
        <ele>654.6</ele>
        <time>2018-04-07T09:16:03Z</time>
      </trkpt>
      <trkpt lat="44.49472" lon="4.11181">
        <ele>655.5</ele>
        <time>2018-04-07T09:16:08Z</time>
      </trkpt>
      <trkpt lat="44.49479" lon="4.11171">
        <ele>656.7</ele>
        <time>2018-04-07T09:16:14Z</time>
      </trkpt>
      <trkpt lat="44.49479" lon="4.11184">
        <ele>658.2</ele>
        <time>2018-04-07T09:16:22Z</time>
      </trkpt>
      <trkpt lat="44.49476" lon="4.11196">
        <ele>659.6</ele>
        <time>2018-04-07T09:16:28Z</time>
      </trkpt>
      <trkpt lat="44.49477" lon="4.1121">
        <ele>661.2</ele>
        <time>2018-04-07T09:16:34Z</time>
      </trkpt>
      <trkpt lat="44.49474" lon="4.11223">
        <ele>662.1</ele>
        <time>2018-04-07T09:16:40Z</time>
      </trkpt>
      <trkpt lat="44.4947" lon="4.11237">
        <ele>663</ele>
        <time>2018-04-07T09:16:46Z</time>
      </trkpt>
      <trkpt lat="44.49466" lon="4.11249">
        <ele>663.6</ele>
        <time>2018-04-07T09:16:52Z</time>
      </trkpt>
      <trkpt lat="44.49463" lon="4.11261">
        <ele>664.9</ele>
        <time>2018-04-07T09:17:10Z</time>
      </trkpt>
      <trkpt lat="44.49456" lon="4.11272">
        <ele>665.6</ele>
        <time>2018-04-07T09:17:17Z</time>
      </trkpt>
      <trkpt lat="44.49445" lon="4.11279">
        <ele>666.1</ele>
        <time>2018-04-07T09:17:22Z</time>
      </trkpt>
      <trkpt lat="44.49435" lon="4.11284">
        <ele>666</ele>
        <time>2018-04-07T09:17:26Z</time>
      </trkpt>
      <trkpt lat="44.49426" lon="4.11286">
        <ele>665.9</ele>
        <time>2018-04-07T09:17:30Z</time>
      </trkpt>
      <trkpt lat="44.49415" lon="4.1129">
        <ele>666.2</ele>
        <time>2018-04-07T09:17:34Z</time>
      </trkpt>
      <trkpt lat="44.49406" lon="4.11297">
        <ele>666.5</ele>
        <time>2018-04-07T09:17:38Z</time>
      </trkpt>
      <trkpt lat="44.49395" lon="4.11302">
        <ele>666.9</ele>
        <time>2018-04-07T09:17:43Z</time>
      </trkpt>
      <trkpt lat="44.49388" lon="4.11311">
        <ele>667.2</ele>
        <time>2018-04-07T09:17:47Z</time>
      </trkpt>
      <trkpt lat="44.49386" lon="4.11325">
        <ele>667</ele>
        <time>2018-04-07T09:17:51Z</time>
      </trkpt>
      <trkpt lat="44.49382" lon="4.11338">
        <ele>666</ele>
        <time>2018-04-07T09:17:55Z</time>
      </trkpt>
      <trkpt lat="44.49383" lon="4.11353">
        <ele>664.7</ele>
        <time>2018-04-07T09:18:03Z</time>
      </trkpt>
      <trkpt lat="44.49379" lon="4.11368">
        <ele>664.8</ele>
        <time>2018-04-07T09:18:06Z</time>
      </trkpt>
      <trkpt lat="44.49376" lon="4.11382">
        <ele>664.9</ele>
        <time>2018-04-07T09:18:09Z</time>
      </trkpt>
      <trkpt lat="44.49379" lon="4.11396">
        <ele>665.2</ele>
        <time>2018-04-07T09:18:13Z</time>
      </trkpt>
      <trkpt lat="44.49378" lon="4.11409">
        <ele>665.7</ele>
        <time>2018-04-07T09:18:17Z</time>
      </trkpt>
      <trkpt lat="44.49376" lon="4.11421">
        <ele>666</ele>
        <time>2018-04-07T09:18:21Z</time>
      </trkpt>
      <trkpt lat="44.49368" lon="4.11432">
        <ele>666.5</ele>
        <time>2018-04-07T09:18:25Z</time>
      </trkpt>
      <trkpt lat="44.49362" lon="4.11441">
        <ele>667.6</ele>
        <time>2018-04-07T09:18:29Z</time>
      </trkpt>
      <trkpt lat="44.49355" lon="4.1145">
        <ele>668.5</ele>
        <time>2018-04-07T09:18:34Z</time>
      </trkpt>
      <trkpt lat="44.49347" lon="4.11458">
        <ele>669.8</ele>
        <time>2018-04-07T09:18:41Z</time>
      </trkpt>
      <trkpt lat="44.4934" lon="4.11469">
        <ele>670.8</ele>
        <time>2018-04-07T09:18:46Z</time>
      </trkpt>
      <trkpt lat="44.49333" lon="4.11478">
        <ele>671.6</ele>
        <time>2018-04-07T09:18:52Z</time>
      </trkpt>
      <trkpt lat="44.49324" lon="4.11484">
        <ele>672.2</ele>
        <time>2018-04-07T09:18:57Z</time>
      </trkpt>
      <trkpt lat="44.49316" lon="4.11491">
        <ele>673.2</ele>
        <time>2018-04-07T09:19:03Z</time>
      </trkpt>
      <trkpt lat="44.49308" lon="4.11497">
        <ele>674.4</ele>
        <time>2018-04-07T09:19:08Z</time>
      </trkpt>
      <trkpt lat="44.49299" lon="4.11504">
        <ele>675.3</ele>
        <time>2018-04-07T09:19:13Z</time>
      </trkpt>
      <trkpt lat="44.4929" lon="4.11513">
        <ele>675.6</ele>
        <time>2018-04-07T09:19:19Z</time>
      </trkpt>
      <trkpt lat="44.49282" lon="4.11521">
        <ele>676</ele>
        <time>2018-04-07T09:19:24Z</time>
      </trkpt>
      <trkpt lat="44.49274" lon="4.11529">
        <ele>677</ele>
        <time>2018-04-07T09:19:29Z</time>
      </trkpt>
      <trkpt lat="44.49266" lon="4.11538">
        <ele>677.8</ele>
        <time>2018-04-07T09:19:34Z</time>
      </trkpt>
      <trkpt lat="44.49259" lon="4.11548">
        <ele>678.7</ele>
        <time>2018-04-07T09:19:40Z</time>
      </trkpt>
      <trkpt lat="44.49251" lon="4.11557">
        <ele>679.7</ele>
        <time>2018-04-07T09:19:46Z</time>
      </trkpt>
      <trkpt lat="44.49246" lon="4.11569">
        <ele>680.6</ele>
        <time>2018-04-07T09:19:52Z</time>
      </trkpt>
      <trkpt lat="44.49239" lon="4.11579">
        <ele>681.8</ele>
        <time>2018-04-07T09:19:58Z</time>
      </trkpt>
      <trkpt lat="44.49232" lon="4.11588">
        <ele>682.9</ele>
        <time>2018-04-07T09:20:04Z</time>
      </trkpt>
      <trkpt lat="44.49225" lon="4.11597">
        <ele>684.1</ele>
        <time>2018-04-07T09:20:10Z</time>
      </trkpt>
      <trkpt lat="44.49219" lon="4.11605">
        <ele>685.2</ele>
        <time>2018-04-07T09:20:16Z</time>
      </trkpt>
      <trkpt lat="44.49211" lon="4.11615">
        <ele>686.1</ele>
        <time>2018-04-07T09:20:22Z</time>
      </trkpt>
      <trkpt lat="44.49203" lon="4.11622">
        <ele>686.4</ele>
        <time>2018-04-07T09:20:27Z</time>
      </trkpt>
      <trkpt lat="44.49194" lon="4.11628">
        <ele>687.1</ele>
        <time>2018-04-07T09:20:32Z</time>
      </trkpt>
      <trkpt lat="44.49185" lon="4.11635">
        <ele>687.8</ele>
        <time>2018-04-07T09:20:37Z</time>
      </trkpt>
      <trkpt lat="44.49176" lon="4.11639">
        <ele>688</ele>
        <time>2018-04-07T09:20:42Z</time>
      </trkpt>
      <trkpt lat="44.49167" lon="4.11644">
        <ele>688.5</ele>
        <time>2018-04-07T09:20:48Z</time>
      </trkpt>
      <trkpt lat="44.49159" lon="4.11652">
        <ele>689.5</ele>
        <time>2018-04-07T09:21:00Z</time>
      </trkpt>
      <trkpt lat="44.4915" lon="4.1166">
        <ele>689.8</ele>
        <time>2018-04-07T09:21:09Z</time>
      </trkpt>
      <trkpt lat="44.49142" lon="4.11669">
        <ele>689.9</ele>
        <time>2018-04-07T09:21:14Z</time>
      </trkpt>
      <trkpt lat="44.49136" lon="4.1168">
        <ele>689.8</ele>
        <time>2018-04-07T09:21:18Z</time>
      </trkpt>
      <trkpt lat="44.49128" lon="4.11692">
        <ele>689.6</ele>
        <time>2018-04-07T09:21:22Z</time>
      </trkpt>
      <trkpt lat="44.4912" lon="4.11701">
        <ele>689.4</ele>
        <time>2018-04-07T09:21:25Z</time>
      </trkpt>
      <trkpt lat="44.49112" lon="4.11711">
        <ele>688.8</ele>
        <time>2018-04-07T09:21:28Z</time>
      </trkpt>
      <trkpt lat="44.49103" lon="4.1172">
        <ele>688.1</ele>
        <time>2018-04-07T09:21:31Z</time>
      </trkpt>
      <trkpt lat="44.49098" lon="4.1173">
        <ele>687.2</ele>
        <time>2018-04-07T09:21:35Z</time>
      </trkpt>
      <trkpt lat="44.49108" lon="4.1173">
        <ele>686.9</ele>
        <time>2018-04-07T09:21:43Z</time>
      </trkpt>
      <trkpt lat="44.49116" lon="4.11723">
        <ele>687.7</ele>
        <time>2018-04-07T09:21:48Z</time>
      </trkpt>
      <trkpt lat="44.49123" lon="4.11714">
        <ele>689.3</ele>
        <time>2018-04-07T09:21:54Z</time>
      </trkpt>
      <trkpt lat="44.49131" lon="4.11704">
        <ele>691.2</ele>
        <time>2018-04-07T09:22:00Z</time>
      </trkpt>
      <trkpt lat="44.49139" lon="4.11695">
        <ele>693.2</ele>
        <time>2018-04-07T09:22:06Z</time>
      </trkpt>
      <trkpt lat="44.49147" lon="4.11687">
        <ele>694.8</ele>
        <time>2018-04-07T09:22:11Z</time>
      </trkpt>
      <trkpt lat="44.49155" lon="4.11679">
        <ele>695.8</ele>
        <time>2018-04-07T09:22:16Z</time>
      </trkpt>
      <trkpt lat="44.49165" lon="4.11674">
        <ele>696.4</ele>
        <time>2018-04-07T09:22:21Z</time>
      </trkpt>
      <trkpt lat="44.49176" lon="4.11669">
        <ele>697.3</ele>
        <time>2018-04-07T09:22:26Z</time>
      </trkpt>
      <trkpt lat="44.49186" lon="4.11666">
        <ele>698</ele>
        <time>2018-04-07T09:22:31Z</time>
      </trkpt>
      <trkpt lat="44.49195" lon="4.11664">
        <ele>698.4</ele>
        <time>2018-04-07T09:22:35Z</time>
      </trkpt>
      <trkpt lat="44.49204" lon="4.11661">
        <ele>699</ele>
        <time>2018-04-07T09:22:39Z</time>
      </trkpt>
      <trkpt lat="44.49213" lon="4.11658">
        <ele>700</ele>
        <time>2018-04-07T09:22:44Z</time>
      </trkpt>
      <trkpt lat="44.49222" lon="4.11655">
        <ele>701.5</ele>
        <time>2018-04-07T09:22:49Z</time>
      </trkpt>
      <trkpt lat="44.49232" lon="4.11651">
        <ele>702.9</ele>
        <time>2018-04-07T09:22:55Z</time>
      </trkpt>
      <trkpt lat="44.4924" lon="4.11645">
        <ele>704.1</ele>
        <time>2018-04-07T09:23:00Z</time>
      </trkpt>
      <trkpt lat="44.49249" lon="4.11641">
        <ele>705</ele>
        <time>2018-04-07T09:23:04Z</time>
      </trkpt>
      <trkpt lat="44.4926" lon="4.11633">
        <ele>706.1</ele>
        <time>2018-04-07T09:23:09Z</time>
      </trkpt>
      <trkpt lat="44.4927" lon="4.11629">
        <ele>706.5</ele>
        <time>2018-04-07T09:23:13Z</time>
      </trkpt>
      <trkpt lat="44.49279" lon="4.11625">
        <ele>707.9</ele>
        <time>2018-04-07T09:23:19Z</time>
      </trkpt>
      <trkpt lat="44.49287" lon="4.11619">
        <ele>708.7</ele>
        <time>2018-04-07T09:23:23Z</time>
      </trkpt>
      <trkpt lat="44.49296" lon="4.11613">
        <ele>709.6</ele>
        <time>2018-04-07T09:23:28Z</time>
      </trkpt>
      <trkpt lat="44.49304" lon="4.11606">
        <ele>710.5</ele>
        <time>2018-04-07T09:23:33Z</time>
      </trkpt>
      <trkpt lat="44.49313" lon="4.11601">
        <ele>711</ele>
        <time>2018-04-07T09:23:38Z</time>
      </trkpt>
      <trkpt lat="44.49322" lon="4.11596">
        <ele>711.4</ele>
        <time>2018-04-07T09:23:42Z</time>
      </trkpt>
      <trkpt lat="44.49332" lon="4.11591">
        <ele>712.5</ele>
        <time>2018-04-07T09:23:47Z</time>
      </trkpt>
      <trkpt lat="44.49342" lon="4.11589">
        <ele>713.4</ele>
        <time>2018-04-07T09:23:52Z</time>
      </trkpt>
      <trkpt lat="44.49353" lon="4.11586">
        <ele>714.6</ele>
        <time>2018-04-07T09:23:57Z</time>
      </trkpt>
      <trkpt lat="44.49363" lon="4.11583">
        <ele>715.9</ele>
        <time>2018-04-07T09:24:03Z</time>
      </trkpt>
      <trkpt lat="44.49374" lon="4.11582">
        <ele>717</ele>
        <time>2018-04-07T09:24:08Z</time>
      </trkpt>
      <trkpt lat="44.49384" lon="4.11579">
        <ele>718.1</ele>
        <time>2018-04-07T09:24:13Z</time>
      </trkpt>
      <trkpt lat="44.49394" lon="4.11578">
        <ele>719.2</ele>
        <time>2018-04-07T09:24:18Z</time>
      </trkpt>
      <trkpt lat="44.49403" lon="4.11575">
        <ele>720.2</ele>
        <time>2018-04-07T09:24:23Z</time>
      </trkpt>
      <trkpt lat="44.49413" lon="4.11573">
        <ele>721.5</ele>
        <time>2018-04-07T09:24:29Z</time>
      </trkpt>
      <trkpt lat="44.49423" lon="4.11573">
        <ele>722.5</ele>
        <time>2018-04-07T09:24:35Z</time>
      </trkpt>
      <trkpt lat="44.49432" lon="4.11572">
        <ele>723.6</ele>
        <time>2018-04-07T09:24:40Z</time>
      </trkpt>
      <trkpt lat="44.49442" lon="4.11571">
        <ele>724.7</ele>
        <time>2018-04-07T09:24:45Z</time>
      </trkpt>
      <trkpt lat="44.49452" lon="4.1157">
        <ele>725.6</ele>
        <time>2018-04-07T09:24:49Z</time>
      </trkpt>
      <trkpt lat="44.49462" lon="4.11568">
        <ele>726.4</ele>
        <time>2018-04-07T09:24:54Z</time>
      </trkpt>
      <trkpt lat="44.49472" lon="4.11566">
        <ele>727.3</ele>
        <time>2018-04-07T09:24:59Z</time>
      </trkpt>
      <trkpt lat="44.49482" lon="4.11566">
        <ele>728.8</ele>
        <time>2018-04-07T09:25:04Z</time>
      </trkpt>
      <trkpt lat="44.49489" lon="4.11574">
        <ele>730.2</ele>
        <time>2018-04-07T09:25:10Z</time>
      </trkpt>
      <trkpt lat="44.49481" lon="4.11585">
        <ele>731.3</ele>
        <time>2018-04-07T09:25:16Z</time>
      </trkpt>
      <trkpt lat="44.49478" lon="4.11598">
        <ele>732.3</ele>
        <time>2018-04-07T09:25:21Z</time>
      </trkpt>
      <trkpt lat="44.4948" lon="4.11611">
        <ele>733.2</ele>
        <time>2018-04-07T09:25:26Z</time>
      </trkpt>
      <trkpt lat="44.49484" lon="4.11623">
        <ele>734.9</ele>
        <time>2018-04-07T09:25:32Z</time>
      </trkpt>
      <trkpt lat="44.49488" lon="4.11636">
        <ele>735.8</ele>
        <time>2018-04-07T09:25:39Z</time>
      </trkpt>
      <trkpt lat="44.49495" lon="4.11643">
        <ele>735.2</ele>
        <time>2018-04-07T09:26:28Z</time>
      </trkpt>
      <trkpt lat="44.49504" lon="4.11651">
        <ele>734.8</ele>
        <time>2018-04-07T09:26:32Z</time>
      </trkpt>
      <trkpt lat="44.49513" lon="4.11659">
        <ele>734.2</ele>
        <time>2018-04-07T09:26:36Z</time>
      </trkpt>
      <trkpt lat="44.49522" lon="4.11668">
        <ele>733.2</ele>
        <time>2018-04-07T09:26:39Z</time>
      </trkpt>
      <trkpt lat="44.49531" lon="4.11674">
        <ele>731.7</ele>
        <time>2018-04-07T09:26:42Z</time>
      </trkpt>
      <trkpt lat="44.49541" lon="4.11674">
        <ele>730.7</ele>
        <time>2018-04-07T09:26:44Z</time>
      </trkpt>
      <trkpt lat="44.4955" lon="4.11674">
        <ele>729.6</ele>
        <time>2018-04-07T09:26:46Z</time>
      </trkpt>
      <trkpt lat="44.49561" lon="4.11672">
        <ele>728</ele>
        <time>2018-04-07T09:26:48Z</time>
      </trkpt>
      <trkpt lat="44.49572" lon="4.11665">
        <ele>726.2</ele>
        <time>2018-04-07T09:26:51Z</time>
      </trkpt>
      <trkpt lat="44.49584" lon="4.11661">
        <ele>725.2</ele>
        <time>2018-04-07T09:26:53Z</time>
      </trkpt>
      <trkpt lat="44.49593" lon="4.11656">
        <ele>724.5</ele>
        <time>2018-04-07T09:26:55Z</time>
      </trkpt>
      <trkpt lat="44.49603" lon="4.11652">
        <ele>724</ele>
        <time>2018-04-07T09:26:58Z</time>
      </trkpt>
      <trkpt lat="44.49611" lon="4.11646">
        <ele>723.9</ele>
        <time>2018-04-07T09:27:01Z</time>
      </trkpt>
      <trkpt lat="44.4962" lon="4.11638">
        <ele>723.9</ele>
        <time>2018-04-07T09:27:04Z</time>
      </trkpt>
      <trkpt lat="44.4963" lon="4.11634">
        <ele>723.5</ele>
        <time>2018-04-07T09:27:07Z</time>
      </trkpt>
      <trkpt lat="44.49639" lon="4.11631">
        <ele>722.7</ele>
        <time>2018-04-07T09:27:09Z</time>
      </trkpt>
      <trkpt lat="44.4965" lon="4.11633">
        <ele>721.5</ele>
        <time>2018-04-07T09:27:12Z</time>
      </trkpt>
      <trkpt lat="44.49662" lon="4.11637">
        <ele>720.4</ele>
        <time>2018-04-07T09:27:15Z</time>
      </trkpt>
      <trkpt lat="44.49671" lon="4.11634">
        <ele>719.7</ele>
        <time>2018-04-07T09:27:17Z</time>
      </trkpt>
      <trkpt lat="44.49681" lon="4.11627">
        <ele>718.9</ele>
        <time>2018-04-07T09:27:19Z</time>
      </trkpt>
      <trkpt lat="44.49693" lon="4.11622">
        <ele>718.2</ele>
        <time>2018-04-07T09:27:21Z</time>
      </trkpt>
      <trkpt lat="44.49701" lon="4.11618">
        <ele>717.7</ele>
        <time>2018-04-07T09:27:23Z</time>
      </trkpt>
      <trkpt lat="44.49714" lon="4.11612">
        <ele>717.1</ele>
        <time>2018-04-07T09:27:26Z</time>
      </trkpt>
      <trkpt lat="44.49724" lon="4.1161">
        <ele>716.9</ele>
        <time>2018-04-07T09:27:28Z</time>
      </trkpt>
      <trkpt lat="44.49733" lon="4.11605">
        <ele>716.9</ele>
        <time>2018-04-07T09:27:33Z</time>
      </trkpt>
      <trkpt lat="44.49742" lon="4.11601">
        <ele>717.5</ele>
        <time>2018-04-07T09:27:38Z</time>
      </trkpt>
      <trkpt lat="44.49753" lon="4.11601">
        <ele>718.1</ele>
        <time>2018-04-07T09:27:42Z</time>
      </trkpt>
      <trkpt lat="44.49766" lon="4.11603">
        <ele>718.7</ele>
        <time>2018-04-07T09:27:46Z</time>
      </trkpt>
      <trkpt lat="44.49775" lon="4.11605">
        <ele>719.2</ele>
        <time>2018-04-07T09:27:50Z</time>
      </trkpt>
      <trkpt lat="44.49784" lon="4.11611">
        <ele>720.5</ele>
        <time>2018-04-07T09:28:01Z</time>
      </trkpt>
      <trkpt lat="44.49793" lon="4.11616">
        <ele>721.7</ele>
        <time>2018-04-07T09:28:07Z</time>
      </trkpt>
      <trkpt lat="44.49802" lon="4.11622">
        <ele>723.1</ele>
        <time>2018-04-07T09:28:14Z</time>
      </trkpt>
      <trkpt lat="44.49812" lon="4.11623">
        <ele>724.2</ele>
        <time>2018-04-07T09:28:20Z</time>
      </trkpt>
      <trkpt lat="44.49823" lon="4.11625">
        <ele>725.2</ele>
        <time>2018-04-07T09:28:26Z</time>
      </trkpt>
      <trkpt lat="44.49832" lon="4.11629">
        <ele>725.7</ele>
        <time>2018-04-07T09:28:31Z</time>
      </trkpt>
      <trkpt lat="44.49842" lon="4.11631">
        <ele>726</ele>
        <time>2018-04-07T09:28:37Z</time>
      </trkpt>
      <trkpt lat="44.49853" lon="4.11634">
        <ele>725.6</ele>
        <time>2018-04-07T09:28:41Z</time>
      </trkpt>
      <trkpt lat="44.49861" lon="4.11642">
        <ele>725.2</ele>
        <time>2018-04-07T09:28:44Z</time>
      </trkpt>
      <trkpt lat="44.49869" lon="4.11651">
        <ele>724.7</ele>
        <time>2018-04-07T09:28:47Z</time>
      </trkpt>
      <trkpt lat="44.49878" lon="4.11662">
        <ele>724.7</ele>
        <time>2018-04-07T09:28:51Z</time>
      </trkpt>
      <trkpt lat="44.49886" lon="4.11672">
        <ele>724.8</ele>
        <time>2018-04-07T09:28:55Z</time>
      </trkpt>
      <trkpt lat="44.49888" lon="4.11684">
        <ele>725.1</ele>
        <time>2018-04-07T09:29:00Z</time>
      </trkpt>
      <trkpt lat="44.49888" lon="4.11698">
        <ele>725</ele>
        <time>2018-04-07T09:29:05Z</time>
      </trkpt>
      <trkpt lat="44.49895" lon="4.1171">
        <ele>726</ele>
        <time>2018-04-07T09:29:13Z</time>
      </trkpt>
      <trkpt lat="44.49906" lon="4.11722">
        <ele>728</ele>
        <time>2018-04-07T09:29:22Z</time>
      </trkpt>
      <trkpt lat="44.49913" lon="4.11729">
        <ele>730</ele>
        <time>2018-04-07T09:29:28Z</time>
      </trkpt>
      <trkpt lat="44.49922" lon="4.11735">
        <ele>731.9</ele>
        <time>2018-04-07T09:29:36Z</time>
      </trkpt>
      <trkpt lat="44.49933" lon="4.11739">
        <ele>733.5</ele>
        <time>2018-04-07T09:29:43Z</time>
      </trkpt>
      <trkpt lat="44.49947" lon="4.11742">
        <ele>734.5</ele>
        <time>2018-04-07T09:29:51Z</time>
      </trkpt>
      <trkpt lat="44.49957" lon="4.1174">
        <ele>735.9</ele>
        <time>2018-04-07T09:29:58Z</time>
      </trkpt>
      <trkpt lat="44.49967" lon="4.11736">
        <ele>736.6</ele>
        <time>2018-04-07T09:30:03Z</time>
      </trkpt>
      <trkpt lat="44.49976" lon="4.11733">
        <ele>737.5</ele>
        <time>2018-04-07T09:30:10Z</time>
      </trkpt>
      <trkpt lat="44.49986" lon="4.1173">
        <ele>738.4</ele>
        <time>2018-04-07T09:30:16Z</time>
      </trkpt>
      <trkpt lat="44.49994" lon="4.11723">
        <ele>739.5</ele>
        <time>2018-04-07T09:30:23Z</time>
      </trkpt>
      <trkpt lat="44.50003" lon="4.11718">
        <ele>740.2</ele>
        <time>2018-04-07T09:30:30Z</time>
      </trkpt>
      <trkpt lat="44.50011" lon="4.11711">
        <ele>741.4</ele>
        <time>2018-04-07T09:30:37Z</time>
      </trkpt>
      <trkpt lat="44.50019" lon="4.11705">
        <ele>743</ele>
        <time>2018-04-07T09:30:45Z</time>
      </trkpt>
      <trkpt lat="44.50028" lon="4.117">
        <ele>744.4</ele>
        <time>2018-04-07T09:30:52Z</time>
      </trkpt>
      <trkpt lat="44.50037" lon="4.11698">
        <ele>745.9</ele>
        <time>2018-04-07T09:30:59Z</time>
      </trkpt>
      <trkpt lat="44.50049" lon="4.11697">
        <ele>747.8</ele>
        <time>2018-04-07T09:31:07Z</time>
      </trkpt>
      <trkpt lat="44.50058" lon="4.11694">
        <ele>748.5</ele>
        <time>2018-04-07T09:31:13Z</time>
      </trkpt>
      <trkpt lat="44.50067" lon="4.11693">
        <ele>749.5</ele>
        <time>2018-04-07T09:31:20Z</time>
      </trkpt>
      <trkpt lat="44.50077" lon="4.11691">
        <ele>750.5</ele>
        <time>2018-04-07T09:31:27Z</time>
      </trkpt>
      <trkpt lat="44.50085" lon="4.11687">
        <ele>751.4</ele>
        <time>2018-04-07T09:31:35Z</time>
      </trkpt>
      <trkpt lat="44.50096" lon="4.11686">
        <ele>752.5</ele>
        <time>2018-04-07T09:31:42Z</time>
      </trkpt>
      <trkpt lat="44.50105" lon="4.11684">
        <ele>753.6</ele>
        <time>2018-04-07T09:31:49Z</time>
      </trkpt>
      <trkpt lat="44.50115" lon="4.11687">
        <ele>754.7</ele>
        <time>2018-04-07T09:31:55Z</time>
      </trkpt>
      <trkpt lat="44.50109" lon="4.11698">
        <ele>757.3</ele>
        <time>2018-04-07T09:32:08Z</time>
      </trkpt>
      <trkpt lat="44.50101" lon="4.11702">
        <ele>757.9</ele>
        <time>2018-04-07T09:32:15Z</time>
      </trkpt>
      <trkpt lat="44.50108" lon="4.1171">
        <ele>758.9</ele>
        <time>2018-04-07T09:32:24Z</time>
      </trkpt>
      <trkpt lat="44.50118" lon="4.11709">
        <ele>760.1</ele>
        <time>2018-04-07T09:32:31Z</time>
      </trkpt>
      <trkpt lat="44.50127" lon="4.11711">
        <ele>761.3</ele>
        <time>2018-04-07T09:32:38Z</time>
      </trkpt>
      <trkpt lat="44.50136" lon="4.11712">
        <ele>762.7</ele>
        <time>2018-04-07T09:32:45Z</time>
      </trkpt>
      <trkpt lat="44.50147" lon="4.11712">
        <ele>763.7</ele>
        <time>2018-04-07T09:32:51Z</time>
      </trkpt>
      <trkpt lat="44.50158" lon="4.11712">
        <ele>765.2</ele>
        <time>2018-04-07T09:32:58Z</time>
      </trkpt>
      <trkpt lat="44.50169" lon="4.11714">
        <ele>765.9</ele>
        <time>2018-04-07T09:33:04Z</time>
      </trkpt>
      <trkpt lat="44.50179" lon="4.11717">
        <ele>767.2</ele>
        <time>2018-04-07T09:33:12Z</time>
      </trkpt>
      <trkpt lat="44.50188" lon="4.11721">
        <ele>767.8</ele>
        <time>2018-04-07T09:33:17Z</time>
      </trkpt>
      <trkpt lat="44.50197" lon="4.11727">
        <ele>768.3</ele>
        <time>2018-04-07T09:33:23Z</time>
      </trkpt>
      <trkpt lat="44.50188" lon="4.11731">
        <ele>769.7</ele>
        <time>2018-04-07T09:33:36Z</time>
      </trkpt>
      <trkpt lat="44.50178" lon="4.11736">
        <ele>771.1</ele>
        <time>2018-04-07T09:33:44Z</time>
      </trkpt>
      <trkpt lat="44.50168" lon="4.11738">
        <ele>771.9</ele>
        <time>2018-04-07T09:33:50Z</time>
      </trkpt>
      <trkpt lat="44.50158" lon="4.11743">
        <ele>772.7</ele>
        <time>2018-04-07T09:33:56Z</time>
      </trkpt>
      <trkpt lat="44.50149" lon="4.11747">
        <ele>773.4</ele>
        <time>2018-04-07T09:34:01Z</time>
      </trkpt>
      <trkpt lat="44.50141" lon="4.11753">
        <ele>774.1</ele>
        <time>2018-04-07T09:34:06Z</time>
      </trkpt>
      <trkpt lat="44.50132" lon="4.11756">
        <ele>774.9</ele>
        <time>2018-04-07T09:34:11Z</time>
      </trkpt>
      <trkpt lat="44.50122" lon="4.1176">
        <ele>775.4</ele>
        <time>2018-04-07T09:34:17Z</time>
      </trkpt>
      <trkpt lat="44.50113" lon="4.11765">
        <ele>776</ele>
        <time>2018-04-07T09:34:22Z</time>
      </trkpt>
      <trkpt lat="44.50104" lon="4.1177">
        <ele>776.8</ele>
        <time>2018-04-07T09:34:27Z</time>
      </trkpt>
      <trkpt lat="44.50103" lon="4.11782">
        <ele>777.9</ele>
        <time>2018-04-07T09:34:34Z</time>
      </trkpt>
      <trkpt lat="44.50113" lon="4.1178">
        <ele>779.9</ele>
        <time>2018-04-07T09:34:42Z</time>
      </trkpt>
      <trkpt lat="44.50123" lon="4.11782">
        <ele>781.3</ele>
        <time>2018-04-07T09:34:48Z</time>
      </trkpt>
      <trkpt lat="44.50132" lon="4.11784">
        <ele>782.4</ele>
        <time>2018-04-07T09:34:53Z</time>
      </trkpt>
      <trkpt lat="44.50142" lon="4.11786">
        <ele>783.8</ele>
        <time>2018-04-07T09:34:58Z</time>
      </trkpt>
      <trkpt lat="44.50151" lon="4.11787">
        <ele>784.7</ele>
        <time>2018-04-07T09:35:03Z</time>
      </trkpt>
      <trkpt lat="44.50161" lon="4.11791">
        <ele>786.4</ele>
        <time>2018-04-07T09:35:10Z</time>
      </trkpt>
      <trkpt lat="44.50172" lon="4.11793">
        <ele>787.1</ele>
        <time>2018-04-07T09:35:14Z</time>
      </trkpt>
      <trkpt lat="44.50181" lon="4.11796">
        <ele>788.1</ele>
        <time>2018-04-07T09:35:19Z</time>
      </trkpt>
      <trkpt lat="44.50189" lon="4.11801">
        <ele>789.4</ele>
        <time>2018-04-07T09:35:25Z</time>
      </trkpt>
      <trkpt lat="44.50197" lon="4.11809">
        <ele>790.5</ele>
        <time>2018-04-07T09:35:31Z</time>
      </trkpt>
      <trkpt lat="44.50198" lon="4.11822">
        <ele>792.4</ele>
        <time>2018-04-07T09:35:38Z</time>
      </trkpt>
      <trkpt lat="44.50189" lon="4.11823">
        <ele>793.9</ele>
        <time>2018-04-07T09:35:44Z</time>
      </trkpt>
      <trkpt lat="44.50179" lon="4.11825">
        <ele>794.9</ele>
        <time>2018-04-07T09:35:49Z</time>
      </trkpt>
      <trkpt lat="44.50169" lon="4.11828">
        <ele>795.8</ele>
        <time>2018-04-07T09:35:54Z</time>
      </trkpt>
      <trkpt lat="44.5016" lon="4.11834">
        <ele>796.9</ele>
        <time>2018-04-07T09:35:59Z</time>
      </trkpt>
      <trkpt lat="44.5015" lon="4.11838">
        <ele>797.7</ele>
        <time>2018-04-07T09:36:04Z</time>
      </trkpt>
      <trkpt lat="44.5014" lon="4.11844">
        <ele>798.2</ele>
        <time>2018-04-07T09:36:09Z</time>
      </trkpt>
      <trkpt lat="44.50132" lon="4.11851">
        <ele>798.5</ele>
        <time>2018-04-07T09:36:13Z</time>
      </trkpt>
      <trkpt lat="44.50122" lon="4.11858">
        <ele>799</ele>
        <time>2018-04-07T09:36:18Z</time>
      </trkpt>
      <trkpt lat="44.50113" lon="4.11865">
        <ele>799.2</ele>
        <time>2018-04-07T09:36:22Z</time>
      </trkpt>
      <trkpt lat="44.50105" lon="4.11871">
        <ele>799.5</ele>
        <time>2018-04-07T09:36:26Z</time>
      </trkpt>
      <trkpt lat="44.50098" lon="4.1188">
        <ele>799.6</ele>
        <time>2018-04-07T09:36:30Z</time>
      </trkpt>
      <trkpt lat="44.50104" lon="4.11889">
        <ele>800.3</ele>
        <time>2018-04-07T09:36:36Z</time>
      </trkpt>
      <trkpt lat="44.50113" lon="4.11891">
        <ele>801.9</ele>
        <time>2018-04-07T09:36:43Z</time>
      </trkpt>
      <trkpt lat="44.50124" lon="4.11892">
        <ele>803</ele>
        <time>2018-04-07T09:36:48Z</time>
      </trkpt>
      <trkpt lat="44.50133" lon="4.11893">
        <ele>804</ele>
        <time>2018-04-07T09:36:52Z</time>
      </trkpt>
      <trkpt lat="44.50143" lon="4.11892">
        <ele>804.8</ele>
        <time>2018-04-07T09:36:57Z</time>
      </trkpt>
      <trkpt lat="44.50153" lon="4.11892">
        <ele>805.8</ele>
        <time>2018-04-07T09:37:02Z</time>
      </trkpt>
      <trkpt lat="44.50163" lon="4.11896">
        <ele>807.1</ele>
        <time>2018-04-07T09:37:07Z</time>
      </trkpt>
      <trkpt lat="44.50172" lon="4.11903">
        <ele>808.4</ele>
        <time>2018-04-07T09:37:12Z</time>
      </trkpt>
      <trkpt lat="44.5018" lon="4.11913">
        <ele>809</ele>
        <time>2018-04-07T09:37:17Z</time>
      </trkpt>
      <trkpt lat="44.50188" lon="4.11923">
        <ele>809.9</ele>
        <time>2018-04-07T09:37:22Z</time>
      </trkpt>
      <trkpt lat="44.50195" lon="4.11932">
        <ele>810.3</ele>
        <time>2018-04-07T09:37:26Z</time>
      </trkpt>
      <trkpt lat="44.50203" lon="4.11941">
        <ele>810.8</ele>
        <time>2018-04-07T09:37:31Z</time>
      </trkpt>
      <trkpt lat="44.5021" lon="4.1195">
        <ele>811.9</ele>
        <time>2018-04-07T09:37:36Z</time>
      </trkpt>
      <trkpt lat="44.50218" lon="4.11959">
        <ele>813.5</ele>
        <time>2018-04-07T09:37:42Z</time>
      </trkpt>
      <trkpt lat="44.50226" lon="4.11968">
        <ele>815.2</ele>
        <time>2018-04-07T09:37:49Z</time>
      </trkpt>
      <trkpt lat="44.50235" lon="4.11974">
        <ele>816.7</ele>
        <time>2018-04-07T09:37:55Z</time>
      </trkpt>
      <trkpt lat="44.50244" lon="4.11973">
        <ele>818.2</ele>
        <time>2018-04-07T09:38:02Z</time>
      </trkpt>
      <trkpt lat="44.5025" lon="4.11964">
        <ele>819</ele>
        <time>2018-04-07T09:38:14Z</time>
      </trkpt>
      <trkpt lat="44.50259" lon="4.11967">
        <ele>818.3</ele>
        <time>2018-04-07T09:39:57Z</time>
      </trkpt>
      <trkpt lat="44.5027" lon="4.11959">
        <ele>817.5</ele>
        <time>2018-04-07T09:43:05Z</time>
      </trkpt>
      <trkpt lat="44.50278" lon="4.11949">
        <ele>817.5</ele>
        <time>2018-04-07T09:43:09Z</time>
      </trkpt>
      <trkpt lat="44.50286" lon="4.11943">
        <ele>817.6</ele>
        <time>2018-04-07T09:43:12Z</time>
      </trkpt>
      <trkpt lat="44.50295" lon="4.11934">
        <ele>817.8</ele>
        <time>2018-04-07T09:43:16Z</time>
      </trkpt>
      <trkpt lat="44.50301" lon="4.11922">
        <ele>818.1</ele>
        <time>2018-04-07T09:43:20Z</time>
      </trkpt>
      <trkpt lat="44.50311" lon="4.11911">
        <ele>818.7</ele>
        <time>2018-04-07T09:43:24Z</time>
      </trkpt>
      <trkpt lat="44.5032" lon="4.11904">
        <ele>819.1</ele>
        <time>2018-04-07T09:43:27Z</time>
      </trkpt>
      <trkpt lat="44.50329" lon="4.11895">
        <ele>819.6</ele>
        <time>2018-04-07T09:43:31Z</time>
      </trkpt>
      <trkpt lat="44.50339" lon="4.11889">
        <ele>819.9</ele>
        <time>2018-04-07T09:43:34Z</time>
      </trkpt>
      <trkpt lat="44.50349" lon="4.11882">
        <ele>820.5</ele>
        <time>2018-04-07T09:43:38Z</time>
      </trkpt>
      <trkpt lat="44.50358" lon="4.11878">
        <ele>821</ele>
        <time>2018-04-07T09:43:41Z</time>
      </trkpt>
      <trkpt lat="44.50367" lon="4.11874">
        <ele>821.5</ele>
        <time>2018-04-07T09:43:44Z</time>
      </trkpt>
      <trkpt lat="44.50378" lon="4.11869">
        <ele>822.2</ele>
        <time>2018-04-07T09:43:48Z</time>
      </trkpt>
      <trkpt lat="44.50386" lon="4.11864">
        <ele>822.6</ele>
        <time>2018-04-07T09:43:51Z</time>
      </trkpt>
      <trkpt lat="44.50395" lon="4.11859">
        <ele>822.8</ele>
        <time>2018-04-07T09:43:54Z</time>
      </trkpt>
      <trkpt lat="44.50403" lon="4.11852">
        <ele>823</ele>
        <time>2018-04-07T09:43:57Z</time>
      </trkpt>
      <trkpt lat="44.5041" lon="4.11842">
        <ele>823.2</ele>
        <time>2018-04-07T09:44:00Z</time>
      </trkpt>
      <trkpt lat="44.50415" lon="4.11831">
        <ele>823.4</ele>
        <time>2018-04-07T09:44:03Z</time>
      </trkpt>
      <trkpt lat="44.50418" lon="4.11819">
        <ele>823.6</ele>
        <time>2018-04-07T09:44:06Z</time>
      </trkpt>
      <trkpt lat="44.50417" lon="4.11804">
        <ele>824</ele>
        <time>2018-04-07T09:44:09Z</time>
      </trkpt>
      <trkpt lat="44.50414" lon="4.1179">
        <ele>824.3</ele>
        <time>2018-04-07T09:44:12Z</time>
      </trkpt>
      <trkpt lat="44.50412" lon="4.11777">
        <ele>824.8</ele>
        <time>2018-04-07T09:44:15Z</time>
      </trkpt>
      <trkpt lat="44.50409" lon="4.11762">
        <ele>825.4</ele>
        <time>2018-04-07T09:44:19Z</time>
      </trkpt>
      <trkpt lat="44.50405" lon="4.11748">
        <ele>825.7</ele>
        <time>2018-04-07T09:44:23Z</time>
      </trkpt>
      <trkpt lat="44.504" lon="4.11736">
        <ele>826</ele>
        <time>2018-04-07T09:44:26Z</time>
      </trkpt>
      <trkpt lat="44.50397" lon="4.11722">
        <ele>826.3</ele>
        <time>2018-04-07T09:44:30Z</time>
      </trkpt>
      <trkpt lat="44.50394" lon="4.11708">
        <ele>827.2</ele>
        <time>2018-04-07T09:44:34Z</time>
      </trkpt>
      <trkpt lat="44.50391" lon="4.11694">
        <ele>827.8</ele>
        <time>2018-04-07T09:44:38Z</time>
      </trkpt>
      <trkpt lat="44.50388" lon="4.11682">
        <ele>828.5</ele>
        <time>2018-04-07T09:44:42Z</time>
      </trkpt>
      <trkpt lat="44.50383" lon="4.11668">
        <ele>829.5</ele>
        <time>2018-04-07T09:44:46Z</time>
      </trkpt>
      <trkpt lat="44.50382" lon="4.11655">
        <ele>830.6</ele>
        <time>2018-04-07T09:44:50Z</time>
      </trkpt>
      <trkpt lat="44.50381" lon="4.11641">
        <ele>831.7</ele>
        <time>2018-04-07T09:44:54Z</time>
      </trkpt>
      <trkpt lat="44.50381" lon="4.11626">
        <ele>832.7</ele>
        <time>2018-04-07T09:44:58Z</time>
      </trkpt>
      <trkpt lat="44.50382" lon="4.11612">
        <ele>833.6</ele>
        <time>2018-04-07T09:45:02Z</time>
      </trkpt>
      <trkpt lat="44.50384" lon="4.11598">
        <ele>834.4</ele>
        <time>2018-04-07T09:45:06Z</time>
      </trkpt>
      <trkpt lat="44.50384" lon="4.11582">
        <ele>834.9</ele>
        <time>2018-04-07T09:45:10Z</time>
      </trkpt>
      <trkpt lat="44.50384" lon="4.11569">
        <ele>835.4</ele>
        <time>2018-04-07T09:45:14Z</time>
      </trkpt>
      <trkpt lat="44.50383" lon="4.11555">
        <ele>835.7</ele>
        <time>2018-04-07T09:45:18Z</time>
      </trkpt>
      <trkpt lat="44.50384" lon="4.11541">
        <ele>836.1</ele>
        <time>2018-04-07T09:45:22Z</time>
      </trkpt>
      <trkpt lat="44.50386" lon="4.11527">
        <ele>836.6</ele>
        <time>2018-04-07T09:45:26Z</time>
      </trkpt>
      <trkpt lat="44.50388" lon="4.11513">
        <ele>837.1</ele>
        <time>2018-04-07T09:45:30Z</time>
      </trkpt>
      <trkpt lat="44.50388" lon="4.11496">
        <ele>837.7</ele>
        <time>2018-04-07T09:45:34Z</time>
      </trkpt>
      <trkpt lat="44.50387" lon="4.11483">
        <ele>838.4</ele>
        <time>2018-04-07T09:45:37Z</time>
      </trkpt>
      <trkpt lat="44.50388" lon="4.11467">
        <ele>839.1</ele>
        <time>2018-04-07T09:45:41Z</time>
      </trkpt>
      <trkpt lat="44.50389" lon="4.1145">
        <ele>839.8</ele>
        <time>2018-04-07T09:45:45Z</time>
      </trkpt>
      <trkpt lat="44.50392" lon="4.11434">
        <ele>840.6</ele>
        <time>2018-04-07T09:45:49Z</time>
      </trkpt>
      <trkpt lat="44.50395" lon="4.11418">
        <ele>841.3</ele>
        <time>2018-04-07T09:45:53Z</time>
      </trkpt>
      <trkpt lat="44.50402" lon="4.11405">
        <ele>841.9</ele>
        <time>2018-04-07T09:45:57Z</time>
      </trkpt>
      <trkpt lat="44.5041" lon="4.11396">
        <ele>842.2</ele>
        <time>2018-04-07T09:46:19Z</time>
      </trkpt>
      <trkpt lat="44.50415" lon="4.11383">
        <ele>841.6</ele>
        <time>2018-04-07T09:46:22Z</time>
      </trkpt>
      <trkpt lat="44.50422" lon="4.11367">
        <ele>841.1</ele>
        <time>2018-04-07T09:46:25Z</time>
      </trkpt>
      <trkpt lat="44.5043" lon="4.1136">
        <ele>840.8</ele>
        <time>2018-04-07T09:46:27Z</time>
      </trkpt>
      <trkpt lat="44.5044" lon="4.11351">
        <ele>840.3</ele>
        <time>2018-04-07T09:46:29Z</time>
      </trkpt>
      <trkpt lat="44.5045" lon="4.11339">
        <ele>838.7</ele>
        <time>2018-04-07T09:46:32Z</time>
      </trkpt>
      <trkpt lat="44.50454" lon="4.11328">
        <ele>836.4</ele>
        <time>2018-04-07T09:46:35Z</time>
      </trkpt>
      <trkpt lat="44.50465" lon="4.11316">
        <ele>835.1</ele>
        <time>2018-04-07T09:46:37Z</time>
      </trkpt>
      <trkpt lat="44.50474" lon="4.11305">
        <ele>834.3</ele>
        <time>2018-04-07T09:46:38Z</time>
      </trkpt>
      <trkpt lat="44.50481" lon="4.11297">
        <ele>833.6</ele>
        <time>2018-04-07T09:46:39Z</time>
      </trkpt>
      <trkpt lat="44.50489" lon="4.1129">
        <ele>831.5</ele>
        <time>2018-04-07T09:46:41Z</time>
      </trkpt>
      <trkpt lat="44.505" lon="4.11285">
        <ele>829.6</ele>
        <time>2018-04-07T09:46:43Z</time>
      </trkpt>
      <trkpt lat="44.50517" lon="4.11282">
        <ele>827.6</ele>
        <time>2018-04-07T09:46:45Z</time>
      </trkpt>
      <trkpt lat="44.50538" lon="4.11272">
        <ele>825.5</ele>
        <time>2018-04-07T09:46:47Z</time>
      </trkpt>
      <trkpt lat="44.50547" lon="4.11267">
        <ele>824.5</ele>
        <time>2018-04-07T09:46:48Z</time>
      </trkpt>
      <trkpt lat="44.50563" lon="4.11261">
        <ele>823.5</ele>
        <time>2018-04-07T09:46:49Z</time>
      </trkpt>
      <trkpt lat="44.50573" lon="4.11257">
        <ele>822.3</ele>
        <time>2018-04-07T09:46:50Z</time>
      </trkpt>
      <trkpt lat="44.50589" lon="4.11248">
        <ele>820.1</ele>
        <time>2018-04-07T09:46:52Z</time>
      </trkpt>
      <trkpt lat="44.50608" lon="4.11235">
        <ele>817.9</ele>
        <time>2018-04-07T09:46:54Z</time>
      </trkpt>
      <trkpt lat="44.50619" lon="4.11229">
        <ele>816.3</ele>
        <time>2018-04-07T09:46:56Z</time>
      </trkpt>
      <trkpt lat="44.50628" lon="4.11234">
        <ele>814.8</ele>
        <time>2018-04-07T09:46:58Z</time>
      </trkpt>
      <trkpt lat="44.50625" lon="4.11246">
        <ele>813.3</ele>
        <time>2018-04-07T09:47:01Z</time>
      </trkpt>
      <trkpt lat="44.50619" lon="4.11256">
        <ele>811.9</ele>
        <time>2018-04-07T09:47:04Z</time>
      </trkpt>
      <trkpt lat="44.50608" lon="4.11268">
        <ele>811.1</ele>
        <time>2018-04-07T09:47:07Z</time>
      </trkpt>
      <trkpt lat="44.50598" lon="4.11277">
        <ele>809.9</ele>
        <time>2018-04-07T09:47:09Z</time>
      </trkpt>
      <trkpt lat="44.50587" lon="4.11285">
        <ele>808.6</ele>
        <time>2018-04-07T09:47:11Z</time>
      </trkpt>
      <trkpt lat="44.50578" lon="4.11293">
        <ele>808</ele>
        <time>2018-04-07T09:47:12Z</time>
      </trkpt>
      <trkpt lat="44.50568" lon="4.11299">
        <ele>806.5</ele>
        <time>2018-04-07T09:47:14Z</time>
      </trkpt>
      <trkpt lat="44.50561" lon="4.11314">
        <ele>804.2</ele>
        <time>2018-04-07T09:47:18Z</time>
      </trkpt>
      <trkpt lat="44.50572" lon="4.11316">
        <ele>801.6</ele>
        <time>2018-04-07T09:47:22Z</time>
      </trkpt>
      <trkpt lat="44.50581" lon="4.11311">
        <ele>799.7</ele>
        <time>2018-04-07T09:47:25Z</time>
      </trkpt>
      <trkpt lat="44.5059" lon="4.11308">
        <ele>797.8</ele>
        <time>2018-04-07T09:47:28Z</time>
      </trkpt>
      <trkpt lat="44.50603" lon="4.11305">
        <ele>796</ele>
        <time>2018-04-07T09:47:30Z</time>
      </trkpt>
      <trkpt lat="44.50616" lon="4.11299">
        <ele>795</ele>
        <time>2018-04-07T09:47:31Z</time>
      </trkpt>
      <trkpt lat="44.50668" lon="4.11276">
        <ele>788</ele>
        <time>2018-04-07T09:47:37Z</time>
      </trkpt>
      <trkpt lat="44.50701" lon="4.11251">
        <ele>783.9</ele>
        <time>2018-04-07T09:47:42Z</time>
      </trkpt>
      <trkpt lat="44.50705" lon="4.11232">
        <ele>781.5</ele>
        <time>2018-04-07T09:47:44Z</time>
      </trkpt>
      <trkpt lat="44.50706" lon="4.11212">
        <ele>779</ele>
        <time>2018-04-07T09:47:46Z</time>
      </trkpt>
      <trkpt lat="44.50713" lon="4.11194">
        <ele>776.1</ele>
        <time>2018-04-07T09:47:49Z</time>
      </trkpt>
      <trkpt lat="44.50725" lon="4.11196">
        <ele>774.3</ele>
        <time>2018-04-07T09:47:51Z</time>
      </trkpt>
      <trkpt lat="44.5073" lon="4.11207">
        <ele>772.5</ele>
        <time>2018-04-07T09:47:53Z</time>
      </trkpt>
      <trkpt lat="44.50734" lon="4.11219">
        <ele>771</ele>
        <time>2018-04-07T09:47:55Z</time>
      </trkpt>
      <trkpt lat="44.5074" lon="4.11233">
        <ele>769.3</ele>
        <time>2018-04-07T09:47:57Z</time>
      </trkpt>
      <trkpt lat="44.50734" lon="4.11248">
        <ele>767.5</ele>
        <time>2018-04-07T09:47:59Z</time>
      </trkpt>
      <trkpt lat="44.50732" lon="4.11262">
        <ele>765</ele>
        <time>2018-04-07T09:48:02Z</time>
      </trkpt>
      <trkpt lat="44.50743" lon="4.11256">
        <ele>762</ele>
        <time>2018-04-07T09:48:06Z</time>
      </trkpt>
      <trkpt lat="44.50752" lon="4.1125">
        <ele>760.5</ele>
        <time>2018-04-07T09:48:08Z</time>
      </trkpt>
      <trkpt lat="44.50758" lon="4.11236">
        <ele>757.8</ele>
        <time>2018-04-07T09:48:11Z</time>
      </trkpt>
      <trkpt lat="44.50767" lon="4.11214">
        <ele>753.7</ele>
        <time>2018-04-07T09:48:16Z</time>
      </trkpt>
      <trkpt lat="44.50774" lon="4.11202">
        <ele>750.5</ele>
        <time>2018-04-07T09:48:37Z</time>
      </trkpt>
      <trkpt lat="44.50779" lon="4.11187">
        <ele>750.3</ele>
        <time>2018-04-07T09:48:41Z</time>
      </trkpt>
      <trkpt lat="44.50776" lon="4.11172">
        <ele>749.7</ele>
        <time>2018-04-07T09:48:44Z</time>
      </trkpt>
      <trkpt lat="44.50774" lon="4.11159">
        <ele>747.9</ele>
        <time>2018-04-07T09:48:47Z</time>
      </trkpt>
      <trkpt lat="44.5078" lon="4.11147">
        <ele>746.1</ele>
        <time>2018-04-07T09:48:53Z</time>
      </trkpt>
      <trkpt lat="44.50791" lon="4.1115">
        <ele>745.4</ele>
        <time>2018-04-07T09:48:58Z</time>
      </trkpt>
      <trkpt lat="44.50803" lon="4.11151">
        <ele>745</ele>
        <time>2018-04-07T09:49:02Z</time>
      </trkpt>
      <trkpt lat="44.50812" lon="4.11153">
        <ele>744.2</ele>
        <time>2018-04-07T09:49:07Z</time>
      </trkpt>
      <trkpt lat="44.50822" lon="4.11154">
        <ele>743.7</ele>
        <time>2018-04-07T09:49:10Z</time>
      </trkpt>
      <trkpt lat="44.50832" lon="4.11156">
        <ele>743.1</ele>
        <time>2018-04-07T09:49:13Z</time>
      </trkpt>
      <trkpt lat="44.50845" lon="4.11157">
        <ele>742.5</ele>
        <time>2018-04-07T09:49:16Z</time>
      </trkpt>
      <trkpt lat="44.50855" lon="4.11154">
        <ele>742.1</ele>
        <time>2018-04-07T09:49:19Z</time>
      </trkpt>
      <trkpt lat="44.50865" lon="4.11148">
        <ele>741.3</ele>
        <time>2018-04-07T09:49:22Z</time>
      </trkpt>
      <trkpt lat="44.50877" lon="4.1114">
        <ele>740.3</ele>
        <time>2018-04-07T09:49:26Z</time>
      </trkpt>
      <trkpt lat="44.50887" lon="4.11135">
        <ele>739.9</ele>
        <time>2018-04-07T09:49:30Z</time>
      </trkpt>
      <trkpt lat="44.50895" lon="4.11144">
        <ele>739.7</ele>
        <time>2018-04-07T09:49:34Z</time>
      </trkpt>
      <trkpt lat="44.50901" lon="4.11156">
        <ele>739.3</ele>
        <time>2018-04-07T09:49:38Z</time>
      </trkpt>
      <trkpt lat="44.50906" lon="4.11168">
        <ele>739</ele>
        <time>2018-04-07T09:49:41Z</time>
      </trkpt>
      <trkpt lat="44.50911" lon="4.11178">
        <ele>738.9</ele>
        <time>2018-04-07T09:49:44Z</time>
      </trkpt>
      <trkpt lat="44.50918" lon="4.1119">
        <ele>738.7</ele>
        <time>2018-04-07T09:49:47Z</time>
      </trkpt>
      <trkpt lat="44.50926" lon="4.112">
        <ele>738</ele>
        <time>2018-04-07T09:49:50Z</time>
      </trkpt>
      <trkpt lat="44.50935" lon="4.11207">
        <ele>737.4</ele>
        <time>2018-04-07T09:49:53Z</time>
      </trkpt>
      <trkpt lat="44.50945" lon="4.11207">
        <ele>734.9</ele>
        <time>2018-04-07T09:50:36Z</time>
      </trkpt>
      <trkpt lat="44.50954" lon="4.11211">
        <ele>734.3</ele>
        <time>2018-04-07T09:50:40Z</time>
      </trkpt>
      <trkpt lat="44.50963" lon="4.11211">
        <ele>733.1</ele>
        <time>2018-04-07T09:50:46Z</time>
      </trkpt>
      <trkpt lat="44.50973" lon="4.11207">
        <ele>732</ele>
        <time>2018-04-07T09:52:01Z</time>
      </trkpt>
      <trkpt lat="44.50984" lon="4.11202">
        <ele>731.3</ele>
        <time>2018-04-07T09:52:06Z</time>
      </trkpt>
      <trkpt lat="44.50994" lon="4.11199">
        <ele>730.3</ele>
        <time>2018-04-07T09:52:10Z</time>
      </trkpt>
      <trkpt lat="44.51005" lon="4.11197">
        <ele>729.2</ele>
        <time>2018-04-07T09:52:14Z</time>
      </trkpt>
      <trkpt lat="44.51014" lon="4.11194">
        <ele>728.7</ele>
        <time>2018-04-07T09:52:16Z</time>
      </trkpt>
      <trkpt lat="44.51021" lon="4.11202">
        <ele>727.3</ele>
        <time>2018-04-07T09:52:20Z</time>
      </trkpt>
      <trkpt lat="44.51029" lon="4.11209">
        <ele>726.1</ele>
        <time>2018-04-07T09:52:24Z</time>
      </trkpt>
      <trkpt lat="44.51038" lon="4.11216">
        <ele>724.8</ele>
        <time>2018-04-07T09:52:28Z</time>
      </trkpt>
      <trkpt lat="44.51046" lon="4.11222">
        <ele>723.7</ele>
        <time>2018-04-07T09:52:32Z</time>
      </trkpt>
      <trkpt lat="44.51055" lon="4.11228">
        <ele>722.8</ele>
        <time>2018-04-07T09:52:35Z</time>
      </trkpt>
      <trkpt lat="44.51064" lon="4.11234">
        <ele>721.8</ele>
        <time>2018-04-07T09:52:37Z</time>
      </trkpt>
      <trkpt lat="44.51076" lon="4.11239">
        <ele>720.5</ele>
        <time>2018-04-07T09:52:40Z</time>
      </trkpt>
      <trkpt lat="44.51088" lon="4.11244">
        <ele>718.8</ele>
        <time>2018-04-07T09:52:43Z</time>
      </trkpt>
      <trkpt lat="44.51097" lon="4.11243">
        <ele>717.5</ele>
        <time>2018-04-07T09:52:45Z</time>
      </trkpt>
      <trkpt lat="44.51108" lon="4.1124">
        <ele>715.9</ele>
        <time>2018-04-07T09:52:48Z</time>
      </trkpt>
      <trkpt lat="44.51117" lon="4.11236">
        <ele>715</ele>
        <time>2018-04-07T09:52:50Z</time>
      </trkpt>
      <trkpt lat="44.51128" lon="4.11235">
        <ele>713.5</ele>
        <time>2018-04-07T09:52:53Z</time>
      </trkpt>
      <trkpt lat="44.51139" lon="4.11234">
        <ele>712</ele>
        <time>2018-04-07T09:52:56Z</time>
      </trkpt>
      <trkpt lat="44.51149" lon="4.11234">
        <ele>710.5</ele>
        <time>2018-04-07T09:52:59Z</time>
      </trkpt>
      <trkpt lat="44.5116" lon="4.11236">
        <ele>709.6</ele>
        <time>2018-04-07T09:53:01Z</time>
      </trkpt>
      <trkpt lat="44.51171" lon="4.1124">
        <ele>708.8</ele>
        <time>2018-04-07T09:53:03Z</time>
      </trkpt>
      <trkpt lat="44.51181" lon="4.11243">
        <ele>707.2</ele>
        <time>2018-04-07T09:53:06Z</time>
      </trkpt>
      <trkpt lat="44.51192" lon="4.11243">
        <ele>705.7</ele>
        <time>2018-04-07T09:53:09Z</time>
      </trkpt>
      <trkpt lat="44.51203" lon="4.11246">
        <ele>704.2</ele>
        <time>2018-04-07T09:53:12Z</time>
      </trkpt>
      <trkpt lat="44.51215" lon="4.11248">
        <ele>702.4</ele>
        <time>2018-04-07T09:53:15Z</time>
      </trkpt>
      <trkpt lat="44.51227" lon="4.11246">
        <ele>699.9</ele>
        <time>2018-04-07T09:53:19Z</time>
      </trkpt>
      <trkpt lat="44.51238" lon="4.11241">
        <ele>698.4</ele>
        <time>2018-04-07T09:53:22Z</time>
      </trkpt>
      <trkpt lat="44.51246" lon="4.11228">
        <ele>696.4</ele>
        <time>2018-04-07T09:53:26Z</time>
      </trkpt>
      <trkpt lat="44.51252" lon="4.11216">
        <ele>695.4</ele>
        <time>2018-04-07T09:53:29Z</time>
      </trkpt>
      <trkpt lat="44.51255" lon="4.112">
        <ele>693.8</ele>
        <time>2018-04-07T09:53:40Z</time>
      </trkpt>
      <trkpt lat="44.51261" lon="4.11185">
        <ele>693</ele>
        <time>2018-04-07T09:53:43Z</time>
      </trkpt>
      <trkpt lat="44.51268" lon="4.11173">
        <ele>692.1</ele>
        <time>2018-04-07T09:53:46Z</time>
      </trkpt>
      <trkpt lat="44.51277" lon="4.11163">
        <ele>690.8</ele>
        <time>2018-04-07T09:53:49Z</time>
      </trkpt>
      <trkpt lat="44.51287" lon="4.1116">
        <ele>689.7</ele>
        <time>2018-04-07T09:53:52Z</time>
      </trkpt>
      <trkpt lat="44.51295" lon="4.11163">
        <ele>689</ele>
        <time>2018-04-07T09:53:56Z</time>
      </trkpt>
      <trkpt lat="44.51307" lon="4.11163">
        <ele>687.9</ele>
        <time>2018-04-07T09:54:00Z</time>
      </trkpt>
      <trkpt lat="44.51316" lon="4.11162">
        <ele>687</ele>
        <time>2018-04-07T09:54:03Z</time>
      </trkpt>
      <trkpt lat="44.51327" lon="4.11156">
        <ele>685.6</ele>
        <time>2018-04-07T09:54:07Z</time>
      </trkpt>
      <trkpt lat="44.51337" lon="4.11157">
        <ele>683.6</ele>
        <time>2018-04-07T09:54:12Z</time>
      </trkpt>
      <trkpt lat="44.51346" lon="4.11163">
        <ele>681.7</ele>
        <time>2018-04-07T09:54:17Z</time>
      </trkpt>
      <trkpt lat="44.51356" lon="4.11165">
        <ele>679.8</ele>
        <time>2018-04-07T09:54:21Z</time>
      </trkpt>
      <trkpt lat="44.51367" lon="4.11172">
        <ele>678.1</ele>
        <time>2018-04-07T09:54:25Z</time>
      </trkpt>
      <trkpt lat="44.51377" lon="4.11177">
        <ele>676.4</ele>
        <time>2018-04-07T09:54:28Z</time>
      </trkpt>
      <trkpt lat="44.51388" lon="4.11182">
        <ele>674.8</ele>
        <time>2018-04-07T09:54:31Z</time>
      </trkpt>
      <trkpt lat="44.51397" lon="4.11188">
        <ele>673.3</ele>
        <time>2018-04-07T09:54:34Z</time>
      </trkpt>
      <trkpt lat="44.51406" lon="4.11195">
        <ele>671.5</ele>
        <time>2018-04-07T09:54:37Z</time>
      </trkpt>
      <trkpt lat="44.51416" lon="4.11199">
        <ele>669.7</ele>
        <time>2018-04-07T09:54:40Z</time>
      </trkpt>
      <trkpt lat="44.51428" lon="4.11203">
        <ele>668.3</ele>
        <time>2018-04-07T09:54:43Z</time>
      </trkpt>
      <trkpt lat="44.51437" lon="4.11207">
        <ele>666.8</ele>
        <time>2018-04-07T09:54:46Z</time>
      </trkpt>
      <trkpt lat="44.51449" lon="4.11205">
        <ele>664.9</ele>
        <time>2018-04-07T09:54:49Z</time>
      </trkpt>
      <trkpt lat="44.51458" lon="4.11201">
        <ele>663.2</ele>
        <time>2018-04-07T09:54:52Z</time>
      </trkpt>
      <trkpt lat="44.51467" lon="4.11197">
        <ele>661.1</ele>
        <time>2018-04-07T09:54:55Z</time>
      </trkpt>
      <trkpt lat="44.51474" lon="4.1119">
        <ele>658.2</ele>
        <time>2018-04-07T09:54:59Z</time>
      </trkpt>
      <trkpt lat="44.51483" lon="4.11183">
        <ele>656.9</ele>
        <time>2018-04-07T09:55:01Z</time>
      </trkpt>
      <trkpt lat="44.51491" lon="4.11176">
        <ele>655.7</ele>
        <time>2018-04-07T09:55:03Z</time>
      </trkpt>
      <trkpt lat="44.515" lon="4.11169">
        <ele>654</ele>
        <time>2018-04-07T09:55:06Z</time>
      </trkpt>
      <trkpt lat="44.51503" lon="4.11154">
        <ele>652.1</ele>
        <time>2018-04-07T09:55:10Z</time>
      </trkpt>
      <trkpt lat="44.51507" lon="4.1114">
        <ele>651</ele>
        <time>2018-04-07T09:55:13Z</time>
      </trkpt>
      <trkpt lat="44.51514" lon="4.11131">
        <ele>650.2</ele>
        <time>2018-04-07T09:55:16Z</time>
      </trkpt>
      <trkpt lat="44.51526" lon="4.11129">
        <ele>648.7</ele>
        <time>2018-04-07T09:55:20Z</time>
      </trkpt>
      <trkpt lat="44.51536" lon="4.11133">
        <ele>647.8</ele>
        <time>2018-04-07T09:55:23Z</time>
      </trkpt>
      <trkpt lat="44.51547" lon="4.11132">
        <ele>646.5</ele>
        <time>2018-04-07T09:55:26Z</time>
      </trkpt>
      <trkpt lat="44.51559" lon="4.11136">
        <ele>645.6</ele>
        <time>2018-04-07T09:55:28Z</time>
      </trkpt>
      <trkpt lat="44.51569" lon="4.11139">
        <ele>642.4</ele>
        <time>2018-04-07T09:55:33Z</time>
      </trkpt>
      <trkpt lat="44.5158" lon="4.11141">
        <ele>640.2</ele>
        <time>2018-04-07T09:55:37Z</time>
      </trkpt>
      <trkpt lat="44.51593" lon="4.11141">
        <ele>638.1</ele>
        <time>2018-04-07T09:55:41Z</time>
      </trkpt>
      <trkpt lat="44.51604" lon="4.11138">
        <ele>637</ele>
        <time>2018-04-07T09:55:44Z</time>
      </trkpt>
      <trkpt lat="44.51614" lon="4.11136">
        <ele>635.6</ele>
        <time>2018-04-07T09:55:47Z</time>
      </trkpt>
      <trkpt lat="44.51625" lon="4.11136">
        <ele>634.1</ele>
        <time>2018-04-07T09:55:50Z</time>
      </trkpt>
      <trkpt lat="44.51635" lon="4.11134">
        <ele>632.5</ele>
        <time>2018-04-07T09:55:53Z</time>
      </trkpt>
      <trkpt lat="44.51646" lon="4.11134">
        <ele>630.8</ele>
        <time>2018-04-07T09:55:57Z</time>
      </trkpt>
      <trkpt lat="44.51658" lon="4.11134">
        <ele>629.1</ele>
        <time>2018-04-07T09:56:01Z</time>
      </trkpt>
      <trkpt lat="44.51667" lon="4.1113">
        <ele>627.3</ele>
        <time>2018-04-07T09:56:05Z</time>
      </trkpt>
      <trkpt lat="44.51676" lon="4.11125">
        <ele>625.8</ele>
        <time>2018-04-07T09:56:08Z</time>
      </trkpt>
      <trkpt lat="44.51686" lon="4.11121">
        <ele>624.2</ele>
        <time>2018-04-07T09:56:11Z</time>
      </trkpt>
      <trkpt lat="44.51699" lon="4.11117">
        <ele>622.6</ele>
        <time>2018-04-07T09:56:14Z</time>
      </trkpt>
      <trkpt lat="44.51711" lon="4.11114">
        <ele>621.6</ele>
        <time>2018-04-07T09:56:17Z</time>
      </trkpt>
      <trkpt lat="44.51722" lon="4.11111">
        <ele>620.3</ele>
        <time>2018-04-07T09:56:20Z</time>
      </trkpt>
      <trkpt lat="44.51729" lon="4.111">
        <ele>617.3</ele>
        <time>2018-04-07T09:56:33Z</time>
      </trkpt>
      <trkpt lat="44.5173" lon="4.11085">
        <ele>616.3</ele>
        <time>2018-04-07T09:56:37Z</time>
      </trkpt>
      <trkpt lat="44.5174" lon="4.1108">
        <ele>614.7</ele>
        <time>2018-04-07T09:56:54Z</time>
      </trkpt>
      <trkpt lat="44.5175" lon="4.11082">
        <ele>614.9</ele>
        <time>2018-04-07T09:56:59Z</time>
      </trkpt>
      <trkpt lat="44.51761" lon="4.11088">
        <ele>614.3</ele>
        <time>2018-04-07T09:57:03Z</time>
      </trkpt>
      <trkpt lat="44.51772" lon="4.11091">
        <ele>613.7</ele>
        <time>2018-04-07T09:57:07Z</time>
      </trkpt>
      <trkpt lat="44.51784" lon="4.11086">
        <ele>611</ele>
        <time>2018-04-07T09:57:11Z</time>
      </trkpt>
      <trkpt lat="44.51796" lon="4.11083">
        <ele>610</ele>
        <time>2018-04-07T09:57:15Z</time>
      </trkpt>
      <trkpt lat="44.5181" lon="4.11079">
        <ele>608</ele>
        <time>2018-04-07T09:57:19Z</time>
      </trkpt>
      <trkpt lat="44.51825" lon="4.11077">
        <ele>606</ele>
        <time>2018-04-07T09:57:23Z</time>
      </trkpt>
      <trkpt lat="44.51835" lon="4.11075">
        <ele>606.1</ele>
        <time>2018-04-07T09:57:26Z</time>
      </trkpt>
      <trkpt lat="44.51845" lon="4.11068">
        <ele>604.5</ele>
        <time>2018-04-07T09:57:30Z</time>
      </trkpt>
      <trkpt lat="44.51854" lon="4.11058">
        <ele>603.3</ele>
        <time>2018-04-07T09:57:33Z</time>
      </trkpt>
      <trkpt lat="44.51863" lon="4.11049">
        <ele>602.4</ele>
        <time>2018-04-07T09:57:35Z</time>
      </trkpt>
      <trkpt lat="44.51871" lon="4.11043">
        <ele>600.8</ele>
        <time>2018-04-07T09:57:38Z</time>
      </trkpt>
      <trkpt lat="44.51882" lon="4.11036">
        <ele>598.7</ele>
        <time>2018-04-07T09:57:42Z</time>
      </trkpt>
      <trkpt lat="44.5189" lon="4.11028">
        <ele>596.4</ele>
        <time>2018-04-07T09:57:46Z</time>
      </trkpt>
      <trkpt lat="44.51899" lon="4.11026">
        <ele>593.4</ele>
        <time>2018-04-07T09:57:53Z</time>
      </trkpt>
      <trkpt lat="44.51888" lon="4.11032">
        <ele>591.6</ele>
        <time>2018-04-07T09:57:58Z</time>
      </trkpt>
      <trkpt lat="44.5188" lon="4.11039">
        <ele>589.8</ele>
        <time>2018-04-07T09:58:02Z</time>
      </trkpt>
      <trkpt lat="44.51873" lon="4.1105">
        <ele>587.5</ele>
        <time>2018-04-07T09:58:07Z</time>
      </trkpt>
      <trkpt lat="44.51868" lon="4.11064">
        <ele>585.7</ele>
        <time>2018-04-07T09:58:11Z</time>
      </trkpt>
      <trkpt lat="44.51864" lon="4.11079">
        <ele>584.3</ele>
        <time>2018-04-07T09:58:14Z</time>
      </trkpt>
      <trkpt lat="44.51859" lon="4.11091">
        <ele>582.2</ele>
        <time>2018-04-07T09:58:17Z</time>
      </trkpt>
      <trkpt lat="44.51851" lon="4.11099">
        <ele>580.3</ele>
        <time>2018-04-07T09:58:20Z</time>
      </trkpt>
      <trkpt lat="44.51854" lon="4.11111">
        <ele>575.2</ele>
        <time>2018-04-07T09:58:30Z</time>
      </trkpt>
      <trkpt lat="44.51865" lon="4.11118">
        <ele>573.2</ele>
        <time>2018-04-07T09:58:34Z</time>
      </trkpt>
      <trkpt lat="44.51873" lon="4.11124">
        <ele>571.3</ele>
        <time>2018-04-07T09:58:37Z</time>
      </trkpt>
      <trkpt lat="44.51883" lon="4.11115">
        <ele>569.1</ele>
        <time>2018-04-07T09:58:41Z</time>
      </trkpt>
      <trkpt lat="44.5189" lon="4.11105">
        <ele>567.2</ele>
        <time>2018-04-07T09:58:44Z</time>
      </trkpt>
      <trkpt lat="44.51896" lon="4.11094">
        <ele>565.1</ele>
        <time>2018-04-07T09:58:48Z</time>
      </trkpt>
      <trkpt lat="44.51904" lon="4.11085">
        <ele>562.2</ele>
        <time>2018-04-07T09:58:53Z</time>
      </trkpt>
      <trkpt lat="44.51914" lon="4.11081">
        <ele>559.7</ele>
        <time>2018-04-07T09:58:57Z</time>
      </trkpt>
      <trkpt lat="44.51924" lon="4.11074">
        <ele>557.3</ele>
        <time>2018-04-07T09:59:01Z</time>
      </trkpt>
      <trkpt lat="44.51934" lon="4.11067">
        <ele>554.9</ele>
        <time>2018-04-07T09:59:05Z</time>
      </trkpt>
      <trkpt lat="44.51945" lon="4.11062">
        <ele>553.2</ele>
        <time>2018-04-07T09:59:08Z</time>
      </trkpt>
      <trkpt lat="44.51956" lon="4.11059">
        <ele>551</ele>
        <time>2018-04-07T09:59:11Z</time>
      </trkpt>
      <trkpt lat="44.51966" lon="4.11055">
        <ele>550.7</ele>
        <time>2018-04-07T09:59:14Z</time>
      </trkpt>
      <trkpt lat="44.51977" lon="4.1105">
        <ele>549.2</ele>
        <time>2018-04-07T09:59:18Z</time>
      </trkpt>
      <trkpt lat="44.51986" lon="4.11045">
        <ele>548.7</ele>
        <time>2018-04-07T09:59:21Z</time>
      </trkpt>
      <trkpt lat="44.51994" lon="4.1104">
        <ele>547.9</ele>
        <time>2018-04-07T09:59:24Z</time>
      </trkpt>
      <trkpt lat="44.52003" lon="4.11035">
        <ele>547.6</ele>
        <time>2018-04-07T09:59:28Z</time>
      </trkpt>
      <trkpt lat="44.52013" lon="4.11032">
        <ele>547.3</ele>
        <time>2018-04-07T09:59:33Z</time>
      </trkpt>
      <trkpt lat="44.52022" lon="4.11031">
        <ele>547.3</ele>
        <time>2018-04-07T09:59:37Z</time>
      </trkpt>
      <trkpt lat="44.52032" lon="4.11032">
        <ele>547.2</ele>
        <time>2018-04-07T09:59:41Z</time>
      </trkpt>
      <trkpt lat="44.52042" lon="4.11026">
        <ele>547.1</ele>
        <time>2018-04-07T09:59:45Z</time>
      </trkpt>
      <trkpt lat="44.52049" lon="4.1101">
        <ele>546.4</ele>
        <time>2018-04-07T09:59:48Z</time>
      </trkpt>
      <trkpt lat="44.52052" lon="4.10997">
        <ele>545.9</ele>
        <time>2018-04-07T09:59:50Z</time>
      </trkpt>
      <trkpt lat="44.52055" lon="4.10984">
        <ele>545</ele>
        <time>2018-04-07T09:59:52Z</time>
      </trkpt>
      <trkpt lat="44.52058" lon="4.1097">
        <ele>544.2</ele>
        <time>2018-04-07T09:59:54Z</time>
      </trkpt>
      <trkpt lat="44.5206" lon="4.10956">
        <ele>543.3</ele>
        <time>2018-04-07T09:59:56Z</time>
      </trkpt>
      <trkpt lat="44.52063" lon="4.10941">
        <ele>541.8</ele>
        <time>2018-04-07T09:59:59Z</time>
      </trkpt>
      <trkpt lat="44.52064" lon="4.10957">
        <ele>537.9</ele>
        <time>2018-04-07T10:00:17Z</time>
      </trkpt>
      <trkpt lat="44.52065" lon="4.10972">
        <ele>536.7</ele>
        <time>2018-04-07T10:00:20Z</time>
      </trkpt>
      <trkpt lat="44.52069" lon="4.10985">
        <ele>535.6</ele>
        <time>2018-04-07T10:00:23Z</time>
      </trkpt>
      <trkpt lat="44.52072" lon="4.11002">
        <ele>533.4</ele>
        <time>2018-04-07T10:00:27Z</time>
      </trkpt>
      <trkpt lat="44.52075" lon="4.11019">
        <ele>531.5</ele>
        <time>2018-04-07T10:00:30Z</time>
      </trkpt>
      <trkpt lat="44.52076" lon="4.11035">
        <ele>529.2</ele>
        <time>2018-04-07T10:00:33Z</time>
      </trkpt>
      <trkpt lat="44.52067" lon="4.11049">
        <ele>526.2</ele>
        <time>2018-04-07T10:00:37Z</time>
      </trkpt>
      <trkpt lat="44.52057" lon="4.11058">
        <ele>523.9</ele>
        <time>2018-04-07T10:00:40Z</time>
      </trkpt>
      <trkpt lat="44.52046" lon="4.11068">
        <ele>521.8</ele>
        <time>2018-04-07T10:00:44Z</time>
      </trkpt>
      <trkpt lat="44.52052" lon="4.11079">
        <ele>519</ele>
        <time>2018-04-07T10:00:50Z</time>
      </trkpt>
      <trkpt lat="44.52062" lon="4.11083">
        <ele>516.9</ele>
        <time>2018-04-07T10:00:54Z</time>
      </trkpt>
      <trkpt lat="44.52071" lon="4.11088">
        <ele>515.2</ele>
        <time>2018-04-07T10:00:57Z</time>
      </trkpt>
      <trkpt lat="44.52081" lon="4.11091">
        <ele>513</ele>
        <time>2018-04-07T10:01:00Z</time>
      </trkpt>
      <trkpt lat="44.52091" lon="4.11095">
        <ele>510.4</ele>
        <time>2018-04-07T10:01:04Z</time>
      </trkpt>
      <trkpt lat="44.52102" lon="4.11097">
        <ele>508.7</ele>
        <time>2018-04-07T10:01:08Z</time>
      </trkpt>
      <trkpt lat="44.52112" lon="4.11108">
        <ele>507.1</ele>
        <time>2018-04-07T10:01:11Z</time>
      </trkpt>
      <trkpt lat="44.52121" lon="4.11112">
        <ele>504.8</ele>
        <time>2018-04-07T10:01:14Z</time>
      </trkpt>
      <trkpt lat="44.5213" lon="4.11113">
        <ele>502.2</ele>
        <time>2018-04-07T10:01:21Z</time>
      </trkpt>
      <trkpt lat="44.52142" lon="4.11111">
        <ele>499.7</ele>
        <time>2018-04-07T10:01:25Z</time>
      </trkpt>
      <trkpt lat="44.52153" lon="4.11114">
        <ele>498.5</ele>
        <time>2018-04-07T10:01:27Z</time>
      </trkpt>
      <trkpt lat="44.52164" lon="4.11121">
        <ele>496.3</ele>
        <time>2018-04-07T10:01:30Z</time>
      </trkpt>
      <trkpt lat="44.52172" lon="4.11127">
        <ele>493.9</ele>
        <time>2018-04-07T10:01:33Z</time>
      </trkpt>
      <trkpt lat="44.52177" lon="4.11139">
        <ele>492.2</ele>
        <time>2018-04-07T10:01:36Z</time>
      </trkpt>
      <trkpt lat="44.52173" lon="4.11151">
        <ele>489.3</ele>
        <time>2018-04-07T10:01:41Z</time>
      </trkpt>
      <trkpt lat="44.52182" lon="4.11146">
        <ele>486.8</ele>
        <time>2018-04-07T10:01:48Z</time>
      </trkpt>
      <trkpt lat="44.5219" lon="4.11139">
        <ele>485.2</ele>
        <time>2018-04-07T10:01:51Z</time>
      </trkpt>
      <trkpt lat="44.52194" lon="4.11126">
        <ele>483.4</ele>
        <time>2018-04-07T10:01:54Z</time>
      </trkpt>
      <trkpt lat="44.52192" lon="4.11111">
        <ele>480.9</ele>
        <time>2018-04-07T10:01:58Z</time>
      </trkpt>
      <trkpt lat="44.52201" lon="4.1111">
        <ele>476.7</ele>
        <time>2018-04-07T10:02:05Z</time>
      </trkpt>
      <trkpt lat="44.5221" lon="4.11121">
        <ele>474</ele>
        <time>2018-04-07T10:02:09Z</time>
      </trkpt>
      <trkpt lat="44.52213" lon="4.11133">
        <ele>472.2</ele>
        <time>2018-04-07T10:02:12Z</time>
      </trkpt>
      <trkpt lat="44.52219" lon="4.11122">
        <ele>467.3</ele>
        <time>2018-04-07T10:02:23Z</time>
      </trkpt>
      <trkpt lat="44.52218" lon="4.1111">
        <ele>465.2</ele>
        <time>2018-04-07T10:02:27Z</time>
      </trkpt>
      <trkpt lat="44.52227" lon="4.1111">
        <ele>462.2</ele>
        <time>2018-04-07T10:02:34Z</time>
      </trkpt>
      <trkpt lat="44.52237" lon="4.11118">
        <ele>460.3</ele>
        <time>2018-04-07T10:02:37Z</time>
      </trkpt>
      <trkpt lat="44.52243" lon="4.11129">
        <ele>458.1</ele>
        <time>2018-04-07T10:02:40Z</time>
      </trkpt>
      <trkpt lat="44.5225" lon="4.11142">
        <ele>456</ele>
        <time>2018-04-07T10:02:43Z</time>
      </trkpt>
      <trkpt lat="44.52245" lon="4.11156">
        <ele>451.9</ele>
        <time>2018-04-07T10:02:48Z</time>
      </trkpt>
      <trkpt lat="44.52236" lon="4.11164">
        <ele>449.9</ele>
        <time>2018-04-07T10:02:51Z</time>
      </trkpt>
      <trkpt lat="44.52246" lon="4.11169">
        <ele>443.5</ele>
        <time>2018-04-07T10:03:04Z</time>
      </trkpt>
      <trkpt lat="44.52258" lon="4.1117">
        <ele>442</ele>
        <time>2018-04-07T10:03:07Z</time>
      </trkpt>
      <trkpt lat="44.52269" lon="4.1117">
        <ele>440.5</ele>
        <time>2018-04-07T10:03:10Z</time>
      </trkpt>
      <trkpt lat="44.52279" lon="4.1117">
        <ele>438</ele>
        <time>2018-04-07T10:03:14Z</time>
      </trkpt>
      <trkpt lat="44.52288" lon="4.11167">
        <ele>434.7</ele>
        <time>2018-04-07T10:03:19Z</time>
      </trkpt>
      <trkpt lat="44.52292" lon="4.11155">
        <ele>431.5</ele>
        <time>2018-04-07T10:03:24Z</time>
      </trkpt>
      <trkpt lat="44.523" lon="4.11164">
        <ele>429.7</ele>
        <time>2018-04-07T10:03:28Z</time>
      </trkpt>
      <trkpt lat="44.52308" lon="4.11172">
        <ele>428.2</ele>
        <time>2018-04-07T10:03:31Z</time>
      </trkpt>
      <trkpt lat="44.52317" lon="4.1118">
        <ele>425.2</ele>
        <time>2018-04-07T10:03:35Z</time>
      </trkpt>
      <trkpt lat="44.52318" lon="4.11195">
        <ele>421.7</ele>
        <time>2018-04-07T10:03:40Z</time>
      </trkpt>
      <trkpt lat="44.52308" lon="4.11202">
        <ele>419.2</ele>
        <time>2018-04-07T10:03:44Z</time>
      </trkpt>
      <trkpt lat="44.52316" lon="4.11214">
        <ele>413.4</ele>
        <time>2018-04-07T10:03:56Z</time>
      </trkpt>
      <trkpt lat="44.52325" lon="4.1122">
        <ele>412</ele>
        <time>2018-04-07T10:03:59Z</time>
      </trkpt>
      <trkpt lat="44.52335" lon="4.11227">
        <ele>410.2</ele>
        <time>2018-04-07T10:04:02Z</time>
      </trkpt>
      <trkpt lat="44.52343" lon="4.11233">
        <ele>407.9</ele>
        <time>2018-04-07T10:04:05Z</time>
      </trkpt>
      <trkpt lat="44.52352" lon="4.11238">
        <ele>405.5</ele>
        <time>2018-04-07T10:04:08Z</time>
      </trkpt>
      <trkpt lat="44.52365" lon="4.11242">
        <ele>403.5</ele>
        <time>2018-04-07T10:04:11Z</time>
      </trkpt>
      <trkpt lat="44.52376" lon="4.11246">
        <ele>400.3</ele>
        <time>2018-04-07T10:04:15Z</time>
      </trkpt>
      <trkpt lat="44.52383" lon="4.11233">
        <ele>397.6</ele>
        <time>2018-04-07T10:04:19Z</time>
      </trkpt>
      <trkpt lat="44.52383" lon="4.1122">
        <ele>395.5</ele>
        <time>2018-04-07T10:04:22Z</time>
      </trkpt>
      <trkpt lat="44.52382" lon="4.11205">
        <ele>393.2</ele>
        <time>2018-04-07T10:04:25Z</time>
      </trkpt>
      <trkpt lat="44.52381" lon="4.11189">
        <ele>390.5</ele>
        <time>2018-04-07T10:04:28Z</time>
      </trkpt>
      <trkpt lat="44.5238" lon="4.11175">
        <ele>386.9</ele>
        <time>2018-04-07T10:04:32Z</time>
      </trkpt>
      <trkpt lat="44.52389" lon="4.11187">
        <ele>382.3</ele>
        <time>2018-04-07T10:04:40Z</time>
      </trkpt>
      <trkpt lat="44.52398" lon="4.11194">
        <ele>380.6</ele>
        <time>2018-04-07T10:04:43Z</time>
      </trkpt>
      <trkpt lat="44.52407" lon="4.11196">
        <ele>376.1</ele>
        <time>2018-04-07T10:05:09Z</time>
      </trkpt>
      <trkpt lat="44.52415" lon="4.11205">
        <ele>375.2</ele>
        <time>2018-04-07T10:05:12Z</time>
      </trkpt>
      <trkpt lat="44.52421" lon="4.11218">
        <ele>373.8</ele>
        <time>2018-04-07T10:05:15Z</time>
      </trkpt>
      <trkpt lat="44.52426" lon="4.11232">
        <ele>371.7</ele>
        <time>2018-04-07T10:05:18Z</time>
      </trkpt>
      <trkpt lat="44.52427" lon="4.11247">
        <ele>369.9</ele>
        <time>2018-04-07T10:05:21Z</time>
      </trkpt>
      <trkpt lat="44.52424" lon="4.11261">
        <ele>368.1</ele>
        <time>2018-04-07T10:05:24Z</time>
      </trkpt>
      <trkpt lat="44.52423" lon="4.11277">
        <ele>366.1</ele>
        <time>2018-04-07T10:05:28Z</time>
      </trkpt>
      <trkpt lat="44.5242" lon="4.11289">
        <ele>364.2</ele>
        <time>2018-04-07T10:05:31Z</time>
      </trkpt>
      <trkpt lat="44.52415" lon="4.11301">
        <ele>362</ele>
        <time>2018-04-07T10:05:34Z</time>
      </trkpt>
      <trkpt lat="44.5241" lon="4.11314">
        <ele>359.5</ele>
        <time>2018-04-07T10:05:37Z</time>
      </trkpt>
      <trkpt lat="44.52406" lon="4.11328">
        <ele>357.1</ele>
        <time>2018-04-07T10:05:41Z</time>
      </trkpt>
      <trkpt lat="44.5241" lon="4.11341">
        <ele>355.4</ele>
        <time>2018-04-07T10:05:44Z</time>
      </trkpt>
      <trkpt lat="44.52423" lon="4.11335">
        <ele>352.9</ele>
        <time>2018-04-07T10:05:49Z</time>
      </trkpt>
      <trkpt lat="44.52434" lon="4.11324">
        <ele>350.9</ele>
        <time>2018-04-07T10:05:52Z</time>
      </trkpt>
      <trkpt lat="44.52442" lon="4.11312">
        <ele>348</ele>
        <time>2018-04-07T10:05:55Z</time>
      </trkpt>
      <trkpt lat="44.52449" lon="4.11301">
        <ele>346.5</ele>
        <time>2018-04-07T10:05:58Z</time>
      </trkpt>
      <trkpt lat="44.52454" lon="4.1129">
        <ele>344</ele>
        <time>2018-04-07T10:06:01Z</time>
      </trkpt>
      <trkpt lat="44.52464" lon="4.11281">
        <ele>339.9</ele>
        <time>2018-04-07T10:06:06Z</time>
      </trkpt>
      <trkpt lat="44.52473" lon="4.11268">
        <ele>338.2</ele>
        <time>2018-04-07T10:06:10Z</time>
      </trkpt>
      <trkpt lat="44.52474" lon="4.11255">
        <ele>336.3</ele>
        <time>2018-04-07T10:06:33Z</time>
      </trkpt>
      <trkpt lat="44.52483" lon="4.11252">
        <ele>337</ele>
        <time>2018-04-07T10:06:43Z</time>
      </trkpt>
      <trkpt lat="44.52492" lon="4.11251">
        <ele>338.8</ele>
        <time>2018-04-07T10:06:53Z</time>
      </trkpt>
      <trkpt lat="44.52502" lon="4.11249">
        <ele>339.9</ele>
        <time>2018-04-07T10:07:03Z</time>
      </trkpt>
      <trkpt lat="44.52511" lon="4.11247">
        <ele>340.6</ele>
        <time>2018-04-07T10:07:50Z</time>
      </trkpt>
      <trkpt lat="44.52521" lon="4.11246">
        <ele>340.4</ele>
        <time>2018-04-07T10:07:56Z</time>
      </trkpt>
      <trkpt lat="44.52532" lon="4.11243">
        <ele>339.4</ele>
        <time>2018-04-07T10:08:02Z</time>
      </trkpt>
      <trkpt lat="44.52542" lon="4.11241">
        <ele>337</ele>
        <time>2018-04-07T10:08:10Z</time>
      </trkpt>
      <trkpt lat="44.52548" lon="4.11231">
        <ele>336.1</ele>
        <time>2018-04-07T10:08:38Z</time>
      </trkpt>
      <trkpt lat="44.5255" lon="4.11215">
        <ele>338</ele>
        <time>2018-04-07T10:08:47Z</time>
      </trkpt>
      <trkpt lat="44.52543" lon="4.11228">
        <ele>339.2</ele>
        <time>2018-04-07T10:09:12Z</time>
      </trkpt>
      <trkpt lat="44.5254" lon="4.11242">
        <ele>337.6</ele>
        <time>2018-04-07T10:09:15Z</time>
      </trkpt>
      <trkpt lat="44.5254" lon="4.11257">
        <ele>336.7</ele>
        <time>2018-04-07T10:09:18Z</time>
      </trkpt>
      <trkpt lat="44.52543" lon="4.11272">
        <ele>336.4</ele>
        <time>2018-04-07T10:09:23Z</time>
      </trkpt>
      <trkpt lat="44.52548" lon="4.11283">
        <ele>337.4</ele>
        <time>2018-04-07T10:09:29Z</time>
      </trkpt>
      <trkpt lat="44.52556" lon="4.1129">
        <ele>339.2</ele>
        <time>2018-04-07T10:09:36Z</time>
      </trkpt>
      <trkpt lat="44.52565" lon="4.11284">
        <ele>342.5</ele>
        <time>2018-04-07T10:09:46Z</time>
      </trkpt>
      <trkpt lat="44.52556" lon="4.11284">
        <ele>344</ele>
        <time>2018-04-07T10:10:38Z</time>
      </trkpt>
      <trkpt lat="44.52551" lon="4.11273">
        <ele>346.4</ele>
        <time>2018-04-07T10:11:07Z</time>
      </trkpt>
      <trkpt lat="44.52557" lon="4.11262">
        <ele>347</ele>
        <time>2018-04-07T10:11:14Z</time>
      </trkpt>
      <trkpt lat="44.52563" lon="4.11245">
        <ele>350</ele>
        <time>2018-04-07T10:11:23Z</time>
      </trkpt>
      <trkpt lat="44.52566" lon="4.11233">
        <ele>351</ele>
        <time>2018-04-07T10:11:29Z</time>
      </trkpt>
      <trkpt lat="44.52568" lon="4.11215">
        <ele>352.8</ele>
        <time>2018-04-07T10:11:37Z</time>
      </trkpt>
      <trkpt lat="44.52566" lon="4.11199">
        <ele>353</ele>
        <time>2018-04-07T10:11:43Z</time>
      </trkpt>
      <trkpt lat="44.52565" lon="4.11178">
        <ele>354</ele>
        <time>2018-04-07T10:11:51Z</time>
      </trkpt>
      <trkpt lat="44.52556" lon="4.11157">
        <ele>355</ele>
        <time>2018-04-07T10:11:59Z</time>
      </trkpt>
      <trkpt lat="44.52549" lon="4.1115">
        <ele>356.5</ele>
        <time>2018-04-07T10:12:04Z</time>
      </trkpt>
      <trkpt lat="44.52541" lon="4.11135">
        <ele>358.1</ele>
        <time>2018-04-07T10:12:12Z</time>
      </trkpt>
      <trkpt lat="44.52541" lon="4.11121">
        <ele>359</ele>
        <time>2018-04-07T10:12:19Z</time>
      </trkpt>
      <trkpt lat="44.52539" lon="4.11105">
        <ele>362.7</ele>
        <time>2018-04-07T10:12:28Z</time>
      </trkpt>
      <trkpt lat="44.52537" lon="4.11092">
        <ele>365.3</ele>
        <time>2018-04-07T10:12:36Z</time>
      </trkpt>
      <trkpt lat="44.52534" lon="4.11079">
        <ele>367.7</ele>
        <time>2018-04-07T10:12:44Z</time>
      </trkpt>
      <trkpt lat="44.52532" lon="4.11067">
        <ele>370</ele>
        <time>2018-04-07T10:12:52Z</time>
      </trkpt>
      <trkpt lat="44.52529" lon="4.11053">
        <ele>372.3</ele>
        <time>2018-04-07T10:13:00Z</time>
      </trkpt>
      <trkpt lat="44.52525" lon="4.11041">
        <ele>374.4</ele>
        <time>2018-04-07T10:13:08Z</time>
      </trkpt>
      <trkpt lat="44.52535" lon="4.11043">
        <ele>377</ele>
        <time>2018-04-07T10:13:22Z</time>
      </trkpt>
      <trkpt lat="44.5254" lon="4.11054">
        <ele>378</ele>
        <time>2018-04-07T10:13:28Z</time>
      </trkpt>
      <trkpt lat="44.52546" lon="4.11064">
        <ele>378.9</ele>
        <time>2018-04-07T10:13:35Z</time>
      </trkpt>
      <trkpt lat="44.52553" lon="4.11073">
        <ele>380.3</ele>
        <time>2018-04-07T10:13:42Z</time>
      </trkpt>
      <trkpt lat="44.5256" lon="4.11082">
        <ele>382</ele>
        <time>2018-04-07T10:13:49Z</time>
      </trkpt>
      <trkpt lat="44.52567" lon="4.11091">
        <ele>383.8</ele>
        <time>2018-04-07T10:13:56Z</time>
      </trkpt>
      <trkpt lat="44.52575" lon="4.11099">
        <ele>385.4</ele>
        <time>2018-04-07T10:14:03Z</time>
      </trkpt>
      <trkpt lat="44.52582" lon="4.11109">
        <ele>386.8</ele>
        <time>2018-04-07T10:14:10Z</time>
      </trkpt>
      <trkpt lat="44.52592" lon="4.11118">
        <ele>388.7</ele>
        <time>2018-04-07T10:14:18Z</time>
      </trkpt>
      <trkpt lat="44.526" lon="4.11127">
        <ele>390.4</ele>
        <time>2018-04-07T10:14:26Z</time>
      </trkpt>
      <trkpt lat="44.52609" lon="4.11134">
        <ele>392.3</ele>
        <time>2018-04-07T10:14:34Z</time>
      </trkpt>
      <trkpt lat="44.52617" lon="4.1114">
        <ele>394.3</ele>
        <time>2018-04-07T10:14:41Z</time>
      </trkpt>
      <trkpt lat="44.52626" lon="4.11146">
        <ele>396.9</ele>
        <time>2018-04-07T10:14:49Z</time>
      </trkpt>
      <trkpt lat="44.52635" lon="4.11151">
        <ele>399.2</ele>
        <time>2018-04-07T10:14:56Z</time>
      </trkpt>
      <trkpt lat="44.52643" lon="4.11146">
        <ele>401.6</ele>
        <time>2018-04-07T10:15:04Z</time>
      </trkpt>
      <trkpt lat="44.52635" lon="4.1114">
        <ele>402.1</ele>
        <time>2018-04-07T10:15:10Z</time>
      </trkpt>
      <trkpt lat="44.52644" lon="4.11146">
        <ele>402.6</ele>
        <time>2018-04-07T10:15:18Z</time>
      </trkpt>
      <trkpt lat="44.52655" lon="4.11152">
        <ele>402.8</ele>
        <time>2018-04-07T10:15:25Z</time>
      </trkpt>
      <trkpt lat="44.52664" lon="4.11155">
        <ele>402.8</ele>
        <time>2018-04-07T10:15:29Z</time>
      </trkpt>
      <trkpt lat="44.52674" lon="4.11161">
        <ele>403.1</ele>
        <time>2018-04-07T10:15:35Z</time>
      </trkpt>
      <trkpt lat="44.52679" lon="4.11175">
        <ele>403.2</ele>
        <time>2018-04-07T10:15:39Z</time>
      </trkpt>
      <trkpt lat="44.5268" lon="4.1119">
        <ele>403.5</ele>
        <time>2018-04-07T10:15:43Z</time>
      </trkpt>
      <trkpt lat="44.52682" lon="4.11205">
        <ele>403.7</ele>
        <time>2018-04-07T10:15:47Z</time>
      </trkpt>
      <trkpt lat="44.52691" lon="4.11213">
        <ele>404.2</ele>
        <time>2018-04-07T10:15:51Z</time>
      </trkpt>
      <trkpt lat="44.52698" lon="4.11202">
        <ele>404.6</ele>
        <time>2018-04-07T10:15:55Z</time>
      </trkpt>
      <trkpt lat="44.52701" lon="4.11188">
        <ele>405.3</ele>
        <time>2018-04-07T10:15:59Z</time>
      </trkpt>
      <trkpt lat="44.52705" lon="4.11175">
        <ele>406</ele>
        <time>2018-04-07T10:16:03Z</time>
      </trkpt>
      <trkpt lat="44.52705" lon="4.11161">
        <ele>406.9</ele>
        <time>2018-04-07T10:16:07Z</time>
      </trkpt>
      <trkpt lat="44.52696" lon="4.11152">
        <ele>407.8</ele>
        <time>2018-04-07T10:16:11Z</time>
      </trkpt>
      <trkpt lat="44.52685" lon="4.11146">
        <ele>408.7</ele>
        <time>2018-04-07T10:16:16Z</time>
      </trkpt>
      <trkpt lat="44.52675" lon="4.1114">
        <ele>409.4</ele>
        <time>2018-04-07T10:16:20Z</time>
      </trkpt>
      <trkpt lat="44.52665" lon="4.11134">
        <ele>410.3</ele>
        <time>2018-04-07T10:16:24Z</time>
      </trkpt>
      <trkpt lat="44.52657" lon="4.11124">
        <ele>411</ele>
        <time>2018-04-07T10:16:28Z</time>
      </trkpt>
      <trkpt lat="44.52658" lon="4.11111">
        <ele>411.8</ele>
        <time>2018-04-07T10:16:32Z</time>
      </trkpt>
      <trkpt lat="44.52665" lon="4.11103">
        <ele>412.9</ele>
        <time>2018-04-07T10:16:36Z</time>
      </trkpt>
      <trkpt lat="44.52677" lon="4.11098">
        <ele>413.9</ele>
        <time>2018-04-07T10:16:41Z</time>
      </trkpt>
      <trkpt lat="44.52687" lon="4.11094">
        <ele>414.7</ele>
        <time>2018-04-07T10:16:45Z</time>
      </trkpt>
      <trkpt lat="44.52697" lon="4.11089">
        <ele>415.4</ele>
        <time>2018-04-07T10:16:49Z</time>
      </trkpt>
      <trkpt lat="44.52706" lon="4.11082">
        <ele>416.2</ele>
        <time>2018-04-07T10:16:53Z</time>
      </trkpt>
      <trkpt lat="44.52714" lon="4.11074">
        <ele>417</ele>
        <time>2018-04-07T10:16:57Z</time>
      </trkpt>
      <trkpt lat="44.52721" lon="4.11066">
        <ele>417.9</ele>
        <time>2018-04-07T10:17:01Z</time>
      </trkpt>
      <trkpt lat="44.52727" lon="4.11055">
        <ele>418.5</ele>
        <time>2018-04-07T10:17:05Z</time>
      </trkpt>
      <trkpt lat="44.52735" lon="4.11047">
        <ele>419.3</ele>
        <time>2018-04-07T10:17:09Z</time>
      </trkpt>
      <trkpt lat="44.52743" lon="4.11037">
        <ele>419.9</ele>
        <time>2018-04-07T10:17:13Z</time>
      </trkpt>
      <trkpt lat="44.52751" lon="4.11029">
        <ele>420.5</ele>
        <time>2018-04-07T10:17:17Z</time>
      </trkpt>
      <trkpt lat="44.52762" lon="4.11022">
        <ele>421</ele>
        <time>2018-04-07T10:17:21Z</time>
      </trkpt>
      <trkpt lat="44.52771" lon="4.11018">
        <ele>421.4</ele>
        <time>2018-04-07T10:17:24Z</time>
      </trkpt>
      <trkpt lat="44.52781" lon="4.11012">
        <ele>422.1</ele>
        <time>2018-04-07T10:17:28Z</time>
      </trkpt>
      <trkpt lat="44.52791" lon="4.11005">
        <ele>423</ele>
        <time>2018-04-07T10:17:32Z</time>
      </trkpt>
      <trkpt lat="44.52799" lon="4.10998">
        <ele>423.5</ele>
        <time>2018-04-07T10:17:36Z</time>
      </trkpt>
      <trkpt lat="44.52804" lon="4.10986">
        <ele>424.2</ele>
        <time>2018-04-07T10:17:40Z</time>
      </trkpt>
      <trkpt lat="44.52809" lon="4.10973">
        <ele>424.9</ele>
        <time>2018-04-07T10:17:44Z</time>
      </trkpt>
      <trkpt lat="44.52815" lon="4.1096">
        <ele>425.7</ele>
        <time>2018-04-07T10:17:48Z</time>
      </trkpt>
      <trkpt lat="44.52819" lon="4.10947">
        <ele>426.3</ele>
        <time>2018-04-07T10:17:52Z</time>
      </trkpt>
      <trkpt lat="44.52826" lon="4.10936">
        <ele>427.1</ele>
        <time>2018-04-07T10:17:56Z</time>
      </trkpt>
      <trkpt lat="44.52832" lon="4.10923">
        <ele>427.7</ele>
        <time>2018-04-07T10:18:00Z</time>
      </trkpt>
      <trkpt lat="44.52835" lon="4.10909">
        <ele>428.2</ele>
        <time>2018-04-07T10:18:04Z</time>
      </trkpt>
      <trkpt lat="44.52837" lon="4.10893">
        <ele>428.8</ele>
        <time>2018-04-07T10:18:08Z</time>
      </trkpt>
      <trkpt lat="44.5284" lon="4.10879">
        <ele>429.6</ele>
        <time>2018-04-07T10:18:12Z</time>
      </trkpt>
      <trkpt lat="44.52842" lon="4.10864">
        <ele>430.1</ele>
        <time>2018-04-07T10:18:16Z</time>
      </trkpt>
      <trkpt lat="44.52843" lon="4.10848">
        <ele>430.7</ele>
        <time>2018-04-07T10:18:20Z</time>
      </trkpt>
      <trkpt lat="44.52848" lon="4.10836">
        <ele>431.1</ele>
        <time>2018-04-07T10:18:24Z</time>
      </trkpt>
      <trkpt lat="44.52851" lon="4.10823">
        <ele>431.8</ele>
        <time>2018-04-07T10:18:28Z</time>
      </trkpt>
      <trkpt lat="44.52855" lon="4.10811">
        <ele>432.7</ele>
        <time>2018-04-07T10:18:32Z</time>
      </trkpt>
      <trkpt lat="44.52861" lon="4.108">
        <ele>433.4</ele>
        <time>2018-04-07T10:18:36Z</time>
      </trkpt>
      <trkpt lat="44.52869" lon="4.1079">
        <ele>434.2</ele>
        <time>2018-04-07T10:18:40Z</time>
      </trkpt>
      <trkpt lat="44.52874" lon="4.1078">
        <ele>435.1</ele>
        <time>2018-04-07T10:18:44Z</time>
      </trkpt>
      <trkpt lat="44.52877" lon="4.10764">
        <ele>435.8</ele>
        <time>2018-04-07T10:18:48Z</time>
      </trkpt>
      <trkpt lat="44.5288" lon="4.10748">
        <ele>436.6</ele>
        <time>2018-04-07T10:18:52Z</time>
      </trkpt>
      <trkpt lat="44.52885" lon="4.10735">
        <ele>437.3</ele>
        <time>2018-04-07T10:18:56Z</time>
      </trkpt>
      <trkpt lat="44.52893" lon="4.10726">
        <ele>438.1</ele>
        <time>2018-04-07T10:19:00Z</time>
      </trkpt>
      <trkpt lat="44.529" lon="4.10717">
        <ele>438.8</ele>
        <time>2018-04-07T10:19:04Z</time>
      </trkpt>
      <trkpt lat="44.52909" lon="4.10712">
        <ele>439.3</ele>
        <time>2018-04-07T10:19:08Z</time>
      </trkpt>
      <trkpt lat="44.52918" lon="4.10711">
        <ele>439.9</ele>
        <time>2018-04-07T10:19:12Z</time>
      </trkpt>
      <trkpt lat="44.52929" lon="4.10713">
        <ele>440.6</ele>
        <time>2018-04-07T10:19:16Z</time>
      </trkpt>
      <trkpt lat="44.52938" lon="4.10718">
        <ele>441.4</ele>
        <time>2018-04-07T10:19:20Z</time>
      </trkpt>
      <trkpt lat="44.52947" lon="4.10726">
        <ele>442.3</ele>
        <time>2018-04-07T10:19:24Z</time>
      </trkpt>
      <trkpt lat="44.52958" lon="4.10731">
        <ele>443.4</ele>
        <time>2018-04-07T10:19:29Z</time>
      </trkpt>
      <trkpt lat="44.52968" lon="4.10733">
        <ele>444.4</ele>
        <time>2018-04-07T10:19:34Z</time>
      </trkpt>
      <trkpt lat="44.52977" lon="4.10735">
        <ele>445.7</ele>
        <time>2018-04-07T10:19:40Z</time>
      </trkpt>
      <trkpt lat="44.52985" lon="4.10741">
        <ele>446.4</ele>
        <time>2018-04-07T10:19:44Z</time>
      </trkpt>
      <trkpt lat="44.52998" lon="4.10746">
        <ele>446.8</ele>
        <time>2018-04-07T10:19:47Z</time>
      </trkpt>
      <trkpt lat="44.53008" lon="4.10749">
        <ele>447.3</ele>
        <time>2018-04-07T10:19:50Z</time>
      </trkpt>
      <trkpt lat="44.5302" lon="4.10752">
        <ele>447.9</ele>
        <time>2018-04-07T10:19:53Z</time>
      </trkpt>
      <trkpt lat="44.53013" lon="4.10761">
        <ele>449.7</ele>
        <time>2018-04-07T10:20:01Z</time>
      </trkpt>
      <trkpt lat="44.53004" lon="4.10758">
        <ele>451</ele>
        <time>2018-04-07T10:20:06Z</time>
      </trkpt>
      <trkpt lat="44.52992" lon="4.10755">
        <ele>451.9</ele>
        <time>2018-04-07T10:20:10Z</time>
      </trkpt>
      <trkpt lat="44.52982" lon="4.10755">
        <ele>452.9</ele>
        <time>2018-04-07T10:20:15Z</time>
      </trkpt>
      <trkpt lat="44.52973" lon="4.10754">
        <ele>453.9</ele>
        <time>2018-04-07T10:20:20Z</time>
      </trkpt>
      <trkpt lat="44.52963" lon="4.10752">
        <ele>454.5</ele>
        <time>2018-04-07T10:20:24Z</time>
      </trkpt>
      <trkpt lat="44.52954" lon="4.10753">
        <ele>455.3</ele>
        <time>2018-04-07T10:20:29Z</time>
      </trkpt>
      <trkpt lat="44.52944" lon="4.10755">
        <ele>456.1</ele>
        <time>2018-04-07T10:20:33Z</time>
      </trkpt>
      <trkpt lat="44.52931" lon="4.1076">
        <ele>456.6</ele>
        <time>2018-04-07T10:20:37Z</time>
      </trkpt>
      <trkpt lat="44.5292" lon="4.10765">
        <ele>457.1</ele>
        <time>2018-04-07T10:20:40Z</time>
      </trkpt>
      <trkpt lat="44.52912" lon="4.10771">
        <ele>457.8</ele>
        <time>2018-04-07T10:20:43Z</time>
      </trkpt>
      <trkpt lat="44.52904" lon="4.10782">
        <ele>458.7</ele>
        <time>2018-04-07T10:20:47Z</time>
      </trkpt>
      <trkpt lat="44.52897" lon="4.10796">
        <ele>459.4</ele>
        <time>2018-04-07T10:20:51Z</time>
      </trkpt>
      <trkpt lat="44.52892" lon="4.10807">
        <ele>459.9</ele>
        <time>2018-04-07T10:20:54Z</time>
      </trkpt>
      <trkpt lat="44.52886" lon="4.10819">
        <ele>460.5</ele>
        <time>2018-04-07T10:20:58Z</time>
      </trkpt>
      <trkpt lat="44.5288" lon="4.10834">
        <ele>461.2</ele>
        <time>2018-04-07T10:21:02Z</time>
      </trkpt>
      <trkpt lat="44.52876" lon="4.10849">
        <ele>461.8</ele>
        <time>2018-04-07T10:21:06Z</time>
      </trkpt>
      <trkpt lat="44.52874" lon="4.10863">
        <ele>462.5</ele>
        <time>2018-04-07T10:21:10Z</time>
      </trkpt>
      <trkpt lat="44.52872" lon="4.10877">
        <ele>463.1</ele>
        <time>2018-04-07T10:21:14Z</time>
      </trkpt>
      <trkpt lat="44.52873" lon="4.10893">
        <ele>463.9</ele>
        <time>2018-04-07T10:21:18Z</time>
      </trkpt>
      <trkpt lat="44.52872" lon="4.10907">
        <ele>464.6</ele>
        <time>2018-04-07T10:21:22Z</time>
      </trkpt>
      <trkpt lat="44.5287" lon="4.10921">
        <ele>465.3</ele>
        <time>2018-04-07T10:21:26Z</time>
      </trkpt>
      <trkpt lat="44.52866" lon="4.10934">
        <ele>466.2</ele>
        <time>2018-04-07T10:21:30Z</time>
      </trkpt>
      <trkpt lat="44.52862" lon="4.10948">
        <ele>467.1</ele>
        <time>2018-04-07T10:21:34Z</time>
      </trkpt>
      <trkpt lat="44.52858" lon="4.10964">
        <ele>467.8</ele>
        <time>2018-04-07T10:21:38Z</time>
      </trkpt>
      <trkpt lat="44.52855" lon="4.10978">
        <ele>468.3</ele>
        <time>2018-04-07T10:21:42Z</time>
      </trkpt>
      <trkpt lat="44.52853" lon="4.10993">
        <ele>468.8</ele>
        <time>2018-04-07T10:21:46Z</time>
      </trkpt>
      <trkpt lat="44.5285" lon="4.11008">
        <ele>469.4</ele>
        <time>2018-04-07T10:21:50Z</time>
      </trkpt>
      <trkpt lat="44.52845" lon="4.11021">
        <ele>470.2</ele>
        <time>2018-04-07T10:21:54Z</time>
      </trkpt>
      <trkpt lat="44.5284" lon="4.11034">
        <ele>470.9</ele>
        <time>2018-04-07T10:21:58Z</time>
      </trkpt>
      <trkpt lat="44.52834" lon="4.11045">
        <ele>471.6</ele>
        <time>2018-04-07T10:22:02Z</time>
      </trkpt>
      <trkpt lat="44.52827" lon="4.11055">
        <ele>472.3</ele>
        <time>2018-04-07T10:22:06Z</time>
      </trkpt>
      <trkpt lat="44.52821" lon="4.11067">
        <ele>473.1</ele>
        <time>2018-04-07T10:22:10Z</time>
      </trkpt>
      <trkpt lat="44.52817" lon="4.11081">
        <ele>474.2</ele>
        <time>2018-04-07T10:22:14Z</time>
      </trkpt>
      <trkpt lat="44.52817" lon="4.11096">
        <ele>474.9</ele>
        <time>2018-04-07T10:22:18Z</time>
      </trkpt>
      <trkpt lat="44.52818" lon="4.11111">
        <ele>475.3</ele>
        <time>2018-04-07T10:22:22Z</time>
      </trkpt>
      <trkpt lat="44.52821" lon="4.11125">
        <ele>475.7</ele>
        <time>2018-04-07T10:22:26Z</time>
      </trkpt>
      <trkpt lat="44.52823" lon="4.11139">
        <ele>476.5</ele>
        <time>2018-04-07T10:22:30Z</time>
      </trkpt>
      <trkpt lat="44.52825" lon="4.11154">
        <ele>477.4</ele>
        <time>2018-04-07T10:22:34Z</time>
      </trkpt>
      <trkpt lat="44.52828" lon="4.1117">
        <ele>478.3</ele>
        <time>2018-04-07T10:22:38Z</time>
      </trkpt>
      <trkpt lat="44.5283" lon="4.11187">
        <ele>479.2</ele>
        <time>2018-04-07T10:22:42Z</time>
      </trkpt>
      <trkpt lat="44.52832" lon="4.11202">
        <ele>480</ele>
        <time>2018-04-07T10:22:46Z</time>
      </trkpt>
      <trkpt lat="44.52836" lon="4.11218">
        <ele>481.1</ele>
        <time>2018-04-07T10:22:50Z</time>
      </trkpt>
      <trkpt lat="44.52838" lon="4.1123">
        <ele>481.6</ele>
        <time>2018-04-07T10:22:53Z</time>
      </trkpt>
      <trkpt lat="44.52842" lon="4.11242">
        <ele>481.9</ele>
        <time>2018-04-07T10:22:56Z</time>
      </trkpt>
      <trkpt lat="44.52847" lon="4.11253">
        <ele>482.3</ele>
        <time>2018-04-07T10:22:59Z</time>
      </trkpt>
      <trkpt lat="44.52852" lon="4.11263">
        <ele>482.7</ele>
        <time>2018-04-07T10:23:02Z</time>
      </trkpt>
      <trkpt lat="44.52858" lon="4.11273">
        <ele>483.1</ele>
        <time>2018-04-07T10:23:05Z</time>
      </trkpt>
      <trkpt lat="44.52866" lon="4.11285">
        <ele>483.7</ele>
        <time>2018-04-07T10:23:09Z</time>
      </trkpt>
      <trkpt lat="44.52875" lon="4.1129">
        <ele>484.3</ele>
        <time>2018-04-07T10:23:13Z</time>
      </trkpt>
      <trkpt lat="44.52871" lon="4.11278">
        <ele>484.8</ele>
        <time>2018-04-07T10:23:17Z</time>
      </trkpt>
      <trkpt lat="44.52863" lon="4.11268">
        <ele>485.1</ele>
        <time>2018-04-07T10:23:21Z</time>
      </trkpt>
      <trkpt lat="44.52858" lon="4.11255">
        <ele>486.1</ele>
        <time>2018-04-07T10:23:26Z</time>
      </trkpt>
      <trkpt lat="44.52856" lon="4.11243">
        <ele>487.2</ele>
        <time>2018-04-07T10:23:30Z</time>
      </trkpt>
      <trkpt lat="44.52854" lon="4.1123">
        <ele>487.8</ele>
        <time>2018-04-07T10:23:34Z</time>
      </trkpt>
      <trkpt lat="44.52851" lon="4.11216">
        <ele>489.2</ele>
        <time>2018-04-07T10:23:39Z</time>
      </trkpt>
      <trkpt lat="44.52851" lon="4.11202">
        <ele>490.4</ele>
        <time>2018-04-07T10:23:44Z</time>
      </trkpt>
      <trkpt lat="44.52854" lon="4.11188">
        <ele>491.2</ele>
        <time>2018-04-07T10:23:49Z</time>
      </trkpt>
      <trkpt lat="44.52856" lon="4.11173">
        <ele>492.2</ele>
        <time>2018-04-07T10:23:54Z</time>
      </trkpt>
      <trkpt lat="44.52859" lon="4.11159">
        <ele>492.8</ele>
        <time>2018-04-07T10:23:59Z</time>
      </trkpt>
      <trkpt lat="44.52861" lon="4.11146">
        <ele>493.7</ele>
        <time>2018-04-07T10:24:03Z</time>
      </trkpt>
      <trkpt lat="44.52863" lon="4.11133">
        <ele>494.7</ele>
        <time>2018-04-07T10:24:08Z</time>
      </trkpt>
      <trkpt lat="44.52865" lon="4.11119">
        <ele>495.9</ele>
        <time>2018-04-07T10:24:13Z</time>
      </trkpt>
      <trkpt lat="44.52868" lon="4.11107">
        <ele>497</ele>
        <time>2018-04-07T10:24:18Z</time>
      </trkpt>
      <trkpt lat="44.52871" lon="4.11094">
        <ele>498.1</ele>
        <time>2018-04-07T10:24:23Z</time>
      </trkpt>
      <trkpt lat="44.52878" lon="4.11085">
        <ele>498.9</ele>
        <time>2018-04-07T10:24:27Z</time>
      </trkpt>
      <trkpt lat="44.52887" lon="4.11074">
        <ele>499.9</ele>
        <time>2018-04-07T10:24:32Z</time>
      </trkpt>
      <trkpt lat="44.52889" lon="4.11059">
        <ele>500.8</ele>
        <time>2018-04-07T10:24:37Z</time>
      </trkpt>
      <trkpt lat="44.52894" lon="4.11046">
        <ele>501.9</ele>
        <time>2018-04-07T10:24:42Z</time>
      </trkpt>
      <trkpt lat="44.52898" lon="4.11032">
        <ele>502.9</ele>
        <time>2018-04-07T10:24:47Z</time>
      </trkpt>
      <trkpt lat="44.52903" lon="4.1102">
        <ele>504</ele>
        <time>2018-04-07T10:24:52Z</time>
      </trkpt>
      <trkpt lat="44.52906" lon="4.11006">
        <ele>504.6</ele>
        <time>2018-04-07T10:24:57Z</time>
      </trkpt>
      <trkpt lat="44.52912" lon="4.10995">
        <ele>506</ele>
        <time>2018-04-07T10:25:02Z</time>
      </trkpt>
      <trkpt lat="44.52915" lon="4.10983">
        <ele>507.3</ele>
        <time>2018-04-07T10:25:07Z</time>
      </trkpt>
      <trkpt lat="44.52921" lon="4.1097">
        <ele>508.4</ele>
        <time>2018-04-07T10:25:12Z</time>
      </trkpt>
      <trkpt lat="44.52927" lon="4.10958">
        <ele>509.4</ele>
        <time>2018-04-07T10:25:17Z</time>
      </trkpt>
      <trkpt lat="44.52934" lon="4.10948">
        <ele>510.2</ele>
        <time>2018-04-07T10:25:22Z</time>
      </trkpt>
      <trkpt lat="44.52942" lon="4.10939">
        <ele>511.5</ele>
        <time>2018-04-07T10:25:27Z</time>
      </trkpt>
      <trkpt lat="44.52951" lon="4.10931">
        <ele>513</ele>
        <time>2018-04-07T10:25:32Z</time>
      </trkpt>
      <trkpt lat="44.52959" lon="4.10925">
        <ele>513.8</ele>
        <time>2018-04-07T10:25:37Z</time>
      </trkpt>
      <trkpt lat="44.52968" lon="4.10921">
        <ele>514.8</ele>
        <time>2018-04-07T10:25:42Z</time>
      </trkpt>
      <trkpt lat="44.52979" lon="4.10919">
        <ele>515.7</ele>
        <time>2018-04-07T10:25:47Z</time>
      </trkpt>
      <trkpt lat="44.52988" lon="4.1092">
        <ele>517.2</ele>
        <time>2018-04-07T10:25:53Z</time>
      </trkpt>
      <trkpt lat="44.52999" lon="4.1092">
        <ele>519.1</ele>
        <time>2018-04-07T10:25:58Z</time>
      </trkpt>
      <trkpt lat="44.53012" lon="4.10923">
        <ele>519</ele>
        <time>2018-04-07T10:26:05Z</time>
      </trkpt>
      <trkpt lat="44.53021" lon="4.10924">
        <ele>520.5</ele>
        <time>2018-04-07T10:26:11Z</time>
      </trkpt>
      <trkpt lat="44.5303" lon="4.10926">
        <ele>521.4</ele>
        <time>2018-04-07T10:26:16Z</time>
      </trkpt>
      <trkpt lat="44.53039" lon="4.10929">
        <ele>522.2</ele>
        <time>2018-04-07T10:26:19Z</time>
      </trkpt>
      <trkpt lat="44.53049" lon="4.10936">
        <ele>523.2</ele>
        <time>2018-04-07T10:26:24Z</time>
      </trkpt>
      <trkpt lat="44.53059" lon="4.10941">
        <ele>524.5</ele>
        <time>2018-04-07T10:26:29Z</time>
      </trkpt>
      <trkpt lat="44.53068" lon="4.10947">
        <ele>525.4</ele>
        <time>2018-04-07T10:26:34Z</time>
      </trkpt>
      <trkpt lat="44.53077" lon="4.10955">
        <ele>526.8</ele>
        <time>2018-04-07T10:26:40Z</time>
      </trkpt>
      <trkpt lat="44.53085" lon="4.10965">
        <ele>527.8</ele>
        <time>2018-04-07T10:26:45Z</time>
      </trkpt>
      <trkpt lat="44.53091" lon="4.10976">
        <ele>529</ele>
        <time>2018-04-07T10:26:50Z</time>
      </trkpt>
      <trkpt lat="44.53097" lon="4.10986">
        <ele>530.3</ele>
        <time>2018-04-07T10:26:58Z</time>
      </trkpt>
      <trkpt lat="44.53105" lon="4.10995">
        <ele>531</ele>
        <time>2018-04-07T10:27:02Z</time>
      </trkpt>
      <trkpt lat="44.53114" lon="4.11002">
        <ele>531.9</ele>
        <time>2018-04-07T10:27:07Z</time>
      </trkpt>
      <trkpt lat="44.53123" lon="4.11008">
        <ele>532.8</ele>
        <time>2018-04-07T10:27:12Z</time>
      </trkpt>
      <trkpt lat="44.53131" lon="4.11015">
        <ele>534</ele>
        <time>2018-04-07T10:27:18Z</time>
      </trkpt>
      <trkpt lat="44.5314" lon="4.11022">
        <ele>535.4</ele>
        <time>2018-04-07T10:27:24Z</time>
      </trkpt>
      <trkpt lat="44.53149" lon="4.11026">
        <ele>536.4</ele>
        <time>2018-04-07T10:27:28Z</time>
      </trkpt>
      <trkpt lat="44.53157" lon="4.11031">
        <ele>537.4</ele>
        <time>2018-04-07T10:27:34Z</time>
      </trkpt>
      <trkpt lat="44.53166" lon="4.11038">
        <ele>538.5</ele>
        <time>2018-04-07T10:27:40Z</time>
      </trkpt>
      <trkpt lat="44.53175" lon="4.11044">
        <ele>539.9</ele>
        <time>2018-04-07T10:27:48Z</time>
      </trkpt>
      <trkpt lat="44.53184" lon="4.11049">
        <ele>540.4</ele>
        <time>2018-04-07T10:27:51Z</time>
      </trkpt>
      <trkpt lat="44.53193" lon="4.11054">
        <ele>540.9</ele>
        <time>2018-04-07T10:27:54Z</time>
      </trkpt>
      <trkpt lat="44.53203" lon="4.1106">
        <ele>541.9</ele>
        <time>2018-04-07T10:27:59Z</time>
      </trkpt>
      <trkpt lat="44.53212" lon="4.11066">
        <ele>542.3</ele>
        <time>2018-04-07T10:28:02Z</time>
      </trkpt>
      <trkpt lat="44.5322" lon="4.11071">
        <ele>543.3</ele>
        <time>2018-04-07T10:28:06Z</time>
      </trkpt>
      <trkpt lat="44.53229" lon="4.11076">
        <ele>544.3</ele>
        <time>2018-04-07T10:28:10Z</time>
      </trkpt>
      <trkpt lat="44.53238" lon="4.11079">
        <ele>545.2</ele>
        <time>2018-04-07T10:28:14Z</time>
      </trkpt>
      <trkpt lat="44.53247" lon="4.11083">
        <ele>546.3</ele>
        <time>2018-04-07T10:28:19Z</time>
      </trkpt>
      <trkpt lat="44.53256" lon="4.11085">
        <ele>547.2</ele>
        <time>2018-04-07T10:28:23Z</time>
      </trkpt>
      <trkpt lat="44.53267" lon="4.11085">
        <ele>548</ele>
        <time>2018-04-07T10:28:28Z</time>
      </trkpt>
      <trkpt lat="44.53277" lon="4.11085">
        <ele>549</ele>
        <time>2018-04-07T10:28:33Z</time>
      </trkpt>
      <trkpt lat="44.53286" lon="4.11087">
        <ele>549.8</ele>
        <time>2018-04-07T10:28:38Z</time>
      </trkpt>
      <trkpt lat="44.53296" lon="4.11086">
        <ele>550.7</ele>
        <time>2018-04-07T10:28:43Z</time>
      </trkpt>
      <trkpt lat="44.53305" lon="4.1109">
        <ele>551.7</ele>
        <time>2018-04-07T10:28:47Z</time>
      </trkpt>
      <trkpt lat="44.53315" lon="4.11091">
        <ele>552.8</ele>
        <time>2018-04-07T10:28:52Z</time>
      </trkpt>
      <trkpt lat="44.53324" lon="4.11094">
        <ele>554</ele>
        <time>2018-04-07T10:28:57Z</time>
      </trkpt>
      <trkpt lat="44.53333" lon="4.11097">
        <ele>554.9</ele>
        <time>2018-04-07T10:29:02Z</time>
      </trkpt>
      <trkpt lat="44.53342" lon="4.111">
        <ele>555.6</ele>
        <time>2018-04-07T10:29:07Z</time>
      </trkpt>
      <trkpt lat="44.53351" lon="4.11102">
        <ele>556.6</ele>
        <time>2018-04-07T10:29:11Z</time>
      </trkpt>
      <trkpt lat="44.53362" lon="4.11106">
        <ele>557.4</ele>
        <time>2018-04-07T10:29:16Z</time>
      </trkpt>
      <trkpt lat="44.53372" lon="4.11111">
        <ele>558.5</ele>
        <time>2018-04-07T10:29:21Z</time>
      </trkpt>
      <trkpt lat="44.53382" lon="4.11114">
        <ele>559.1</ele>
        <time>2018-04-07T10:29:25Z</time>
      </trkpt>
      <trkpt lat="44.53392" lon="4.11118">
        <ele>560.3</ele>
        <time>2018-04-07T10:29:30Z</time>
      </trkpt>
      <trkpt lat="44.53402" lon="4.11121">
        <ele>561.3</ele>
        <time>2018-04-07T10:29:35Z</time>
      </trkpt>
      <trkpt lat="44.53413" lon="4.11125">
        <ele>562.5</ele>
        <time>2018-04-07T10:29:41Z</time>
      </trkpt>
      <trkpt lat="44.53423" lon="4.11129">
        <ele>563.9</ele>
        <time>2018-04-07T10:29:47Z</time>
      </trkpt>
      <trkpt lat="44.53431" lon="4.11134">
        <ele>565.3</ele>
        <time>2018-04-07T10:29:52Z</time>
      </trkpt>
      <trkpt lat="44.5344" lon="4.11139">
        <ele>566.6</ele>
        <time>2018-04-07T10:29:57Z</time>
      </trkpt>
      <trkpt lat="44.53449" lon="4.11144">
        <ele>567.4</ele>
        <time>2018-04-07T10:30:02Z</time>
      </trkpt>
      <trkpt lat="44.53458" lon="4.11149">
        <ele>568.3</ele>
        <time>2018-04-07T10:30:07Z</time>
      </trkpt>
      <trkpt lat="44.53467" lon="4.11152">
        <ele>569</ele>
        <time>2018-04-07T10:30:12Z</time>
      </trkpt>
      <trkpt lat="44.53477" lon="4.11152">
        <ele>570</ele>
        <time>2018-04-07T10:30:17Z</time>
      </trkpt>
      <trkpt lat="44.53487" lon="4.1115">
        <ele>570.7</ele>
        <time>2018-04-07T10:30:22Z</time>
      </trkpt>
      <trkpt lat="44.53497" lon="4.11145">
        <ele>571.4</ele>
        <time>2018-04-07T10:30:27Z</time>
      </trkpt>
      <trkpt lat="44.53506" lon="4.1114">
        <ele>572.4</ele>
        <time>2018-04-07T10:30:32Z</time>
      </trkpt>
      <trkpt lat="44.53514" lon="4.11133">
        <ele>573.2</ele>
        <time>2018-04-07T10:30:37Z</time>
      </trkpt>
      <trkpt lat="44.53521" lon="4.11123">
        <ele>574.3</ele>
        <time>2018-04-07T10:30:42Z</time>
      </trkpt>
      <trkpt lat="44.5353" lon="4.11114">
        <ele>575.4</ele>
        <time>2018-04-07T10:30:47Z</time>
      </trkpt>
      <trkpt lat="44.53537" lon="4.11103">
        <ele>576.8</ele>
        <time>2018-04-07T10:30:53Z</time>
      </trkpt>
      <trkpt lat="44.53544" lon="4.11095">
        <ele>577.9</ele>
        <time>2018-04-07T10:30:58Z</time>
      </trkpt>
      <trkpt lat="44.53552" lon="4.11086">
        <ele>578.9</ele>
        <time>2018-04-07T10:31:03Z</time>
      </trkpt>
      <trkpt lat="44.53562" lon="4.11082">
        <ele>580.1</ele>
        <time>2018-04-07T10:31:08Z</time>
      </trkpt>
      <trkpt lat="44.53572" lon="4.1108">
        <ele>581.2</ele>
        <time>2018-04-07T10:31:13Z</time>
      </trkpt>
      <trkpt lat="44.53583" lon="4.1108">
        <ele>582.3</ele>
        <time>2018-04-07T10:31:18Z</time>
      </trkpt>
      <trkpt lat="44.53593" lon="4.11081">
        <ele>583.1</ele>
        <time>2018-04-07T10:31:23Z</time>
      </trkpt>
      <trkpt lat="44.53604" lon="4.11084">
        <ele>584.1</ele>
        <time>2018-04-07T10:31:28Z</time>
      </trkpt>
      <trkpt lat="44.53614" lon="4.11087">
        <ele>585</ele>
        <time>2018-04-07T10:31:33Z</time>
      </trkpt>
      <trkpt lat="44.53624" lon="4.11089">
        <ele>585.8</ele>
        <time>2018-04-07T10:31:38Z</time>
      </trkpt>
      <trkpt lat="44.53634" lon="4.11088">
        <ele>586.8</ele>
        <time>2018-04-07T10:31:43Z</time>
      </trkpt>
      <trkpt lat="44.53642" lon="4.11081">
        <ele>587.7</ele>
        <time>2018-04-07T10:31:48Z</time>
      </trkpt>
      <trkpt lat="44.5365" lon="4.11073">
        <ele>588.6</ele>
        <time>2018-04-07T10:31:53Z</time>
      </trkpt>
      <trkpt lat="44.53658" lon="4.11065">
        <ele>589.8</ele>
        <time>2018-04-07T10:31:58Z</time>
      </trkpt>
      <trkpt lat="44.53667" lon="4.11057">
        <ele>590.8</ele>
        <time>2018-04-07T10:32:03Z</time>
      </trkpt>
      <trkpt lat="44.53675" lon="4.11047">
        <ele>592</ele>
        <time>2018-04-07T10:32:08Z</time>
      </trkpt>
      <trkpt lat="44.53683" lon="4.11038">
        <ele>593</ele>
        <time>2018-04-07T10:32:13Z</time>
      </trkpt>
      <trkpt lat="44.53691" lon="4.1103">
        <ele>594.3</ele>
        <time>2018-04-07T10:32:18Z</time>
      </trkpt>
      <trkpt lat="44.53698" lon="4.11021">
        <ele>595.3</ele>
        <time>2018-04-07T10:32:23Z</time>
      </trkpt>
      <trkpt lat="44.53705" lon="4.11011">
        <ele>596.6</ele>
        <time>2018-04-07T10:32:28Z</time>
      </trkpt>
      <trkpt lat="44.53711" lon="4.11001">
        <ele>597.6</ele>
        <time>2018-04-07T10:32:33Z</time>
      </trkpt>
      <trkpt lat="44.53717" lon="4.1099">
        <ele>598.7</ele>
        <time>2018-04-07T10:32:38Z</time>
      </trkpt>
      <trkpt lat="44.53722" lon="4.10978">
        <ele>599.4</ele>
        <time>2018-04-07T10:32:43Z</time>
      </trkpt>
      <trkpt lat="44.53728" lon="4.10967">
        <ele>600.3</ele>
        <time>2018-04-07T10:32:48Z</time>
      </trkpt>
      <trkpt lat="44.53734" lon="4.10955">
        <ele>601.1</ele>
        <time>2018-04-07T10:32:53Z</time>
      </trkpt>
      <trkpt lat="44.53741" lon="4.10944">
        <ele>601.9</ele>
        <time>2018-04-07T10:32:58Z</time>
      </trkpt>
      <trkpt lat="44.53748" lon="4.10934">
        <ele>603.1</ele>
        <time>2018-04-07T10:33:03Z</time>
      </trkpt>
      <trkpt lat="44.53756" lon="4.10923">
        <ele>603.9</ele>
        <time>2018-04-07T10:33:08Z</time>
      </trkpt>
      <trkpt lat="44.53764" lon="4.10913">
        <ele>605</ele>
        <time>2018-04-07T10:33:13Z</time>
      </trkpt>
      <trkpt lat="44.53772" lon="4.10906">
        <ele>605.7</ele>
        <time>2018-04-07T10:33:18Z</time>
      </trkpt>
      <trkpt lat="44.53777" lon="4.10919">
        <ele>606.6</ele>
        <time>2018-04-07T10:33:23Z</time>
      </trkpt>
      <trkpt lat="44.53771" lon="4.10929">
        <ele>607.3</ele>
        <time>2018-04-07T10:33:28Z</time>
      </trkpt>
      <trkpt lat="44.53761" lon="4.10938">
        <ele>607.8</ele>
        <time>2018-04-07T10:33:33Z</time>
      </trkpt>
      <trkpt lat="44.53755" lon="4.10948">
        <ele>608.3</ele>
        <time>2018-04-07T10:33:37Z</time>
      </trkpt>
      <trkpt lat="44.53752" lon="4.1096">
        <ele>609.2</ele>
        <time>2018-04-07T10:33:42Z</time>
      </trkpt>
      <trkpt lat="44.53749" lon="4.10972">
        <ele>610.3</ele>
        <time>2018-04-07T10:33:47Z</time>
      </trkpt>
      <trkpt lat="44.53746" lon="4.10985">
        <ele>611.2</ele>
        <time>2018-04-07T10:33:52Z</time>
      </trkpt>
      <trkpt lat="44.53744" lon="4.10999">
        <ele>612.4</ele>
        <time>2018-04-07T10:33:58Z</time>
      </trkpt>
      <trkpt lat="44.53741" lon="4.11014">
        <ele>613</ele>
        <time>2018-04-07T10:34:03Z</time>
      </trkpt>
      <trkpt lat="44.53739" lon="4.11028">
        <ele>614</ele>
        <time>2018-04-07T10:34:09Z</time>
      </trkpt>
      <trkpt lat="44.53735" lon="4.1104">
        <ele>614.9</ele>
        <time>2018-04-07T10:34:14Z</time>
      </trkpt>
      <trkpt lat="44.53731" lon="4.11054">
        <ele>616.1</ele>
        <time>2018-04-07T10:34:20Z</time>
      </trkpt>
      <trkpt lat="44.53724" lon="4.11065">
        <ele>617.3</ele>
        <time>2018-04-07T10:34:26Z</time>
      </trkpt>
      <trkpt lat="44.53717" lon="4.11075">
        <ele>617.9</ele>
        <time>2018-04-07T10:34:31Z</time>
      </trkpt>
      <trkpt lat="44.5371" lon="4.11084">
        <ele>618.6</ele>
        <time>2018-04-07T10:34:36Z</time>
      </trkpt>
      <trkpt lat="44.53704" lon="4.11093">
        <ele>619.9</ele>
        <time>2018-04-07T10:34:41Z</time>
      </trkpt>
      <trkpt lat="44.53696" lon="4.11104">
        <ele>621.3</ele>
        <time>2018-04-07T10:34:47Z</time>
      </trkpt>
      <trkpt lat="44.53689" lon="4.11112">
        <ele>622.2</ele>
        <time>2018-04-07T10:34:52Z</time>
      </trkpt>
      <trkpt lat="44.53682" lon="4.11123">
        <ele>623.6</ele>
        <time>2018-04-07T10:34:58Z</time>
      </trkpt>
      <trkpt lat="44.53675" lon="4.11132">
        <ele>624.3</ele>
        <time>2018-04-07T10:35:03Z</time>
      </trkpt>
      <trkpt lat="44.53667" lon="4.11141">
        <ele>625.7</ele>
        <time>2018-04-07T10:35:08Z</time>
      </trkpt>
      <trkpt lat="44.5366" lon="4.1115">
        <ele>626.7</ele>
        <time>2018-04-07T10:35:13Z</time>
      </trkpt>
      <trkpt lat="44.53653" lon="4.11157">
        <ele>627.7</ele>
        <time>2018-04-07T10:35:18Z</time>
      </trkpt>
      <trkpt lat="44.53645" lon="4.11166">
        <ele>628.3</ele>
        <time>2018-04-07T10:35:22Z</time>
      </trkpt>
      <trkpt lat="44.53636" lon="4.11172">
        <ele>629.1</ele>
        <time>2018-04-07T10:35:27Z</time>
      </trkpt>
      <trkpt lat="44.53627" lon="4.11178">
        <ele>630.2</ele>
        <time>2018-04-07T10:35:32Z</time>
      </trkpt>
      <trkpt lat="44.53619" lon="4.11187">
        <ele>631.7</ele>
        <time>2018-04-07T10:35:38Z</time>
      </trkpt>
      <trkpt lat="44.53609" lon="4.11194">
        <ele>632.9</ele>
        <time>2018-04-07T10:35:43Z</time>
      </trkpt>
      <trkpt lat="44.536" lon="4.11202">
        <ele>633.9</ele>
        <time>2018-04-07T10:35:48Z</time>
      </trkpt>
      <trkpt lat="44.53591" lon="4.1121">
        <ele>634.5</ele>
        <time>2018-04-07T10:35:53Z</time>
      </trkpt>
      <trkpt lat="44.53583" lon="4.11218">
        <ele>635.4</ele>
        <time>2018-04-07T10:35:58Z</time>
      </trkpt>
      <trkpt lat="44.53575" lon="4.11229">
        <ele>636.2</ele>
        <time>2018-04-07T10:36:03Z</time>
      </trkpt>
      <trkpt lat="44.53567" lon="4.11238">
        <ele>637.1</ele>
        <time>2018-04-07T10:36:08Z</time>
      </trkpt>
      <trkpt lat="44.53561" lon="4.11247">
        <ele>638</ele>
        <time>2018-04-07T10:36:13Z</time>
      </trkpt>
      <trkpt lat="44.53552" lon="4.11255">
        <ele>639.1</ele>
        <time>2018-04-07T10:36:18Z</time>
      </trkpt>
      <trkpt lat="44.53544" lon="4.11264">
        <ele>640.3</ele>
        <time>2018-04-07T10:36:24Z</time>
      </trkpt>
      <trkpt lat="44.53536" lon="4.11272">
        <ele>641.1</ele>
        <time>2018-04-07T10:36:29Z</time>
      </trkpt>
      <trkpt lat="44.53527" lon="4.11279">
        <ele>641.9</ele>
        <time>2018-04-07T10:36:34Z</time>
      </trkpt>
      <trkpt lat="44.53519" lon="4.11287">
        <ele>642.9</ele>
        <time>2018-04-07T10:36:39Z</time>
      </trkpt>
      <trkpt lat="44.53509" lon="4.11292">
        <ele>644</ele>
        <time>2018-04-07T10:36:44Z</time>
      </trkpt>
      <trkpt lat="44.535" lon="4.11298">
        <ele>645.1</ele>
        <time>2018-04-07T10:36:50Z</time>
      </trkpt>
      <trkpt lat="44.53489" lon="4.11303">
        <ele>646.4</ele>
        <time>2018-04-07T10:36:56Z</time>
      </trkpt>
      <trkpt lat="44.5348" lon="4.11307">
        <ele>647.2</ele>
        <time>2018-04-07T10:37:01Z</time>
      </trkpt>
      <trkpt lat="44.5347" lon="4.1131">
        <ele>648</ele>
        <time>2018-04-07T10:37:06Z</time>
      </trkpt>
      <trkpt lat="44.53461" lon="4.11315">
        <ele>649</ele>
        <time>2018-04-07T10:37:11Z</time>
      </trkpt>
      <trkpt lat="44.53451" lon="4.11319">
        <ele>650.2</ele>
        <time>2018-04-07T10:37:16Z</time>
      </trkpt>
      <trkpt lat="44.53442" lon="4.11323">
        <ele>651.3</ele>
        <time>2018-04-07T10:37:21Z</time>
      </trkpt>
      <trkpt lat="44.53434" lon="4.11327">
        <ele>652.4</ele>
        <time>2018-04-07T10:37:26Z</time>
      </trkpt>
      <trkpt lat="44.53424" lon="4.11331">
        <ele>653.2</ele>
        <time>2018-04-07T10:37:31Z</time>
      </trkpt>
      <trkpt lat="44.53416" lon="4.11336">
        <ele>654.2</ele>
        <time>2018-04-07T10:37:36Z</time>
      </trkpt>
      <trkpt lat="44.53407" lon="4.1134">
        <ele>655.4</ele>
        <time>2018-04-07T10:37:41Z</time>
      </trkpt>
      <trkpt lat="44.53397" lon="4.11343">
        <ele>656.4</ele>
        <time>2018-04-07T10:37:46Z</time>
      </trkpt>
      <trkpt lat="44.53388" lon="4.11346">
        <ele>657</ele>
        <time>2018-04-07T10:37:51Z</time>
      </trkpt>
      <trkpt lat="44.53379" lon="4.11347">
        <ele>658</ele>
        <time>2018-04-07T10:37:56Z</time>
      </trkpt>
      <trkpt lat="44.5337" lon="4.1135">
        <ele>659.1</ele>
        <time>2018-04-07T10:38:01Z</time>
      </trkpt>
      <trkpt lat="44.53362" lon="4.11359">
        <ele>660</ele>
        <time>2018-04-07T10:38:07Z</time>
      </trkpt>
      <trkpt lat="44.53361" lon="4.11372">
        <ele>660.3</ele>
        <time>2018-04-07T10:38:13Z</time>
      </trkpt>
      <trkpt lat="44.53368" lon="4.11381">
        <ele>660.7</ele>
        <time>2018-04-07T10:42:24Z</time>
      </trkpt>
      <trkpt lat="44.53378" lon="4.1138">
        <ele>660.9</ele>
        <time>2018-04-07T10:42:30Z</time>
      </trkpt>
      <trkpt lat="44.53387" lon="4.11384">
        <ele>660.9</ele>
        <time>2018-04-07T10:42:35Z</time>
      </trkpt>
      <trkpt lat="44.53396" lon="4.11389">
        <ele>662.3</ele>
        <time>2018-04-07T10:42:52Z</time>
      </trkpt>
      <trkpt lat="44.53403" lon="4.11397">
        <ele>662.6</ele>
        <time>2018-04-07T10:42:58Z</time>
      </trkpt>
      <trkpt lat="44.53412" lon="4.11403">
        <ele>663.3</ele>
        <time>2018-04-07T10:43:04Z</time>
      </trkpt>
      <trkpt lat="44.53423" lon="4.11409">
        <ele>664.3</ele>
        <time>2018-04-07T10:43:09Z</time>
      </trkpt>
      <trkpt lat="44.5343" lon="4.11416">
        <ele>665.1</ele>
        <time>2018-04-07T10:43:13Z</time>
      </trkpt>
      <trkpt lat="44.53437" lon="4.11425">
        <ele>666.4</ele>
        <time>2018-04-07T10:43:18Z</time>
      </trkpt>
      <trkpt lat="44.53444" lon="4.11434">
        <ele>667.5</ele>
        <time>2018-04-07T10:43:23Z</time>
      </trkpt>
      <trkpt lat="44.53454" lon="4.11444">
        <ele>668.9</ele>
        <time>2018-04-07T10:43:30Z</time>
      </trkpt>
      <trkpt lat="44.53462" lon="4.11452">
        <ele>669.8</ele>
        <time>2018-04-07T10:43:35Z</time>
      </trkpt>
      <trkpt lat="44.53471" lon="4.1146">
        <ele>670.7</ele>
        <time>2018-04-07T10:43:41Z</time>
      </trkpt>
      <trkpt lat="44.53477" lon="4.11469">
        <ele>671.7</ele>
        <time>2018-04-07T10:43:46Z</time>
      </trkpt>
      <trkpt lat="44.53486" lon="4.11476">
        <ele>672.8</ele>
        <time>2018-04-07T10:43:51Z</time>
      </trkpt>
      <trkpt lat="44.53494" lon="4.11484">
        <ele>674.3</ele>
        <time>2018-04-07T10:43:57Z</time>
      </trkpt>
      <trkpt lat="44.53503" lon="4.11493">
        <ele>675.2</ele>
        <time>2018-04-07T10:44:02Z</time>
      </trkpt>
      <trkpt lat="44.53512" lon="4.11501">
        <ele>675.6</ele>
        <time>2018-04-07T10:44:07Z</time>
      </trkpt>
      <trkpt lat="44.53519" lon="4.11511">
        <ele>676.2</ele>
        <time>2018-04-07T10:44:12Z</time>
      </trkpt>
      <trkpt lat="44.53528" lon="4.11519">
        <ele>677.3</ele>
        <time>2018-04-07T10:44:17Z</time>
      </trkpt>
      <trkpt lat="44.53536" lon="4.11529">
        <ele>678.3</ele>
        <time>2018-04-07T10:44:21Z</time>
      </trkpt>
      <trkpt lat="44.5354" lon="4.11542">
        <ele>679.7</ele>
        <time>2018-04-07T10:44:27Z</time>
      </trkpt>
      <trkpt lat="44.53546" lon="4.11552">
        <ele>680.5</ele>
        <time>2018-04-07T10:44:32Z</time>
      </trkpt>
      <trkpt lat="44.53553" lon="4.11565">
        <ele>681.1</ele>
        <time>2018-04-07T10:44:36Z</time>
      </trkpt>
      <trkpt lat="44.53557" lon="4.11578">
        <ele>682.4</ele>
        <time>2018-04-07T10:44:42Z</time>
      </trkpt>
      <trkpt lat="44.53563" lon="4.11589">
        <ele>683.2</ele>
        <time>2018-04-07T10:44:47Z</time>
      </trkpt>
      <trkpt lat="44.53568" lon="4.11601">
        <ele>684.3</ele>
        <time>2018-04-07T10:44:52Z</time>
      </trkpt>
      <trkpt lat="44.53573" lon="4.11613">
        <ele>685.6</ele>
        <time>2018-04-07T10:44:57Z</time>
      </trkpt>
      <trkpt lat="44.53576" lon="4.11627">
        <ele>686.5</ele>
        <time>2018-04-07T10:45:01Z</time>
      </trkpt>
      <trkpt lat="44.5358" lon="4.1164">
        <ele>687.8</ele>
        <time>2018-04-07T10:45:06Z</time>
      </trkpt>
      <trkpt lat="44.53584" lon="4.11652">
        <ele>688.7</ele>
        <time>2018-04-07T10:45:10Z</time>
      </trkpt>
      <trkpt lat="44.53588" lon="4.11664">
        <ele>689.4</ele>
        <time>2018-04-07T10:45:14Z</time>
      </trkpt>
      <trkpt lat="44.53592" lon="4.11677">
        <ele>690.9</ele>
        <time>2018-04-07T10:45:20Z</time>
      </trkpt>
      <trkpt lat="44.53597" lon="4.11688">
        <ele>691.9</ele>
        <time>2018-04-07T10:45:24Z</time>
      </trkpt>
      <trkpt lat="44.536" lon="4.11701">
        <ele>693.3</ele>
        <time>2018-04-07T10:45:29Z</time>
      </trkpt>
      <trkpt lat="44.53601" lon="4.11716">
        <ele>694.6</ele>
        <time>2018-04-07T10:45:34Z</time>
      </trkpt>
      <trkpt lat="44.536" lon="4.11731">
        <ele>695.5</ele>
        <time>2018-04-07T10:45:39Z</time>
      </trkpt>
      <trkpt lat="44.53599" lon="4.11744">
        <ele>696.4</ele>
        <time>2018-04-07T10:45:43Z</time>
      </trkpt>
      <trkpt lat="44.536" lon="4.11757">
        <ele>697.5</ele>
        <time>2018-04-07T10:45:48Z</time>
      </trkpt>
      <trkpt lat="44.536" lon="4.11771">
        <ele>698.7</ele>
        <time>2018-04-07T10:45:53Z</time>
      </trkpt>
      <trkpt lat="44.53597" lon="4.11785">
        <ele>699.9</ele>
        <time>2018-04-07T10:45:58Z</time>
      </trkpt>
      <trkpt lat="44.53593" lon="4.11797">
        <ele>700.8</ele>
        <time>2018-04-07T10:46:02Z</time>
      </trkpt>
      <trkpt lat="44.53593" lon="4.11811">
        <ele>702</ele>
        <time>2018-04-07T10:46:07Z</time>
      </trkpt>
      <trkpt lat="44.53592" lon="4.11826">
        <ele>703.3</ele>
        <time>2018-04-07T10:46:12Z</time>
      </trkpt>
      <trkpt lat="44.53594" lon="4.1184">
        <ele>704.4</ele>
        <time>2018-04-07T10:46:17Z</time>
      </trkpt>
      <trkpt lat="44.53603" lon="4.11849">
        <ele>705.8</ele>
        <time>2018-04-07T10:46:22Z</time>
      </trkpt>
      <trkpt lat="44.53612" lon="4.11851">
        <ele>706.6</ele>
        <time>2018-04-07T10:46:26Z</time>
      </trkpt>
      <trkpt lat="44.53622" lon="4.11851">
        <ele>707.6</ele>
        <time>2018-04-07T10:46:31Z</time>
      </trkpt>
      <trkpt lat="44.53633" lon="4.1185">
        <ele>708.6</ele>
        <time>2018-04-07T10:46:36Z</time>
      </trkpt>
      <trkpt lat="44.53643" lon="4.11847">
        <ele>709.3</ele>
        <time>2018-04-07T10:46:41Z</time>
      </trkpt>
      <trkpt lat="44.53653" lon="4.11845">
        <ele>710.7</ele>
        <time>2018-04-07T10:46:46Z</time>
      </trkpt>
      <trkpt lat="44.53662" lon="4.11843">
        <ele>712</ele>
        <time>2018-04-07T10:46:51Z</time>
      </trkpt>
      <trkpt lat="44.53671" lon="4.1184">
        <ele>713.2</ele>
        <time>2018-04-07T10:46:56Z</time>
      </trkpt>
      <trkpt lat="44.53681" lon="4.1184">
        <ele>714.1</ele>
        <time>2018-04-07T10:47:01Z</time>
      </trkpt>
      <trkpt lat="44.53692" lon="4.11838">
        <ele>715.2</ele>
        <time>2018-04-07T10:47:06Z</time>
      </trkpt>
      <trkpt lat="44.53703" lon="4.11839">
        <ele>716.2</ele>
        <time>2018-04-07T10:47:11Z</time>
      </trkpt>
      <trkpt lat="44.53714" lon="4.11839">
        <ele>717.2</ele>
        <time>2018-04-07T10:47:17Z</time>
      </trkpt>
      <trkpt lat="44.53724" lon="4.11842">
        <ele>718.1</ele>
        <time>2018-04-07T10:47:22Z</time>
      </trkpt>
      <trkpt lat="44.53734" lon="4.11845">
        <ele>719.6</ele>
        <time>2018-04-07T10:47:28Z</time>
      </trkpt>
      <trkpt lat="44.53744" lon="4.11848">
        <ele>720.8</ele>
        <time>2018-04-07T10:47:33Z</time>
      </trkpt>
      <trkpt lat="44.53754" lon="4.1185">
        <ele>722.3</ele>
        <time>2018-04-07T10:47:39Z</time>
      </trkpt>
      <trkpt lat="44.53764" lon="4.11853">
        <ele>723.3</ele>
        <time>2018-04-07T10:47:44Z</time>
      </trkpt>
      <trkpt lat="44.53774" lon="4.11855">
        <ele>724.8</ele>
        <time>2018-04-07T10:47:50Z</time>
      </trkpt>
      <trkpt lat="44.53783" lon="4.11857">
        <ele>726.2</ele>
        <time>2018-04-07T10:47:55Z</time>
      </trkpt>
      <trkpt lat="44.53794" lon="4.1186">
        <ele>727.3</ele>
        <time>2018-04-07T10:48:00Z</time>
      </trkpt>
      <trkpt lat="44.53804" lon="4.11861">
        <ele>728.3</ele>
        <time>2018-04-07T10:48:05Z</time>
      </trkpt>
      <trkpt lat="44.53813" lon="4.11862">
        <ele>729.6</ele>
        <time>2018-04-07T10:48:10Z</time>
      </trkpt>
      <trkpt lat="44.53822" lon="4.11862">
        <ele>730.7</ele>
        <time>2018-04-07T10:48:15Z</time>
      </trkpt>
      <trkpt lat="44.53831" lon="4.11862">
        <ele>731.7</ele>
        <time>2018-04-07T10:48:20Z</time>
      </trkpt>
      <trkpt lat="44.53841" lon="4.11863">
        <ele>732.7</ele>
        <time>2018-04-07T10:48:25Z</time>
      </trkpt>
      <trkpt lat="44.53851" lon="4.11863">
        <ele>733.8</ele>
        <time>2018-04-07T10:48:30Z</time>
      </trkpt>
      <trkpt lat="44.53861" lon="4.11864">
        <ele>734.6</ele>
        <time>2018-04-07T10:48:35Z</time>
      </trkpt>
      <trkpt lat="44.5387" lon="4.11863">
        <ele>735.6</ele>
        <time>2018-04-07T10:48:40Z</time>
      </trkpt>
      <trkpt lat="44.5388" lon="4.11862">
        <ele>736.7</ele>
        <time>2018-04-07T10:48:45Z</time>
      </trkpt>
      <trkpt lat="44.53889" lon="4.11865">
        <ele>737</ele>
        <time>2018-04-07T10:48:50Z</time>
      </trkpt>
      <trkpt lat="44.53898" lon="4.11869">
        <ele>738.9</ele>
        <time>2018-04-07T10:48:55Z</time>
      </trkpt>
      <trkpt lat="44.53908" lon="4.11873">
        <ele>739.6</ele>
        <time>2018-04-07T10:49:00Z</time>
      </trkpt>
      <trkpt lat="44.53917" lon="4.11876">
        <ele>740.5</ele>
        <time>2018-04-07T10:49:05Z</time>
      </trkpt>
      <trkpt lat="44.53927" lon="4.11879">
        <ele>741.6</ele>
        <time>2018-04-07T10:49:10Z</time>
      </trkpt>
      <trkpt lat="44.53937" lon="4.1188">
        <ele>742.8</ele>
        <time>2018-04-07T10:49:15Z</time>
      </trkpt>
      <trkpt lat="44.53946" lon="4.11882">
        <ele>743.4</ele>
        <time>2018-04-07T10:49:20Z</time>
      </trkpt>
      <trkpt lat="44.53956" lon="4.11884">
        <ele>744.5</ele>
        <time>2018-04-07T10:49:26Z</time>
      </trkpt>
      <trkpt lat="44.53966" lon="4.11885">
        <ele>745.6</ele>
        <time>2018-04-07T10:49:31Z</time>
      </trkpt>
      <trkpt lat="44.53975" lon="4.11886">
        <ele>746.7</ele>
        <time>2018-04-07T10:49:36Z</time>
      </trkpt>
      <trkpt lat="44.53984" lon="4.11885">
        <ele>747.8</ele>
        <time>2018-04-07T10:49:41Z</time>
      </trkpt>
      <trkpt lat="44.53995" lon="4.11885">
        <ele>748.7</ele>
        <time>2018-04-07T10:49:46Z</time>
      </trkpt>
      <trkpt lat="44.54005" lon="4.11886">
        <ele>749.9</ele>
        <time>2018-04-07T10:49:52Z</time>
      </trkpt>
      <trkpt lat="44.54015" lon="4.11885">
        <ele>751.1</ele>
        <time>2018-04-07T10:49:58Z</time>
      </trkpt>
      <trkpt lat="44.54026" lon="4.11882">
        <ele>752.4</ele>
        <time>2018-04-07T10:50:03Z</time>
      </trkpt>
      <trkpt lat="44.54035" lon="4.11878">
        <ele>753.2</ele>
        <time>2018-04-07T10:50:07Z</time>
      </trkpt>
      <trkpt lat="44.54045" lon="4.11873">
        <ele>753.9</ele>
        <time>2018-04-07T10:50:11Z</time>
      </trkpt>
      <trkpt lat="44.54055" lon="4.11867">
        <ele>754.2</ele>
        <time>2018-04-07T10:50:15Z</time>
      </trkpt>
      <trkpt lat="44.54064" lon="4.11864">
        <ele>754.2</ele>
        <time>2018-04-07T10:50:18Z</time>
      </trkpt>
      <trkpt lat="44.54074" lon="4.11865">
        <ele>754.2</ele>
        <time>2018-04-07T10:50:21Z</time>
      </trkpt>
      <trkpt lat="44.54085" lon="4.11869">
        <ele>754.1</ele>
        <time>2018-04-07T10:50:24Z</time>
      </trkpt>
      <trkpt lat="44.54095" lon="4.11873">
        <ele>753.9</ele>
        <time>2018-04-07T10:50:27Z</time>
      </trkpt>
      <trkpt lat="44.54105" lon="4.11876">
        <ele>753.8</ele>
        <time>2018-04-07T10:50:31Z</time>
      </trkpt>
      <trkpt lat="44.54116" lon="4.11877">
        <ele>753.9</ele>
        <time>2018-04-07T10:50:34Z</time>
      </trkpt>
      <trkpt lat="44.54129" lon="4.11878">
        <ele>753.7</ele>
        <time>2018-04-07T10:50:37Z</time>
      </trkpt>
      <trkpt lat="44.5414" lon="4.11882">
        <ele>753.5</ele>
        <time>2018-04-07T10:50:40Z</time>
      </trkpt>
      <trkpt lat="44.5415" lon="4.11886">
        <ele>753.3</ele>
        <time>2018-04-07T10:50:42Z</time>
      </trkpt>
      <trkpt lat="44.5416" lon="4.11891">
        <ele>753</ele>
        <time>2018-04-07T10:50:44Z</time>
      </trkpt>
      <trkpt lat="44.5417" lon="4.11895">
        <ele>752.6</ele>
        <time>2018-04-07T10:50:46Z</time>
      </trkpt>
      <trkpt lat="44.5418" lon="4.119">
        <ele>752</ele>
        <time>2018-04-07T10:50:48Z</time>
      </trkpt>
      <trkpt lat="44.54191" lon="4.11906">
        <ele>751.6</ele>
        <time>2018-04-07T10:50:50Z</time>
      </trkpt>
      <trkpt lat="44.54202" lon="4.11911">
        <ele>750.9</ele>
        <time>2018-04-07T10:50:52Z</time>
      </trkpt>
      <trkpt lat="44.54215" lon="4.11916">
        <ele>750.3</ele>
        <time>2018-04-07T10:50:54Z</time>
      </trkpt>
      <trkpt lat="44.54227" lon="4.1192">
        <ele>749.7</ele>
        <time>2018-04-07T10:50:56Z</time>
      </trkpt>
      <trkpt lat="44.54238" lon="4.11922">
        <ele>749.2</ele>
        <time>2018-04-07T10:50:58Z</time>
      </trkpt>
      <trkpt lat="44.5425" lon="4.11926">
        <ele>748.9</ele>
        <time>2018-04-07T10:51:00Z</time>
      </trkpt>
      <trkpt lat="44.54259" lon="4.11928">
        <ele>748.7</ele>
        <time>2018-04-07T10:51:02Z</time>
      </trkpt>
      <trkpt lat="44.54268" lon="4.11934">
        <ele>748.7</ele>
        <time>2018-04-07T10:51:05Z</time>
      </trkpt>
      <trkpt lat="44.54276" lon="4.11945">
        <ele>749.1</ele>
        <time>2018-04-07T10:51:09Z</time>
      </trkpt>
      <trkpt lat="44.54282" lon="4.11955">
        <ele>749.5</ele>
        <time>2018-04-07T10:51:12Z</time>
      </trkpt>
      <trkpt lat="44.5429" lon="4.11966">
        <ele>750.1</ele>
        <time>2018-04-07T10:51:15Z</time>
      </trkpt>
      <trkpt lat="44.54299" lon="4.11976">
        <ele>750.4</ele>
        <time>2018-04-07T10:51:18Z</time>
      </trkpt>
      <trkpt lat="44.54309" lon="4.11984">
        <ele>750.8</ele>
        <time>2018-04-07T10:51:21Z</time>
      </trkpt>
      <trkpt lat="44.54318" lon="4.11993">
        <ele>751</ele>
        <time>2018-04-07T10:51:24Z</time>
      </trkpt>
      <trkpt lat="44.54327" lon="4.12002">
        <ele>751.3</ele>
        <time>2018-04-07T10:51:27Z</time>
      </trkpt>
      <trkpt lat="44.54335" lon="4.12009">
        <ele>751.6</ele>
        <time>2018-04-07T10:51:30Z</time>
      </trkpt>
      <trkpt lat="44.54343" lon="4.12018">
        <ele>751.9</ele>
        <time>2018-04-07T10:51:33Z</time>
      </trkpt>
      <trkpt lat="44.54349" lon="4.12028">
        <ele>752.1</ele>
        <time>2018-04-07T10:51:36Z</time>
      </trkpt>
      <trkpt lat="44.54355" lon="4.12038">
        <ele>752.4</ele>
        <time>2018-04-07T10:51:39Z</time>
      </trkpt>
      <trkpt lat="44.54361" lon="4.12048">
        <ele>753</ele>
        <time>2018-04-07T10:51:42Z</time>
      </trkpt>
      <trkpt lat="44.54368" lon="4.12057">
        <ele>753.4</ele>
        <time>2018-04-07T10:51:45Z</time>
      </trkpt>
      <trkpt lat="44.54376" lon="4.12067">
        <ele>753.7</ele>
        <time>2018-04-07T10:51:48Z</time>
      </trkpt>
      <trkpt lat="44.54383" lon="4.12075">
        <ele>753.8</ele>
        <time>2018-04-07T10:51:51Z</time>
      </trkpt>
      <trkpt lat="44.54392" lon="4.12084">
        <ele>754.6</ele>
        <time>2018-04-07T10:51:55Z</time>
      </trkpt>
      <trkpt lat="44.54402" lon="4.12092">
        <ele>755.4</ele>
        <time>2018-04-07T10:51:59Z</time>
      </trkpt>
      <trkpt lat="44.5441" lon="4.12098">
        <ele>756</ele>
        <time>2018-04-07T10:52:02Z</time>
      </trkpt>
      <trkpt lat="44.54421" lon="4.12105">
        <ele>756.6</ele>
        <time>2018-04-07T10:52:06Z</time>
      </trkpt>
      <trkpt lat="44.54431" lon="4.12112">
        <ele>757.2</ele>
        <time>2018-04-07T10:52:10Z</time>
      </trkpt>
      <trkpt lat="44.54441" lon="4.12119">
        <ele>757.9</ele>
        <time>2018-04-07T10:52:14Z</time>
      </trkpt>
      <trkpt lat="44.54451" lon="4.12126">
        <ele>758.4</ele>
        <time>2018-04-07T10:52:18Z</time>
      </trkpt>
      <trkpt lat="44.5446" lon="4.12133">
        <ele>758.7</ele>
        <time>2018-04-07T10:52:22Z</time>
      </trkpt>
      <trkpt lat="44.54469" lon="4.12142">
        <ele>759.4</ele>
        <time>2018-04-07T10:52:26Z</time>
      </trkpt>
      <trkpt lat="44.54479" lon="4.1215">
        <ele>760</ele>
        <time>2018-04-07T10:52:30Z</time>
      </trkpt>
      <trkpt lat="44.54488" lon="4.1216">
        <ele>760.6</ele>
        <time>2018-04-07T10:52:34Z</time>
      </trkpt>
      <trkpt lat="44.54498" lon="4.12169">
        <ele>761.5</ele>
        <time>2018-04-07T10:52:38Z</time>
      </trkpt>
      <trkpt lat="44.54508" lon="4.12177">
        <ele>762.1</ele>
        <time>2018-04-07T10:52:42Z</time>
      </trkpt>
      <trkpt lat="44.54517" lon="4.12186">
        <ele>762.5</ele>
        <time>2018-04-07T10:52:46Z</time>
      </trkpt>
      <trkpt lat="44.54526" lon="4.12197">
        <ele>762.9</ele>
        <time>2018-04-07T10:52:50Z</time>
      </trkpt>
      <trkpt lat="44.54534" lon="4.12209">
        <ele>763.2</ele>
        <time>2018-04-07T10:52:54Z</time>
      </trkpt>
      <trkpt lat="44.54543" lon="4.12217">
        <ele>763.6</ele>
        <time>2018-04-07T10:52:58Z</time>
      </trkpt>
      <trkpt lat="44.54552" lon="4.12227">
        <ele>763.9</ele>
        <time>2018-04-07T10:53:02Z</time>
      </trkpt>
      <trkpt lat="44.54561" lon="4.12236">
        <ele>764.4</ele>
        <time>2018-04-07T10:53:06Z</time>
      </trkpt>
      <trkpt lat="44.54571" lon="4.12242">
        <ele>765</ele>
        <time>2018-04-07T10:53:10Z</time>
      </trkpt>
      <trkpt lat="44.54581" lon="4.1225">
        <ele>765.6</ele>
        <time>2018-04-07T10:53:14Z</time>
      </trkpt>
      <trkpt lat="44.5459" lon="4.12256">
        <ele>765.8</ele>
        <time>2018-04-07T10:53:18Z</time>
      </trkpt>
      <trkpt lat="44.54599" lon="4.12262">
        <ele>765.9</ele>
        <time>2018-04-07T10:53:21Z</time>
      </trkpt>
      <trkpt lat="44.54608" lon="4.1227">
        <ele>765.9</ele>
        <time>2018-04-07T10:53:23Z</time>
      </trkpt>
      <trkpt lat="44.54617" lon="4.12276">
        <ele>765.8</ele>
        <time>2018-04-07T10:53:25Z</time>
      </trkpt>
      <trkpt lat="44.54625" lon="4.1228">
        <ele>765.7</ele>
        <time>2018-04-07T10:53:27Z</time>
      </trkpt>
      <trkpt lat="44.54639" lon="4.12286">
        <ele>765.3</ele>
        <time>2018-04-07T10:53:30Z</time>
      </trkpt>
      <trkpt lat="44.54652" lon="4.1229">
        <ele>764.9</ele>
        <time>2018-04-07T10:53:33Z</time>
      </trkpt>
      <trkpt lat="44.54665" lon="4.12293">
        <ele>764.6</ele>
        <time>2018-04-07T10:53:36Z</time>
      </trkpt>
      <trkpt lat="44.54675" lon="4.12299">
        <ele>764.7</ele>
        <time>2018-04-07T10:53:38Z</time>
      </trkpt>
      <trkpt lat="44.54688" lon="4.12304">
        <ele>765.1</ele>
        <time>2018-04-07T10:53:41Z</time>
      </trkpt>
      <trkpt lat="44.54699" lon="4.12306">
        <ele>766.1</ele>
        <time>2018-04-07T10:53:45Z</time>
      </trkpt>
      <trkpt lat="44.54709" lon="4.12306">
        <ele>767.2</ele>
        <time>2018-04-07T10:53:48Z</time>
      </trkpt>
      <trkpt lat="44.54721" lon="4.12305">
        <ele>768</ele>
        <time>2018-04-07T10:53:52Z</time>
      </trkpt>
      <trkpt lat="44.54732" lon="4.12307">
        <ele>768.6</ele>
        <time>2018-04-07T10:53:56Z</time>
      </trkpt>
      <trkpt lat="44.5474" lon="4.12311">
        <ele>769.3</ele>
        <time>2018-04-07T10:54:00Z</time>
      </trkpt>
      <trkpt lat="44.5475" lon="4.12316">
        <ele>770.4</ele>
        <time>2018-04-07T10:54:05Z</time>
      </trkpt>
      <trkpt lat="44.54761" lon="4.12324">
        <ele>771.5</ele>
        <time>2018-04-07T10:54:09Z</time>
      </trkpt>
      <trkpt lat="44.54771" lon="4.12331">
        <ele>772.3</ele>
        <time>2018-04-07T10:54:12Z</time>
      </trkpt>
      <trkpt lat="44.54779" lon="4.12338">
        <ele>773</ele>
        <time>2018-04-07T10:54:15Z</time>
      </trkpt>
      <trkpt lat="44.5479" lon="4.12347">
        <ele>773.5</ele>
        <time>2018-04-07T10:54:19Z</time>
      </trkpt>
      <trkpt lat="44.548" lon="4.12355">
        <ele>773.5</ele>
        <time>2018-04-07T10:54:22Z</time>
      </trkpt>
      <trkpt lat="44.5481" lon="4.1236">
        <ele>773.4</ele>
        <time>2018-04-07T10:54:25Z</time>
      </trkpt>
      <trkpt lat="44.54819" lon="4.12363">
        <ele>773</ele>
        <time>2018-04-07T10:54:28Z</time>
      </trkpt>
      <trkpt lat="44.5483" lon="4.12366">
        <ele>772.8</ele>
        <time>2018-04-07T10:54:31Z</time>
      </trkpt>
      <trkpt lat="44.54841" lon="4.12369">
        <ele>772.7</ele>
        <time>2018-04-07T10:54:34Z</time>
      </trkpt>
      <trkpt lat="44.5485" lon="4.12372">
        <ele>772.6</ele>
        <time>2018-04-07T10:54:36Z</time>
      </trkpt>
      <trkpt lat="44.54862" lon="4.12374">
        <ele>772.7</ele>
        <time>2018-04-07T10:54:39Z</time>
      </trkpt>
      <trkpt lat="44.54871" lon="4.12376">
        <ele>772.8</ele>
        <time>2018-04-07T10:54:41Z</time>
      </trkpt>
      <trkpt lat="44.54883" lon="4.12378">
        <ele>772.5</ele>
        <time>2018-04-07T10:54:44Z</time>
      </trkpt>
      <trkpt lat="44.54896" lon="4.12383">
        <ele>772</ele>
        <time>2018-04-07T10:54:47Z</time>
      </trkpt>
      <trkpt lat="44.54907" lon="4.12387">
        <ele>771.7</ele>
        <time>2018-04-07T10:54:50Z</time>
      </trkpt>
      <trkpt lat="44.54918" lon="4.12392">
        <ele>771.6</ele>
        <time>2018-04-07T10:54:53Z</time>
      </trkpt>
      <trkpt lat="44.54928" lon="4.12397">
        <ele>771.4</ele>
        <time>2018-04-07T10:54:56Z</time>
      </trkpt>
      <trkpt lat="44.54939" lon="4.12403">
        <ele>771.3</ele>
        <time>2018-04-07T10:54:59Z</time>
      </trkpt>
      <trkpt lat="44.5495" lon="4.12409">
        <ele>771.2</ele>
        <time>2018-04-07T10:55:02Z</time>
      </trkpt>
      <trkpt lat="44.5496" lon="4.12417">
        <ele>771.2</ele>
        <time>2018-04-07T10:55:06Z</time>
      </trkpt>
      <trkpt lat="44.54962" lon="4.1243">
        <ele>772.1</ele>
        <time>2018-04-07T10:55:14Z</time>
      </trkpt>
      <trkpt lat="44.5497" lon="4.12437">
        <ele>771.5</ele>
        <time>2018-04-07T10:55:59Z</time>
      </trkpt>
      <trkpt lat="44.54961" lon="4.12445">
        <ele>772.7</ele>
        <time>2018-04-07T10:57:38Z</time>
      </trkpt>
      <trkpt lat="44.5495" lon="4.12455">
        <ele>771.4</ele>
        <time>2018-04-07T10:57:42Z</time>
      </trkpt>
      <trkpt lat="44.54942" lon="4.12464">
        <ele>768.9</ele>
        <time>2018-04-07T10:57:45Z</time>
      </trkpt>
      <trkpt lat="44.54933" lon="4.12472">
        <ele>765.4</ele>
        <time>2018-04-07T10:57:49Z</time>
      </trkpt>
      <trkpt lat="44.54925" lon="4.12485">
        <ele>762.9</ele>
        <time>2018-04-07T10:57:52Z</time>
      </trkpt>
      <trkpt lat="44.54918" lon="4.12496">
        <ele>761.3</ele>
        <time>2018-04-07T10:57:54Z</time>
      </trkpt>
      <trkpt lat="44.54908" lon="4.12507">
        <ele>758.5</ele>
        <time>2018-04-07T10:57:57Z</time>
      </trkpt>
      <trkpt lat="44.54899" lon="4.1252">
        <ele>756</ele>
        <time>2018-04-07T10:58:00Z</time>
      </trkpt>
      <trkpt lat="44.54891" lon="4.12532">
        <ele>753.4</ele>
        <time>2018-04-07T10:58:03Z</time>
      </trkpt>
      <trkpt lat="44.54884" lon="4.12545">
        <ele>750.7</ele>
        <time>2018-04-07T10:58:06Z</time>
      </trkpt>
      <trkpt lat="44.54876" lon="4.12557">
        <ele>747.9</ele>
        <time>2018-04-07T10:58:09Z</time>
      </trkpt>
      <trkpt lat="44.54868" lon="4.12568">
        <ele>746.2</ele>
        <time>2018-04-07T10:58:11Z</time>
      </trkpt>
      <trkpt lat="44.5486" lon="4.12581">
        <ele>743.8</ele>
        <time>2018-04-07T10:58:14Z</time>
      </trkpt>
      <trkpt lat="44.54853" lon="4.12589">
        <ele>741</ele>
        <time>2018-04-07T10:58:17Z</time>
      </trkpt>
      <trkpt lat="44.54842" lon="4.12596">
        <ele>738.5</ele>
        <time>2018-04-07T10:58:20Z</time>
      </trkpt>
      <trkpt lat="44.5483" lon="4.126">
        <ele>736.6</ele>
        <time>2018-04-07T10:58:22Z</time>
      </trkpt>
      <trkpt lat="44.54821" lon="4.12604">
        <ele>734.7</ele>
        <time>2018-04-07T10:58:24Z</time>
      </trkpt>
      <trkpt lat="44.5481" lon="4.12609">
        <ele>732.1</ele>
        <time>2018-04-07T10:58:27Z</time>
      </trkpt>
      <trkpt lat="44.54802" lon="4.12611">
        <ele>730.1</ele>
        <time>2018-04-07T10:58:29Z</time>
      </trkpt>
      <trkpt lat="44.5479" lon="4.12613">
        <ele>727.2</ele>
        <time>2018-04-07T10:58:32Z</time>
      </trkpt>
      <trkpt lat="44.54779" lon="4.12611">
        <ele>724.6</ele>
        <time>2018-04-07T10:58:35Z</time>
      </trkpt>
      <trkpt lat="44.5477" lon="4.12611">
        <ele>721.3</ele>
        <time>2018-04-07T10:58:41Z</time>
      </trkpt>
      <trkpt lat="44.54761" lon="4.12614">
        <ele>721.3</ele>
        <time>2018-04-07T11:02:37Z</time>
      </trkpt>
      <trkpt lat="44.54769" lon="4.12622">
        <ele>721.6</ele>
        <time>2018-04-07T11:03:15Z</time>
      </trkpt>
      <trkpt lat="44.54758" lon="4.12618">
        <ele>720.8</ele>
        <time>2018-04-07T11:03:29Z</time>
      </trkpt>
      <trkpt lat="44.54749" lon="4.12611">
        <ele>719.5</ele>
        <time>2018-04-07T11:03:32Z</time>
      </trkpt>
      <trkpt lat="44.54742" lon="4.12603">
        <ele>718.3</ele>
        <time>2018-04-07T11:03:34Z</time>
      </trkpt>
      <trkpt lat="44.54733" lon="4.12599">
        <ele>717</ele>
        <time>2018-04-07T11:03:36Z</time>
      </trkpt>
      <trkpt lat="44.54724" lon="4.12594">
        <ele>715.1</ele>
        <time>2018-04-07T11:03:39Z</time>
      </trkpt>
      <trkpt lat="44.5472" lon="4.12608">
        <ele>711.2</ele>
        <time>2018-04-07T11:03:46Z</time>
      </trkpt>
      <trkpt lat="44.5471" lon="4.12612">
        <ele>705.5</ele>
        <time>2018-04-07T11:03:55Z</time>
      </trkpt>
      <trkpt lat="44.54702" lon="4.12605">
        <ele>703.3</ele>
        <time>2018-04-07T11:03:58Z</time>
      </trkpt>
      <trkpt lat="44.54694" lon="4.12592">
        <ele>701.3</ele>
        <time>2018-04-07T11:04:01Z</time>
      </trkpt>
      <trkpt lat="44.54688" lon="4.12582">
        <ele>699.5</ele>
        <time>2018-04-07T11:04:04Z</time>
      </trkpt>
      <trkpt lat="44.54679" lon="4.12573">
        <ele>697.3</ele>
        <time>2018-04-07T11:04:07Z</time>
      </trkpt>
      <trkpt lat="44.54671" lon="4.12563">
        <ele>695.6</ele>
        <time>2018-04-07T11:04:10Z</time>
      </trkpt>
      <trkpt lat="44.54661" lon="4.12553">
        <ele>693.7</ele>
        <time>2018-04-07T11:04:14Z</time>
      </trkpt>
      <trkpt lat="44.54653" lon="4.12547">
        <ele>692.4</ele>
        <time>2018-04-07T11:04:17Z</time>
      </trkpt>
      <trkpt lat="44.54643" lon="4.12536">
        <ele>690.7</ele>
        <time>2018-04-07T11:04:21Z</time>
      </trkpt>
      <trkpt lat="44.54634" lon="4.12527">
        <ele>689.3</ele>
        <time>2018-04-07T11:04:24Z</time>
      </trkpt>
      <trkpt lat="44.54624" lon="4.12519">
        <ele>688.3</ele>
        <time>2018-04-07T11:04:27Z</time>
      </trkpt>
      <trkpt lat="44.54613" lon="4.12517">
        <ele>687.1</ele>
        <time>2018-04-07T11:04:31Z</time>
      </trkpt>
      <trkpt lat="44.54601" lon="4.12516">
        <ele>685.1</ele>
        <time>2018-04-07T11:04:36Z</time>
      </trkpt>
      <trkpt lat="44.5459" lon="4.12517">
        <ele>683.8</ele>
        <time>2018-04-07T11:04:39Z</time>
      </trkpt>
      <trkpt lat="44.54577" lon="4.12519">
        <ele>682.3</ele>
        <time>2018-04-07T11:04:42Z</time>
      </trkpt>
      <trkpt lat="44.54566" lon="4.12517">
        <ele>681.1</ele>
        <time>2018-04-07T11:04:45Z</time>
      </trkpt>
      <trkpt lat="44.54555" lon="4.12516">
        <ele>680.5</ele>
        <time>2018-04-07T11:04:49Z</time>
      </trkpt>
      <trkpt lat="44.54544" lon="4.1252">
        <ele>679.4</ele>
        <time>2018-04-07T11:04:53Z</time>
      </trkpt>
      <trkpt lat="44.54535" lon="4.12529">
        <ele>678.6</ele>
        <time>2018-04-07T11:04:56Z</time>
      </trkpt>
      <trkpt lat="44.54525" lon="4.12534">
        <ele>677.4</ele>
        <time>2018-04-07T11:04:59Z</time>
      </trkpt>
      <trkpt lat="44.54513" lon="4.12537">
        <ele>676</ele>
        <time>2018-04-07T11:05:03Z</time>
      </trkpt>
      <trkpt lat="44.54502" lon="4.12539">
        <ele>675</ele>
        <time>2018-04-07T11:05:06Z</time>
      </trkpt>
      <trkpt lat="44.54491" lon="4.12539">
        <ele>674</ele>
        <time>2018-04-07T11:05:09Z</time>
      </trkpt>
      <trkpt lat="44.5448" lon="4.12538">
        <ele>673.2</ele>
        <time>2018-04-07T11:05:12Z</time>
      </trkpt>
      <trkpt lat="44.54471" lon="4.12541">
        <ele>672.4</ele>
        <time>2018-04-07T11:05:15Z</time>
      </trkpt>
      <trkpt lat="44.54461" lon="4.12541">
        <ele>671.3</ele>
        <time>2018-04-07T11:05:18Z</time>
      </trkpt>
      <trkpt lat="44.5445" lon="4.12543">
        <ele>669.8</ele>
        <time>2018-04-07T11:05:22Z</time>
      </trkpt>
      <trkpt lat="44.54441" lon="4.12543">
        <ele>667.3</ele>
        <time>2018-04-07T11:05:42Z</time>
      </trkpt>
      <trkpt lat="44.54431" lon="4.12547">
        <ele>666.8</ele>
        <time>2018-04-07T11:05:46Z</time>
      </trkpt>
      <trkpt lat="44.54422" lon="4.12551">
        <ele>665.7</ele>
        <time>2018-04-07T11:05:50Z</time>
      </trkpt>
      <trkpt lat="44.54411" lon="4.12556">
        <ele>663.7</ele>
        <time>2018-04-07T11:05:55Z</time>
      </trkpt>
      <trkpt lat="44.54403" lon="4.12564">
        <ele>660.9</ele>
        <time>2018-04-07T11:06:01Z</time>
      </trkpt>
      <trkpt lat="44.54394" lon="4.12568">
        <ele>658.6</ele>
        <time>2018-04-07T11:06:05Z</time>
      </trkpt>
      <trkpt lat="44.54391" lon="4.1258">
        <ele>654.7</ele>
        <time>2018-04-07T11:06:12Z</time>
      </trkpt>
      <trkpt lat="44.54392" lon="4.12594">
        <ele>652.1</ele>
        <time>2018-04-07T11:06:17Z</time>
      </trkpt>
      <trkpt lat="44.54392" lon="4.12606">
        <ele>649.9</ele>
        <time>2018-04-07T11:06:22Z</time>
      </trkpt>
      <trkpt lat="44.54385" lon="4.12615">
        <ele>646.5</ele>
        <time>2018-04-07T11:06:41Z</time>
      </trkpt>
      <trkpt lat="44.54376" lon="4.12622">
        <ele>644.7</ele>
        <time>2018-04-07T11:06:46Z</time>
      </trkpt>
      <trkpt lat="44.54368" lon="4.12628">
        <ele>641.8</ele>
        <time>2018-04-07T11:06:52Z</time>
      </trkpt>
      <trkpt lat="44.54376" lon="4.12636">
        <ele>638.8</ele>
        <time>2018-04-07T11:07:07Z</time>
      </trkpt>
      <trkpt lat="44.54387" lon="4.12638">
        <ele>638.7</ele>
        <time>2018-04-07T11:07:12Z</time>
      </trkpt>
      <trkpt lat="44.54398" lon="4.1264">
        <ele>638.6</ele>
        <time>2018-04-07T11:07:17Z</time>
      </trkpt>
      <trkpt lat="44.54409" lon="4.12639">
        <ele>638.6</ele>
        <time>2018-04-07T11:07:21Z</time>
      </trkpt>
      <trkpt lat="44.5442" lon="4.12638">
        <ele>638.6</ele>
        <time>2018-04-07T11:07:25Z</time>
      </trkpt>
      <trkpt lat="44.5443" lon="4.12636">
        <ele>638.6</ele>
        <time>2018-04-07T11:07:28Z</time>
      </trkpt>
      <trkpt lat="44.54441" lon="4.12633">
        <ele>638.6</ele>
        <time>2018-04-07T11:07:31Z</time>
      </trkpt>
      <trkpt lat="44.54452" lon="4.12631">
        <ele>638.6</ele>
        <time>2018-04-07T11:07:34Z</time>
      </trkpt>
      <trkpt lat="44.54462" lon="4.12629">
        <ele>638.8</ele>
        <time>2018-04-07T11:07:37Z</time>
      </trkpt>
      <trkpt lat="44.54472" lon="4.1263">
        <ele>639</ele>
        <time>2018-04-07T11:07:40Z</time>
      </trkpt>
      <trkpt lat="44.54481" lon="4.12634">
        <ele>639.2</ele>
        <time>2018-04-07T11:07:43Z</time>
      </trkpt>
      <trkpt lat="44.5449" lon="4.12637">
        <ele>639.4</ele>
        <time>2018-04-07T11:07:46Z</time>
      </trkpt>
      <trkpt lat="44.54501" lon="4.12641">
        <ele>639.6</ele>
        <time>2018-04-07T11:07:49Z</time>
      </trkpt>
      <trkpt lat="44.54511" lon="4.12642">
        <ele>639.8</ele>
        <time>2018-04-07T11:07:52Z</time>
      </trkpt>
      <trkpt lat="44.5452" lon="4.12646">
        <ele>639.8</ele>
        <time>2018-04-07T11:07:56Z</time>
      </trkpt>
      <trkpt lat="44.54509" lon="4.12651">
        <ele>639.5</ele>
        <time>2018-04-07T11:08:00Z</time>
      </trkpt>
      <trkpt lat="44.54496" lon="4.12648">
        <ele>638.9</ele>
        <time>2018-04-07T11:08:03Z</time>
      </trkpt>
      <trkpt lat="44.54484" lon="4.12647">
        <ele>637.8</ele>
        <time>2018-04-07T11:08:06Z</time>
      </trkpt>
      <trkpt lat="44.54474" lon="4.12646">
        <ele>637.1</ele>
        <time>2018-04-07T11:08:08Z</time>
      </trkpt>
      <trkpt lat="44.54462" lon="4.12647">
        <ele>636.3</ele>
        <time>2018-04-07T11:08:10Z</time>
      </trkpt>
      <trkpt lat="44.5445" lon="4.12653">
        <ele>635.2</ele>
        <time>2018-04-07T11:08:12Z</time>
      </trkpt>
      <trkpt lat="44.54439" lon="4.12659">
        <ele>633.9</ele>
        <time>2018-04-07T11:08:14Z</time>
      </trkpt>
      <trkpt lat="44.54427" lon="4.12667">
        <ele>632.4</ele>
        <time>2018-04-07T11:08:16Z</time>
      </trkpt>
      <trkpt lat="44.54415" lon="4.12676">
        <ele>630.5</ele>
        <time>2018-04-07T11:08:18Z</time>
      </trkpt>
      <trkpt lat="44.54402" lon="4.12684">
        <ele>628.8</ele>
        <time>2018-04-07T11:08:20Z</time>
      </trkpt>
      <trkpt lat="44.54388" lon="4.12692">
        <ele>627.2</ele>
        <time>2018-04-07T11:08:22Z</time>
      </trkpt>
      <trkpt lat="44.54372" lon="4.12698">
        <ele>625.6</ele>
        <time>2018-04-07T11:08:24Z</time>
      </trkpt>
      <trkpt lat="44.54357" lon="4.12703">
        <ele>624.1</ele>
        <time>2018-04-07T11:08:26Z</time>
      </trkpt>
      <trkpt lat="44.54341" lon="4.12704">
        <ele>622</ele>
        <time>2018-04-07T11:08:28Z</time>
      </trkpt>
      <trkpt lat="44.54328" lon="4.12706">
        <ele>620.4</ele>
        <time>2018-04-07T11:08:30Z</time>
      </trkpt>
      <trkpt lat="44.54319" lon="4.12707">
        <ele>619</ele>
        <time>2018-04-07T11:08:32Z</time>
      </trkpt>
      <trkpt lat="44.54307" lon="4.12705">
        <ele>617.4</ele>
        <time>2018-04-07T11:08:35Z</time>
      </trkpt>
      <trkpt lat="44.54307" lon="4.12719">
        <ele>614.9</ele>
        <time>2018-04-07T11:08:43Z</time>
      </trkpt>
      <trkpt lat="44.54297" lon="4.12722">
        <ele>612.9</ele>
        <time>2018-04-07T11:08:47Z</time>
      </trkpt>
      <trkpt lat="44.54288" lon="4.12724">
        <ele>611.2</ele>
        <time>2018-04-07T11:08:50Z</time>
      </trkpt>
      <trkpt lat="44.54278" lon="4.12725">
        <ele>609.6</ele>
        <time>2018-04-07T11:08:53Z</time>
      </trkpt>
      <trkpt lat="44.54267" lon="4.12729">
        <ele>607.4</ele>
        <time>2018-04-07T11:08:57Z</time>
      </trkpt>
      <trkpt lat="44.54258" lon="4.12734">
        <ele>604.8</ele>
        <time>2018-04-07T11:09:01Z</time>
      </trkpt>
      <trkpt lat="44.5425" lon="4.12743">
        <ele>601.9</ele>
        <time>2018-04-07T11:09:05Z</time>
      </trkpt>
      <trkpt lat="44.54239" lon="4.12751">
        <ele>598.8</ele>
        <time>2018-04-07T11:09:09Z</time>
      </trkpt>
      <trkpt lat="44.54231" lon="4.12758">
        <ele>596.2</ele>
        <time>2018-04-07T11:09:12Z</time>
      </trkpt>
      <trkpt lat="44.54221" lon="4.12767">
        <ele>593.4</ele>
        <time>2018-04-07T11:09:16Z</time>
      </trkpt>
      <trkpt lat="44.54213" lon="4.12775">
        <ele>590.9</ele>
        <time>2018-04-07T11:09:19Z</time>
      </trkpt>
      <trkpt lat="44.54207" lon="4.12784">
        <ele>587.7</ele>
        <time>2018-04-07T11:09:23Z</time>
      </trkpt>
      <trkpt lat="44.54204" lon="4.12796">
        <ele>583.6</ele>
        <time>2018-04-07T11:09:43Z</time>
      </trkpt>
      <trkpt lat="44.54199" lon="4.12785">
        <ele>583.1</ele>
        <time>2018-04-07T11:10:14Z</time>
      </trkpt>
      <trkpt lat="44.54198" lon="4.12771">
        <ele>582.7</ele>
        <time>2018-04-07T11:10:18Z</time>
      </trkpt>
      <trkpt lat="44.542" lon="4.12757">
        <ele>581.6</ele>
        <time>2018-04-07T11:10:21Z</time>
      </trkpt>
      <trkpt lat="44.54201" lon="4.12743">
        <ele>579.7</ele>
        <time>2018-04-07T11:10:25Z</time>
      </trkpt>
      <trkpt lat="44.542" lon="4.12728">
        <ele>578.4</ele>
        <time>2018-04-07T11:10:28Z</time>
      </trkpt>
      <trkpt lat="44.54203" lon="4.12711">
        <ele>577.2</ele>
        <time>2018-04-07T11:10:31Z</time>
      </trkpt>
      <trkpt lat="44.54194" lon="4.12716">
        <ele>574.5</ele>
        <time>2018-04-07T11:10:39Z</time>
      </trkpt>
      <trkpt lat="44.54193" lon="4.12731">
        <ele>573.8</ele>
        <time>2018-04-07T11:10:42Z</time>
      </trkpt>
      <trkpt lat="44.54188" lon="4.12746">
        <ele>573.1</ele>
        <time>2018-04-07T11:10:45Z</time>
      </trkpt>
      <trkpt lat="44.54184" lon="4.12757">
        <ele>572.6</ele>
        <time>2018-04-07T11:10:48Z</time>
      </trkpt>
      <trkpt lat="44.54179" lon="4.12771">
        <ele>572.5</ele>
        <time>2018-04-07T11:10:52Z</time>
      </trkpt>
      <trkpt lat="44.54175" lon="4.12783">
        <ele>572.4</ele>
        <time>2018-04-07T11:10:55Z</time>
      </trkpt>
      <trkpt lat="44.54172" lon="4.12794">
        <ele>572.5</ele>
        <time>2018-04-07T11:10:58Z</time>
      </trkpt>
      <trkpt lat="44.54169" lon="4.1281">
        <ele>573</ele>
        <time>2018-04-07T11:11:02Z</time>
      </trkpt>
      <trkpt lat="44.54169" lon="4.12824">
        <ele>573.3</ele>
        <time>2018-04-07T11:11:06Z</time>
      </trkpt>
      <trkpt lat="44.54176" lon="4.12833">
        <ele>573.9</ele>
        <time>2018-04-07T11:11:11Z</time>
      </trkpt>
      <trkpt lat="44.54186" lon="4.12839">
        <ele>573.8</ele>
        <time>2018-04-07T11:11:16Z</time>
      </trkpt>
      <trkpt lat="44.54195" lon="4.12847">
        <ele>572.8</ele>
        <time>2018-04-07T11:11:20Z</time>
      </trkpt>
      <trkpt lat="44.54207" lon="4.12855">
        <ele>571.9</ele>
        <time>2018-04-07T11:11:24Z</time>
      </trkpt>
      <trkpt lat="44.5422" lon="4.12863">
        <ele>571.3</ele>
        <time>2018-04-07T11:11:27Z</time>
      </trkpt>
      <trkpt lat="44.54229" lon="4.12871">
        <ele>570.6</ele>
        <time>2018-04-07T11:11:29Z</time>
      </trkpt>
      <trkpt lat="44.54239" lon="4.12878">
        <ele>569.8</ele>
        <time>2018-04-07T11:11:31Z</time>
      </trkpt>
      <trkpt lat="44.54249" lon="4.12886">
        <ele>569.1</ele>
        <time>2018-04-07T11:11:33Z</time>
      </trkpt>
      <trkpt lat="44.54261" lon="4.12891">
        <ele>568.5</ele>
        <time>2018-04-07T11:11:35Z</time>
      </trkpt>
      <trkpt lat="44.5427" lon="4.12896">
        <ele>568.2</ele>
        <time>2018-04-07T11:11:37Z</time>
      </trkpt>
      <trkpt lat="44.5428" lon="4.129">
        <ele>568</ele>
        <time>2018-04-07T11:11:39Z</time>
      </trkpt>
      <trkpt lat="44.54291" lon="4.12905">
        <ele>567.4</ele>
        <time>2018-04-07T11:11:42Z</time>
      </trkpt>
      <trkpt lat="44.54305" lon="4.12908">
        <ele>566.9</ele>
        <time>2018-04-07T11:11:45Z</time>
      </trkpt>
      <trkpt lat="44.54303" lon="4.12923">
        <ele>565.7</ele>
        <time>2018-04-07T11:11:49Z</time>
      </trkpt>
      <trkpt lat="44.54294" lon="4.12925">
        <ele>564.9</ele>
        <time>2018-04-07T11:11:51Z</time>
      </trkpt>
      <trkpt lat="44.54283" lon="4.12922">
        <ele>563.8</ele>
        <time>2018-04-07T11:11:54Z</time>
      </trkpt>
      <trkpt lat="44.54274" lon="4.12919">
        <ele>563</ele>
        <time>2018-04-07T11:11:57Z</time>
      </trkpt>
      <trkpt lat="44.54262" lon="4.12918">
        <ele>562.5</ele>
        <time>2018-04-07T11:12:00Z</time>
      </trkpt>
      <trkpt lat="44.54251" lon="4.12916">
        <ele>562.1</ele>
        <time>2018-04-07T11:12:02Z</time>
      </trkpt>
      <trkpt lat="44.54239" lon="4.12913">
        <ele>561.3</ele>
        <time>2018-04-07T11:12:04Z</time>
      </trkpt>
      <trkpt lat="44.54229" lon="4.12905">
        <ele>560.2</ele>
        <time>2018-04-07T11:12:06Z</time>
      </trkpt>
      <trkpt lat="44.54219" lon="4.12903">
        <ele>558.9</ele>
        <time>2018-04-07T11:12:08Z</time>
      </trkpt>
      <trkpt lat="44.54208" lon="4.12906">
        <ele>557.8</ele>
        <time>2018-04-07T11:12:10Z</time>
      </trkpt>
      <trkpt lat="44.54195" lon="4.12907">
        <ele>556.6</ele>
        <time>2018-04-07T11:12:12Z</time>
      </trkpt>
      <trkpt lat="44.54182" lon="4.12909">
        <ele>554.9</ele>
        <time>2018-04-07T11:12:14Z</time>
      </trkpt>
      <trkpt lat="44.5417" lon="4.12908">
        <ele>553</ele>
        <time>2018-04-07T11:12:16Z</time>
      </trkpt>
      <trkpt lat="44.54169" lon="4.12921">
        <ele>546.4</ele>
        <time>2018-04-07T11:12:23Z</time>
      </trkpt>
      <trkpt lat="44.54177" lon="4.12931">
        <ele>544.7</ele>
        <time>2018-04-07T11:12:25Z</time>
      </trkpt>
      <trkpt lat="44.5419" lon="4.12939">
        <ele>543</ele>
        <time>2018-04-07T11:12:27Z</time>
      </trkpt>
      <trkpt lat="44.54199" lon="4.12949">
        <ele>541.5</ele>
        <time>2018-04-07T11:12:29Z</time>
      </trkpt>
      <trkpt lat="44.54188" lon="4.12952">
        <ele>538.6</ele>
        <time>2018-04-07T11:12:33Z</time>
      </trkpt>
      <trkpt lat="44.54176" lon="4.12953">
        <ele>537.2</ele>
        <time>2018-04-07T11:12:35Z</time>
      </trkpt>
      <trkpt lat="44.54163" lon="4.12953">
        <ele>535.4</ele>
        <time>2018-04-07T11:12:37Z</time>
      </trkpt>
      <trkpt lat="44.5415" lon="4.12954">
        <ele>533.6</ele>
        <time>2018-04-07T11:12:39Z</time>
      </trkpt>
      <trkpt lat="44.54135" lon="4.12951">
        <ele>531.6</ele>
        <time>2018-04-07T11:12:41Z</time>
      </trkpt>
      <trkpt lat="44.5412" lon="4.12946">
        <ele>529.9</ele>
        <time>2018-04-07T11:12:43Z</time>
      </trkpt>
      <trkpt lat="44.54106" lon="4.12942">
        <ele>528.4</ele>
        <time>2018-04-07T11:12:45Z</time>
      </trkpt>
      <trkpt lat="44.54093" lon="4.12936">
        <ele>526.7</ele>
        <time>2018-04-07T11:12:47Z</time>
      </trkpt>
      <trkpt lat="44.54081" lon="4.12932">
        <ele>524.9</ele>
        <time>2018-04-07T11:12:49Z</time>
      </trkpt>
      <trkpt lat="44.5407" lon="4.12929">
        <ele>523.1</ele>
        <time>2018-04-07T11:12:51Z</time>
      </trkpt>
      <trkpt lat="44.54061" lon="4.12923">
        <ele>520.1</ele>
        <time>2018-04-07T11:12:54Z</time>
      </trkpt>
      <trkpt lat="44.54054" lon="4.12914">
        <ele>514.9</ele>
        <time>2018-04-07T11:13:03Z</time>
      </trkpt>
      <trkpt lat="44.54053" lon="4.12901">
        <ele>514.1</ele>
        <time>2018-04-07T11:13:06Z</time>
      </trkpt>
      <trkpt lat="44.54052" lon="4.12884">
        <ele>513.1</ele>
        <time>2018-04-07T11:13:10Z</time>
      </trkpt>
      <trkpt lat="44.54052" lon="4.1287">
        <ele>511.8</ele>
        <time>2018-04-07T11:13:15Z</time>
      </trkpt>
      <trkpt lat="44.54044" lon="4.12864">
        <ele>510.1</ele>
        <time>2018-04-07T11:13:24Z</time>
      </trkpt>
      <trkpt lat="44.54035" lon="4.12861">
        <ele>508</ele>
        <time>2018-04-07T11:13:31Z</time>
      </trkpt>
      <trkpt lat="44.54035" lon="4.12848">
        <ele>506.5</ele>
        <time>2018-04-07T11:13:42Z</time>
      </trkpt>
      <trkpt lat="44.54036" lon="4.12833">
        <ele>506.3</ele>
        <time>2018-04-07T11:13:48Z</time>
      </trkpt>
      <trkpt lat="44.5404" lon="4.12819">
        <ele>506.2</ele>
        <time>2018-04-07T11:13:54Z</time>
      </trkpt>
      <trkpt lat="44.54043" lon="4.12807">
        <ele>506.2</ele>
        <time>2018-04-07T11:13:59Z</time>
      </trkpt>
      <trkpt lat="44.54044" lon="4.12794">
        <ele>505.8</ele>
        <time>2018-04-07T11:14:16Z</time>
      </trkpt>
      <trkpt lat="44.54039" lon="4.12782">
        <ele>502.8</ele>
        <time>2018-04-07T11:14:44Z</time>
      </trkpt>
      <trkpt lat="44.54034" lon="4.12769">
        <ele>500.2</ele>
        <time>2018-04-07T11:15:01Z</time>
      </trkpt>
      <trkpt lat="44.54032" lon="4.12754">
        <ele>498.2</ele>
        <time>2018-04-07T11:15:06Z</time>
      </trkpt>
      <trkpt lat="44.54033" lon="4.12741">
        <ele>496.9</ele>
        <time>2018-04-07T11:15:09Z</time>
      </trkpt>
      <trkpt lat="44.54033" lon="4.12727">
        <ele>495.5</ele>
        <time>2018-04-07T11:15:13Z</time>
      </trkpt>
      <trkpt lat="44.54032" lon="4.12713">
        <ele>493.7</ele>
        <time>2018-04-07T11:15:18Z</time>
      </trkpt>
      <trkpt lat="44.54027" lon="4.12701">
        <ele>492.4</ele>
        <time>2018-04-07T11:15:21Z</time>
      </trkpt>
      <trkpt lat="44.54018" lon="4.12701">
        <ele>490.2</ele>
        <time>2018-04-07T11:15:38Z</time>
      </trkpt>
      <trkpt lat="44.5401" lon="4.12696">
        <ele>492</ele>
        <time>2018-04-07T11:15:56Z</time>
      </trkpt>
      <trkpt lat="44.54" lon="4.12697">
        <ele>493.4</ele>
        <time>2018-04-07T11:16:13Z</time>
      </trkpt>
      <trkpt lat="44.53992" lon="4.12703">
        <ele>496.5</ele>
        <time>2018-04-07T11:16:36Z</time>
      </trkpt>
      <trkpt lat="44.53984" lon="4.12709">
        <ele>498.7</ele>
        <time>2018-04-07T11:16:58Z</time>
      </trkpt>
      <trkpt lat="44.53976" lon="4.12715">
        <ele>501</ele>
        <time>2018-04-07T11:17:13Z</time>
      </trkpt>
      <trkpt lat="44.53967" lon="4.12716">
        <ele>503.1</ele>
        <time>2018-04-07T11:17:28Z</time>
      </trkpt>
      <trkpt lat="44.53957" lon="4.12716">
        <ele>505.5</ele>
        <time>2018-04-07T11:17:40Z</time>
      </trkpt>
      <trkpt lat="44.53947" lon="4.12715">
        <ele>508.5</ele>
        <time>2018-04-07T11:17:57Z</time>
      </trkpt>
      <trkpt lat="44.53938" lon="4.12713">
        <ele>511.4</ele>
        <time>2018-04-07T11:18:21Z</time>
      </trkpt>
      <trkpt lat="44.53929" lon="4.12713">
        <ele>513.6</ele>
        <time>2018-04-07T11:18:36Z</time>
      </trkpt>
      <trkpt lat="44.5392" lon="4.12714">
        <ele>515.2</ele>
        <time>2018-04-07T11:18:48Z</time>
      </trkpt>
      <trkpt lat="44.5391" lon="4.12713">
        <ele>517.5</ele>
        <time>2018-04-07T11:19:03Z</time>
      </trkpt>
      <trkpt lat="44.53901" lon="4.12715">
        <ele>519.1</ele>
        <time>2018-04-07T11:19:13Z</time>
      </trkpt>
      <trkpt lat="44.53892" lon="4.12715">
        <ele>520.8</ele>
        <time>2018-04-07T11:19:26Z</time>
      </trkpt>
      <trkpt lat="44.53882" lon="4.12719">
        <ele>523</ele>
        <time>2018-04-07T11:19:38Z</time>
      </trkpt>
      <trkpt lat="44.53873" lon="4.12721">
        <ele>524</ele>
        <time>2018-04-07T11:19:49Z</time>
      </trkpt>
      <trkpt lat="44.53864" lon="4.12724">
        <ele>525.5</ele>
        <time>2018-04-07T11:20:00Z</time>
      </trkpt>
      <trkpt lat="44.53855" lon="4.1273">
        <ele>527.2</ele>
        <time>2018-04-07T11:20:14Z</time>
      </trkpt>
      <trkpt lat="44.53847" lon="4.12735">
        <ele>528.5</ele>
        <time>2018-04-07T11:20:26Z</time>
      </trkpt>
      <trkpt lat="44.53838" lon="4.12739">
        <ele>530.5</ele>
        <time>2018-04-07T11:20:39Z</time>
      </trkpt>
      <trkpt lat="44.53829" lon="4.12744">
        <ele>532.2</ele>
        <time>2018-04-07T11:20:51Z</time>
      </trkpt>
      <trkpt lat="44.53821" lon="4.1275">
        <ele>533.7</ele>
        <time>2018-04-07T11:21:03Z</time>
      </trkpt>
      <trkpt lat="44.53811" lon="4.12759">
        <ele>534.2</ele>
        <time>2018-04-07T11:21:13Z</time>
      </trkpt>
      <trkpt lat="44.53801" lon="4.12764">
        <ele>533.8</ele>
        <time>2018-04-07T11:21:16Z</time>
      </trkpt>
      <trkpt lat="44.53791" lon="4.12771">
        <ele>533.1</ele>
        <time>2018-04-07T11:21:19Z</time>
      </trkpt>
      <trkpt lat="44.53779" lon="4.1278">
        <ele>532.5</ele>
        <time>2018-04-07T11:21:22Z</time>
      </trkpt>
      <trkpt lat="44.53769" lon="4.12784">
        <ele>532.1</ele>
        <time>2018-04-07T11:21:24Z</time>
      </trkpt>
      <trkpt lat="44.53759" lon="4.12785">
        <ele>531.7</ele>
        <time>2018-04-07T11:21:26Z</time>
      </trkpt>
      <trkpt lat="44.53749" lon="4.12785">
        <ele>531.2</ele>
        <time>2018-04-07T11:21:28Z</time>
      </trkpt>
      <trkpt lat="44.5374" lon="4.12782">
        <ele>530.7</ele>
        <time>2018-04-07T11:21:30Z</time>
      </trkpt>
      <trkpt lat="44.53731" lon="4.12779">
        <ele>530</ele>
        <time>2018-04-07T11:21:33Z</time>
      </trkpt>
      <trkpt lat="44.53726" lon="4.12768">
        <ele>529</ele>
        <time>2018-04-07T11:21:55Z</time>
      </trkpt>
      <trkpt lat="44.53721" lon="4.12757">
        <ele>530.3</ele>
        <time>2018-04-07T11:22:01Z</time>
      </trkpt>
      <trkpt lat="44.53718" lon="4.12745">
        <ele>532.8</ele>
        <time>2018-04-07T11:22:14Z</time>
      </trkpt>
      <trkpt lat="44.53713" lon="4.12735">
        <ele>534</ele>
        <time>2018-04-07T11:22:21Z</time>
      </trkpt>
      <trkpt lat="44.53708" lon="4.12724">
        <ele>535.2</ele>
        <time>2018-04-07T11:22:28Z</time>
      </trkpt>
      <trkpt lat="44.53704" lon="4.12712">
        <ele>537.1</ele>
        <time>2018-04-07T11:22:46Z</time>
      </trkpt>
      <trkpt lat="44.53703" lon="4.12699">
        <ele>539</ele>
        <time>2018-04-07T11:23:00Z</time>
      </trkpt>
      <trkpt lat="44.53703" lon="4.12687">
        <ele>540.7</ele>
        <time>2018-04-07T11:23:11Z</time>
      </trkpt>
      <trkpt lat="44.53704" lon="4.12673">
        <ele>541.9</ele>
        <time>2018-04-07T11:23:22Z</time>
      </trkpt>
      <trkpt lat="44.53706" lon="4.1266">
        <ele>541.4</ele>
        <time>2018-04-07T11:23:49Z</time>
      </trkpt>
      <trkpt lat="44.53707" lon="4.12647">
        <ele>540.9</ele>
        <time>2018-04-07T11:23:53Z</time>
      </trkpt>
      <trkpt lat="44.53711" lon="4.12633">
        <ele>540.2</ele>
        <time>2018-04-07T11:23:59Z</time>
      </trkpt>
      <trkpt lat="44.53714" lon="4.1262">
        <ele>540.2</ele>
        <time>2018-04-07T11:24:04Z</time>
      </trkpt>
      <trkpt lat="44.53717" lon="4.12605">
        <ele>540.3</ele>
        <time>2018-04-07T11:24:09Z</time>
      </trkpt>
      <trkpt lat="44.53718" lon="4.12591">
        <ele>540.3</ele>
        <time>2018-04-07T11:24:13Z</time>
      </trkpt>
      <trkpt lat="44.53714" lon="4.12579">
        <ele>540</ele>
        <time>2018-04-07T11:24:17Z</time>
      </trkpt>
      <trkpt lat="44.53706" lon="4.12571">
        <ele>540</ele>
        <time>2018-04-07T11:24:27Z</time>
      </trkpt>
      <trkpt lat="44.53698" lon="4.12562">
        <ele>541</ele>
        <time>2018-04-07T11:24:40Z</time>
      </trkpt>
      <trkpt lat="44.53689" lon="4.12556">
        <ele>541.5</ele>
        <time>2018-04-07T11:24:46Z</time>
      </trkpt>
      <trkpt lat="44.53681" lon="4.12549">
        <ele>542</ele>
        <time>2018-04-07T11:24:51Z</time>
      </trkpt>
      <trkpt lat="44.53673" lon="4.12543">
        <ele>542.5</ele>
        <time>2018-04-07T11:24:56Z</time>
      </trkpt>
      <trkpt lat="44.53666" lon="4.12535">
        <ele>543.1</ele>
        <time>2018-04-07T11:25:01Z</time>
      </trkpt>
      <trkpt lat="44.53656" lon="4.12529">
        <ele>543.5</ele>
        <time>2018-04-07T11:25:07Z</time>
      </trkpt>
      <trkpt lat="44.53649" lon="4.12521">
        <ele>543.3</ele>
        <time>2018-04-07T11:25:10Z</time>
      </trkpt>
      <trkpt lat="44.53642" lon="4.12507">
        <ele>542.7</ele>
        <time>2018-04-07T11:25:13Z</time>
      </trkpt>
      <trkpt lat="44.5364" lon="4.12491">
        <ele>541.7</ele>
        <time>2018-04-07T11:25:16Z</time>
      </trkpt>
      <trkpt lat="44.53637" lon="4.12474">
        <ele>540.3</ele>
        <time>2018-04-07T11:25:19Z</time>
      </trkpt>
      <trkpt lat="44.53634" lon="4.12459">
        <ele>539.1</ele>
        <time>2018-04-07T11:25:22Z</time>
      </trkpt>
      <trkpt lat="44.53631" lon="4.12446">
        <ele>537.5</ele>
        <time>2018-04-07T11:25:25Z</time>
      </trkpt>
      <trkpt lat="44.53626" lon="4.12434">
        <ele>535.5</ele>
        <time>2018-04-07T11:25:28Z</time>
      </trkpt>
      <trkpt lat="44.53618" lon="4.12429">
        <ele>534</ele>
        <time>2018-04-07T11:25:32Z</time>
      </trkpt>
      <trkpt lat="44.53608" lon="4.12425">
        <ele>533.5</ele>
        <time>2018-04-07T11:25:37Z</time>
      </trkpt>
      <trkpt lat="44.536" lon="4.12419">
        <ele>533.5</ele>
        <time>2018-04-07T11:25:41Z</time>
      </trkpt>
      <trkpt lat="44.53589" lon="4.12412">
        <ele>533.2</ele>
        <time>2018-04-07T11:25:45Z</time>
      </trkpt>
      <trkpt lat="44.5358" lon="4.12407">
        <ele>533.2</ele>
        <time>2018-04-07T11:25:50Z</time>
      </trkpt>
      <trkpt lat="44.5357" lon="4.12405">
        <ele>533.3</ele>
        <time>2018-04-07T11:25:55Z</time>
      </trkpt>
      <trkpt lat="44.5356" lon="4.12405">
        <ele>533.9</ele>
        <time>2018-04-07T11:26:00Z</time>
      </trkpt>
      <trkpt lat="44.53551" lon="4.12413">
        <ele>534.6</ele>
        <time>2018-04-07T11:26:06Z</time>
      </trkpt>
      <trkpt lat="44.53541" lon="4.12415">
        <ele>535.3</ele>
        <time>2018-04-07T11:26:13Z</time>
      </trkpt>
      <trkpt lat="44.53531" lon="4.12418">
        <ele>534.2</ele>
        <time>2018-04-07T11:26:18Z</time>
      </trkpt>
      <trkpt lat="44.53526" lon="4.12429">
        <ele>532</ele>
        <time>2018-04-07T11:26:36Z</time>
      </trkpt>
      <trkpt lat="44.53519" lon="4.12438">
        <ele>533.4</ele>
        <time>2018-04-07T11:26:58Z</time>
      </trkpt>
      <trkpt lat="44.53509" lon="4.12437">
        <ele>533.5</ele>
        <time>2018-04-07T11:27:16Z</time>
      </trkpt>
      <trkpt lat="44.53499" lon="4.12435">
        <ele>533.6</ele>
        <time>2018-04-07T11:27:21Z</time>
      </trkpt>
      <trkpt lat="44.53489" lon="4.12436">
        <ele>534.1</ele>
        <time>2018-04-07T11:27:26Z</time>
      </trkpt>
      <trkpt lat="44.53481" lon="4.12443">
        <ele>534.1</ele>
        <time>2018-04-07T11:27:31Z</time>
      </trkpt>
      <trkpt lat="44.53474" lon="4.12451">
        <ele>534.3</ele>
        <time>2018-04-07T11:27:36Z</time>
      </trkpt>
      <trkpt lat="44.53466" lon="4.12459">
        <ele>534.6</ele>
        <time>2018-04-07T11:27:41Z</time>
      </trkpt>
      <trkpt lat="44.53457" lon="4.12466">
        <ele>534.7</ele>
        <time>2018-04-07T11:27:48Z</time>
      </trkpt>
      <trkpt lat="44.53449" lon="4.1247">
        <ele>535</ele>
        <time>2018-04-07T11:27:53Z</time>
      </trkpt>
      <trkpt lat="44.5344" lon="4.12475">
        <ele>535.4</ele>
        <time>2018-04-07T11:27:58Z</time>
      </trkpt>
      <trkpt lat="44.5343" lon="4.12481">
        <ele>535.5</ele>
        <time>2018-04-07T11:28:03Z</time>
      </trkpt>
      <trkpt lat="44.53422" lon="4.12485">
        <ele>535.3</ele>
        <time>2018-04-07T11:28:07Z</time>
      </trkpt>
      <trkpt lat="44.53412" lon="4.1249">
        <ele>535.2</ele>
        <time>2018-04-07T11:28:10Z</time>
      </trkpt>
      <trkpt lat="44.53402" lon="4.12495">
        <ele>535.2</ele>
        <time>2018-04-07T11:28:14Z</time>
      </trkpt>
      <trkpt lat="44.53391" lon="4.12499">
        <ele>535.4</ele>
        <time>2018-04-07T11:28:18Z</time>
      </trkpt>
      <trkpt lat="44.53381" lon="4.12504">
        <ele>536</ele>
        <time>2018-04-07T11:28:22Z</time>
      </trkpt>
      <trkpt lat="44.5337" lon="4.12508">
        <ele>536.9</ele>
        <time>2018-04-07T11:28:27Z</time>
      </trkpt>
      <trkpt lat="44.5336" lon="4.1251">
        <ele>537.8</ele>
        <time>2018-04-07T11:28:32Z</time>
      </trkpt>
      <trkpt lat="44.53351" lon="4.12514">
        <ele>538.2</ele>
        <time>2018-04-07T11:28:36Z</time>
      </trkpt>
      <trkpt lat="44.53341" lon="4.12522">
        <ele>538.5</ele>
        <time>2018-04-07T11:28:40Z</time>
      </trkpt>
      <trkpt lat="44.53332" lon="4.12524">
        <ele>538.3</ele>
        <time>2018-04-07T11:28:43Z</time>
      </trkpt>
      <trkpt lat="44.5332" lon="4.12523">
        <ele>537.8</ele>
        <time>2018-04-07T11:28:47Z</time>
      </trkpt>
      <trkpt lat="44.53311" lon="4.12522">
        <ele>537.7</ele>
        <time>2018-04-07T11:28:51Z</time>
      </trkpt>
      <trkpt lat="44.53303" lon="4.12516">
        <ele>537.9</ele>
        <time>2018-04-07T11:28:56Z</time>
      </trkpt>
      <trkpt lat="44.53293" lon="4.12509">
        <ele>538</ele>
        <time>2018-04-07T11:29:01Z</time>
      </trkpt>
      <trkpt lat="44.53284" lon="4.12504">
        <ele>538.1</ele>
        <time>2018-04-07T11:29:05Z</time>
      </trkpt>
      <trkpt lat="44.53273" lon="4.125">
        <ele>538</ele>
        <time>2018-04-07T11:29:09Z</time>
      </trkpt>
      <trkpt lat="44.53263" lon="4.12497">
        <ele>537.4</ele>
        <time>2018-04-07T11:29:13Z</time>
      </trkpt>
      <trkpt lat="44.53253" lon="4.12493">
        <ele>537</ele>
        <time>2018-04-07T11:29:16Z</time>
      </trkpt>
      <trkpt lat="44.53245" lon="4.12488">
        <ele>536.4</ele>
        <time>2018-04-07T11:29:23Z</time>
      </trkpt>
      <trkpt lat="44.53236" lon="4.12485">
        <ele>536.5</ele>
        <time>2018-04-07T11:29:33Z</time>
      </trkpt>
      <trkpt lat="44.53224" lon="4.12484">
        <ele>536.3</ele>
        <time>2018-04-07T11:29:38Z</time>
      </trkpt>
      <trkpt lat="44.53214" lon="4.12482">
        <ele>536.1</ele>
        <time>2018-04-07T11:29:42Z</time>
      </trkpt>
      <trkpt lat="44.53205" lon="4.12475">
        <ele>535.8</ele>
        <time>2018-04-07T11:29:45Z</time>
      </trkpt>
      <trkpt lat="44.53195" lon="4.1247">
        <ele>535.2</ele>
        <time>2018-04-07T11:29:48Z</time>
      </trkpt>
      <trkpt lat="44.53185" lon="4.12466">
        <ele>534</ele>
        <time>2018-04-07T11:29:51Z</time>
      </trkpt>
      <trkpt lat="44.53176" lon="4.12464">
        <ele>532.8</ele>
        <time>2018-04-07T11:29:54Z</time>
      </trkpt>
      <trkpt lat="44.53166" lon="4.12464">
        <ele>531.5</ele>
        <time>2018-04-07T11:29:57Z</time>
      </trkpt>
      <trkpt lat="44.53157" lon="4.12457">
        <ele>529.5</ele>
        <time>2018-04-07T11:30:03Z</time>
      </trkpt>
      <trkpt lat="44.53147" lon="4.12452">
        <ele>528.6</ele>
        <time>2018-04-07T11:30:07Z</time>
      </trkpt>
      <trkpt lat="44.53136" lon="4.1245">
        <ele>527.8</ele>
        <time>2018-04-07T11:30:11Z</time>
      </trkpt>
      <trkpt lat="44.53127" lon="4.1245">
        <ele>527.4</ele>
        <time>2018-04-07T11:30:15Z</time>
      </trkpt>
      <trkpt lat="44.53117" lon="4.12441">
        <ele>527</ele>
        <time>2018-04-07T11:30:20Z</time>
      </trkpt>
      <trkpt lat="44.53105" lon="4.1244">
        <ele>526.8</ele>
        <time>2018-04-07T11:30:24Z</time>
      </trkpt>
      <trkpt lat="44.53094" lon="4.12442">
        <ele>526.9</ele>
        <time>2018-04-07T11:30:28Z</time>
      </trkpt>
      <trkpt lat="44.53083" lon="4.12441">
        <ele>526.8</ele>
        <time>2018-04-07T11:30:32Z</time>
      </trkpt>
      <trkpt lat="44.53072" lon="4.12448">
        <ele>526.2</ele>
        <time>2018-04-07T11:30:36Z</time>
      </trkpt>
      <trkpt lat="44.5306" lon="4.12455">
        <ele>524.8</ele>
        <time>2018-04-07T11:30:40Z</time>
      </trkpt>
      <trkpt lat="44.53051" lon="4.12462">
        <ele>523.4</ele>
        <time>2018-04-07T11:30:43Z</time>
      </trkpt>
      <trkpt lat="44.53045" lon="4.12472">
        <ele>518.6</ele>
        <time>2018-04-07T11:31:08Z</time>
      </trkpt>
      <trkpt lat="44.53056" lon="4.12471">
        <ele>517</ele>
        <time>2018-04-07T11:31:24Z</time>
      </trkpt>
      <trkpt lat="44.53066" lon="4.1247">
        <ele>516.4</ele>
        <time>2018-04-07T11:31:27Z</time>
      </trkpt>
      <trkpt lat="44.53075" lon="4.12464">
        <ele>515.7</ele>
        <time>2018-04-07T11:31:30Z</time>
      </trkpt>
      <trkpt lat="44.53078" lon="4.12479">
        <ele>514.6</ele>
        <time>2018-04-07T11:31:34Z</time>
      </trkpt>
      <trkpt lat="44.53066" lon="4.12481">
        <ele>513.4</ele>
        <time>2018-04-07T11:31:37Z</time>
      </trkpt>
      <trkpt lat="44.53055" lon="4.12487">
        <ele>512.4</ele>
        <time>2018-04-07T11:31:39Z</time>
      </trkpt>
      <trkpt lat="44.53045" lon="4.12493">
        <ele>511.4</ele>
        <time>2018-04-07T11:31:41Z</time>
      </trkpt>
      <trkpt lat="44.53035" lon="4.12502">
        <ele>510.1</ele>
        <time>2018-04-07T11:31:43Z</time>
      </trkpt>
      <trkpt lat="44.53026" lon="4.1251">
        <ele>508.9</ele>
        <time>2018-04-07T11:31:45Z</time>
      </trkpt>
      <trkpt lat="44.53015" lon="4.12516">
        <ele>508</ele>
        <time>2018-04-07T11:31:47Z</time>
      </trkpt>
      <trkpt lat="44.53006" lon="4.1252">
        <ele>507.1</ele>
        <time>2018-04-07T11:31:49Z</time>
      </trkpt>
      <trkpt lat="44.53016" lon="4.12528">
        <ele>503.6</ele>
        <time>2018-04-07T11:32:05Z</time>
      </trkpt>
      <trkpt lat="44.53025" lon="4.12525">
        <ele>502.2</ele>
        <time>2018-04-07T11:32:09Z</time>
      </trkpt>
      <trkpt lat="44.53018" lon="4.12534">
        <ele>499.1</ele>
        <time>2018-04-07T11:32:23Z</time>
      </trkpt>
      <trkpt lat="44.53009" lon="4.1254">
        <ele>497.8</ele>
        <time>2018-04-07T11:32:26Z</time>
      </trkpt>
      <trkpt lat="44.53" lon="4.12545">
        <ele>496.1</ele>
        <time>2018-04-07T11:32:29Z</time>
      </trkpt>
      <trkpt lat="44.52991" lon="4.1255">
        <ele>494.6</ele>
        <time>2018-04-07T11:32:32Z</time>
      </trkpt>
      <trkpt lat="44.52981" lon="4.12558">
        <ele>493.2</ele>
        <time>2018-04-07T11:32:35Z</time>
      </trkpt>
      <trkpt lat="44.52972" lon="4.12565">
        <ele>491.4</ele>
        <time>2018-04-07T11:32:38Z</time>
      </trkpt>
      <trkpt lat="44.52962" lon="4.12574">
        <ele>489.7</ele>
        <time>2018-04-07T11:32:42Z</time>
      </trkpt>
      <trkpt lat="44.52953" lon="4.12581">
        <ele>487.9</ele>
        <time>2018-04-07T11:32:46Z</time>
      </trkpt>
      <trkpt lat="44.52945" lon="4.12588">
        <ele>486.2</ele>
        <time>2018-04-07T11:32:50Z</time>
      </trkpt>
      <trkpt lat="44.52937" lon="4.12594">
        <ele>484</ele>
        <time>2018-04-07T11:32:54Z</time>
      </trkpt>
      <trkpt lat="44.52928" lon="4.12599">
        <ele>481.3</ele>
        <time>2018-04-07T11:32:59Z</time>
      </trkpt>
      <trkpt lat="44.5292" lon="4.12604">
        <ele>479</ele>
        <time>2018-04-07T11:33:03Z</time>
      </trkpt>
      <trkpt lat="44.5291" lon="4.12609">
        <ele>476</ele>
        <time>2018-04-07T11:33:07Z</time>
      </trkpt>
      <trkpt lat="44.529" lon="4.1261">
        <ele>473.4</ele>
        <time>2018-04-07T11:33:11Z</time>
      </trkpt>
      <trkpt lat="44.52891" lon="4.12602">
        <ele>469.4</ele>
        <time>2018-04-07T11:33:32Z</time>
      </trkpt>
      <trkpt lat="44.52888" lon="4.12589">
        <ele>469.8</ele>
        <time>2018-04-07T11:33:36Z</time>
      </trkpt>
      <trkpt lat="44.52887" lon="4.12576">
        <ele>469.9</ele>
        <time>2018-04-07T11:33:40Z</time>
      </trkpt>
      <trkpt lat="44.52888" lon="4.12563">
        <ele>470.3</ele>
        <time>2018-04-07T11:33:44Z</time>
      </trkpt>
      <trkpt lat="44.52889" lon="4.12549">
        <ele>470.7</ele>
        <time>2018-04-07T11:33:49Z</time>
      </trkpt>
      <trkpt lat="44.52892" lon="4.12535">
        <ele>471.2</ele>
        <time>2018-04-07T11:33:55Z</time>
      </trkpt>
      <trkpt lat="44.52896" lon="4.12522">
        <ele>471.7</ele>
        <time>2018-04-07T11:34:01Z</time>
      </trkpt>
      <trkpt lat="44.52901" lon="4.12511">
        <ele>472.8</ele>
        <time>2018-04-07T11:34:08Z</time>
      </trkpt>
      <trkpt lat="44.52907" lon="4.12502">
        <ele>474.6</ele>
        <time>2018-04-07T11:34:15Z</time>
      </trkpt>
      <trkpt lat="44.52911" lon="4.1249">
        <ele>475.9</ele>
        <time>2018-04-07T11:34:22Z</time>
      </trkpt>
      <trkpt lat="44.52912" lon="4.12477">
        <ele>476.6</ele>
        <time>2018-04-07T11:34:27Z</time>
      </trkpt>
      <trkpt lat="44.52913" lon="4.12464">
        <ele>477</ele>
        <time>2018-04-07T11:34:31Z</time>
      </trkpt>
      <trkpt lat="44.52916" lon="4.12447">
        <ele>477.2</ele>
        <time>2018-04-07T11:34:35Z</time>
      </trkpt>
      <trkpt lat="44.52919" lon="4.12432">
        <ele>476.8</ele>
        <time>2018-04-07T11:34:38Z</time>
      </trkpt>
      <trkpt lat="44.52921" lon="4.12418">
        <ele>476.3</ele>
        <time>2018-04-07T11:34:42Z</time>
      </trkpt>
      <trkpt lat="44.52924" lon="4.12403">
        <ele>476</ele>
        <time>2018-04-07T11:34:47Z</time>
      </trkpt>
      <trkpt lat="44.52926" lon="4.1239">
        <ele>476.2</ele>
        <time>2018-04-07T11:34:51Z</time>
      </trkpt>
      <trkpt lat="44.52928" lon="4.12375">
        <ele>476</ele>
        <time>2018-04-07T11:34:56Z</time>
      </trkpt>
      <trkpt lat="44.5293" lon="4.12362">
        <ele>475.8</ele>
        <time>2018-04-07T11:35:00Z</time>
      </trkpt>
      <trkpt lat="44.5293" lon="4.12348">
        <ele>475.5</ele>
        <time>2018-04-07T11:35:04Z</time>
      </trkpt>
      <trkpt lat="44.52931" lon="4.12331">
        <ele>474.9</ele>
        <time>2018-04-07T11:35:07Z</time>
      </trkpt>
      <trkpt lat="44.52934" lon="4.12317">
        <ele>474.1</ele>
        <time>2018-04-07T11:35:10Z</time>
      </trkpt>
      <trkpt lat="44.52937" lon="4.12302">
        <ele>473.7</ele>
        <time>2018-04-07T11:35:14Z</time>
      </trkpt>
      <trkpt lat="44.5294" lon="4.12287">
        <ele>473.5</ele>
        <time>2018-04-07T11:35:18Z</time>
      </trkpt>
      <trkpt lat="44.52941" lon="4.12271">
        <ele>473.8</ele>
        <time>2018-04-07T11:35:22Z</time>
      </trkpt>
      <trkpt lat="44.52942" lon="4.12257">
        <ele>474.1</ele>
        <time>2018-04-07T11:35:26Z</time>
      </trkpt>
      <trkpt lat="44.5294" lon="4.12243">
        <ele>474.3</ele>
        <time>2018-04-07T11:35:30Z</time>
      </trkpt>
      <trkpt lat="44.52934" lon="4.12231">
        <ele>474.9</ele>
        <time>2018-04-07T11:35:34Z</time>
      </trkpt>
      <trkpt lat="44.52933" lon="4.12218">
        <ele>475.5</ele>
        <time>2018-04-07T11:35:38Z</time>
      </trkpt>
      <trkpt lat="44.52936" lon="4.12204">
        <ele>476.7</ele>
        <time>2018-04-07T11:35:42Z</time>
      </trkpt>
      <trkpt lat="44.5294" lon="4.1219">
        <ele>477.8</ele>
        <time>2018-04-07T11:35:46Z</time>
      </trkpt>
      <trkpt lat="44.52946" lon="4.1218">
        <ele>478.8</ele>
        <time>2018-04-07T11:35:50Z</time>
      </trkpt>
      <trkpt lat="44.52953" lon="4.12172">
        <ele>479.6</ele>
        <time>2018-04-07T11:35:54Z</time>
      </trkpt>
      <trkpt lat="44.52962" lon="4.12163">
        <ele>480.6</ele>
        <time>2018-04-07T11:35:59Z</time>
      </trkpt>
      <trkpt lat="44.5297" lon="4.12155">
        <ele>481.2</ele>
        <time>2018-04-07T11:36:03Z</time>
      </trkpt>
      <trkpt lat="44.52978" lon="4.12147">
        <ele>481.8</ele>
        <time>2018-04-07T11:36:07Z</time>
      </trkpt>
      <trkpt lat="44.52986" lon="4.12139">
        <ele>482.6</ele>
        <time>2018-04-07T11:36:11Z</time>
      </trkpt>
      <trkpt lat="44.52993" lon="4.12129">
        <ele>483.3</ele>
        <time>2018-04-07T11:36:15Z</time>
      </trkpt>
      <trkpt lat="44.53" lon="4.1212">
        <ele>483.6</ele>
        <time>2018-04-07T11:36:19Z</time>
      </trkpt>
      <trkpt lat="44.53007" lon="4.12111">
        <ele>484</ele>
        <time>2018-04-07T11:36:23Z</time>
      </trkpt>
      <trkpt lat="44.53015" lon="4.12102">
        <ele>484.4</ele>
        <time>2018-04-07T11:36:27Z</time>
      </trkpt>
      <trkpt lat="44.53021" lon="4.1209">
        <ele>485</ele>
        <time>2018-04-07T11:36:31Z</time>
      </trkpt>
      <trkpt lat="44.5302" lon="4.12077">
        <ele>485.3</ele>
        <time>2018-04-07T11:36:35Z</time>
      </trkpt>
      <trkpt lat="44.53015" lon="4.12065">
        <ele>485.7</ele>
        <time>2018-04-07T11:36:39Z</time>
      </trkpt>
      <trkpt lat="44.53009" lon="4.12054">
        <ele>486.3</ele>
        <time>2018-04-07T11:36:43Z</time>
      </trkpt>
      <trkpt lat="44.53001" lon="4.12043">
        <ele>486.9</ele>
        <time>2018-04-07T11:36:47Z</time>
      </trkpt>
      <trkpt lat="44.52993" lon="4.12033">
        <ele>487.7</ele>
        <time>2018-04-07T11:36:51Z</time>
      </trkpt>
      <trkpt lat="44.52984" lon="4.12022">
        <ele>488.1</ele>
        <time>2018-04-07T11:36:55Z</time>
      </trkpt>
      <trkpt lat="44.52977" lon="4.12009">
        <ele>488.7</ele>
        <time>2018-04-07T11:36:59Z</time>
      </trkpt>
      <trkpt lat="44.52971" lon="4.11999">
        <ele>489</ele>
        <time>2018-04-07T11:37:02Z</time>
      </trkpt>
      <trkpt lat="44.52966" lon="4.11988">
        <ele>489.3</ele>
        <time>2018-04-07T11:37:05Z</time>
      </trkpt>
      <trkpt lat="44.52961" lon="4.11977">
        <ele>489.6</ele>
        <time>2018-04-07T11:37:08Z</time>
      </trkpt>
      <trkpt lat="44.52957" lon="4.11962">
        <ele>490</ele>
        <time>2018-04-07T11:37:12Z</time>
      </trkpt>
      <trkpt lat="44.52952" lon="4.11947">
        <ele>490.4</ele>
        <time>2018-04-07T11:37:16Z</time>
      </trkpt>
      <trkpt lat="44.52946" lon="4.11934">
        <ele>490.8</ele>
        <time>2018-04-07T11:37:20Z</time>
      </trkpt>
      <trkpt lat="44.52941" lon="4.11921">
        <ele>491.4</ele>
        <time>2018-04-07T11:37:24Z</time>
      </trkpt>
      <trkpt lat="44.52935" lon="4.11906">
        <ele>491.6</ele>
        <time>2018-04-07T11:37:28Z</time>
      </trkpt>
      <trkpt lat="44.52929" lon="4.11892">
        <ele>492</ele>
        <time>2018-04-07T11:37:32Z</time>
      </trkpt>
      <trkpt lat="44.52925" lon="4.11877">
        <ele>492.3</ele>
        <time>2018-04-07T11:37:36Z</time>
      </trkpt>
      <trkpt lat="44.52923" lon="4.11861">
        <ele>492.6</ele>
        <time>2018-04-07T11:37:40Z</time>
      </trkpt>
      <trkpt lat="44.52923" lon="4.11845">
        <ele>493.1</ele>
        <time>2018-04-07T11:37:44Z</time>
      </trkpt>
      <trkpt lat="44.52927" lon="4.11832">
        <ele>493.5</ele>
        <time>2018-04-07T11:37:47Z</time>
      </trkpt>
      <trkpt lat="44.52932" lon="4.11821">
        <ele>493.5</ele>
        <time>2018-04-07T11:37:50Z</time>
      </trkpt>
      <trkpt lat="44.52938" lon="4.11808">
        <ele>493.7</ele>
        <time>2018-04-07T11:37:54Z</time>
      </trkpt>
      <trkpt lat="44.52947" lon="4.118">
        <ele>494</ele>
        <time>2018-04-07T11:38:00Z</time>
      </trkpt>
      <trkpt lat="44.52955" lon="4.11792">
        <ele>494.1</ele>
        <time>2018-04-07T11:38:04Z</time>
      </trkpt>
      <trkpt lat="44.52963" lon="4.11786">
        <ele>494</ele>
        <time>2018-04-07T11:38:08Z</time>
      </trkpt>
      <trkpt lat="44.52972" lon="4.11779">
        <ele>493.9</ele>
        <time>2018-04-07T11:38:12Z</time>
      </trkpt>
      <trkpt lat="44.5298" lon="4.11771">
        <ele>494</ele>
        <time>2018-04-07T11:38:16Z</time>
      </trkpt>
      <trkpt lat="44.5299" lon="4.11764">
        <ele>494.2</ele>
        <time>2018-04-07T11:38:20Z</time>
      </trkpt>
      <trkpt lat="44.53" lon="4.11757">
        <ele>494.2</ele>
        <time>2018-04-07T11:38:24Z</time>
      </trkpt>
      <trkpt lat="44.53009" lon="4.11753">
        <ele>494.3</ele>
        <time>2018-04-07T11:38:28Z</time>
      </trkpt>
      <trkpt lat="44.53018" lon="4.1175">
        <ele>494.3</ele>
        <time>2018-04-07T11:38:32Z</time>
      </trkpt>
      <trkpt lat="44.53028" lon="4.11747">
        <ele>494.5</ele>
        <time>2018-04-07T11:38:36Z</time>
      </trkpt>
      <trkpt lat="44.53037" lon="4.11742">
        <ele>495</ele>
        <time>2018-04-07T11:38:40Z</time>
      </trkpt>
      <trkpt lat="44.53047" lon="4.11737">
        <ele>495.6</ele>
        <time>2018-04-07T11:38:45Z</time>
      </trkpt>
      <trkpt lat="44.53057" lon="4.11731">
        <ele>495.8</ele>
        <time>2018-04-07T11:38:49Z</time>
      </trkpt>
      <trkpt lat="44.53065" lon="4.1172">
        <ele>495.9</ele>
        <time>2018-04-07T11:38:52Z</time>
      </trkpt>
      <trkpt lat="44.53065" lon="4.11701">
        <ele>495.7</ele>
        <time>2018-04-07T11:38:55Z</time>
      </trkpt>
      <trkpt lat="44.5306" lon="4.11689">
        <ele>495.3</ele>
        <time>2018-04-07T11:38:57Z</time>
      </trkpt>
      <trkpt lat="44.53052" lon="4.11676">
        <ele>494.8</ele>
        <time>2018-04-07T11:39:00Z</time>
      </trkpt>
      <trkpt lat="44.53043" lon="4.11667">
        <ele>494.4</ele>
        <time>2018-04-07T11:39:03Z</time>
      </trkpt>
      <trkpt lat="44.53035" lon="4.11659">
        <ele>494.3</ele>
        <time>2018-04-07T11:39:06Z</time>
      </trkpt>
      <trkpt lat="44.53027" lon="4.11649">
        <ele>494.5</ele>
        <time>2018-04-07T11:39:09Z</time>
      </trkpt>
      <trkpt lat="44.53018" lon="4.11639">
        <ele>494.7</ele>
        <time>2018-04-07T11:39:12Z</time>
      </trkpt>
      <trkpt lat="44.5301" lon="4.11629">
        <ele>494.7</ele>
        <time>2018-04-07T11:39:15Z</time>
      </trkpt>
      <trkpt lat="44.53001" lon="4.11619">
        <ele>494.6</ele>
        <time>2018-04-07T11:39:18Z</time>
      </trkpt>
      <trkpt lat="44.52992" lon="4.11607">
        <ele>494.4</ele>
        <time>2018-04-07T11:39:21Z</time>
      </trkpt>
      <trkpt lat="44.52987" lon="4.11597">
        <ele>494.5</ele>
        <time>2018-04-07T11:39:24Z</time>
      </trkpt>
      <trkpt lat="44.52981" lon="4.11583">
        <ele>495</ele>
        <time>2018-04-07T11:39:28Z</time>
      </trkpt>
      <trkpt lat="44.52975" lon="4.11569">
        <ele>495.6</ele>
        <time>2018-04-07T11:39:32Z</time>
      </trkpt>
      <trkpt lat="44.5297" lon="4.11554">
        <ele>496.3</ele>
        <time>2018-04-07T11:39:36Z</time>
      </trkpt>
      <trkpt lat="44.52966" lon="4.11543">
        <ele>496.5</ele>
        <time>2018-04-07T11:39:39Z</time>
      </trkpt>
      <trkpt lat="44.52964" lon="4.11529">
        <ele>496.7</ele>
        <time>2018-04-07T11:39:42Z</time>
      </trkpt>
      <trkpt lat="44.52962" lon="4.11514">
        <ele>496.6</ele>
        <time>2018-04-07T11:39:45Z</time>
      </trkpt>
      <trkpt lat="44.52961" lon="4.11498">
        <ele>496.1</ele>
        <time>2018-04-07T11:39:48Z</time>
      </trkpt>
      <trkpt lat="44.5296" lon="4.11481">
        <ele>495.7</ele>
        <time>2018-04-07T11:39:51Z</time>
      </trkpt>
      <trkpt lat="44.5295" lon="4.11467">
        <ele>495</ele>
        <time>2018-04-07T11:39:55Z</time>
      </trkpt>
      <trkpt lat="44.5294" lon="4.1146">
        <ele>494.5</ele>
        <time>2018-04-07T11:39:59Z</time>
      </trkpt>
      <trkpt lat="44.52932" lon="4.11454">
        <ele>493.7</ele>
        <time>2018-04-07T11:40:03Z</time>
      </trkpt>
      <trkpt lat="44.52922" lon="4.11445">
        <ele>493</ele>
        <time>2018-04-07T11:40:07Z</time>
      </trkpt>
      <trkpt lat="44.52914" lon="4.11433">
        <ele>492.3</ele>
        <time>2018-04-07T11:40:10Z</time>
      </trkpt>
      <trkpt lat="44.52906" lon="4.11418">
        <ele>491.5</ele>
        <time>2018-04-07T11:40:13Z</time>
      </trkpt>
      <trkpt lat="44.52899" lon="4.11405">
        <ele>490.7</ele>
        <time>2018-04-07T11:40:16Z</time>
      </trkpt>
      <trkpt lat="44.52895" lon="4.11389">
        <ele>489.8</ele>
        <time>2018-04-07T11:40:19Z</time>
      </trkpt>
      <trkpt lat="44.52894" lon="4.11377">
        <ele>489.3</ele>
        <time>2018-04-07T11:40:21Z</time>
      </trkpt>
      <trkpt lat="44.52895" lon="4.11363">
        <ele>488.5</ele>
        <time>2018-04-07T11:40:23Z</time>
      </trkpt>
      <trkpt lat="44.52896" lon="4.11349">
        <ele>487.8</ele>
        <time>2018-04-07T11:40:25Z</time>
      </trkpt>
      <trkpt lat="44.52897" lon="4.11331">
        <ele>486.8</ele>
        <time>2018-04-07T11:40:28Z</time>
      </trkpt>
      <trkpt lat="44.52889" lon="4.11316">
        <ele>485.7</ele>
        <time>2018-04-07T11:40:31Z</time>
      </trkpt>
      <trkpt lat="44.52882" lon="4.11306">
        <ele>485.1</ele>
        <time>2018-04-07T11:40:33Z</time>
      </trkpt>
      <trkpt lat="44.52875" lon="4.11294">
        <ele>484.4</ele>
        <time>2018-04-07T11:40:35Z</time>
      </trkpt>
      <trkpt lat="44.52867" lon="4.11283">
        <ele>483.7</ele>
        <time>2018-04-07T11:40:37Z</time>
      </trkpt>
      <trkpt lat="44.52859" lon="4.11273">
        <ele>482.6</ele>
        <time>2018-04-07T11:40:40Z</time>
      </trkpt>
      <trkpt lat="44.52866" lon="4.11282">
        <ele>480.9</ele>
        <time>2018-04-07T11:40:53Z</time>
      </trkpt>
      <trkpt lat="44.52874" lon="4.11293">
        <ele>480.7</ele>
        <time>2018-04-07T11:40:57Z</time>
      </trkpt>
      <trkpt lat="44.52882" lon="4.11305">
        <ele>480.9</ele>
        <time>2018-04-07T11:41:01Z</time>
      </trkpt>
      <trkpt lat="44.52874" lon="4.11312">
        <ele>481.2</ele>
        <time>2018-04-07T11:41:11Z</time>
      </trkpt>
      <trkpt lat="44.52866" lon="4.11304">
        <ele>479.8</ele>
        <time>2018-04-07T11:41:15Z</time>
      </trkpt>
      <trkpt lat="44.52857" lon="4.11296">
        <ele>477.3</ele>
        <time>2018-04-07T11:41:19Z</time>
      </trkpt>
      <trkpt lat="44.5285" lon="4.11288">
        <ele>474.8</ele>
        <time>2018-04-07T11:41:23Z</time>
      </trkpt>
      <trkpt lat="44.52841" lon="4.11282">
        <ele>472.4</ele>
        <time>2018-04-07T11:41:27Z</time>
      </trkpt>
      <trkpt lat="44.52833" lon="4.11272">
        <ele>469.9</ele>
        <time>2018-04-07T11:41:31Z</time>
      </trkpt>
      <trkpt lat="44.52825" lon="4.11261">
        <ele>467.4</ele>
        <time>2018-04-07T11:41:35Z</time>
      </trkpt>
      <trkpt lat="44.5282" lon="4.11249">
        <ele>465.7</ele>
        <time>2018-04-07T11:41:39Z</time>
      </trkpt>
      <trkpt lat="44.52814" lon="4.11239">
        <ele>464</ele>
        <time>2018-04-07T11:41:43Z</time>
      </trkpt>
      <trkpt lat="44.52809" lon="4.11228">
        <ele>462.2</ele>
        <time>2018-04-07T11:41:47Z</time>
      </trkpt>
      <trkpt lat="44.52803" lon="4.11216">
        <ele>459.3</ele>
        <time>2018-04-07T11:41:52Z</time>
      </trkpt>
      <trkpt lat="44.52797" lon="4.11205">
        <ele>456.5</ele>
        <time>2018-04-07T11:41:57Z</time>
      </trkpt>
      <trkpt lat="44.52792" lon="4.11193">
        <ele>453.3</ele>
        <time>2018-04-07T11:42:03Z</time>
      </trkpt>
      <trkpt lat="44.52787" lon="4.11179">
        <ele>450.5</ele>
        <time>2018-04-07T11:42:08Z</time>
      </trkpt>
      <trkpt lat="44.52782" lon="4.11166">
        <ele>447.1</ele>
        <time>2018-04-07T11:42:13Z</time>
      </trkpt>
      <trkpt lat="44.52775" lon="4.11157">
        <ele>445.2</ele>
        <time>2018-04-07T11:42:16Z</time>
      </trkpt>
      <trkpt lat="44.52768" lon="4.11145">
        <ele>443.1</ele>
        <time>2018-04-07T11:42:19Z</time>
      </trkpt>
      <trkpt lat="44.52761" lon="4.11137">
        <ele>440.9</ele>
        <time>2018-04-07T11:42:22Z</time>
      </trkpt>
      <trkpt lat="44.52753" lon="4.11127">
        <ele>438.1</ele>
        <time>2018-04-07T11:42:26Z</time>
      </trkpt>
      <trkpt lat="44.52744" lon="4.11122">
        <ele>435.6</ele>
        <time>2018-04-07T11:42:30Z</time>
      </trkpt>
      <trkpt lat="44.52734" lon="4.11119">
        <ele>432.7</ele>
        <time>2018-04-07T11:42:35Z</time>
      </trkpt>
      <trkpt lat="44.52723" lon="4.11115">
        <ele>430.4</ele>
        <time>2018-04-07T11:42:39Z</time>
      </trkpt>
      <trkpt lat="44.52715" lon="4.11112">
        <ele>428.5</ele>
        <time>2018-04-07T11:42:42Z</time>
      </trkpt>
      <trkpt lat="44.52705" lon="4.11113">
        <ele>426</ele>
        <time>2018-04-07T11:42:45Z</time>
      </trkpt>
      <trkpt lat="44.52693" lon="4.11117">
        <ele>423.9</ele>
        <time>2018-04-07T11:42:48Z</time>
      </trkpt>
      <trkpt lat="44.52682" lon="4.11116">
        <ele>421.5</ele>
        <time>2018-04-07T11:42:51Z</time>
      </trkpt>
      <trkpt lat="44.52672" lon="4.11115">
        <ele>418.2</ele>
        <time>2018-04-07T11:42:55Z</time>
      </trkpt>
      <trkpt lat="44.52661" lon="4.11114">
        <ele>414.6</ele>
        <time>2018-04-07T11:43:00Z</time>
      </trkpt>
      <trkpt lat="44.52654" lon="4.11121">
        <ele>411.4</ele>
        <time>2018-04-07T11:43:06Z</time>
      </trkpt>
      <trkpt lat="44.5266" lon="4.11131">
        <ele>409</ele>
        <time>2018-04-07T11:43:12Z</time>
      </trkpt>
      <trkpt lat="44.52669" lon="4.11137">
        <ele>408</ele>
        <time>2018-04-07T11:43:15Z</time>
      </trkpt>
      <trkpt lat="44.52681" lon="4.11144">
        <ele>407.1</ele>
        <time>2018-04-07T11:43:18Z</time>
      </trkpt>
      <trkpt lat="44.52691" lon="4.11149">
        <ele>406.6</ele>
        <time>2018-04-07T11:43:20Z</time>
      </trkpt>
      <trkpt lat="44.52701" lon="4.11157">
        <ele>406</ele>
        <time>2018-04-07T11:43:22Z</time>
      </trkpt>
      <trkpt lat="44.52704" lon="4.11173">
        <ele>405.3</ele>
        <time>2018-04-07T11:43:24Z</time>
      </trkpt>
      <trkpt lat="44.52703" lon="4.11189">
        <ele>404.5</ele>
        <time>2018-04-07T11:43:26Z</time>
      </trkpt>
      <trkpt lat="44.52702" lon="4.11203">
        <ele>403.7</ele>
        <time>2018-04-07T11:43:28Z</time>
      </trkpt>
      <trkpt lat="44.52693" lon="4.11199">
        <ele>401.5</ele>
        <time>2018-04-07T11:43:34Z</time>
      </trkpt>
      <trkpt lat="44.52693" lon="4.11183">
        <ele>400.6</ele>
        <time>2018-04-07T11:43:37Z</time>
      </trkpt>
      <trkpt lat="44.52688" lon="4.11168">
        <ele>399.7</ele>
        <time>2018-04-07T11:43:40Z</time>
      </trkpt>
      <trkpt lat="44.52678" lon="4.11159">
        <ele>398.9</ele>
        <time>2018-04-07T11:43:43Z</time>
      </trkpt>
      <trkpt lat="44.52666" lon="4.11157">
        <ele>398.2</ele>
        <time>2018-04-07T11:43:46Z</time>
      </trkpt>
      <trkpt lat="44.52656" lon="4.11154">
        <ele>398</ele>
        <time>2018-04-07T11:43:49Z</time>
      </trkpt>
      <trkpt lat="44.52646" lon="4.11148">
        <ele>397.7</ele>
        <time>2018-04-07T11:43:53Z</time>
      </trkpt>
      <trkpt lat="44.52636" lon="4.11151">
        <ele>397.1</ele>
        <time>2018-04-07T11:44:12Z</time>
      </trkpt>
      <trkpt lat="44.52626" lon="4.11147">
        <ele>396.1</ele>
        <time>2018-04-07T11:44:16Z</time>
      </trkpt>
      <trkpt lat="44.52615" lon="4.1114">
        <ele>394.7</ele>
        <time>2018-04-07T11:44:19Z</time>
      </trkpt>
      <trkpt lat="44.52605" lon="4.1113">
        <ele>392.9</ele>
        <time>2018-04-07T11:44:22Z</time>
      </trkpt>
      <trkpt lat="44.52596" lon="4.11123">
        <ele>391.4</ele>
        <time>2018-04-07T11:44:24Z</time>
      </trkpt>
      <trkpt lat="44.52587" lon="4.11115">
        <ele>390</ele>
        <time>2018-04-07T11:44:26Z</time>
      </trkpt>
      <trkpt lat="44.52578" lon="4.11106">
        <ele>388.5</ele>
        <time>2018-04-07T11:44:28Z</time>
      </trkpt>
      <trkpt lat="44.52569" lon="4.11096">
        <ele>387</ele>
        <time>2018-04-07T11:44:30Z</time>
      </trkpt>
      <trkpt lat="44.52561" lon="4.11087">
        <ele>385.2</ele>
        <time>2018-04-07T11:44:32Z</time>
      </trkpt>
      <trkpt lat="44.52553" lon="4.11076">
        <ele>383.4</ele>
        <time>2018-04-07T11:44:34Z</time>
      </trkpt>
      <trkpt lat="44.52544" lon="4.11065">
        <ele>381.7</ele>
        <time>2018-04-07T11:44:36Z</time>
      </trkpt>
      <trkpt lat="44.52538" lon="4.11052">
        <ele>379.9</ele>
        <time>2018-04-07T11:44:38Z</time>
      </trkpt>
      <trkpt lat="44.52534" lon="4.1104">
        <ele>378.4</ele>
        <time>2018-04-07T11:44:40Z</time>
      </trkpt>
      <trkpt lat="44.52529" lon="4.11051">
        <ele>375.1</ele>
        <time>2018-04-07T11:44:45Z</time>
      </trkpt>
      <trkpt lat="44.52532" lon="4.11067">
        <ele>373.7</ele>
        <time>2018-04-07T11:44:47Z</time>
      </trkpt>
      <trkpt lat="44.52535" lon="4.11083">
        <ele>372.1</ele>
        <time>2018-04-07T11:44:49Z</time>
      </trkpt>
      <trkpt lat="44.52539" lon="4.11098">
        <ele>370.1</ele>
        <time>2018-04-07T11:44:51Z</time>
      </trkpt>
      <trkpt lat="44.52541" lon="4.11115">
        <ele>367.6</ele>
        <time>2018-04-07T11:44:53Z</time>
      </trkpt>
      <trkpt lat="44.52542" lon="4.11131">
        <ele>365</ele>
        <time>2018-04-07T11:44:55Z</time>
      </trkpt>
      <trkpt lat="44.52545" lon="4.11144">
        <ele>362.6</ele>
        <time>2018-04-07T11:44:57Z</time>
      </trkpt>
      <trkpt lat="44.52553" lon="4.11155">
        <ele>360.5</ele>
        <time>2018-04-07T11:44:59Z</time>
      </trkpt>
      <trkpt lat="44.52558" lon="4.1117">
        <ele>358.3</ele>
        <time>2018-04-07T11:45:01Z</time>
      </trkpt>
      <trkpt lat="44.52561" lon="4.11183">
        <ele>356.4</ele>
        <time>2018-04-07T11:45:03Z</time>
      </trkpt>
      <trkpt lat="44.52563" lon="4.11195">
        <ele>354.6</ele>
        <time>2018-04-07T11:45:05Z</time>
      </trkpt>
      <trkpt lat="44.52564" lon="4.11209">
        <ele>353.2</ele>
        <time>2018-04-07T11:45:07Z</time>
      </trkpt>
      <trkpt lat="44.52564" lon="4.11225">
        <ele>351.5</ele>
        <time>2018-04-07T11:45:10Z</time>
      </trkpt>
      <trkpt lat="44.52562" lon="4.1124">
        <ele>349.6</ele>
        <time>2018-04-07T11:45:14Z</time>
      </trkpt>
      <trkpt lat="44.52559" lon="4.11253">
        <ele>348.3</ele>
        <time>2018-04-07T11:45:17Z</time>
      </trkpt>
      <trkpt lat="44.52555" lon="4.11267">
        <ele>347</ele>
        <time>2018-04-07T11:45:20Z</time>
      </trkpt>
      <trkpt lat="44.52559" lon="4.11279">
        <ele>344.5</ele>
        <time>2018-04-07T11:45:25Z</time>
      </trkpt>
      <trkpt lat="44.52556" lon="4.11291">
        <ele>340.9</ele>
        <time>2018-04-07T11:45:33Z</time>
      </trkpt>
      <trkpt lat="44.52546" lon="4.11286">
        <ele>338.5</ele>
        <time>2018-04-07T11:45:37Z</time>
      </trkpt>
      <trkpt lat="44.5254" lon="4.11272">
        <ele>336</ele>
        <time>2018-04-07T11:45:41Z</time>
      </trkpt>
      <trkpt lat="44.52539" lon="4.11257">
        <ele>333.2</ele>
        <time>2018-04-07T11:45:47Z</time>
      </trkpt>
      <trkpt lat="44.52539" lon="4.11244">
        <ele>332</ele>
        <time>2018-04-07T11:45:51Z</time>
      </trkpt>
      <trkpt lat="44.52529" lon="4.11243">
        <ele>331.7</ele>
        <time>2018-04-07T11:46:04Z</time>
      </trkpt>
      <trkpt lat="44.5252" lon="4.11244">
        <ele>333.1</ele>
        <time>2018-04-07T11:46:17Z</time>
      </trkpt>
      <trkpt lat="44.5251" lon="4.11247">
        <ele>334.1</ele>
        <time>2018-04-07T11:46:25Z</time>
      </trkpt>
      <trkpt lat="44.525" lon="4.11248">
        <ele>333.9</ele>
        <time>2018-04-07T11:46:31Z</time>
      </trkpt>
      <trkpt lat="44.5249" lon="4.11251">
        <ele>334</ele>
        <time>2018-04-07T11:46:37Z</time>
      </trkpt>
      <trkpt lat="44.5248" lon="4.11252">
        <ele>333.6</ele>
        <time>2018-04-07T11:46:42Z</time>
      </trkpt>
      <trkpt lat="44.52479" lon="4.1124">
        <ele>330.6</ele>
        <time>2018-04-07T11:46:53Z</time>
      </trkpt>
      <trkpt lat="44.52487" lon="4.11234">
        <ele>323</ele>
        <time>2018-04-07T11:48:50Z</time>
      </trkpt>
      <trkpt lat="44.52479" lon="4.11239">
        <ele>317.2</ele>
        <time>2018-04-07T11:57:19Z</time>
      </trkpt>
      <trkpt lat="44.52487" lon="4.11233">
        <ele>318.4</ele>
        <time>2018-04-07T12:00:36Z</time>
      </trkpt>
      <trkpt lat="44.52478" lon="4.11235">
        <ele>319.6</ele>
        <time>2018-04-07T12:02:29Z</time>
      </trkpt>
      <trkpt lat="44.52486" lon="4.1123">
        <ele>320.2</ele>
        <time>2018-04-07T12:04:48Z</time>
      </trkpt>
      <trkpt lat="44.52477" lon="4.11232">
        <ele>322.9</ele>
        <time>2018-04-07T12:09:59Z</time>
      </trkpt>
      <trkpt lat="44.52474" lon="4.11245">
        <ele>325.2</ele>
        <time>2018-04-07T12:11:31Z</time>
      </trkpt>
      <trkpt lat="44.52476" lon="4.11258">
        <ele>328.2</ele>
        <time>2018-04-07T12:11:48Z</time>
      </trkpt>
      <trkpt lat="44.5247" lon="4.11273">
        <ele>325.2</ele>
        <time>2018-04-07T12:11:57Z</time>
      </trkpt>
      <trkpt lat="44.52469" lon="4.11287">
        <ele>329.8</ele>
        <time>2018-04-07T12:12:05Z</time>
      </trkpt>
      <trkpt lat="44.52462" lon="4.113">
        <ele>330.5</ele>
        <time>2018-04-07T12:12:10Z</time>
      </trkpt>
      <trkpt lat="44.52461" lon="4.11315">
        <ele>331.1</ele>
        <time>2018-04-07T12:12:17Z</time>
      </trkpt>
      <trkpt lat="44.52462" lon="4.11328">
        <ele>331.8</ele>
        <time>2018-04-07T12:12:23Z</time>
      </trkpt>
      <trkpt lat="44.52462" lon="4.1134">
        <ele>333.2</ele>
        <time>2018-04-07T12:12:32Z</time>
      </trkpt>
      <trkpt lat="44.52463" lon="4.11354">
        <ele>334.3</ele>
        <time>2018-04-07T12:12:40Z</time>
      </trkpt>
      <trkpt lat="44.52469" lon="4.11363">
        <ele>335.6</ele>
        <time>2018-04-07T12:12:50Z</time>
      </trkpt>
      <trkpt lat="44.52473" lon="4.11375">
        <ele>339.8</ele>
        <time>2018-04-07T12:13:21Z</time>
      </trkpt>
      <trkpt lat="44.5247" lon="4.11387">
        <ele>341.9</ele>
        <time>2018-04-07T12:13:33Z</time>
      </trkpt>
      <trkpt lat="44.52465" lon="4.11399">
        <ele>343.9</ele>
        <time>2018-04-07T12:13:46Z</time>
      </trkpt>
      <trkpt lat="44.52456" lon="4.11405">
        <ele>346.1</ele>
        <time>2018-04-07T12:14:01Z</time>
      </trkpt>
      <trkpt lat="44.52449" lon="4.11413">
        <ele>346.9</ele>
        <time>2018-04-07T12:14:09Z</time>
      </trkpt>
      <trkpt lat="44.52442" lon="4.11421">
        <ele>348.9</ele>
        <time>2018-04-07T12:14:18Z</time>
      </trkpt>
      <trkpt lat="44.52435" lon="4.11429">
        <ele>350.3</ele>
        <time>2018-04-07T12:14:28Z</time>
      </trkpt>
      <trkpt lat="44.52429" lon="4.1144">
        <ele>352.4</ele>
        <time>2018-04-07T12:14:41Z</time>
      </trkpt>
      <trkpt lat="44.52424" lon="4.11451">
        <ele>355.1</ele>
        <time>2018-04-07T12:14:54Z</time>
      </trkpt>
      <trkpt lat="44.52419" lon="4.11462">
        <ele>356.8</ele>
        <time>2018-04-07T12:15:05Z</time>
      </trkpt>
      <trkpt lat="44.52416" lon="4.11474">
        <ele>358.4</ele>
        <time>2018-04-07T12:15:16Z</time>
      </trkpt>
      <trkpt lat="44.52416" lon="4.11487">
        <ele>361.7</ele>
        <time>2018-04-07T12:15:36Z</time>
      </trkpt>
      <trkpt lat="44.52414" lon="4.11502">
        <ele>363.3</ele>
        <time>2018-04-07T12:15:50Z</time>
      </trkpt>
      <trkpt lat="44.52411" lon="4.11515">
        <ele>365.9</ele>
        <time>2018-04-07T12:16:07Z</time>
      </trkpt>
      <trkpt lat="44.52404" lon="4.11525">
        <ele>367.1</ele>
        <time>2018-04-07T12:16:16Z</time>
      </trkpt>
      <trkpt lat="44.52396" lon="4.11537">
        <ele>369.2</ele>
        <time>2018-04-07T12:16:29Z</time>
      </trkpt>
      <trkpt lat="44.52389" lon="4.11545">
        <ele>370.5</ele>
        <time>2018-04-07T12:16:38Z</time>
      </trkpt>
      <trkpt lat="44.52382" lon="4.11552">
        <ele>372.7</ele>
        <time>2018-04-07T12:16:50Z</time>
      </trkpt>
      <trkpt lat="44.52383" lon="4.11565">
        <ele>376.6</ele>
        <time>2018-04-07T12:17:14Z</time>
      </trkpt>
      <trkpt lat="44.52379" lon="4.11578">
        <ele>378.8</ele>
        <time>2018-04-07T12:17:32Z</time>
      </trkpt>
      <trkpt lat="44.52375" lon="4.11589">
        <ele>379.1</ele>
        <time>2018-04-07T12:17:36Z</time>
      </trkpt>
      <trkpt lat="44.52374" lon="4.11603">
        <ele>379.7</ele>
        <time>2018-04-07T12:17:43Z</time>
      </trkpt>
      <trkpt lat="44.52377" lon="4.11615">
        <ele>380.2</ele>
        <time>2018-04-07T12:17:50Z</time>
      </trkpt>
      <trkpt lat="44.52376" lon="4.11628">
        <ele>381.2</ele>
        <time>2018-04-07T12:17:57Z</time>
      </trkpt>
      <trkpt lat="44.5238" lon="4.11641">
        <ele>383</ele>
        <time>2018-04-07T12:18:07Z</time>
      </trkpt>
      <trkpt lat="44.52386" lon="4.11651">
        <ele>384.4</ele>
        <time>2018-04-07T12:18:16Z</time>
      </trkpt>
      <trkpt lat="44.52391" lon="4.11662">
        <ele>385.5</ele>
        <time>2018-04-07T12:18:24Z</time>
      </trkpt>
      <trkpt lat="44.52394" lon="4.11675">
        <ele>388.3</ele>
        <time>2018-04-07T12:18:35Z</time>
      </trkpt>
      <trkpt lat="44.52401" lon="4.11684">
        <ele>389.7</ele>
        <time>2018-04-07T12:18:42Z</time>
      </trkpt>
      <trkpt lat="44.52408" lon="4.11694">
        <ele>390.9</ele>
        <time>2018-04-07T12:18:50Z</time>
      </trkpt>
      <trkpt lat="44.52414" lon="4.11703">
        <ele>392.2</ele>
        <time>2018-04-07T12:18:57Z</time>
      </trkpt>
      <trkpt lat="44.52422" lon="4.1171">
        <ele>394</ele>
        <time>2018-04-07T12:19:09Z</time>
      </trkpt>
      <trkpt lat="44.52428" lon="4.1172">
        <ele>395.7</ele>
        <time>2018-04-07T12:19:42Z</time>
      </trkpt>
      <trkpt lat="44.52434" lon="4.11729">
        <ele>396.8</ele>
        <time>2018-04-07T12:20:02Z</time>
      </trkpt>
      <trkpt lat="44.52439" lon="4.1174">
        <ele>399.3</ele>
        <time>2018-04-07T12:20:12Z</time>
      </trkpt>
      <trkpt lat="44.52445" lon="4.1175">
        <ele>401.5</ele>
        <time>2018-04-07T12:20:21Z</time>
      </trkpt>
      <trkpt lat="44.5245" lon="4.1176">
        <ele>404.2</ele>
        <time>2018-04-07T12:20:43Z</time>
      </trkpt>
      <trkpt lat="44.52453" lon="4.11773">
        <ele>405.9</ele>
        <time>2018-04-07T12:20:56Z</time>
      </trkpt>
      <trkpt lat="44.52452" lon="4.11787">
        <ele>408.4</ele>
        <time>2018-04-07T12:21:13Z</time>
      </trkpt>
      <trkpt lat="44.5245" lon="4.118">
        <ele>409.8</ele>
        <time>2018-04-07T12:21:24Z</time>
      </trkpt>
      <trkpt lat="44.52448" lon="4.11813">
        <ele>412</ele>
        <time>2018-04-07T12:21:35Z</time>
      </trkpt>
      <trkpt lat="44.52445" lon="4.11826">
        <ele>413.9</ele>
        <time>2018-04-07T12:21:46Z</time>
      </trkpt>
      <trkpt lat="44.5244" lon="4.11837">
        <ele>415.9</ele>
        <time>2018-04-07T12:21:58Z</time>
      </trkpt>
      <trkpt lat="44.52436" lon="4.11849">
        <ele>417.5</ele>
        <time>2018-04-07T12:22:09Z</time>
      </trkpt>
      <trkpt lat="44.52434" lon="4.11862">
        <ele>418.5</ele>
        <time>2018-04-07T12:22:23Z</time>
      </trkpt>
      <trkpt lat="44.52428" lon="4.11873">
        <ele>419.1</ele>
        <time>2018-04-07T12:22:33Z</time>
      </trkpt>
      <trkpt lat="44.5242" lon="4.11882">
        <ele>419.4</ele>
        <time>2018-04-07T12:22:39Z</time>
      </trkpt>
      <trkpt lat="44.52412" lon="4.11895">
        <ele>419.7</ele>
        <time>2018-04-07T12:22:43Z</time>
      </trkpt>
      <trkpt lat="44.52403" lon="4.11906">
        <ele>419.9</ele>
        <time>2018-04-07T12:22:47Z</time>
      </trkpt>
      <trkpt lat="44.52397" lon="4.11921">
        <ele>420.2</ele>
        <time>2018-04-07T12:22:52Z</time>
      </trkpt>
      <trkpt lat="44.52392" lon="4.11932">
        <ele>420.4</ele>
        <time>2018-04-07T12:22:57Z</time>
      </trkpt>
      <trkpt lat="44.52387" lon="4.11945">
        <ele>420.4</ele>
        <time>2018-04-07T12:23:01Z</time>
      </trkpt>
      <trkpt lat="44.52381" lon="4.11955">
        <ele>420.8</ele>
        <time>2018-04-07T12:23:06Z</time>
      </trkpt>
      <trkpt lat="44.52375" lon="4.11966">
        <ele>421</ele>
        <time>2018-04-07T12:23:33Z</time>
      </trkpt>
      <trkpt lat="44.52381" lon="4.11978">
        <ele>420.7</ele>
        <time>2018-04-07T12:23:49Z</time>
      </trkpt>
      <trkpt lat="44.52385" lon="4.1199">
        <ele>421.6</ele>
        <time>2018-04-07T12:23:55Z</time>
      </trkpt>
      <trkpt lat="44.52387" lon="4.12002">
        <ele>422.9</ele>
        <time>2018-04-07T12:24:01Z</time>
      </trkpt>
      <trkpt lat="44.52389" lon="4.12015">
        <ele>424</ele>
        <time>2018-04-07T12:24:07Z</time>
      </trkpt>
      <trkpt lat="44.52393" lon="4.12028">
        <ele>425.3</ele>
        <time>2018-04-07T12:24:14Z</time>
      </trkpt>
      <trkpt lat="44.52398" lon="4.12038">
        <ele>426.4</ele>
        <time>2018-04-07T12:24:21Z</time>
      </trkpt>
      <trkpt lat="44.52399" lon="4.12051">
        <ele>427.4</ele>
        <time>2018-04-07T12:24:28Z</time>
      </trkpt>
      <trkpt lat="44.52401" lon="4.12065">
        <ele>428.7</ele>
        <time>2018-04-07T12:24:35Z</time>
      </trkpt>
      <trkpt lat="44.52405" lon="4.12078">
        <ele>430.6</ele>
        <time>2018-04-07T12:24:43Z</time>
      </trkpt>
      <trkpt lat="44.5241" lon="4.1209">
        <ele>432.1</ele>
        <time>2018-04-07T12:24:50Z</time>
      </trkpt>
      <trkpt lat="44.52416" lon="4.121">
        <ele>433.2</ele>
        <time>2018-04-07T12:24:56Z</time>
      </trkpt>
      <trkpt lat="44.52416" lon="4.12112">
        <ele>434.7</ele>
        <time>2018-04-07T12:25:04Z</time>
      </trkpt>
      <trkpt lat="44.52416" lon="4.12126">
        <ele>435.8</ele>
        <time>2018-04-07T12:25:10Z</time>
      </trkpt>
      <trkpt lat="44.52418" lon="4.12138">
        <ele>436.8</ele>
        <time>2018-04-07T12:25:17Z</time>
      </trkpt>
      <trkpt lat="44.52424" lon="4.1215">
        <ele>438.1</ele>
        <time>2018-04-07T12:25:24Z</time>
      </trkpt>
      <trkpt lat="44.52428" lon="4.12162">
        <ele>438.7</ele>
        <time>2018-04-07T12:25:29Z</time>
      </trkpt>
      <trkpt lat="44.52432" lon="4.12175">
        <ele>439.1</ele>
        <time>2018-04-07T12:25:35Z</time>
      </trkpt>
      <trkpt lat="44.52434" lon="4.12189">
        <ele>439.8</ele>
        <time>2018-04-07T12:25:41Z</time>
      </trkpt>
      <trkpt lat="44.52433" lon="4.12204">
        <ele>441.1</ele>
        <time>2018-04-07T12:25:48Z</time>
      </trkpt>
      <trkpt lat="44.5243" lon="4.12218">
        <ele>442.3</ele>
        <time>2018-04-07T12:25:55Z</time>
      </trkpt>
      <trkpt lat="44.52429" lon="4.12231">
        <ele>443.3</ele>
        <time>2018-04-07T12:26:01Z</time>
      </trkpt>
      <trkpt lat="44.52426" lon="4.12243">
        <ele>444.7</ele>
        <time>2018-04-07T12:26:07Z</time>
      </trkpt>
      <trkpt lat="44.52422" lon="4.12255">
        <ele>446.7</ele>
        <time>2018-04-07T12:26:17Z</time>
      </trkpt>
      <trkpt lat="44.52414" lon="4.12263">
        <ele>448.8</ele>
        <time>2018-04-07T12:26:27Z</time>
      </trkpt>
      <trkpt lat="44.52404" lon="4.12266">
        <ele>450.5</ele>
        <time>2018-04-07T12:26:37Z</time>
      </trkpt>
      <trkpt lat="44.52397" lon="4.12274">
        <ele>452.4</ele>
        <time>2018-04-07T12:26:55Z</time>
      </trkpt>
      <trkpt lat="44.52388" lon="4.12279">
        <ele>453.1</ele>
        <time>2018-04-07T12:27:02Z</time>
      </trkpt>
      <trkpt lat="44.52379" lon="4.12285">
        <ele>454.2</ele>
        <time>2018-04-07T12:27:09Z</time>
      </trkpt>
      <trkpt lat="44.5237" lon="4.12291">
        <ele>454.9</ele>
        <time>2018-04-07T12:27:15Z</time>
      </trkpt>
      <trkpt lat="44.52361" lon="4.12297">
        <ele>455.4</ele>
        <time>2018-04-07T12:27:21Z</time>
      </trkpt>
      <trkpt lat="44.52352" lon="4.12302">
        <ele>455.7</ele>
        <time>2018-04-07T12:27:28Z</time>
      </trkpt>
      <trkpt lat="44.52344" lon="4.12309">
        <ele>456.9</ele>
        <time>2018-04-07T12:27:38Z</time>
      </trkpt>
      <trkpt lat="44.52343" lon="4.12323">
        <ele>458.4</ele>
        <time>2018-04-07T12:27:50Z</time>
      </trkpt>
      <trkpt lat="44.52343" lon="4.12336">
        <ele>460</ele>
        <time>2018-04-07T12:28:02Z</time>
      </trkpt>
      <trkpt lat="44.52343" lon="4.1235">
        <ele>462.4</ele>
        <time>2018-04-07T12:28:18Z</time>
      </trkpt>
      <trkpt lat="44.52343" lon="4.12363">
        <ele>463.4</ele>
        <time>2018-04-07T12:28:26Z</time>
      </trkpt>
      <trkpt lat="44.5235" lon="4.12373">
        <ele>464</ele>
        <time>2018-04-07T12:28:33Z</time>
      </trkpt>
      <trkpt lat="44.52355" lon="4.12386">
        <ele>464.9</ele>
        <time>2018-04-07T12:28:40Z</time>
      </trkpt>
      <trkpt lat="44.52359" lon="4.12399">
        <ele>465.9</ele>
        <time>2018-04-07T12:28:47Z</time>
      </trkpt>
      <trkpt lat="44.52361" lon="4.12412">
        <ele>467.4</ele>
        <time>2018-04-07T12:28:54Z</time>
      </trkpt>
      <trkpt lat="44.52363" lon="4.12425">
        <ele>468.6</ele>
        <time>2018-04-07T12:29:01Z</time>
      </trkpt>
      <trkpt lat="44.52362" lon="4.12439">
        <ele>469.7</ele>
        <time>2018-04-07T12:29:08Z</time>
      </trkpt>
      <trkpt lat="44.5236" lon="4.12453">
        <ele>471.1</ele>
        <time>2018-04-07T12:29:15Z</time>
      </trkpt>
      <trkpt lat="44.52358" lon="4.12467">
        <ele>472.2</ele>
        <time>2018-04-07T12:29:21Z</time>
      </trkpt>
      <trkpt lat="44.52354" lon="4.12481">
        <ele>472.9</ele>
        <time>2018-04-07T12:29:27Z</time>
      </trkpt>
      <trkpt lat="44.52352" lon="4.12494">
        <ele>473.1</ele>
        <time>2018-04-07T12:29:32Z</time>
      </trkpt>
      <trkpt lat="44.5235" lon="4.12508">
        <ele>473.6</ele>
        <time>2018-04-07T12:29:37Z</time>
      </trkpt>
      <trkpt lat="44.52349" lon="4.12523">
        <ele>474.1</ele>
        <time>2018-04-07T12:29:42Z</time>
      </trkpt>
      <trkpt lat="44.52348" lon="4.12536">
        <ele>474.4</ele>
        <time>2018-04-07T12:29:47Z</time>
      </trkpt>
      <trkpt lat="44.52346" lon="4.1255">
        <ele>474.7</ele>
        <time>2018-04-07T12:29:52Z</time>
      </trkpt>
      <trkpt lat="44.52345" lon="4.12564">
        <ele>475.1</ele>
        <time>2018-04-07T12:29:57Z</time>
      </trkpt>
      <trkpt lat="44.52343" lon="4.12578">
        <ele>475.6</ele>
        <time>2018-04-07T12:30:02Z</time>
      </trkpt>
      <trkpt lat="44.52341" lon="4.1259">
        <ele>476</ele>
        <time>2018-04-07T12:30:07Z</time>
      </trkpt>
      <trkpt lat="44.52338" lon="4.12603">
        <ele>476.6</ele>
        <time>2018-04-07T12:30:13Z</time>
      </trkpt>
      <trkpt lat="44.52334" lon="4.12615">
        <ele>477.1</ele>
        <time>2018-04-07T12:30:18Z</time>
      </trkpt>
      <trkpt lat="44.52331" lon="4.12628">
        <ele>477.9</ele>
        <time>2018-04-07T12:30:24Z</time>
      </trkpt>
      <trkpt lat="44.52332" lon="4.12641">
        <ele>478.6</ele>
        <time>2018-04-07T12:30:29Z</time>
      </trkpt>
      <trkpt lat="44.52328" lon="4.12655">
        <ele>479.6</ele>
        <time>2018-04-07T12:30:36Z</time>
      </trkpt>
      <trkpt lat="44.52329" lon="4.12669">
        <ele>480.7</ele>
        <time>2018-04-07T12:30:43Z</time>
      </trkpt>
      <trkpt lat="44.52328" lon="4.12683">
        <ele>481.8</ele>
        <time>2018-04-07T12:30:50Z</time>
      </trkpt>
      <trkpt lat="44.52328" lon="4.12696">
        <ele>482.4</ele>
        <time>2018-04-07T12:30:56Z</time>
      </trkpt>
      <trkpt lat="44.52326" lon="4.12709">
        <ele>483.6</ele>
        <time>2018-04-07T12:31:04Z</time>
      </trkpt>
      <trkpt lat="44.52323" lon="4.12721">
        <ele>485.3</ele>
        <time>2018-04-07T12:31:12Z</time>
      </trkpt>
      <trkpt lat="44.52319" lon="4.12733">
        <ele>487.2</ele>
        <time>2018-04-07T12:31:22Z</time>
      </trkpt>
      <trkpt lat="44.52312" lon="4.12743">
        <ele>488.9</ele>
        <time>2018-04-07T12:31:30Z</time>
      </trkpt>
      <trkpt lat="44.52306" lon="4.12752">
        <ele>490.7</ele>
        <time>2018-04-07T12:31:39Z</time>
      </trkpt>
      <trkpt lat="44.52297" lon="4.12759">
        <ele>492</ele>
        <time>2018-04-07T12:31:47Z</time>
      </trkpt>
      <trkpt lat="44.52288" lon="4.12763">
        <ele>493.4</ele>
        <time>2018-04-07T12:31:55Z</time>
      </trkpt>
      <trkpt lat="44.52279" lon="4.12767">
        <ele>494.9</ele>
        <time>2018-04-07T12:32:03Z</time>
      </trkpt>
      <trkpt lat="44.5227" lon="4.1277">
        <ele>496</ele>
        <time>2018-04-07T12:32:11Z</time>
      </trkpt>
      <trkpt lat="44.5226" lon="4.12771">
        <ele>496.3</ele>
        <time>2018-04-07T12:32:17Z</time>
      </trkpt>
      <trkpt lat="44.52251" lon="4.12772">
        <ele>496.5</ele>
        <time>2018-04-07T12:32:21Z</time>
      </trkpt>
      <trkpt lat="44.5224" lon="4.12775">
        <ele>496.2</ele>
        <time>2018-04-07T12:32:25Z</time>
      </trkpt>
      <trkpt lat="44.52231" lon="4.12773">
        <ele>495.8</ele>
        <time>2018-04-07T12:32:29Z</time>
      </trkpt>
      <trkpt lat="44.52222" lon="4.12766">
        <ele>495.5</ele>
        <time>2018-04-07T12:32:35Z</time>
      </trkpt>
      <trkpt lat="44.52214" lon="4.12757">
        <ele>495.8</ele>
        <time>2018-04-07T12:32:41Z</time>
      </trkpt>
      <trkpt lat="44.52207" lon="4.12748">
        <ele>496.5</ele>
        <time>2018-04-07T12:32:47Z</time>
      </trkpt>
      <trkpt lat="44.52199" lon="4.12737">
        <ele>497.1</ele>
        <time>2018-04-07T12:32:53Z</time>
      </trkpt>
      <trkpt lat="44.52191" lon="4.12729">
        <ele>498.1</ele>
        <time>2018-04-07T12:32:59Z</time>
      </trkpt>
      <trkpt lat="44.5218" lon="4.12723">
        <ele>498.6</ele>
        <time>2018-04-07T12:33:05Z</time>
      </trkpt>
      <trkpt lat="44.5217" lon="4.12719">
        <ele>499</ele>
        <time>2018-04-07T12:33:10Z</time>
      </trkpt>
      <trkpt lat="44.52159" lon="4.12716">
        <ele>499.6</ele>
        <time>2018-04-07T12:33:16Z</time>
      </trkpt>
      <trkpt lat="44.5215" lon="4.12713">
        <ele>500.8</ele>
        <time>2018-04-07T12:33:23Z</time>
      </trkpt>
      <trkpt lat="44.52141" lon="4.12709">
        <ele>502</ele>
        <time>2018-04-07T12:33:31Z</time>
      </trkpt>
      <trkpt lat="44.52132" lon="4.12706">
        <ele>503.1</ele>
        <time>2018-04-07T12:33:38Z</time>
      </trkpt>
      <trkpt lat="44.52122" lon="4.127">
        <ele>504.4</ele>
        <time>2018-04-07T12:33:47Z</time>
      </trkpt>
      <trkpt lat="44.52112" lon="4.12697">
        <ele>505.5</ele>
        <time>2018-04-07T12:33:54Z</time>
      </trkpt>
      <trkpt lat="44.52104" lon="4.1269">
        <ele>506.8</ele>
        <time>2018-04-07T12:34:03Z</time>
      </trkpt>
      <trkpt lat="44.52096" lon="4.12685">
        <ele>508.1</ele>
        <time>2018-04-07T12:34:10Z</time>
      </trkpt>
      <trkpt lat="44.52085" lon="4.12683">
        <ele>509.3</ele>
        <time>2018-04-07T12:34:17Z</time>
      </trkpt>
      <trkpt lat="44.52076" lon="4.1269">
        <ele>510</ele>
        <time>2018-04-07T12:34:23Z</time>
      </trkpt>
      <trkpt lat="44.52071" lon="4.127">
        <ele>510.6</ele>
        <time>2018-04-07T12:34:29Z</time>
      </trkpt>
      <trkpt lat="44.52066" lon="4.12712">
        <ele>513.1</ele>
        <time>2018-04-07T12:34:39Z</time>
      </trkpt>
      <trkpt lat="44.52067" lon="4.12725">
        <ele>515</ele>
        <time>2018-04-07T12:34:48Z</time>
      </trkpt>
      <trkpt lat="44.52066" lon="4.12738">
        <ele>516.1</ele>
        <time>2018-04-07T12:34:56Z</time>
      </trkpt>
      <trkpt lat="44.52066" lon="4.12752">
        <ele>517.5</ele>
        <time>2018-04-07T12:35:03Z</time>
      </trkpt>
      <trkpt lat="44.52067" lon="4.12765">
        <ele>518.4</ele>
        <time>2018-04-07T12:35:09Z</time>
      </trkpt>
      <trkpt lat="44.52065" lon="4.12778">
        <ele>519.1</ele>
        <time>2018-04-07T12:35:16Z</time>
      </trkpt>
      <trkpt lat="44.5206" lon="4.1279">
        <ele>519.7</ele>
        <time>2018-04-07T12:35:23Z</time>
      </trkpt>
      <trkpt lat="44.52058" lon="4.12802">
        <ele>520.7</ele>
        <time>2018-04-07T12:35:30Z</time>
      </trkpt>
      <trkpt lat="44.52054" lon="4.12815">
        <ele>522.5</ele>
        <time>2018-04-07T12:35:39Z</time>
      </trkpt>
      <trkpt lat="44.5205" lon="4.12826">
        <ele>523.8</ele>
        <time>2018-04-07T12:35:46Z</time>
      </trkpt>
      <trkpt lat="44.52049" lon="4.12839">
        <ele>524.8</ele>
        <time>2018-04-07T12:35:53Z</time>
      </trkpt>
      <trkpt lat="44.52048" lon="4.12853">
        <ele>526.6</ele>
        <time>2018-04-07T12:36:02Z</time>
      </trkpt>
      <trkpt lat="44.52046" lon="4.12868">
        <ele>528.3</ele>
        <time>2018-04-07T12:36:10Z</time>
      </trkpt>
      <trkpt lat="44.52047" lon="4.1288">
        <ele>529.3</ele>
        <time>2018-04-07T12:36:17Z</time>
      </trkpt>
      <trkpt lat="44.52046" lon="4.12894">
        <ele>530.5</ele>
        <time>2018-04-07T12:36:25Z</time>
      </trkpt>
      <trkpt lat="44.52048" lon="4.12907">
        <ele>531.4</ele>
        <time>2018-04-07T12:36:32Z</time>
      </trkpt>
      <trkpt lat="44.52046" lon="4.12921">
        <ele>532.8</ele>
        <time>2018-04-07T12:36:40Z</time>
      </trkpt>
      <trkpt lat="44.52045" lon="4.12935">
        <ele>534.6</ele>
        <time>2018-04-07T12:36:48Z</time>
      </trkpt>
      <trkpt lat="44.52041" lon="4.12947">
        <ele>536.2</ele>
        <time>2018-04-07T12:36:57Z</time>
      </trkpt>
      <trkpt lat="44.52032" lon="4.12956">
        <ele>537.7</ele>
        <time>2018-04-07T12:37:05Z</time>
      </trkpt>
      <trkpt lat="44.52025" lon="4.12964">
        <ele>538.9</ele>
        <time>2018-04-07T12:37:13Z</time>
      </trkpt>
      <trkpt lat="44.52019" lon="4.12974">
        <ele>540.4</ele>
        <time>2018-04-07T12:37:23Z</time>
      </trkpt>
      <trkpt lat="44.52012" lon="4.12983">
        <ele>540.9</ele>
        <time>2018-04-07T12:37:29Z</time>
      </trkpt>
      <trkpt lat="44.52005" lon="4.12991">
        <ele>540.8</ele>
        <time>2018-04-07T12:37:36Z</time>
      </trkpt>
      <trkpt lat="44.51997" lon="4.12997">
        <ele>541.3</ele>
        <time>2018-04-07T12:37:42Z</time>
      </trkpt>
      <trkpt lat="44.5199" lon="4.13007">
        <ele>542.2</ele>
        <time>2018-04-07T12:37:48Z</time>
      </trkpt>
      <trkpt lat="44.51982" lon="4.13016">
        <ele>542.3</ele>
        <time>2018-04-07T12:37:54Z</time>
      </trkpt>
      <trkpt lat="44.51975" lon="4.13027">
        <ele>542.9</ele>
        <time>2018-04-07T12:38:00Z</time>
      </trkpt>
      <trkpt lat="44.51969" lon="4.13037">
        <ele>542.8</ele>
        <time>2018-04-07T12:38:05Z</time>
      </trkpt>
      <trkpt lat="44.51961" lon="4.13046">
        <ele>543</ele>
        <time>2018-04-07T12:38:11Z</time>
      </trkpt>
      <trkpt lat="44.51954" lon="4.13056">
        <ele>543.8</ele>
        <time>2018-04-07T12:38:18Z</time>
      </trkpt>
      <trkpt lat="44.51948" lon="4.13067">
        <ele>545</ele>
        <time>2018-04-07T12:38:25Z</time>
      </trkpt>
      <trkpt lat="44.51944" lon="4.13079">
        <ele>545.7</ele>
        <time>2018-04-07T12:38:31Z</time>
      </trkpt>
      <trkpt lat="44.51939" lon="4.13091">
        <ele>546.4</ele>
        <time>2018-04-07T12:38:39Z</time>
      </trkpt>
      <trkpt lat="44.5194" lon="4.13078">
        <ele>548</ele>
        <time>2018-04-07T12:38:51Z</time>
      </trkpt>
      <trkpt lat="44.51946" lon="4.13066">
        <ele>548.4</ele>
        <time>2018-04-07T12:38:57Z</time>
      </trkpt>
      <trkpt lat="44.5195" lon="4.13055">
        <ele>548.9</ele>
        <time>2018-04-07T12:39:02Z</time>
      </trkpt>
      <trkpt lat="44.51953" lon="4.13041">
        <ele>549.2</ele>
        <time>2018-04-07T12:39:07Z</time>
      </trkpt>
      <trkpt lat="44.51957" lon="4.13029">
        <ele>549.6</ele>
        <time>2018-04-07T12:39:12Z</time>
      </trkpt>
      <trkpt lat="44.51962" lon="4.13017">
        <ele>549.9</ele>
        <time>2018-04-07T12:39:17Z</time>
      </trkpt>
      <trkpt lat="44.51968" lon="4.13005">
        <ele>550.2</ele>
        <time>2018-04-07T12:39:22Z</time>
      </trkpt>
      <trkpt lat="44.51973" lon="4.12992">
        <ele>551</ele>
        <time>2018-04-07T12:39:27Z</time>
      </trkpt>
      <trkpt lat="44.51979" lon="4.12979">
        <ele>551.5</ele>
        <time>2018-04-07T12:39:32Z</time>
      </trkpt>
      <trkpt lat="44.51984" lon="4.12966">
        <ele>552.4</ele>
        <time>2018-04-07T12:39:37Z</time>
      </trkpt>
      <trkpt lat="44.51989" lon="4.12953">
        <ele>552.8</ele>
        <time>2018-04-07T12:39:42Z</time>
      </trkpt>
      <trkpt lat="44.51992" lon="4.1294">
        <ele>553.4</ele>
        <time>2018-04-07T12:39:46Z</time>
      </trkpt>
      <trkpt lat="44.51995" lon="4.12928">
        <ele>553.8</ele>
        <time>2018-04-07T12:39:50Z</time>
      </trkpt>
      <trkpt lat="44.51994" lon="4.12914">
        <ele>554.3</ele>
        <time>2018-04-07T12:39:54Z</time>
      </trkpt>
      <trkpt lat="44.51993" lon="4.12901">
        <ele>554.7</ele>
        <time>2018-04-07T12:39:58Z</time>
      </trkpt>
      <trkpt lat="44.5199" lon="4.12888">
        <ele>555</ele>
        <time>2018-04-07T12:40:02Z</time>
      </trkpt>
      <trkpt lat="44.51988" lon="4.12875">
        <ele>555.5</ele>
        <time>2018-04-07T12:40:06Z</time>
      </trkpt>
      <trkpt lat="44.51986" lon="4.1286">
        <ele>556.1</ele>
        <time>2018-04-07T12:40:11Z</time>
      </trkpt>
      <trkpt lat="44.51984" lon="4.12847">
        <ele>556.6</ele>
        <time>2018-04-07T12:40:15Z</time>
      </trkpt>
      <trkpt lat="44.51983" lon="4.12832">
        <ele>557.3</ele>
        <time>2018-04-07T12:40:20Z</time>
      </trkpt>
      <trkpt lat="44.51982" lon="4.12819">
        <ele>557.9</ele>
        <time>2018-04-07T12:40:25Z</time>
      </trkpt>
      <trkpt lat="44.51982" lon="4.12804">
        <ele>558.8</ele>
        <time>2018-04-07T12:40:31Z</time>
      </trkpt>
      <trkpt lat="44.51981" lon="4.1279">
        <ele>559.6</ele>
        <time>2018-04-07T12:40:37Z</time>
      </trkpt>
      <trkpt lat="44.5198" lon="4.12776">
        <ele>560.4</ele>
        <time>2018-04-07T12:40:43Z</time>
      </trkpt>
      <trkpt lat="44.5198" lon="4.12761">
        <ele>561.3</ele>
        <time>2018-04-07T12:40:49Z</time>
      </trkpt>
      <trkpt lat="44.51978" lon="4.12748">
        <ele>561.9</ele>
        <time>2018-04-07T12:40:54Z</time>
      </trkpt>
      <trkpt lat="44.5197" lon="4.12752">
        <ele>562.5</ele>
        <time>2018-04-07T12:41:01Z</time>
      </trkpt>
      <trkpt lat="44.51972" lon="4.12765">
        <ele>562.8</ele>
        <time>2018-04-07T12:41:06Z</time>
      </trkpt>
      <trkpt lat="44.51973" lon="4.1278">
        <ele>563.5</ele>
        <time>2018-04-07T12:41:11Z</time>
      </trkpt>
      <trkpt lat="44.51971" lon="4.12795">
        <ele>564.5</ele>
        <time>2018-04-07T12:41:16Z</time>
      </trkpt>
      <trkpt lat="44.51968" lon="4.12807">
        <ele>565.3</ele>
        <time>2018-04-07T12:41:20Z</time>
      </trkpt>
      <trkpt lat="44.51965" lon="4.12819">
        <ele>565.7</ele>
        <time>2018-04-07T12:41:24Z</time>
      </trkpt>
      <trkpt lat="44.51962" lon="4.12833">
        <ele>566.4</ele>
        <time>2018-04-07T12:41:29Z</time>
      </trkpt>
      <trkpt lat="44.5196" lon="4.12849">
        <ele>567.1</ele>
        <time>2018-04-07T12:41:34Z</time>
      </trkpt>
      <trkpt lat="44.51958" lon="4.12861">
        <ele>567.4</ele>
        <time>2018-04-07T12:41:38Z</time>
      </trkpt>
      <trkpt lat="44.51955" lon="4.12873">
        <ele>567.6</ele>
        <time>2018-04-07T12:41:42Z</time>
      </trkpt>
      <trkpt lat="44.51951" lon="4.12887">
        <ele>567.8</ele>
        <time>2018-04-07T12:41:47Z</time>
      </trkpt>
      <trkpt lat="44.51946" lon="4.129">
        <ele>568.5</ele>
        <time>2018-04-07T12:41:52Z</time>
      </trkpt>
      <trkpt lat="44.51942" lon="4.12914">
        <ele>569.5</ele>
        <time>2018-04-07T12:41:57Z</time>
      </trkpt>
      <trkpt lat="44.51936" lon="4.12927">
        <ele>570.1</ele>
        <time>2018-04-07T12:42:02Z</time>
      </trkpt>
      <trkpt lat="44.51933" lon="4.12941">
        <ele>570.7</ele>
        <time>2018-04-07T12:42:07Z</time>
      </trkpt>
      <trkpt lat="44.51927" lon="4.12954">
        <ele>571.2</ele>
        <time>2018-04-07T12:42:12Z</time>
      </trkpt>
      <trkpt lat="44.51921" lon="4.12966">
        <ele>571.6</ele>
        <time>2018-04-07T12:42:16Z</time>
      </trkpt>
      <trkpt lat="44.51917" lon="4.12978">
        <ele>572.1</ele>
        <time>2018-04-07T12:42:20Z</time>
      </trkpt>
      <trkpt lat="44.51912" lon="4.1299">
        <ele>572.3</ele>
        <time>2018-04-07T12:42:24Z</time>
      </trkpt>
      <trkpt lat="44.51907" lon="4.13001">
        <ele>572.6</ele>
        <time>2018-04-07T12:42:28Z</time>
      </trkpt>
      <trkpt lat="44.519" lon="4.13011">
        <ele>572.9</ele>
        <time>2018-04-07T12:42:32Z</time>
      </trkpt>
      <trkpt lat="44.51894" lon="4.13021">
        <ele>573.4</ele>
        <time>2018-04-07T12:42:37Z</time>
      </trkpt>
      <trkpt lat="44.51883" lon="4.13026">
        <ele>573.8</ele>
        <time>2018-04-07T12:42:42Z</time>
      </trkpt>
      <trkpt lat="44.51874" lon="4.13031">
        <ele>574.4</ele>
        <time>2018-04-07T12:42:46Z</time>
      </trkpt>
      <trkpt lat="44.51865" lon="4.13033">
        <ele>574.8</ele>
        <time>2018-04-07T12:42:50Z</time>
      </trkpt>
      <trkpt lat="44.51855" lon="4.13031">
        <ele>575.4</ele>
        <time>2018-04-07T12:42:55Z</time>
      </trkpt>
      <trkpt lat="44.51847" lon="4.13025">
        <ele>575.9</ele>
        <time>2018-04-07T12:43:05Z</time>
      </trkpt>
      <trkpt lat="44.51842" lon="4.13013">
        <ele>576.1</ele>
        <time>2018-04-07T12:43:11Z</time>
      </trkpt>
      <trkpt lat="44.51836" lon="4.13001">
        <ele>576.6</ele>
        <time>2018-04-07T12:43:16Z</time>
      </trkpt>
      <trkpt lat="44.5183" lon="4.1299">
        <ele>576.9</ele>
        <time>2018-04-07T12:43:21Z</time>
      </trkpt>
      <trkpt lat="44.51824" lon="4.12978">
        <ele>577.7</ele>
        <time>2018-04-07T12:43:27Z</time>
      </trkpt>
      <trkpt lat="44.51818" lon="4.12968">
        <ele>578.5</ele>
        <time>2018-04-07T12:43:31Z</time>
      </trkpt>
      <trkpt lat="44.51811" lon="4.12959">
        <ele>578.9</ele>
        <time>2018-04-07T12:43:35Z</time>
      </trkpt>
      <trkpt lat="44.51805" lon="4.12948">
        <ele>579.4</ele>
        <time>2018-04-07T12:43:39Z</time>
      </trkpt>
      <trkpt lat="44.51797" lon="4.12938">
        <ele>580</ele>
        <time>2018-04-07T12:43:43Z</time>
      </trkpt>
      <trkpt lat="44.5179" lon="4.12929">
        <ele>580.5</ele>
        <time>2018-04-07T12:43:47Z</time>
      </trkpt>
      <trkpt lat="44.51783" lon="4.12921">
        <ele>581.1</ele>
        <time>2018-04-07T12:43:51Z</time>
      </trkpt>
      <trkpt lat="44.51776" lon="4.12911">
        <ele>581.3</ele>
        <time>2018-04-07T12:43:55Z</time>
      </trkpt>
      <trkpt lat="44.51769" lon="4.12903">
        <ele>581.5</ele>
        <time>2018-04-07T12:43:59Z</time>
      </trkpt>
      <trkpt lat="44.51761" lon="4.12894">
        <ele>582</ele>
        <time>2018-04-07T12:44:04Z</time>
      </trkpt>
      <trkpt lat="44.51753" lon="4.12886">
        <ele>582.3</ele>
        <time>2018-04-07T12:44:08Z</time>
      </trkpt>
      <trkpt lat="44.51743" lon="4.12878">
        <ele>582.6</ele>
        <time>2018-04-07T12:44:12Z</time>
      </trkpt>
      <trkpt lat="44.51735" lon="4.1287">
        <ele>582.6</ele>
        <time>2018-04-07T12:44:16Z</time>
      </trkpt>
      <trkpt lat="44.51725" lon="4.1286">
        <ele>582.7</ele>
        <time>2018-04-07T12:44:20Z</time>
      </trkpt>
      <trkpt lat="44.51717" lon="4.12854">
        <ele>582.6</ele>
        <time>2018-04-07T12:44:23Z</time>
      </trkpt>
      <trkpt lat="44.51708" lon="4.12848">
        <ele>582.7</ele>
        <time>2018-04-07T12:44:26Z</time>
      </trkpt>
      <trkpt lat="44.51698" lon="4.12844">
        <ele>582.7</ele>
        <time>2018-04-07T12:44:29Z</time>
      </trkpt>
      <trkpt lat="44.51688" lon="4.1284">
        <ele>583</ele>
        <time>2018-04-07T12:44:33Z</time>
      </trkpt>
      <trkpt lat="44.51678" lon="4.12836">
        <ele>583.7</ele>
        <time>2018-04-07T12:44:37Z</time>
      </trkpt>
      <trkpt lat="44.51667" lon="4.12831">
        <ele>584</ele>
        <time>2018-04-07T12:44:41Z</time>
      </trkpt>
      <trkpt lat="44.51656" lon="4.12827">
        <ele>584.2</ele>
        <time>2018-04-07T12:44:45Z</time>
      </trkpt>
      <trkpt lat="44.51648" lon="4.12819">
        <ele>584.6</ele>
        <time>2018-04-07T12:44:49Z</time>
      </trkpt>
      <trkpt lat="44.51641" lon="4.1281">
        <ele>584.9</ele>
        <time>2018-04-07T12:44:53Z</time>
      </trkpt>
      <trkpt lat="44.51634" lon="4.128">
        <ele>585.2</ele>
        <time>2018-04-07T12:44:57Z</time>
      </trkpt>
      <trkpt lat="44.51628" lon="4.12787">
        <ele>585.7</ele>
        <time>2018-04-07T12:45:02Z</time>
      </trkpt>
      <trkpt lat="44.51622" lon="4.12778">
        <ele>586.2</ele>
        <time>2018-04-07T12:45:08Z</time>
      </trkpt>
      <trkpt lat="44.51611" lon="4.12774">
        <ele>586.5</ele>
        <time>2018-04-07T12:45:12Z</time>
      </trkpt>
      <trkpt lat="44.516" lon="4.12768">
        <ele>587</ele>
        <time>2018-04-07T12:45:16Z</time>
      </trkpt>
      <trkpt lat="44.51589" lon="4.12764">
        <ele>587.7</ele>
        <time>2018-04-07T12:45:20Z</time>
      </trkpt>
      <trkpt lat="44.51579" lon="4.12763">
        <ele>588.2</ele>
        <time>2018-04-07T12:45:23Z</time>
      </trkpt>
      <trkpt lat="44.51569" lon="4.12764">
        <ele>589</ele>
        <time>2018-04-07T12:45:27Z</time>
      </trkpt>
      <trkpt lat="44.51559" lon="4.12766">
        <ele>589.5</ele>
        <time>2018-04-07T12:45:31Z</time>
      </trkpt>
      <trkpt lat="44.51548" lon="4.12767">
        <ele>589.8</ele>
        <time>2018-04-07T12:45:35Z</time>
      </trkpt>
      <trkpt lat="44.51538" lon="4.1277">
        <ele>590</ele>
        <time>2018-04-07T12:45:39Z</time>
      </trkpt>
      <trkpt lat="44.51528" lon="4.12775">
        <ele>590.3</ele>
        <time>2018-04-07T12:45:43Z</time>
      </trkpt>
      <trkpt lat="44.51518" lon="4.12782">
        <ele>590.7</ele>
        <time>2018-04-07T12:45:47Z</time>
      </trkpt>
      <trkpt lat="44.51509" lon="4.12789">
        <ele>591.2</ele>
        <time>2018-04-07T12:45:51Z</time>
      </trkpt>
      <trkpt lat="44.51499" lon="4.1279">
        <ele>592.1</ele>
        <time>2018-04-07T12:45:56Z</time>
      </trkpt>
      <trkpt lat="44.51488" lon="4.12789">
        <ele>593.1</ele>
        <time>2018-04-07T12:46:01Z</time>
      </trkpt>
      <trkpt lat="44.51478" lon="4.12785">
        <ele>594</ele>
        <time>2018-04-07T12:46:06Z</time>
      </trkpt>
      <trkpt lat="44.51469" lon="4.12781">
        <ele>594.8</ele>
        <time>2018-04-07T12:46:11Z</time>
      </trkpt>
      <trkpt lat="44.5146" lon="4.12775">
        <ele>595.3</ele>
        <time>2018-04-07T12:46:16Z</time>
      </trkpt>
      <trkpt lat="44.51453" lon="4.12765">
        <ele>596.1</ele>
        <time>2018-04-07T12:46:21Z</time>
      </trkpt>
      <trkpt lat="44.51448" lon="4.12753">
        <ele>596.5</ele>
        <time>2018-04-07T12:46:25Z</time>
      </trkpt>
      <trkpt lat="44.51446" lon="4.12739">
        <ele>596.8</ele>
        <time>2018-04-07T12:46:29Z</time>
      </trkpt>
      <trkpt lat="44.51444" lon="4.12723">
        <ele>596.7</ele>
        <time>2018-04-07T12:46:34Z</time>
      </trkpt>
      <trkpt lat="44.51444" lon="4.12709">
        <ele>596.6</ele>
        <time>2018-04-07T12:46:38Z</time>
      </trkpt>
      <trkpt lat="44.51446" lon="4.12694">
        <ele>596.3</ele>
        <time>2018-04-07T12:46:43Z</time>
      </trkpt>
      <trkpt lat="44.51449" lon="4.12682">
        <ele>596</ele>
        <time>2018-04-07T12:46:47Z</time>
      </trkpt>
      <trkpt lat="44.51443" lon="4.12671">
        <ele>595.7</ele>
        <time>2018-04-07T12:46:54Z</time>
      </trkpt>
      <trkpt lat="44.5143" lon="4.12667">
        <ele>595.5</ele>
        <time>2018-04-07T12:46:57Z</time>
      </trkpt>
      <trkpt lat="44.51419" lon="4.1266">
        <ele>595.3</ele>
        <time>2018-04-07T12:47:00Z</time>
      </trkpt>
      <trkpt lat="44.51413" lon="4.12648">
        <ele>595.3</ele>
        <time>2018-04-07T12:47:03Z</time>
      </trkpt>
      <trkpt lat="44.51406" lon="4.12636">
        <ele>595.3</ele>
        <time>2018-04-07T12:47:06Z</time>
      </trkpt>
      <trkpt lat="44.51401" lon="4.12622">
        <ele>595.2</ele>
        <time>2018-04-07T12:47:09Z</time>
      </trkpt>
      <trkpt lat="44.51396" lon="4.12609">
        <ele>595.1</ele>
        <time>2018-04-07T12:47:12Z</time>
      </trkpt>
      <trkpt lat="44.51384" lon="4.12605">
        <ele>594.9</ele>
        <time>2018-04-07T12:47:16Z</time>
      </trkpt>
      <trkpt lat="44.51374" lon="4.12609">
        <ele>594.9</ele>
        <time>2018-04-07T12:47:19Z</time>
      </trkpt>
      <trkpt lat="44.5136" lon="4.12612">
        <ele>594.7</ele>
        <time>2018-04-07T12:47:22Z</time>
      </trkpt>
      <trkpt lat="44.51349" lon="4.12615">
        <ele>594.7</ele>
        <time>2018-04-07T12:47:25Z</time>
      </trkpt>
      <trkpt lat="44.51335" lon="4.12614">
        <ele>594.8</ele>
        <time>2018-04-07T12:47:28Z</time>
      </trkpt>
      <trkpt lat="44.51325" lon="4.12607">
        <ele>595.2</ele>
        <time>2018-04-07T12:47:31Z</time>
      </trkpt>
      <trkpt lat="44.51318" lon="4.12595">
        <ele>595.4</ele>
        <time>2018-04-07T12:47:34Z</time>
      </trkpt>
      <trkpt lat="44.51313" lon="4.12584">
        <ele>595.8</ele>
        <time>2018-04-07T12:47:37Z</time>
      </trkpt>
      <trkpt lat="44.51304" lon="4.12573">
        <ele>596.3</ele>
        <time>2018-04-07T12:47:41Z</time>
      </trkpt>
      <trkpt lat="44.51292" lon="4.12568">
        <ele>596.5</ele>
        <time>2018-04-07T12:47:45Z</time>
      </trkpt>
      <trkpt lat="44.51282" lon="4.12566">
        <ele>596.9</ele>
        <time>2018-04-07T12:47:49Z</time>
      </trkpt>
      <trkpt lat="44.51274" lon="4.12576">
        <ele>594.7</ele>
        <time>2018-04-07T12:48:35Z</time>
      </trkpt>
      <trkpt lat="44.51263" lon="4.12575">
        <ele>593.5</ele>
        <time>2018-04-07T12:48:39Z</time>
      </trkpt>
      <trkpt lat="44.51254" lon="4.1257">
        <ele>590.4</ele>
        <time>2018-04-07T12:48:50Z</time>
      </trkpt>
      <trkpt lat="44.51244" lon="4.12567">
        <ele>590.3</ele>
        <time>2018-04-07T12:48:58Z</time>
      </trkpt>
      <trkpt lat="44.51235" lon="4.12567">
        <ele>590.4</ele>
        <time>2018-04-07T12:49:13Z</time>
      </trkpt>
      <trkpt lat="44.51229" lon="4.12581">
        <ele>589.9</ele>
        <time>2018-04-07T12:49:20Z</time>
      </trkpt>
      <trkpt lat="44.51225" lon="4.12593">
        <ele>589.9</ele>
        <time>2018-04-07T12:49:25Z</time>
      </trkpt>
      <trkpt lat="44.51216" lon="4.126">
        <ele>589.2</ele>
        <time>2018-04-07T12:49:31Z</time>
      </trkpt>
      <trkpt lat="44.5121" lon="4.12608">
        <ele>587.7</ele>
        <time>2018-04-07T12:49:41Z</time>
      </trkpt>
      <trkpt lat="44.51205" lon="4.12622">
        <ele>587.1</ele>
        <time>2018-04-07T12:49:45Z</time>
      </trkpt>
      <trkpt lat="44.51198" lon="4.12634">
        <ele>585.9</ele>
        <time>2018-04-07T12:49:48Z</time>
      </trkpt>
      <trkpt lat="44.51188" lon="4.12645">
        <ele>584.8</ele>
        <time>2018-04-07T12:49:51Z</time>
      </trkpt>
      <trkpt lat="44.51177" lon="4.12653">
        <ele>584</ele>
        <time>2018-04-07T12:49:54Z</time>
      </trkpt>
      <trkpt lat="44.51169" lon="4.12664">
        <ele>583.2</ele>
        <time>2018-04-07T12:49:57Z</time>
      </trkpt>
      <trkpt lat="44.5116" lon="4.12673">
        <ele>582.7</ele>
        <time>2018-04-07T12:50:00Z</time>
      </trkpt>
      <trkpt lat="44.51151" lon="4.12679">
        <ele>582</ele>
        <time>2018-04-07T12:50:03Z</time>
      </trkpt>
      <trkpt lat="44.5114" lon="4.12681">
        <ele>581.3</ele>
        <time>2018-04-07T12:50:07Z</time>
      </trkpt>
      <trkpt lat="44.51131" lon="4.12682">
        <ele>581.1</ele>
        <time>2018-04-07T12:50:11Z</time>
      </trkpt>
      <trkpt lat="44.51122" lon="4.12683">
        <ele>581.3</ele>
        <time>2018-04-07T12:50:15Z</time>
      </trkpt>
      <trkpt lat="44.51113" lon="4.12684">
        <ele>581.3</ele>
        <time>2018-04-07T12:50:19Z</time>
      </trkpt>
      <trkpt lat="44.51104" lon="4.12683">
        <ele>581</ele>
        <time>2018-04-07T12:50:23Z</time>
      </trkpt>
      <trkpt lat="44.51094" lon="4.12685">
        <ele>580.9</ele>
        <time>2018-04-07T12:50:27Z</time>
      </trkpt>
      <trkpt lat="44.51084" lon="4.12685">
        <ele>581.1</ele>
        <time>2018-04-07T12:50:31Z</time>
      </trkpt>
      <trkpt lat="44.51074" lon="4.12685">
        <ele>581</ele>
        <time>2018-04-07T12:50:36Z</time>
      </trkpt>
      <trkpt lat="44.51063" lon="4.12685">
        <ele>580.7</ele>
        <time>2018-04-07T12:50:39Z</time>
      </trkpt>
      <trkpt lat="44.51051" lon="4.12685">
        <ele>580.4</ele>
        <time>2018-04-07T12:50:43Z</time>
      </trkpt>
      <trkpt lat="44.51042" lon="4.12686">
        <ele>580.1</ele>
        <time>2018-04-07T12:50:47Z</time>
      </trkpt>
      <trkpt lat="44.51032" lon="4.12684">
        <ele>580.1</ele>
        <time>2018-04-07T12:50:50Z</time>
      </trkpt>
      <trkpt lat="44.5102" lon="4.12684">
        <ele>579.7</ele>
        <time>2018-04-07T12:50:53Z</time>
      </trkpt>
      <trkpt lat="44.51009" lon="4.12684">
        <ele>578.8</ele>
        <time>2018-04-07T12:50:56Z</time>
      </trkpt>
      <trkpt lat="44.50997" lon="4.12682">
        <ele>577.9</ele>
        <time>2018-04-07T12:50:59Z</time>
      </trkpt>
      <trkpt lat="44.50988" lon="4.12685">
        <ele>576.4</ele>
        <time>2018-04-07T12:51:10Z</time>
      </trkpt>
      <trkpt lat="44.50979" lon="4.12683">
        <ele>576.2</ele>
        <time>2018-04-07T12:51:18Z</time>
      </trkpt>
      <trkpt lat="44.50969" lon="4.12683">
        <ele>576.4</ele>
        <time>2018-04-07T12:51:27Z</time>
      </trkpt>
      <trkpt lat="44.50961" lon="4.12688">
        <ele>575.7</ele>
        <time>2018-04-07T12:51:42Z</time>
      </trkpt>
      <trkpt lat="44.50959" lon="4.12701">
        <ele>575.1</ele>
        <time>2018-04-07T12:51:57Z</time>
      </trkpt>
      <trkpt lat="44.50962" lon="4.12713">
        <ele>576.7</ele>
        <time>2018-04-07T12:52:08Z</time>
      </trkpt>
      <trkpt lat="44.50963" lon="4.12726">
        <ele>576.2</ele>
        <time>2018-04-07T12:52:13Z</time>
      </trkpt>
      <trkpt lat="44.50964" lon="4.12739">
        <ele>575.6</ele>
        <time>2018-04-07T12:52:16Z</time>
      </trkpt>
      <trkpt lat="44.50967" lon="4.12754">
        <ele>573</ele>
        <time>2018-04-07T12:52:20Z</time>
      </trkpt>
      <trkpt lat="44.50968" lon="4.1277">
        <ele>572.6</ele>
        <time>2018-04-07T12:52:24Z</time>
      </trkpt>
      <trkpt lat="44.50969" lon="4.12783">
        <ele>571.4</ele>
        <time>2018-04-07T12:52:27Z</time>
      </trkpt>
      <trkpt lat="44.50971" lon="4.12796">
        <ele>570.1</ele>
        <time>2018-04-07T12:52:31Z</time>
      </trkpt>
      <trkpt lat="44.50975" lon="4.12811">
        <ele>568.9</ele>
        <time>2018-04-07T12:52:35Z</time>
      </trkpt>
      <trkpt lat="44.5098" lon="4.12825">
        <ele>567.9</ele>
        <time>2018-04-07T12:52:38Z</time>
      </trkpt>
      <trkpt lat="44.50986" lon="4.12836">
        <ele>566.8</ele>
        <time>2018-04-07T12:52:42Z</time>
      </trkpt>
      <trkpt lat="44.50995" lon="4.12841">
        <ele>566.7</ele>
        <time>2018-04-07T12:52:46Z</time>
      </trkpt>
      <trkpt lat="44.51002" lon="4.12853">
        <ele>567.2</ele>
        <time>2018-04-07T12:52:50Z</time>
      </trkpt>
      <trkpt lat="44.51006" lon="4.12866">
        <ele>566.8</ele>
        <time>2018-04-07T12:52:53Z</time>
      </trkpt>
      <trkpt lat="44.51008" lon="4.12878">
        <ele>566.6</ele>
        <time>2018-04-07T12:52:56Z</time>
      </trkpt>
      <trkpt lat="44.5101" lon="4.1289">
        <ele>566.3</ele>
        <time>2018-04-07T12:52:59Z</time>
      </trkpt>
      <trkpt lat="44.51014" lon="4.12905">
        <ele>565.7</ele>
        <time>2018-04-07T12:53:02Z</time>
      </trkpt>
      <trkpt lat="44.51016" lon="4.12921">
        <ele>565.2</ele>
        <time>2018-04-07T12:53:05Z</time>
      </trkpt>
      <trkpt lat="44.51018" lon="4.12935">
        <ele>564.8</ele>
        <time>2018-04-07T12:53:09Z</time>
      </trkpt>
      <trkpt lat="44.51008" lon="4.1294">
        <ele>563.8</ele>
        <time>2018-04-07T12:53:15Z</time>
      </trkpt>
      <trkpt lat="44.50999" lon="4.12939">
        <ele>562.2</ele>
        <time>2018-04-07T12:53:19Z</time>
      </trkpt>
      <trkpt lat="44.50992" lon="4.12946">
        <ele>558.8</ele>
        <time>2018-04-07T12:53:25Z</time>
      </trkpt>
      <trkpt lat="44.50989" lon="4.12959">
        <ele>554.7</ele>
        <time>2018-04-07T12:53:30Z</time>
      </trkpt>
      <trkpt lat="44.50984" lon="4.12971">
        <ele>550.5</ele>
        <time>2018-04-07T12:53:35Z</time>
      </trkpt>
      <trkpt lat="44.50974" lon="4.12974">
        <ele>544.3</ele>
        <time>2018-04-07T12:53:41Z</time>
      </trkpt>
      <trkpt lat="44.50968" lon="4.12983">
        <ele>538.8</ele>
        <time>2018-04-07T12:53:49Z</time>
      </trkpt>
      <trkpt lat="44.50963" lon="4.12995">
        <ele>537.2</ele>
        <time>2018-04-07T12:53:57Z</time>
      </trkpt>
      <trkpt lat="44.50964" lon="4.13007">
        <ele>537.8</ele>
        <time>2018-04-07T12:54:09Z</time>
      </trkpt>
      <trkpt lat="44.50965" lon="4.1302">
        <ele>539.6</ele>
        <time>2018-04-07T12:54:30Z</time>
      </trkpt>
      <trkpt lat="44.50968" lon="4.13032">
        <ele>541.9</ele>
        <time>2018-04-07T12:54:54Z</time>
      </trkpt>
      <trkpt lat="44.50974" lon="4.13042">
        <ele>542.7</ele>
        <time>2018-04-07T12:55:05Z</time>
      </trkpt>
      <trkpt lat="44.50976" lon="4.13055">
        <ele>543.3</ele>
        <time>2018-04-07T12:55:17Z</time>
      </trkpt>
      <trkpt lat="44.50972" lon="4.13066">
        <ele>543.6</ele>
        <time>2018-04-07T12:55:23Z</time>
      </trkpt>
      <trkpt lat="44.50966" lon="4.13076">
        <ele>544.4</ele>
        <time>2018-04-07T12:55:30Z</time>
      </trkpt>
      <trkpt lat="44.50958" lon="4.13082">
        <ele>545.1</ele>
        <time>2018-04-07T12:55:36Z</time>
      </trkpt>
      <trkpt lat="44.5095" lon="4.13092">
        <ele>545.7</ele>
        <time>2018-04-07T12:55:44Z</time>
      </trkpt>
      <trkpt lat="44.50942" lon="4.13099">
        <ele>546.3</ele>
        <time>2018-04-07T12:55:49Z</time>
      </trkpt>
      <trkpt lat="44.50933" lon="4.13103">
        <ele>546.3</ele>
        <time>2018-04-07T12:55:54Z</time>
      </trkpt>
      <trkpt lat="44.50924" lon="4.13106">
        <ele>546.3</ele>
        <time>2018-04-07T12:55:58Z</time>
      </trkpt>
      <trkpt lat="44.50913" lon="4.1311">
        <ele>545.4</ele>
        <time>2018-04-07T12:56:02Z</time>
      </trkpt>
      <trkpt lat="44.50904" lon="4.13112">
        <ele>545.1</ele>
        <time>2018-04-07T12:56:05Z</time>
      </trkpt>
      <trkpt lat="44.50894" lon="4.13112">
        <ele>544.5</ele>
        <time>2018-04-07T12:56:09Z</time>
      </trkpt>
      <trkpt lat="44.50883" lon="4.13111">
        <ele>544</ele>
        <time>2018-04-07T12:56:14Z</time>
      </trkpt>
      <trkpt lat="44.50876" lon="4.13124">
        <ele>542.4</ele>
        <time>2018-04-07T12:56:18Z</time>
      </trkpt>
      <trkpt lat="44.50872" lon="4.13139">
        <ele>541.5</ele>
        <time>2018-04-07T12:56:22Z</time>
      </trkpt>
      <trkpt lat="44.50871" lon="4.13153">
        <ele>541.2</ele>
        <time>2018-04-07T12:56:25Z</time>
      </trkpt>
      <trkpt lat="44.50869" lon="4.13166">
        <ele>540.7</ele>
        <time>2018-04-07T12:56:28Z</time>
      </trkpt>
      <trkpt lat="44.50866" lon="4.1318">
        <ele>540.3</ele>
        <time>2018-04-07T12:56:31Z</time>
      </trkpt>
      <trkpt lat="44.50862" lon="4.13194">
        <ele>540.2</ele>
        <time>2018-04-07T12:56:35Z</time>
      </trkpt>
      <trkpt lat="44.50859" lon="4.13207">
        <ele>540.1</ele>
        <time>2018-04-07T12:56:38Z</time>
      </trkpt>
      <trkpt lat="44.5085" lon="4.13219">
        <ele>539.9</ele>
        <time>2018-04-07T12:56:41Z</time>
      </trkpt>
      <trkpt lat="44.50844" lon="4.1323">
        <ele>539.7</ele>
        <time>2018-04-07T12:56:43Z</time>
      </trkpt>
      <trkpt lat="44.50836" lon="4.13238">
        <ele>539</ele>
        <time>2018-04-07T12:56:45Z</time>
      </trkpt>
      <trkpt lat="44.50823" lon="4.13239">
        <ele>537.8</ele>
        <time>2018-04-07T12:56:48Z</time>
      </trkpt>
      <trkpt lat="44.50811" lon="4.13237">
        <ele>536</ele>
        <time>2018-04-07T12:56:51Z</time>
      </trkpt>
      <trkpt lat="44.50808" lon="4.13251">
        <ele>533.9</ele>
        <time>2018-04-07T12:56:55Z</time>
      </trkpt>
      <trkpt lat="44.5081" lon="4.13264">
        <ele>533</ele>
        <time>2018-04-07T12:56:57Z</time>
      </trkpt>
      <trkpt lat="44.50814" lon="4.1328">
        <ele>531.9</ele>
        <time>2018-04-07T12:56:59Z</time>
      </trkpt>
      <trkpt lat="44.50819" lon="4.13293">
        <ele>530.9</ele>
        <time>2018-04-07T12:57:01Z</time>
      </trkpt>
      <trkpt lat="44.5082" lon="4.13308">
        <ele>529.9</ele>
        <time>2018-04-07T12:57:03Z</time>
      </trkpt>
      <trkpt lat="44.50818" lon="4.13323">
        <ele>528.8</ele>
        <time>2018-04-07T12:57:05Z</time>
      </trkpt>
      <trkpt lat="44.50814" lon="4.13338">
        <ele>527.6</ele>
        <time>2018-04-07T12:57:08Z</time>
      </trkpt>
      <trkpt lat="44.50818" lon="4.13352">
        <ele>526.4</ele>
        <time>2018-04-07T12:57:14Z</time>
      </trkpt>
      <trkpt lat="44.50829" lon="4.13356">
        <ele>526.4</ele>
        <time>2018-04-07T12:57:19Z</time>
      </trkpt>
      <trkpt lat="44.50839" lon="4.13354">
        <ele>526.7</ele>
        <time>2018-04-07T12:57:23Z</time>
      </trkpt>
      <trkpt lat="44.5085" lon="4.13353">
        <ele>527</ele>
        <time>2018-04-07T12:57:27Z</time>
      </trkpt>
      <trkpt lat="44.50859" lon="4.1336">
        <ele>526.9</ele>
        <time>2018-04-07T12:57:30Z</time>
      </trkpt>
      <trkpt lat="44.50867" lon="4.13369">
        <ele>527</ele>
        <time>2018-04-07T12:57:33Z</time>
      </trkpt>
      <trkpt lat="44.50874" lon="4.13375">
        <ele>527.1</ele>
        <time>2018-04-07T12:57:36Z</time>
      </trkpt>
      <trkpt lat="44.50884" lon="4.13384">
        <ele>527.2</ele>
        <time>2018-04-07T12:57:40Z</time>
      </trkpt>
      <trkpt lat="44.50894" lon="4.1339">
        <ele>527.6</ele>
        <time>2018-04-07T12:57:44Z</time>
      </trkpt>
      <trkpt lat="44.50905" lon="4.13395">
        <ele>527.9</ele>
        <time>2018-04-07T12:57:48Z</time>
      </trkpt>
      <trkpt lat="44.50913" lon="4.134">
        <ele>528.1</ele>
        <time>2018-04-07T12:57:52Z</time>
      </trkpt>
      <trkpt lat="44.50923" lon="4.13405">
        <ele>528.4</ele>
        <time>2018-04-07T12:57:56Z</time>
      </trkpt>
      <trkpt lat="44.50934" lon="4.13407">
        <ele>528.8</ele>
        <time>2018-04-07T12:58:01Z</time>
      </trkpt>
      <trkpt lat="44.50944" lon="4.13407">
        <ele>529.4</ele>
        <time>2018-04-07T12:58:05Z</time>
      </trkpt>
      <trkpt lat="44.50953" lon="4.13408">
        <ele>529.5</ele>
        <time>2018-04-07T12:58:09Z</time>
      </trkpt>
      <trkpt lat="44.50963" lon="4.13413">
        <ele>530</ele>
        <time>2018-04-07T12:58:15Z</time>
      </trkpt>
      <trkpt lat="44.50972" lon="4.13418">
        <ele>531.5</ele>
        <time>2018-04-07T12:58:23Z</time>
      </trkpt>
      <trkpt lat="44.50981" lon="4.13424">
        <ele>533.7</ele>
        <time>2018-04-07T12:58:31Z</time>
      </trkpt>
      <trkpt lat="44.50988" lon="4.13434">
        <ele>535.3</ele>
        <time>2018-04-07T12:58:38Z</time>
      </trkpt>
      <trkpt lat="44.50995" lon="4.13444">
        <ele>536.5</ele>
        <time>2018-04-07T12:58:45Z</time>
      </trkpt>
      <trkpt lat="44.51003" lon="4.13451">
        <ele>537.5</ele>
        <time>2018-04-07T12:58:52Z</time>
      </trkpt>
      <trkpt lat="44.51011" lon="4.13457">
        <ele>538.2</ele>
        <time>2018-04-07T12:58:59Z</time>
      </trkpt>
      <trkpt lat="44.51021" lon="4.13459">
        <ele>539.1</ele>
        <time>2018-04-07T12:59:06Z</time>
      </trkpt>
      <trkpt lat="44.5103" lon="4.13462">
        <ele>539.6</ele>
        <time>2018-04-07T12:59:13Z</time>
      </trkpt>
      <trkpt lat="44.5104" lon="4.13467">
        <ele>540.9</ele>
        <time>2018-04-07T12:59:21Z</time>
      </trkpt>
      <trkpt lat="44.51047" lon="4.13474">
        <ele>542.2</ele>
        <time>2018-04-07T12:59:28Z</time>
      </trkpt>
      <trkpt lat="44.51057" lon="4.13478">
        <ele>543.1</ele>
        <time>2018-04-07T12:59:35Z</time>
      </trkpt>
      <trkpt lat="44.51067" lon="4.13482">
        <ele>543.9</ele>
        <time>2018-04-07T12:59:41Z</time>
      </trkpt>
      <trkpt lat="44.51076" lon="4.1349">
        <ele>544.3</ele>
        <time>2018-04-07T12:59:47Z</time>
      </trkpt>
      <trkpt lat="44.51081" lon="4.13502">
        <ele>544.8</ele>
        <time>2018-04-07T12:59:54Z</time>
      </trkpt>
      <trkpt lat="44.51085" lon="4.13514">
        <ele>545.1</ele>
        <time>2018-04-07T13:00:00Z</time>
      </trkpt>
      <trkpt lat="44.51089" lon="4.13527">
        <ele>545.7</ele>
        <time>2018-04-07T13:00:06Z</time>
      </trkpt>
      <trkpt lat="44.51091" lon="4.13541">
        <ele>545.8</ele>
        <time>2018-04-07T13:00:12Z</time>
      </trkpt>
      <trkpt lat="44.51094" lon="4.13554">
        <ele>545.7</ele>
        <time>2018-04-07T13:00:15Z</time>
      </trkpt>
      <trkpt lat="44.51095" lon="4.13569">
        <ele>545.4</ele>
        <time>2018-04-07T13:00:18Z</time>
      </trkpt>
      <trkpt lat="44.51095" lon="4.13582">
        <ele>545.1</ele>
        <time>2018-04-07T13:00:20Z</time>
      </trkpt>
      <trkpt lat="44.51094" lon="4.13595">
        <ele>544.7</ele>
        <time>2018-04-07T13:00:22Z</time>
      </trkpt>
      <trkpt lat="44.51093" lon="4.1361">
        <ele>544.1</ele>
        <time>2018-04-07T13:00:24Z</time>
      </trkpt>
      <trkpt lat="44.51093" lon="4.13627">
        <ele>543.5</ele>
        <time>2018-04-07T13:00:26Z</time>
      </trkpt>
      <trkpt lat="44.51092" lon="4.13641">
        <ele>542.7</ele>
        <time>2018-04-07T13:00:28Z</time>
      </trkpt>
      <trkpt lat="44.51093" lon="4.13656">
        <ele>541.9</ele>
        <time>2018-04-07T13:00:30Z</time>
      </trkpt>
      <trkpt lat="44.51096" lon="4.13672">
        <ele>541.1</ele>
        <time>2018-04-07T13:00:32Z</time>
      </trkpt>
      <trkpt lat="44.51097" lon="4.13685">
        <ele>540.7</ele>
        <time>2018-04-07T13:00:34Z</time>
      </trkpt>
      <trkpt lat="44.511" lon="4.13697">
        <ele>540.3</ele>
        <time>2018-04-07T13:00:36Z</time>
      </trkpt>
      <trkpt lat="44.51103" lon="4.1371">
        <ele>540.1</ele>
        <time>2018-04-07T13:00:38Z</time>
      </trkpt>
      <trkpt lat="44.51106" lon="4.13723">
        <ele>539.9</ele>
        <time>2018-04-07T13:00:40Z</time>
      </trkpt>
      <trkpt lat="44.51107" lon="4.13739">
        <ele>539.4</ele>
        <time>2018-04-07T13:00:43Z</time>
      </trkpt>
      <trkpt lat="44.5111" lon="4.13751">
        <ele>539.4</ele>
        <time>2018-04-07T13:00:45Z</time>
      </trkpt>
      <trkpt lat="44.51113" lon="4.13767">
        <ele>539.5</ele>
        <time>2018-04-07T13:00:48Z</time>
      </trkpt>
      <trkpt lat="44.51119" lon="4.13781">
        <ele>539.4</ele>
        <time>2018-04-07T13:00:51Z</time>
      </trkpt>
      <trkpt lat="44.51123" lon="4.13793">
        <ele>539</ele>
        <time>2018-04-07T13:00:56Z</time>
      </trkpt>
      <trkpt lat="44.51115" lon="4.13798">
        <ele>537.9</ele>
        <time>2018-04-07T13:01:08Z</time>
      </trkpt>
      <trkpt lat="44.51102" lon="4.13798">
        <ele>537.4</ele>
        <time>2018-04-07T13:01:11Z</time>
      </trkpt>
      <trkpt lat="44.51091" lon="4.138">
        <ele>536.9</ele>
        <time>2018-04-07T13:01:13Z</time>
      </trkpt>
      <trkpt lat="44.51081" lon="4.13805">
        <ele>536.2</ele>
        <time>2018-04-07T13:01:15Z</time>
      </trkpt>
      <trkpt lat="44.51071" lon="4.13816">
        <ele>535.2</ele>
        <time>2018-04-07T13:01:17Z</time>
      </trkpt>
      <trkpt lat="44.5107" lon="4.1383">
        <ele>534.4</ele>
        <time>2018-04-07T13:01:19Z</time>
      </trkpt>
      <trkpt lat="44.51072" lon="4.13844">
        <ele>533.5</ele>
        <time>2018-04-07T13:01:22Z</time>
      </trkpt>
      <trkpt lat="44.51071" lon="4.13859">
        <ele>533.2</ele>
        <time>2018-04-07T13:01:26Z</time>
      </trkpt>
      <trkpt lat="44.51069" lon="4.13873">
        <ele>533.1</ele>
        <time>2018-04-07T13:01:30Z</time>
      </trkpt>
      <trkpt lat="44.51067" lon="4.13885">
        <ele>533.4</ele>
        <time>2018-04-07T13:01:34Z</time>
      </trkpt>
      <trkpt lat="44.51065" lon="4.139">
        <ele>533.5</ele>
        <time>2018-04-07T13:01:38Z</time>
      </trkpt>
      <trkpt lat="44.51065" lon="4.13913">
        <ele>533.6</ele>
        <time>2018-04-07T13:01:41Z</time>
      </trkpt>
      <trkpt lat="44.51065" lon="4.13927">
        <ele>533.8</ele>
        <time>2018-04-07T13:01:44Z</time>
      </trkpt>
      <trkpt lat="44.51064" lon="4.13941">
        <ele>534.1</ele>
        <time>2018-04-07T13:01:47Z</time>
      </trkpt>
      <trkpt lat="44.51065" lon="4.13954">
        <ele>534.4</ele>
        <time>2018-04-07T13:01:50Z</time>
      </trkpt>
      <trkpt lat="44.51065" lon="4.13968">
        <ele>534.6</ele>
        <time>2018-04-07T13:01:53Z</time>
      </trkpt>
      <trkpt lat="44.51062" lon="4.13984">
        <ele>534.9</ele>
        <time>2018-04-07T13:01:57Z</time>
      </trkpt>
      <trkpt lat="44.51057" lon="4.13996">
        <ele>535.2</ele>
        <time>2018-04-07T13:02:01Z</time>
      </trkpt>
      <trkpt lat="44.51053" lon="4.14011">
        <ele>535.3</ele>
        <time>2018-04-07T13:02:05Z</time>
      </trkpt>
      <trkpt lat="44.51053" lon="4.14027">
        <ele>535.6</ele>
        <time>2018-04-07T13:02:09Z</time>
      </trkpt>
      <trkpt lat="44.51054" lon="4.14041">
        <ele>535.7</ele>
        <time>2018-04-07T13:02:12Z</time>
      </trkpt>
      <trkpt lat="44.51058" lon="4.14054">
        <ele>535.9</ele>
        <time>2018-04-07T13:02:15Z</time>
      </trkpt>
      <trkpt lat="44.51062" lon="4.14066">
        <ele>536.1</ele>
        <time>2018-04-07T13:02:18Z</time>
      </trkpt>
      <trkpt lat="44.51064" lon="4.14082">
        <ele>536.3</ele>
        <time>2018-04-07T13:02:22Z</time>
      </trkpt>
      <trkpt lat="44.51063" lon="4.14095">
        <ele>536.8</ele>
        <time>2018-04-07T13:02:25Z</time>
      </trkpt>
      <trkpt lat="44.51058" lon="4.14109">
        <ele>537.1</ele>
        <time>2018-04-07T13:02:29Z</time>
      </trkpt>
      <trkpt lat="44.51051" lon="4.14118">
        <ele>537.4</ele>
        <time>2018-04-07T13:02:32Z</time>
      </trkpt>
      <trkpt lat="44.51044" lon="4.14126">
        <ele>537.6</ele>
        <time>2018-04-07T13:02:35Z</time>
      </trkpt>
      <trkpt lat="44.51035" lon="4.14133">
        <ele>537.8</ele>
        <time>2018-04-07T13:02:38Z</time>
      </trkpt>
      <trkpt lat="44.51026" lon="4.14137">
        <ele>538.1</ele>
        <time>2018-04-07T13:02:41Z</time>
      </trkpt>
      <trkpt lat="44.51017" lon="4.1414">
        <ele>538.2</ele>
        <time>2018-04-07T13:02:44Z</time>
      </trkpt>
      <trkpt lat="44.51005" lon="4.14145">
        <ele>538.3</ele>
        <time>2018-04-07T13:02:48Z</time>
      </trkpt>
      <trkpt lat="44.50996" lon="4.14151">
        <ele>538.5</ele>
        <time>2018-04-07T13:02:51Z</time>
      </trkpt>
      <trkpt lat="44.50986" lon="4.14157">
        <ele>538.7</ele>
        <time>2018-04-07T13:02:54Z</time>
      </trkpt>
      <trkpt lat="44.50982" lon="4.1417">
        <ele>538.8</ele>
        <time>2018-04-07T13:02:57Z</time>
      </trkpt>
      <trkpt lat="44.50979" lon="4.14183">
        <ele>538.9</ele>
        <time>2018-04-07T13:03:00Z</time>
      </trkpt>
      <trkpt lat="44.50976" lon="4.14198">
        <ele>538.9</ele>
        <time>2018-04-07T13:03:03Z</time>
      </trkpt>
      <trkpt lat="44.50969" lon="4.14212">
        <ele>539.1</ele>
        <time>2018-04-07T13:03:07Z</time>
      </trkpt>
      <trkpt lat="44.50968" lon="4.14226">
        <ele>539.4</ele>
        <time>2018-04-07T13:03:10Z</time>
      </trkpt>
      <trkpt lat="44.50965" lon="4.14239">
        <ele>539.8</ele>
        <time>2018-04-07T13:03:13Z</time>
      </trkpt>
      <trkpt lat="44.50962" lon="4.14253">
        <ele>539.9</ele>
        <time>2018-04-07T13:03:16Z</time>
      </trkpt>
      <trkpt lat="44.50959" lon="4.14267">
        <ele>540.1</ele>
        <time>2018-04-07T13:03:19Z</time>
      </trkpt>
      <trkpt lat="44.50956" lon="4.14283">
        <ele>540.5</ele>
        <time>2018-04-07T13:03:22Z</time>
      </trkpt>
      <trkpt lat="44.50953" lon="4.143">
        <ele>540.7</ele>
        <time>2018-04-07T13:03:25Z</time>
      </trkpt>
      <trkpt lat="44.50947" lon="4.1431">
        <ele>541</ele>
        <time>2018-04-07T13:03:28Z</time>
      </trkpt>
      <trkpt lat="44.50941" lon="4.1432">
        <ele>541.4</ele>
        <time>2018-04-07T13:03:31Z</time>
      </trkpt>
      <trkpt lat="44.50933" lon="4.14327">
        <ele>541.5</ele>
        <time>2018-04-07T13:03:34Z</time>
      </trkpt>
      <trkpt lat="44.50922" lon="4.1433">
        <ele>542</ele>
        <time>2018-04-07T13:03:38Z</time>
      </trkpt>
      <trkpt lat="44.50913" lon="4.14329">
        <ele>542.1</ele>
        <time>2018-04-07T13:03:41Z</time>
      </trkpt>
      <trkpt lat="44.50903" lon="4.14324">
        <ele>542</ele>
        <time>2018-04-07T13:03:44Z</time>
      </trkpt>
      <trkpt lat="44.5089" lon="4.14316">
        <ele>541.4</ele>
        <time>2018-04-07T13:03:47Z</time>
      </trkpt>
      <trkpt lat="44.5088" lon="4.14311">
        <ele>540.9</ele>
        <time>2018-04-07T13:03:49Z</time>
      </trkpt>
      <trkpt lat="44.5087" lon="4.14304">
        <ele>540.2</ele>
        <time>2018-04-07T13:03:51Z</time>
      </trkpt>
      <trkpt lat="44.50856" lon="4.14301">
        <ele>538.7</ele>
        <time>2018-04-07T13:03:54Z</time>
      </trkpt>
      <trkpt lat="44.50837" lon="4.14302">
        <ele>537.7</ele>
        <time>2018-04-07T13:03:56Z</time>
      </trkpt>
      <trkpt lat="44.50827" lon="4.14303">
        <ele>537.1</ele>
        <time>2018-04-07T13:03:57Z</time>
      </trkpt>
      <trkpt lat="44.50817" lon="4.14305">
        <ele>536.4</ele>
        <time>2018-04-07T13:03:58Z</time>
      </trkpt>
      <trkpt lat="44.508" lon="4.14317">
        <ele>535.2</ele>
        <time>2018-04-07T13:04:00Z</time>
      </trkpt>
      <trkpt lat="44.50793" lon="4.14324">
        <ele>534.6</ele>
        <time>2018-04-07T13:04:01Z</time>
      </trkpt>
      <trkpt lat="44.50784" lon="4.1433">
        <ele>533.9</ele>
        <time>2018-04-07T13:04:02Z</time>
      </trkpt>
      <trkpt lat="44.50777" lon="4.14338">
        <ele>533.3</ele>
        <time>2018-04-07T13:04:03Z</time>
      </trkpt>
      <trkpt lat="44.50766" lon="4.14339">
        <ele>532.7</ele>
        <time>2018-04-07T13:04:04Z</time>
      </trkpt>
      <trkpt lat="44.50759" lon="4.14362">
        <ele>531.4</ele>
        <time>2018-04-07T13:04:06Z</time>
      </trkpt>
      <trkpt lat="44.50746" lon="4.14372">
        <ele>530.3</ele>
        <time>2018-04-07T13:04:08Z</time>
      </trkpt>
      <trkpt lat="44.50734" lon="4.14369">
        <ele>529</ele>
        <time>2018-04-07T13:04:10Z</time>
      </trkpt>
      <trkpt lat="44.50725" lon="4.14358">
        <ele>527.8</ele>
        <time>2018-04-07T13:04:12Z</time>
      </trkpt>
      <trkpt lat="44.50717" lon="4.14347">
        <ele>526.7</ele>
        <time>2018-04-07T13:04:14Z</time>
      </trkpt>
      <trkpt lat="44.50703" lon="4.1434">
        <ele>525.6</ele>
        <time>2018-04-07T13:04:16Z</time>
      </trkpt>
      <trkpt lat="44.50688" lon="4.14333">
        <ele>524.4</ele>
        <time>2018-04-07T13:04:18Z</time>
      </trkpt>
      <trkpt lat="44.50674" lon="4.14325">
        <ele>523.6</ele>
        <time>2018-04-07T13:04:20Z</time>
      </trkpt>
      <trkpt lat="44.50661" lon="4.14316">
        <ele>522.3</ele>
        <time>2018-04-07T13:04:22Z</time>
      </trkpt>
      <trkpt lat="44.50645" lon="4.14304">
        <ele>521.1</ele>
        <time>2018-04-07T13:04:24Z</time>
      </trkpt>
      <trkpt lat="44.50629" lon="4.14295">
        <ele>519.9</ele>
        <time>2018-04-07T13:04:26Z</time>
      </trkpt>
      <trkpt lat="44.5062" lon="4.14291">
        <ele>519.2</ele>
        <time>2018-04-07T13:04:27Z</time>
      </trkpt>
      <trkpt lat="44.50612" lon="4.14286">
        <ele>518.6</ele>
        <time>2018-04-07T13:04:28Z</time>
      </trkpt>
      <trkpt lat="44.50603" lon="4.14281">
        <ele>518.1</ele>
        <time>2018-04-07T13:04:29Z</time>
      </trkpt>
      <trkpt lat="44.50593" lon="4.14278">
        <ele>517.7</ele>
        <time>2018-04-07T13:04:30Z</time>
      </trkpt>
      <trkpt lat="44.50584" lon="4.14275">
        <ele>517.2</ele>
        <time>2018-04-07T13:04:31Z</time>
      </trkpt>
      <trkpt lat="44.50569" lon="4.14276">
        <ele>516.5</ele>
        <time>2018-04-07T13:04:33Z</time>
      </trkpt>
      <trkpt lat="44.50559" lon="4.14276">
        <ele>516.3</ele>
        <time>2018-04-07T13:04:35Z</time>
      </trkpt>
      <trkpt lat="44.5055" lon="4.14275">
        <ele>516.5</ele>
        <time>2018-04-07T13:04:38Z</time>
      </trkpt>
      <trkpt lat="44.50539" lon="4.14275">
        <ele>517.3</ele>
        <time>2018-04-07T13:04:42Z</time>
      </trkpt>
      <trkpt lat="44.5053" lon="4.14278">
        <ele>518.6</ele>
        <time>2018-04-07T13:04:47Z</time>
      </trkpt>
      <trkpt lat="44.50519" lon="4.14275">
        <ele>519.6</ele>
        <time>2018-04-07T13:04:52Z</time>
      </trkpt>
      <trkpt lat="44.5051" lon="4.14271">
        <ele>520.5</ele>
        <time>2018-04-07T13:04:56Z</time>
      </trkpt>
      <trkpt lat="44.50499" lon="4.14269">
        <ele>521.2</ele>
        <time>2018-04-07T13:05:00Z</time>
      </trkpt>
      <trkpt lat="44.5049" lon="4.14271">
        <ele>521.5</ele>
        <time>2018-04-07T13:05:03Z</time>
      </trkpt>
      <trkpt lat="44.5048" lon="4.1428">
        <ele>521.9</ele>
        <time>2018-04-07T13:05:07Z</time>
      </trkpt>
      <trkpt lat="44.50474" lon="4.14292">
        <ele>522.2</ele>
        <time>2018-04-07T13:05:11Z</time>
      </trkpt>
      <trkpt lat="44.50468" lon="4.14305">
        <ele>522.9</ele>
        <time>2018-04-07T13:05:15Z</time>
      </trkpt>
      <trkpt lat="44.50461" lon="4.14317">
        <ele>523.4</ele>
        <time>2018-04-07T13:05:19Z</time>
      </trkpt>
      <trkpt lat="44.50454" lon="4.14329">
        <ele>524</ele>
        <time>2018-04-07T13:05:23Z</time>
      </trkpt>
      <trkpt lat="44.50447" lon="4.14339">
        <ele>524.3</ele>
        <time>2018-04-07T13:05:27Z</time>
      </trkpt>
      <trkpt lat="44.50439" lon="4.14349">
        <ele>525.1</ele>
        <time>2018-04-07T13:05:32Z</time>
      </trkpt>
      <trkpt lat="44.50433" lon="4.1436">
        <ele>525.9</ele>
        <time>2018-04-07T13:05:36Z</time>
      </trkpt>
      <trkpt lat="44.50428" lon="4.1437">
        <ele>526.7</ele>
        <time>2018-04-07T13:05:40Z</time>
      </trkpt>
      <trkpt lat="44.50422" lon="4.14379">
        <ele>527.1</ele>
        <time>2018-04-07T13:05:44Z</time>
      </trkpt>
      <trkpt lat="44.50415" lon="4.14388">
        <ele>527.5</ele>
        <time>2018-04-07T13:05:48Z</time>
      </trkpt>
      <trkpt lat="44.50405" lon="4.14395">
        <ele>528.1</ele>
        <time>2018-04-07T13:05:53Z</time>
      </trkpt>
      <trkpt lat="44.50397" lon="4.14406">
        <ele>528.7</ele>
        <time>2018-04-07T13:05:58Z</time>
      </trkpt>
      <trkpt lat="44.5039" lon="4.14418">
        <ele>529.5</ele>
        <time>2018-04-07T13:06:03Z</time>
      </trkpt>
      <trkpt lat="44.50386" lon="4.1443">
        <ele>530.2</ele>
        <time>2018-04-07T13:06:08Z</time>
      </trkpt>
      <trkpt lat="44.50381" lon="4.14444">
        <ele>530.6</ele>
        <time>2018-04-07T13:06:13Z</time>
      </trkpt>
      <trkpt lat="44.50375" lon="4.14455">
        <ele>531.3</ele>
        <time>2018-04-07T13:06:18Z</time>
      </trkpt>
      <trkpt lat="44.50372" lon="4.14468">
        <ele>532</ele>
        <time>2018-04-07T13:06:23Z</time>
      </trkpt>
      <trkpt lat="44.50368" lon="4.14481">
        <ele>532.5</ele>
        <time>2018-04-07T13:06:28Z</time>
      </trkpt>
      <trkpt lat="44.50364" lon="4.14494">
        <ele>533.3</ele>
        <time>2018-04-07T13:06:33Z</time>
      </trkpt>
      <trkpt lat="44.50364" lon="4.1451">
        <ele>533.9</ele>
        <time>2018-04-07T13:06:38Z</time>
      </trkpt>
      <trkpt lat="44.50362" lon="4.14523">
        <ele>534.3</ele>
        <time>2018-04-07T13:06:42Z</time>
      </trkpt>
      <trkpt lat="44.50363" lon="4.14537">
        <ele>534.7</ele>
        <time>2018-04-07T13:06:46Z</time>
      </trkpt>
      <trkpt lat="44.50364" lon="4.14551">
        <ele>535.2</ele>
        <time>2018-04-07T13:06:50Z</time>
      </trkpt>
      <trkpt lat="44.50364" lon="4.14565">
        <ele>535.5</ele>
        <time>2018-04-07T13:06:55Z</time>
      </trkpt>
      <trkpt lat="44.50367" lon="4.14578">
        <ele>536.1</ele>
        <time>2018-04-07T13:06:59Z</time>
      </trkpt>
      <trkpt lat="44.5037" lon="4.14594">
        <ele>536.6</ele>
        <time>2018-04-07T13:07:04Z</time>
      </trkpt>
      <trkpt lat="44.50373" lon="4.14608">
        <ele>536.2</ele>
        <time>2018-04-07T13:07:07Z</time>
      </trkpt>
      <trkpt lat="44.50379" lon="4.14624">
        <ele>535.7</ele>
        <time>2018-04-07T13:07:10Z</time>
      </trkpt>
      <trkpt lat="44.50381" lon="4.14644">
        <ele>534.7</ele>
        <time>2018-04-07T13:07:13Z</time>
      </trkpt>
      <trkpt lat="44.50388" lon="4.14658">
        <ele>534</ele>
        <time>2018-04-07T13:07:15Z</time>
      </trkpt>
      <trkpt lat="44.50394" lon="4.14671">
        <ele>532.8</ele>
        <time>2018-04-07T13:07:18Z</time>
      </trkpt>
      <trkpt lat="44.50403" lon="4.14683">
        <ele>531.7</ele>
        <time>2018-04-07T13:07:20Z</time>
      </trkpt>
      <trkpt lat="44.50412" lon="4.14696">
        <ele>530.9</ele>
        <time>2018-04-07T13:07:22Z</time>
      </trkpt>
      <trkpt lat="44.50421" lon="4.14708">
        <ele>530</ele>
        <time>2018-04-07T13:07:24Z</time>
      </trkpt>
      <trkpt lat="44.50429" lon="4.14721">
        <ele>529.3</ele>
        <time>2018-04-07T13:07:26Z</time>
      </trkpt>
      <trkpt lat="44.50437" lon="4.14734">
        <ele>528.4</ele>
        <time>2018-04-07T13:07:28Z</time>
      </trkpt>
      <trkpt lat="44.50441" lon="4.14747">
        <ele>527.5</ele>
        <time>2018-04-07T13:07:30Z</time>
      </trkpt>
      <trkpt lat="44.50445" lon="4.1476">
        <ele>526.9</ele>
        <time>2018-04-07T13:07:32Z</time>
      </trkpt>
      <trkpt lat="44.50448" lon="4.14772">
        <ele>526.2</ele>
        <time>2018-04-07T13:07:34Z</time>
      </trkpt>
      <trkpt lat="44.50453" lon="4.14784">
        <ele>525.7</ele>
        <time>2018-04-07T13:07:36Z</time>
      </trkpt>
      <trkpt lat="44.50458" lon="4.14799">
        <ele>524.9</ele>
        <time>2018-04-07T13:07:39Z</time>
      </trkpt>
      <trkpt lat="44.50462" lon="4.14811">
        <ele>524.6</ele>
        <time>2018-04-07T13:07:41Z</time>
      </trkpt>
      <trkpt lat="44.50468" lon="4.14821">
        <ele>524.4</ele>
        <time>2018-04-07T13:07:44Z</time>
      </trkpt>
      <trkpt lat="44.50473" lon="4.14832">
        <ele>524.6</ele>
        <time>2018-04-07T13:07:47Z</time>
      </trkpt>
      <trkpt lat="44.50477" lon="4.14845">
        <ele>524.9</ele>
        <time>2018-04-07T13:07:51Z</time>
      </trkpt>
      <trkpt lat="44.50483" lon="4.14858">
        <ele>525.2</ele>
        <time>2018-04-07T13:07:55Z</time>
      </trkpt>
      <trkpt lat="44.50488" lon="4.14869">
        <ele>526</ele>
        <time>2018-04-07T13:08:00Z</time>
      </trkpt>
      <trkpt lat="44.50493" lon="4.14884">
        <ele>526.7</ele>
        <time>2018-04-07T13:08:05Z</time>
      </trkpt>
      <trkpt lat="44.505" lon="4.14896">
        <ele>527.2</ele>
        <time>2018-04-07T13:08:09Z</time>
      </trkpt>
      <trkpt lat="44.50503" lon="4.1491">
        <ele>527.8</ele>
        <time>2018-04-07T13:08:13Z</time>
      </trkpt>
      <trkpt lat="44.50508" lon="4.14924">
        <ele>528.3</ele>
        <time>2018-04-07T13:08:18Z</time>
      </trkpt>
      <trkpt lat="44.50514" lon="4.14935">
        <ele>528.8</ele>
        <time>2018-04-07T13:08:22Z</time>
      </trkpt>
      <trkpt lat="44.50518" lon="4.14948">
        <ele>529.7</ele>
        <time>2018-04-07T13:08:27Z</time>
      </trkpt>
      <trkpt lat="44.50525" lon="4.14961">
        <ele>530.5</ele>
        <time>2018-04-07T13:08:32Z</time>
      </trkpt>
      <trkpt lat="44.50531" lon="4.14974">
        <ele>531.3</ele>
        <time>2018-04-07T13:08:36Z</time>
      </trkpt>
      <trkpt lat="44.50537" lon="4.14986">
        <ele>531.7</ele>
        <time>2018-04-07T13:08:40Z</time>
      </trkpt>
      <trkpt lat="44.50542" lon="4.14998">
        <ele>531.9</ele>
        <time>2018-04-07T13:08:44Z</time>
      </trkpt>
      <trkpt lat="44.50546" lon="4.15011">
        <ele>532.2</ele>
        <time>2018-04-07T13:08:48Z</time>
      </trkpt>
      <trkpt lat="44.50551" lon="4.15025">
        <ele>532.7</ele>
        <time>2018-04-07T13:08:52Z</time>
      </trkpt>
      <trkpt lat="44.50554" lon="4.15036">
        <ele>533</ele>
        <time>2018-04-07T13:08:55Z</time>
      </trkpt>
      <trkpt lat="44.50557" lon="4.15052">
        <ele>533.1</ele>
        <time>2018-04-07T13:08:59Z</time>
      </trkpt>
      <trkpt lat="44.50559" lon="4.15066">
        <ele>533.1</ele>
        <time>2018-04-07T13:09:03Z</time>
      </trkpt>
      <trkpt lat="44.50563" lon="4.15079">
        <ele>533.5</ele>
        <time>2018-04-07T13:09:07Z</time>
      </trkpt>
      <trkpt lat="44.50568" lon="4.15092">
        <ele>533.8</ele>
        <time>2018-04-07T13:09:11Z</time>
      </trkpt>
      <trkpt lat="44.50572" lon="4.15105">
        <ele>534.2</ele>
        <time>2018-04-07T13:09:15Z</time>
      </trkpt>
      <trkpt lat="44.50578" lon="4.15116">
        <ele>534.5</ele>
        <time>2018-04-07T13:09:19Z</time>
      </trkpt>
      <trkpt lat="44.50584" lon="4.15127">
        <ele>534.9</ele>
        <time>2018-04-07T13:09:23Z</time>
      </trkpt>
      <trkpt lat="44.50591" lon="4.15139">
        <ele>535.6</ele>
        <time>2018-04-07T13:09:27Z</time>
      </trkpt>
      <trkpt lat="44.50596" lon="4.15149">
        <ele>535.7</ele>
        <time>2018-04-07T13:09:30Z</time>
      </trkpt>
      <trkpt lat="44.50604" lon="4.15158">
        <ele>535.8</ele>
        <time>2018-04-07T13:09:33Z</time>
      </trkpt>
      <trkpt lat="44.50614" lon="4.15164">
        <ele>536</ele>
        <time>2018-04-07T13:09:37Z</time>
      </trkpt>
      <trkpt lat="44.50621" lon="4.15173">
        <ele>536.5</ele>
        <time>2018-04-07T13:09:41Z</time>
      </trkpt>
      <trkpt lat="44.50629" lon="4.15181">
        <ele>537.1</ele>
        <time>2018-04-07T13:09:45Z</time>
      </trkpt>
      <trkpt lat="44.50635" lon="4.15192">
        <ele>537.6</ele>
        <time>2018-04-07T13:09:50Z</time>
      </trkpt>
      <trkpt lat="44.50641" lon="4.15203">
        <ele>538.2</ele>
        <time>2018-04-07T13:09:55Z</time>
      </trkpt>
      <trkpt lat="44.50647" lon="4.15213">
        <ele>538.9</ele>
        <time>2018-04-07T13:09:59Z</time>
      </trkpt>
      <trkpt lat="44.50652" lon="4.15227">
        <ele>539.6</ele>
        <time>2018-04-07T13:10:04Z</time>
      </trkpt>
      <trkpt lat="44.50657" lon="4.15239">
        <ele>539.9</ele>
        <time>2018-04-07T13:10:08Z</time>
      </trkpt>
      <trkpt lat="44.5066" lon="4.15252">
        <ele>540.2</ele>
        <time>2018-04-07T13:10:12Z</time>
      </trkpt>
      <trkpt lat="44.50664" lon="4.15265">
        <ele>540.5</ele>
        <time>2018-04-07T13:10:16Z</time>
      </trkpt>
      <trkpt lat="44.50658" lon="4.1528">
        <ele>540.9</ele>
        <time>2018-04-07T13:10:20Z</time>
      </trkpt>
      <trkpt lat="44.50648" lon="4.1529">
        <ele>540.6</ele>
        <time>2018-04-07T13:10:24Z</time>
      </trkpt>
      <trkpt lat="44.50649" lon="4.15304">
        <ele>540.5</ele>
        <time>2018-04-07T13:10:27Z</time>
      </trkpt>
      <trkpt lat="44.50646" lon="4.15316">
        <ele>540.3</ele>
        <time>2018-04-07T13:10:30Z</time>
      </trkpt>
      <trkpt lat="44.50645" lon="4.15332">
        <ele>539.9</ele>
        <time>2018-04-07T13:10:34Z</time>
      </trkpt>
      <trkpt lat="44.50651" lon="4.15345">
        <ele>539.8</ele>
        <time>2018-04-07T13:10:37Z</time>
      </trkpt>
      <trkpt lat="44.50654" lon="4.15357">
        <ele>539.8</ele>
        <time>2018-04-07T13:10:40Z</time>
      </trkpt>
      <trkpt lat="44.50663" lon="4.15372">
        <ele>539.7</ele>
        <time>2018-04-07T13:10:42Z</time>
      </trkpt>
      <trkpt lat="44.50667" lon="4.15384">
        <ele>539.8</ele>
        <time>2018-04-07T13:10:45Z</time>
      </trkpt>
      <trkpt lat="44.50674" lon="4.15397">
        <ele>539.9</ele>
        <time>2018-04-07T13:10:48Z</time>
      </trkpt>
      <trkpt lat="44.50684" lon="4.15411">
        <ele>539.8</ele>
        <time>2018-04-07T13:10:51Z</time>
      </trkpt>
      <trkpt lat="44.50694" lon="4.15421">
        <ele>539.9</ele>
        <time>2018-04-07T13:10:54Z</time>
      </trkpt>
      <trkpt lat="44.50704" lon="4.15432">
        <ele>539.9</ele>
        <time>2018-04-07T13:10:57Z</time>
      </trkpt>
      <trkpt lat="44.50712" lon="4.1544">
        <ele>540</ele>
        <time>2018-04-07T13:11:00Z</time>
      </trkpt>
      <trkpt lat="44.50719" lon="4.1545">
        <ele>540.3</ele>
        <time>2018-04-07T13:11:04Z</time>
      </trkpt>
      <trkpt lat="44.50725" lon="4.15465">
        <ele>540.6</ele>
        <time>2018-04-07T13:11:08Z</time>
      </trkpt>
      <trkpt lat="44.50734" lon="4.15477">
        <ele>540.9</ele>
        <time>2018-04-07T13:11:12Z</time>
      </trkpt>
      <trkpt lat="44.50741" lon="4.15486">
        <ele>541.5</ele>
        <time>2018-04-07T13:11:15Z</time>
      </trkpt>
      <trkpt lat="44.50743" lon="4.15502">
        <ele>542</ele>
        <time>2018-04-07T13:11:19Z</time>
      </trkpt>
      <trkpt lat="44.50738" lon="4.15514">
        <ele>542</ele>
        <time>2018-04-07T13:11:22Z</time>
      </trkpt>
      <trkpt lat="44.5073" lon="4.1553">
        <ele>541.7</ele>
        <time>2018-04-07T13:11:25Z</time>
      </trkpt>
      <trkpt lat="44.50722" lon="4.15538">
        <ele>541.3</ele>
        <time>2018-04-07T13:11:27Z</time>
      </trkpt>
      <trkpt lat="44.50712" lon="4.15549">
        <ele>540.6</ele>
        <time>2018-04-07T13:11:30Z</time>
      </trkpt>
      <trkpt lat="44.50707" lon="4.15563">
        <ele>540.2</ele>
        <time>2018-04-07T13:11:34Z</time>
      </trkpt>
      <trkpt lat="44.50714" lon="4.15579">
        <ele>539.9</ele>
        <time>2018-04-07T13:11:37Z</time>
      </trkpt>
      <trkpt lat="44.50724" lon="4.15586">
        <ele>539.7</ele>
        <time>2018-04-07T13:11:39Z</time>
      </trkpt>
      <trkpt lat="44.50734" lon="4.15593">
        <ele>539.6</ele>
        <time>2018-04-07T13:11:42Z</time>
      </trkpt>
      <trkpt lat="44.50745" lon="4.15601">
        <ele>539.5</ele>
        <time>2018-04-07T13:11:45Z</time>
      </trkpt>
      <trkpt lat="44.50757" lon="4.15605">
        <ele>539.5</ele>
        <time>2018-04-07T13:11:48Z</time>
      </trkpt>
      <trkpt lat="44.50768" lon="4.15608">
        <ele>539.6</ele>
        <time>2018-04-07T13:11:51Z</time>
      </trkpt>
      <trkpt lat="44.50779" lon="4.15612">
        <ele>539.7</ele>
        <time>2018-04-07T13:11:54Z</time>
      </trkpt>
      <trkpt lat="44.50791" lon="4.15615">
        <ele>539.7</ele>
        <time>2018-04-07T13:11:57Z</time>
      </trkpt>
      <trkpt lat="44.50801" lon="4.15614">
        <ele>539.7</ele>
        <time>2018-04-07T13:12:00Z</time>
      </trkpt>
      <trkpt lat="44.50811" lon="4.15613">
        <ele>540</ele>
        <time>2018-04-07T13:12:03Z</time>
      </trkpt>
      <trkpt lat="44.50822" lon="4.15615">
        <ele>540.2</ele>
        <time>2018-04-07T13:12:06Z</time>
      </trkpt>
      <trkpt lat="44.50833" lon="4.15614">
        <ele>540.2</ele>
        <time>2018-04-07T13:12:09Z</time>
      </trkpt>
      <trkpt lat="44.50845" lon="4.15609">
        <ele>540.2</ele>
        <time>2018-04-07T13:12:12Z</time>
      </trkpt>
      <trkpt lat="44.50854" lon="4.15606">
        <ele>540</ele>
        <time>2018-04-07T13:12:14Z</time>
      </trkpt>
      <trkpt lat="44.50863" lon="4.15602">
        <ele>539.9</ele>
        <time>2018-04-07T13:12:16Z</time>
      </trkpt>
      <trkpt lat="44.50872" lon="4.15597">
        <ele>539.7</ele>
        <time>2018-04-07T13:12:18Z</time>
      </trkpt>
      <trkpt lat="44.50883" lon="4.15597">
        <ele>539</ele>
        <time>2018-04-07T13:12:20Z</time>
      </trkpt>
      <trkpt lat="44.50894" lon="4.15598">
        <ele>538.1</ele>
        <time>2018-04-07T13:12:22Z</time>
      </trkpt>
      <trkpt lat="44.50905" lon="4.15602">
        <ele>537.3</ele>
        <time>2018-04-07T13:12:24Z</time>
      </trkpt>
      <trkpt lat="44.50914" lon="4.15606">
        <ele>536.5</ele>
        <time>2018-04-07T13:12:26Z</time>
      </trkpt>
      <trkpt lat="44.50923" lon="4.1561">
        <ele>535.7</ele>
        <time>2018-04-07T13:12:28Z</time>
      </trkpt>
      <trkpt lat="44.50931" lon="4.15615">
        <ele>535.3</ele>
        <time>2018-04-07T13:12:30Z</time>
      </trkpt>
      <trkpt lat="44.5094" lon="4.15621">
        <ele>535</ele>
        <time>2018-04-07T13:12:32Z</time>
      </trkpt>
      <trkpt lat="44.5095" lon="4.15626">
        <ele>534.7</ele>
        <time>2018-04-07T13:12:34Z</time>
      </trkpt>
      <trkpt lat="44.50959" lon="4.1563">
        <ele>534.4</ele>
        <time>2018-04-07T13:12:36Z</time>
      </trkpt>
      <trkpt lat="44.50969" lon="4.15633">
        <ele>534.1</ele>
        <time>2018-04-07T13:12:38Z</time>
      </trkpt>
      <trkpt lat="44.50978" lon="4.15635">
        <ele>534</ele>
        <time>2018-04-07T13:12:40Z</time>
      </trkpt>
      <trkpt lat="44.50987" lon="4.15638">
        <ele>533.9</ele>
        <time>2018-04-07T13:12:42Z</time>
      </trkpt>
      <trkpt lat="44.50996" lon="4.15643">
        <ele>533.8</ele>
        <time>2018-04-07T13:12:44Z</time>
      </trkpt>
      <trkpt lat="44.51007" lon="4.15652">
        <ele>533.7</ele>
        <time>2018-04-07T13:12:47Z</time>
      </trkpt>
      <trkpt lat="44.51015" lon="4.15664">
        <ele>533.8</ele>
        <time>2018-04-07T13:12:50Z</time>
      </trkpt>
      <trkpt lat="44.51018" lon="4.15679">
        <ele>534</ele>
        <time>2018-04-07T13:12:53Z</time>
      </trkpt>
      <trkpt lat="44.51015" lon="4.15695">
        <ele>534.3</ele>
        <time>2018-04-07T13:12:56Z</time>
      </trkpt>
      <trkpt lat="44.51008" lon="4.15709">
        <ele>534.4</ele>
        <time>2018-04-07T13:12:59Z</time>
      </trkpt>
      <trkpt lat="44.51" lon="4.1572">
        <ele>534.2</ele>
        <time>2018-04-07T13:13:02Z</time>
      </trkpt>
      <trkpt lat="44.50994" lon="4.15732">
        <ele>534.3</ele>
        <time>2018-04-07T13:13:05Z</time>
      </trkpt>
      <trkpt lat="44.50987" lon="4.15745">
        <ele>534.4</ele>
        <time>2018-04-07T13:13:08Z</time>
      </trkpt>
      <trkpt lat="44.5098" lon="4.15755">
        <ele>534.5</ele>
        <time>2018-04-07T13:13:11Z</time>
      </trkpt>
      <trkpt lat="44.50973" lon="4.15766">
        <ele>534.7</ele>
        <time>2018-04-07T13:13:14Z</time>
      </trkpt>
      <trkpt lat="44.50965" lon="4.15775">
        <ele>534.8</ele>
        <time>2018-04-07T13:13:17Z</time>
      </trkpt>
      <trkpt lat="44.50958" lon="4.15788">
        <ele>534.9</ele>
        <time>2018-04-07T13:13:20Z</time>
      </trkpt>
      <trkpt lat="44.50951" lon="4.15798">
        <ele>535</ele>
        <time>2018-04-07T13:13:23Z</time>
      </trkpt>
      <trkpt lat="44.50954" lon="4.15814">
        <ele>534.6</ele>
        <time>2018-04-07T13:13:26Z</time>
      </trkpt>
      <trkpt lat="44.50961" lon="4.15824">
        <ele>534.2</ele>
        <time>2018-04-07T13:13:28Z</time>
      </trkpt>
      <trkpt lat="44.50968" lon="4.15834">
        <ele>534.1</ele>
        <time>2018-04-07T13:13:30Z</time>
      </trkpt>
      <trkpt lat="44.50977" lon="4.15844">
        <ele>534</ele>
        <time>2018-04-07T13:13:32Z</time>
      </trkpt>
      <trkpt lat="44.50985" lon="4.15852">
        <ele>533.9</ele>
        <time>2018-04-07T13:13:34Z</time>
      </trkpt>
      <trkpt lat="44.50994" lon="4.15858">
        <ele>533.9</ele>
        <time>2018-04-07T13:13:36Z</time>
      </trkpt>
      <trkpt lat="44.51004" lon="4.1587">
        <ele>533.7</ele>
        <time>2018-04-07T13:13:39Z</time>
      </trkpt>
      <trkpt lat="44.51012" lon="4.15882">
        <ele>533.7</ele>
        <time>2018-04-07T13:13:42Z</time>
      </trkpt>
      <trkpt lat="44.51018" lon="4.15894">
        <ele>533.7</ele>
        <time>2018-04-07T13:13:45Z</time>
      </trkpt>
      <trkpt lat="44.51023" lon="4.15909">
        <ele>533.9</ele>
        <time>2018-04-07T13:13:48Z</time>
      </trkpt>
      <trkpt lat="44.51027" lon="4.15926">
        <ele>533.8</ele>
        <time>2018-04-07T13:13:51Z</time>
      </trkpt>
      <trkpt lat="44.51032" lon="4.15941">
        <ele>533.7</ele>
        <time>2018-04-07T13:13:54Z</time>
      </trkpt>
      <trkpt lat="44.51036" lon="4.15956">
        <ele>533.9</ele>
        <time>2018-04-07T13:13:57Z</time>
      </trkpt>
      <trkpt lat="44.51039" lon="4.15973">
        <ele>534</ele>
        <time>2018-04-07T13:14:00Z</time>
      </trkpt>
      <trkpt lat="44.51042" lon="4.15989">
        <ele>534.2</ele>
        <time>2018-04-07T13:14:03Z</time>
      </trkpt>
      <trkpt lat="44.51042" lon="4.16002">
        <ele>534.5</ele>
        <time>2018-04-07T13:14:06Z</time>
      </trkpt>
      <trkpt lat="44.51044" lon="4.16017">
        <ele>534.9</ele>
        <time>2018-04-07T13:14:10Z</time>
      </trkpt>
      <trkpt lat="44.51047" lon="4.16031">
        <ele>535.1</ele>
        <time>2018-04-07T13:14:13Z</time>
      </trkpt>
      <trkpt lat="44.51049" lon="4.16046">
        <ele>535</ele>
        <time>2018-04-07T13:14:16Z</time>
      </trkpt>
      <trkpt lat="44.51052" lon="4.16061">
        <ele>535.3</ele>
        <time>2018-04-07T13:14:20Z</time>
      </trkpt>
      <trkpt lat="44.51052" lon="4.16077">
        <ele>535.6</ele>
        <time>2018-04-07T13:14:24Z</time>
      </trkpt>
      <trkpt lat="44.5105" lon="4.16092">
        <ele>536.5</ele>
        <time>2018-04-07T13:14:28Z</time>
      </trkpt>
      <trkpt lat="44.51045" lon="4.16106">
        <ele>537</ele>
        <time>2018-04-07T13:14:33Z</time>
      </trkpt>
      <trkpt lat="44.5104" lon="4.16118">
        <ele>537.7</ele>
        <time>2018-04-07T13:14:38Z</time>
      </trkpt>
      <trkpt lat="44.51036" lon="4.16132">
        <ele>538.3</ele>
        <time>2018-04-07T13:14:41Z</time>
      </trkpt>
      <trkpt lat="44.51032" lon="4.16146">
        <ele>538.8</ele>
        <time>2018-04-07T13:14:44Z</time>
      </trkpt>
      <trkpt lat="44.51024" lon="4.16152">
        <ele>539.1</ele>
        <time>2018-04-07T13:14:47Z</time>
      </trkpt>
      <trkpt lat="44.51017" lon="4.1616">
        <ele>539.2</ele>
        <time>2018-04-07T13:14:50Z</time>
      </trkpt>
      <trkpt lat="44.51009" lon="4.16169">
        <ele>539.3</ele>
        <time>2018-04-07T13:14:53Z</time>
      </trkpt>
      <trkpt lat="44.51001" lon="4.1618">
        <ele>539.5</ele>
        <time>2018-04-07T13:14:56Z</time>
      </trkpt>
      <trkpt lat="44.50994" lon="4.1619">
        <ele>539.5</ele>
        <time>2018-04-07T13:14:59Z</time>
      </trkpt>
      <trkpt lat="44.50989" lon="4.16203">
        <ele>539.6</ele>
        <time>2018-04-07T13:15:02Z</time>
      </trkpt>
      <trkpt lat="44.50988" lon="4.1622">
        <ele>539.8</ele>
        <time>2018-04-07T13:15:05Z</time>
      </trkpt>
      <trkpt lat="44.50983" lon="4.16233">
        <ele>539.8</ele>
        <time>2018-04-07T13:15:08Z</time>
      </trkpt>
      <trkpt lat="44.50978" lon="4.16245">
        <ele>540</ele>
        <time>2018-04-07T13:15:11Z</time>
      </trkpt>
      <trkpt lat="44.50971" lon="4.16255">
        <ele>540.1</ele>
        <time>2018-04-07T13:15:14Z</time>
      </trkpt>
      <trkpt lat="44.50972" lon="4.16272">
        <ele>540</ele>
        <time>2018-04-07T13:15:17Z</time>
      </trkpt>
      <trkpt lat="44.50976" lon="4.16286">
        <ele>540</ele>
        <time>2018-04-07T13:15:19Z</time>
      </trkpt>
      <trkpt lat="44.50982" lon="4.16296">
        <ele>540.1</ele>
        <time>2018-04-07T13:15:21Z</time>
      </trkpt>
      <trkpt lat="44.50989" lon="4.16309">
        <ele>540.1</ele>
        <time>2018-04-07T13:15:24Z</time>
      </trkpt>
      <trkpt lat="44.50994" lon="4.16327">
        <ele>540.2</ele>
        <time>2018-04-07T13:15:27Z</time>
      </trkpt>
      <trkpt lat="44.50997" lon="4.16343">
        <ele>540.3</ele>
        <time>2018-04-07T13:15:30Z</time>
      </trkpt>
      <trkpt lat="44.51" lon="4.16355">
        <ele>540.3</ele>
        <time>2018-04-07T13:15:32Z</time>
      </trkpt>
      <trkpt lat="44.51005" lon="4.16371">
        <ele>539.9</ele>
        <time>2018-04-07T13:15:35Z</time>
      </trkpt>
      <trkpt lat="44.51006" lon="4.16384">
        <ele>539.6</ele>
        <time>2018-04-07T13:15:37Z</time>
      </trkpt>
      <trkpt lat="44.51008" lon="4.16397">
        <ele>539.8</ele>
        <time>2018-04-07T13:15:39Z</time>
      </trkpt>
      <trkpt lat="44.51014" lon="4.1641">
        <ele>539.9</ele>
        <time>2018-04-07T13:15:42Z</time>
      </trkpt>
      <trkpt lat="44.51017" lon="4.16423">
        <ele>540.2</ele>
        <time>2018-04-07T13:15:45Z</time>
      </trkpt>
      <trkpt lat="44.5102" lon="4.16435">
        <ele>540.4</ele>
        <time>2018-04-07T13:15:48Z</time>
      </trkpt>
      <trkpt lat="44.5102" lon="4.16448">
        <ele>540.7</ele>
        <time>2018-04-07T13:15:51Z</time>
      </trkpt>
      <trkpt lat="44.51015" lon="4.1646">
        <ele>541.2</ele>
        <time>2018-04-07T13:15:55Z</time>
      </trkpt>
      <trkpt lat="44.51007" lon="4.1647">
        <ele>542.1</ele>
        <time>2018-04-07T13:16:00Z</time>
      </trkpt>
      <trkpt lat="44.51001" lon="4.1648">
        <ele>542.7</ele>
        <time>2018-04-07T13:16:04Z</time>
      </trkpt>
      <trkpt lat="44.51002" lon="4.16495">
        <ele>542.9</ele>
        <time>2018-04-07T13:16:07Z</time>
      </trkpt>
      <trkpt lat="44.51004" lon="4.16509">
        <ele>543</ele>
        <time>2018-04-07T13:16:10Z</time>
      </trkpt>
      <trkpt lat="44.51003" lon="4.16522">
        <ele>543.1</ele>
        <time>2018-04-07T13:16:13Z</time>
      </trkpt>
      <trkpt lat="44.50999" lon="4.16534">
        <ele>543.4</ele>
        <time>2018-04-07T13:16:17Z</time>
      </trkpt>
      <trkpt lat="44.51002" lon="4.16548">
        <ele>543.9</ele>
        <time>2018-04-07T13:16:21Z</time>
      </trkpt>
      <trkpt lat="44.51007" lon="4.16561">
        <ele>544.9</ele>
        <time>2018-04-07T13:16:25Z</time>
      </trkpt>
      <trkpt lat="44.51014" lon="4.16569">
        <ele>545.3</ele>
        <time>2018-04-07T13:16:28Z</time>
      </trkpt>
      <trkpt lat="44.51022" lon="4.16575">
        <ele>545.4</ele>
        <time>2018-04-07T13:16:31Z</time>
      </trkpt>
      <trkpt lat="44.51031" lon="4.16581">
        <ele>545.5</ele>
        <time>2018-04-07T13:16:34Z</time>
      </trkpt>
      <trkpt lat="44.51039" lon="4.16588">
        <ele>545.7</ele>
        <time>2018-04-07T13:16:37Z</time>
      </trkpt>
      <trkpt lat="44.5105" lon="4.16597">
        <ele>545.8</ele>
        <time>2018-04-07T13:16:40Z</time>
      </trkpt>
      <trkpt lat="44.5106" lon="4.16609">
        <ele>545.3</ele>
        <time>2018-04-07T13:16:43Z</time>
      </trkpt>
      <trkpt lat="44.5107" lon="4.16622">
        <ele>544.8</ele>
        <time>2018-04-07T13:16:46Z</time>
      </trkpt>
      <trkpt lat="44.51075" lon="4.16635">
        <ele>544.3</ele>
        <time>2018-04-07T13:16:49Z</time>
      </trkpt>
      <trkpt lat="44.51077" lon="4.1665">
        <ele>544.2</ele>
        <time>2018-04-07T13:16:52Z</time>
      </trkpt>
      <trkpt lat="44.5108" lon="4.16665">
        <ele>544.1</ele>
        <time>2018-04-07T13:16:55Z</time>
      </trkpt>
      <trkpt lat="44.51083" lon="4.1668">
        <ele>544</ele>
        <time>2018-04-07T13:16:58Z</time>
      </trkpt>
      <trkpt lat="44.51087" lon="4.16698">
        <ele>544</ele>
        <time>2018-04-07T13:17:01Z</time>
      </trkpt>
      <trkpt lat="44.51091" lon="4.16715">
        <ele>544</ele>
        <time>2018-04-07T13:17:04Z</time>
      </trkpt>
      <trkpt lat="44.51095" lon="4.16727">
        <ele>543.9</ele>
        <time>2018-04-07T13:17:06Z</time>
      </trkpt>
      <trkpt lat="44.51101" lon="4.16744">
        <ele>543.5</ele>
        <time>2018-04-07T13:17:09Z</time>
      </trkpt>
      <trkpt lat="44.51107" lon="4.1676">
        <ele>543.4</ele>
        <time>2018-04-07T13:17:12Z</time>
      </trkpt>
      <trkpt lat="44.51106" lon="4.16776">
        <ele>543.5</ele>
        <time>2018-04-07T13:17:15Z</time>
      </trkpt>
      <trkpt lat="44.51098" lon="4.16788">
        <ele>543.2</ele>
        <time>2018-04-07T13:17:18Z</time>
      </trkpt>
      <trkpt lat="44.5109" lon="4.16799">
        <ele>542.8</ele>
        <time>2018-04-07T13:17:21Z</time>
      </trkpt>
      <trkpt lat="44.51081" lon="4.16809">
        <ele>542.4</ele>
        <time>2018-04-07T13:17:24Z</time>
      </trkpt>
      <trkpt lat="44.51071" lon="4.16818">
        <ele>542.3</ele>
        <time>2018-04-07T13:17:27Z</time>
      </trkpt>
      <trkpt lat="44.51061" lon="4.16828">
        <ele>542</ele>
        <time>2018-04-07T13:17:30Z</time>
      </trkpt>
      <trkpt lat="44.51052" lon="4.16835">
        <ele>541.8</ele>
        <time>2018-04-07T13:17:33Z</time>
      </trkpt>
      <trkpt lat="44.51044" lon="4.16843">
        <ele>541.9</ele>
        <time>2018-04-07T13:17:36Z</time>
      </trkpt>
      <trkpt lat="44.51039" lon="4.16858">
        <ele>542.2</ele>
        <time>2018-04-07T13:17:39Z</time>
      </trkpt>
      <trkpt lat="44.51031" lon="4.16867">
        <ele>542.5</ele>
        <time>2018-04-07T13:17:42Z</time>
      </trkpt>
      <trkpt lat="44.51023" lon="4.16877">
        <ele>542.8</ele>
        <time>2018-04-07T13:17:45Z</time>
      </trkpt>
      <trkpt lat="44.5102" lon="4.16891">
        <ele>543</ele>
        <time>2018-04-07T13:17:48Z</time>
      </trkpt>
      <trkpt lat="44.51022" lon="4.16907">
        <ele>543.2</ele>
        <time>2018-04-07T13:17:51Z</time>
      </trkpt>
      <trkpt lat="44.51027" lon="4.16922">
        <ele>543.1</ele>
        <time>2018-04-07T13:17:54Z</time>
      </trkpt>
      <trkpt lat="44.5103" lon="4.16937">
        <ele>542.9</ele>
        <time>2018-04-07T13:17:56Z</time>
      </trkpt>
      <trkpt lat="44.51029" lon="4.16956">
        <ele>542.6</ele>
        <time>2018-04-07T13:17:59Z</time>
      </trkpt>
      <trkpt lat="44.51028" lon="4.16974">
        <ele>542.3</ele>
        <time>2018-04-07T13:18:02Z</time>
      </trkpt>
      <trkpt lat="44.51029" lon="4.16989">
        <ele>542.1</ele>
        <time>2018-04-07T13:18:05Z</time>
      </trkpt>
      <trkpt lat="44.5103" lon="4.17005">
        <ele>542.2</ele>
        <time>2018-04-07T13:18:09Z</time>
      </trkpt>
      <trkpt lat="44.51031" lon="4.17018">
        <ele>542.5</ele>
        <time>2018-04-07T13:18:12Z</time>
      </trkpt>
      <trkpt lat="44.51035" lon="4.1703">
        <ele>542.7</ele>
        <time>2018-04-07T13:18:15Z</time>
      </trkpt>
      <trkpt lat="44.51039" lon="4.17044">
        <ele>543</ele>
        <time>2018-04-07T13:18:19Z</time>
      </trkpt>
      <trkpt lat="44.51044" lon="4.17057">
        <ele>543.9</ele>
        <time>2018-04-07T13:18:23Z</time>
      </trkpt>
      <trkpt lat="44.51047" lon="4.17069">
        <ele>544.4</ele>
        <time>2018-04-07T13:18:27Z</time>
      </trkpt>
      <trkpt lat="44.51045" lon="4.17084">
        <ele>545.1</ele>
        <time>2018-04-07T13:18:32Z</time>
      </trkpt>
      <trkpt lat="44.51044" lon="4.171">
        <ele>545.9</ele>
        <time>2018-04-07T13:18:37Z</time>
      </trkpt>
      <trkpt lat="44.51043" lon="4.17115">
        <ele>547</ele>
        <time>2018-04-07T13:18:42Z</time>
      </trkpt>
      <trkpt lat="44.51042" lon="4.1713">
        <ele>547.8</ele>
        <time>2018-04-07T13:18:47Z</time>
      </trkpt>
      <trkpt lat="44.51043" lon="4.17143">
        <ele>548.2</ele>
        <time>2018-04-07T13:18:51Z</time>
      </trkpt>
      <trkpt lat="44.51045" lon="4.17158">
        <ele>548.8</ele>
        <time>2018-04-07T13:18:56Z</time>
      </trkpt>
      <trkpt lat="44.51051" lon="4.1717">
        <ele>549.5</ele>
        <time>2018-04-07T13:19:01Z</time>
      </trkpt>
      <trkpt lat="44.51057" lon="4.17184">
        <ele>550.4</ele>
        <time>2018-04-07T13:19:06Z</time>
      </trkpt>
      <trkpt lat="44.51061" lon="4.17195">
        <ele>551</ele>
        <time>2018-04-07T13:19:10Z</time>
      </trkpt>
      <trkpt lat="44.51062" lon="4.1721">
        <ele>551.5</ele>
        <time>2018-04-07T13:19:15Z</time>
      </trkpt>
      <trkpt lat="44.51069" lon="4.1722">
        <ele>552.4</ele>
        <time>2018-04-07T13:19:20Z</time>
      </trkpt>
      <trkpt lat="44.51079" lon="4.17219">
        <ele>553.1</ele>
        <time>2018-04-07T13:19:24Z</time>
      </trkpt>
      <trkpt lat="44.51089" lon="4.17217">
        <ele>553.8</ele>
        <time>2018-04-07T13:19:29Z</time>
      </trkpt>
      <trkpt lat="44.511" lon="4.17219">
        <ele>554.5</ele>
        <time>2018-04-07T13:19:34Z</time>
      </trkpt>
      <trkpt lat="44.51109" lon="4.17224">
        <ele>555.2</ele>
        <time>2018-04-07T13:19:38Z</time>
      </trkpt>
      <trkpt lat="44.51118" lon="4.17227">
        <ele>555.8</ele>
        <time>2018-04-07T13:19:42Z</time>
      </trkpt>
      <trkpt lat="44.51129" lon="4.17231">
        <ele>556.6</ele>
        <time>2018-04-07T13:19:47Z</time>
      </trkpt>
      <trkpt lat="44.51139" lon="4.17235">
        <ele>557.4</ele>
        <time>2018-04-07T13:19:52Z</time>
      </trkpt>
      <trkpt lat="44.5115" lon="4.17238">
        <ele>557.9</ele>
        <time>2018-04-07T13:19:57Z</time>
      </trkpt>
      <trkpt lat="44.51161" lon="4.17242">
        <ele>558.5</ele>
        <time>2018-04-07T13:20:02Z</time>
      </trkpt>
      <trkpt lat="44.51171" lon="4.17247">
        <ele>559.4</ele>
        <time>2018-04-07T13:20:07Z</time>
      </trkpt>
      <trkpt lat="44.51178" lon="4.17257">
        <ele>560.2</ele>
        <time>2018-04-07T13:20:12Z</time>
      </trkpt>
      <trkpt lat="44.51175" lon="4.1727">
        <ele>560.7</ele>
        <time>2018-04-07T13:20:16Z</time>
      </trkpt>
      <trkpt lat="44.51169" lon="4.17283">
        <ele>561.2</ele>
        <time>2018-04-07T13:20:21Z</time>
      </trkpt>
      <trkpt lat="44.51164" lon="4.17293">
        <ele>561.7</ele>
        <time>2018-04-07T13:20:25Z</time>
      </trkpt>
      <trkpt lat="44.51159" lon="4.17304">
        <ele>562.4</ele>
        <time>2018-04-07T13:20:29Z</time>
      </trkpt>
      <trkpt lat="44.51154" lon="4.17315">
        <ele>563</ele>
        <time>2018-04-07T13:20:33Z</time>
      </trkpt>
      <trkpt lat="44.51148" lon="4.17327">
        <ele>563.7</ele>
        <time>2018-04-07T13:20:38Z</time>
      </trkpt>
      <trkpt lat="44.51143" lon="4.17338">
        <ele>564.7</ele>
        <time>2018-04-07T13:20:42Z</time>
      </trkpt>
      <trkpt lat="44.51136" lon="4.17348">
        <ele>565.4</ele>
        <time>2018-04-07T13:20:46Z</time>
      </trkpt>
      <trkpt lat="44.51127" lon="4.17357">
        <ele>565.9</ele>
        <time>2018-04-07T13:20:50Z</time>
      </trkpt>
      <trkpt lat="44.51118" lon="4.17359">
        <ele>566.6</ele>
        <time>2018-04-07T13:20:54Z</time>
      </trkpt>
      <trkpt lat="44.51108" lon="4.17358">
        <ele>566.9</ele>
        <time>2018-04-07T13:20:58Z</time>
      </trkpt>
      <trkpt lat="44.51098" lon="4.17355">
        <ele>567.5</ele>
        <time>2018-04-07T13:21:03Z</time>
      </trkpt>
      <trkpt lat="44.51088" lon="4.17354">
        <ele>568.2</ele>
        <time>2018-04-07T13:21:08Z</time>
      </trkpt>
      <trkpt lat="44.51078" lon="4.17355">
        <ele>568.7</ele>
        <time>2018-04-07T13:21:12Z</time>
      </trkpt>
      <trkpt lat="44.5107" lon="4.17362">
        <ele>568.9</ele>
        <time>2018-04-07T13:21:16Z</time>
      </trkpt>
      <trkpt lat="44.51062" lon="4.1737">
        <ele>569.4</ele>
        <time>2018-04-07T13:21:21Z</time>
      </trkpt>
      <trkpt lat="44.51054" lon="4.17378">
        <ele>569.9</ele>
        <time>2018-04-07T13:21:25Z</time>
      </trkpt>
      <trkpt lat="44.51047" lon="4.17391">
        <ele>570.2</ele>
        <time>2018-04-07T13:21:29Z</time>
      </trkpt>
      <trkpt lat="44.51039" lon="4.17401">
        <ele>571.1</ele>
        <time>2018-04-07T13:21:33Z</time>
      </trkpt>
      <trkpt lat="44.51033" lon="4.17414">
        <ele>571.7</ele>
        <time>2018-04-07T13:21:37Z</time>
      </trkpt>
      <trkpt lat="44.51025" lon="4.17421">
        <ele>572.3</ele>
        <time>2018-04-07T13:21:41Z</time>
      </trkpt>
      <trkpt lat="44.51016" lon="4.17426">
        <ele>572.9</ele>
        <time>2018-04-07T13:21:46Z</time>
      </trkpt>
      <trkpt lat="44.51007" lon="4.17428">
        <ele>573.5</ele>
        <time>2018-04-07T13:22:03Z</time>
      </trkpt>
      <trkpt lat="44.50998" lon="4.17423">
        <ele>573.4</ele>
        <time>2018-04-07T13:23:21Z</time>
      </trkpt>
      <trkpt lat="44.51006" lon="4.17429">
        <ele>574.2</ele>
        <time>2018-04-07T13:25:20Z</time>
      </trkpt>
      <trkpt lat="44.51003" lon="4.17442">
        <ele>574.4</ele>
        <time>2018-04-07T13:25:34Z</time>
      </trkpt>
      <trkpt lat="44.51002" lon="4.17455">
        <ele>574.8</ele>
        <time>2018-04-07T13:25:38Z</time>
      </trkpt>
      <trkpt lat="44.51002" lon="4.17468">
        <ele>575.2</ele>
        <time>2018-04-07T13:25:42Z</time>
      </trkpt>
      <trkpt lat="44.51002" lon="4.17483">
        <ele>575.8</ele>
        <time>2018-04-07T13:25:47Z</time>
      </trkpt>
      <trkpt lat="44.51005" lon="4.17497">
        <ele>576.6</ele>
        <time>2018-04-07T13:25:52Z</time>
      </trkpt>
      <trkpt lat="44.51006" lon="4.17511">
        <ele>577.8</ele>
        <time>2018-04-07T13:26:00Z</time>
      </trkpt>
      <trkpt lat="44.51005" lon="4.17525">
        <ele>578.2</ele>
        <time>2018-04-07T13:26:10Z</time>
      </trkpt>
      <trkpt lat="44.51004" lon="4.17538">
        <ele>578.5</ele>
        <time>2018-04-07T13:26:15Z</time>
      </trkpt>
      <trkpt lat="44.51001" lon="4.17551">
        <ele>578.8</ele>
        <time>2018-04-07T13:26:19Z</time>
      </trkpt>
      <trkpt lat="44.50995" lon="4.17562">
        <ele>579.3</ele>
        <time>2018-04-07T13:26:23Z</time>
      </trkpt>
      <trkpt lat="44.50987" lon="4.17571">
        <ele>579.8</ele>
        <time>2018-04-07T13:26:28Z</time>
      </trkpt>
      <trkpt lat="44.50977" lon="4.17577">
        <ele>580.4</ele>
        <time>2018-04-07T13:26:33Z</time>
      </trkpt>
      <trkpt lat="44.50967" lon="4.1758">
        <ele>580.8</ele>
        <time>2018-04-07T13:26:37Z</time>
      </trkpt>
      <trkpt lat="44.50958" lon="4.1758">
        <ele>581.4</ele>
        <time>2018-04-07T13:26:41Z</time>
      </trkpt>
      <trkpt lat="44.50949" lon="4.1758">
        <ele>582</ele>
        <time>2018-04-07T13:26:45Z</time>
      </trkpt>
      <trkpt lat="44.50939" lon="4.17584">
        <ele>582.2</ele>
        <time>2018-04-07T13:26:49Z</time>
      </trkpt>
      <trkpt lat="44.50934" lon="4.17594">
        <ele>582.6</ele>
        <time>2018-04-07T13:26:53Z</time>
      </trkpt>
      <trkpt lat="44.5093" lon="4.17607">
        <ele>583.1</ele>
        <time>2018-04-07T13:26:57Z</time>
      </trkpt>
      <trkpt lat="44.50926" lon="4.17621">
        <ele>583.6</ele>
        <time>2018-04-07T13:27:01Z</time>
      </trkpt>
      <trkpt lat="44.50925" lon="4.17636">
        <ele>584.1</ele>
        <time>2018-04-07T13:27:05Z</time>
      </trkpt>
      <trkpt lat="44.50923" lon="4.17652">
        <ele>584.6</ele>
        <time>2018-04-07T13:27:09Z</time>
      </trkpt>
      <trkpt lat="44.50921" lon="4.17665">
        <ele>585.4</ele>
        <time>2018-04-07T13:27:13Z</time>
      </trkpt>
      <trkpt lat="44.5092" lon="4.17678">
        <ele>585.8</ele>
        <time>2018-04-07T13:27:16Z</time>
      </trkpt>
      <trkpt lat="44.50918" lon="4.17694">
        <ele>586.2</ele>
        <time>2018-04-07T13:27:20Z</time>
      </trkpt>
      <trkpt lat="44.50916" lon="4.17706">
        <ele>586.4</ele>
        <time>2018-04-07T13:27:23Z</time>
      </trkpt>
      <trkpt lat="44.50915" lon="4.17723">
        <ele>586.8</ele>
        <time>2018-04-07T13:27:27Z</time>
      </trkpt>
      <trkpt lat="44.50913" lon="4.17736">
        <ele>587.3</ele>
        <time>2018-04-07T13:27:31Z</time>
      </trkpt>
      <trkpt lat="44.50912" lon="4.17751">
        <ele>587.7</ele>
        <time>2018-04-07T13:27:35Z</time>
      </trkpt>
      <trkpt lat="44.50913" lon="4.17765">
        <ele>587.9</ele>
        <time>2018-04-07T13:27:38Z</time>
      </trkpt>
      <trkpt lat="44.50913" lon="4.17777">
        <ele>588.5</ele>
        <time>2018-04-07T13:27:41Z</time>
      </trkpt>
      <trkpt lat="44.50911" lon="4.17793">
        <ele>589.1</ele>
        <time>2018-04-07T13:27:45Z</time>
      </trkpt>
      <trkpt lat="44.50912" lon="4.17808">
        <ele>589.5</ele>
        <time>2018-04-07T13:27:49Z</time>
      </trkpt>
      <trkpt lat="44.50913" lon="4.1782">
        <ele>590</ele>
        <time>2018-04-07T13:27:52Z</time>
      </trkpt>
      <trkpt lat="44.50914" lon="4.17833">
        <ele>590.3</ele>
        <time>2018-04-07T13:27:55Z</time>
      </trkpt>
      <trkpt lat="44.50916" lon="4.17847">
        <ele>590.6</ele>
        <time>2018-04-07T13:27:58Z</time>
      </trkpt>
      <trkpt lat="44.50917" lon="4.17859">
        <ele>590.9</ele>
        <time>2018-04-07T13:28:01Z</time>
      </trkpt>
      <trkpt lat="44.50918" lon="4.17876">
        <ele>591.1</ele>
        <time>2018-04-07T13:28:05Z</time>
      </trkpt>
      <trkpt lat="44.5092" lon="4.17889">
        <ele>591.3</ele>
        <time>2018-04-07T13:28:08Z</time>
      </trkpt>
      <trkpt lat="44.50922" lon="4.17903">
        <ele>591.6</ele>
        <time>2018-04-07T13:28:11Z</time>
      </trkpt>
      <trkpt lat="44.50924" lon="4.17916">
        <ele>591.9</ele>
        <time>2018-04-07T13:28:14Z</time>
      </trkpt>
      <trkpt lat="44.50926" lon="4.17932">
        <ele>592.2</ele>
        <time>2018-04-07T13:28:18Z</time>
      </trkpt>
      <trkpt lat="44.50928" lon="4.17945">
        <ele>592.5</ele>
        <time>2018-04-07T13:28:21Z</time>
      </trkpt>
      <trkpt lat="44.50929" lon="4.17958">
        <ele>592.1</ele>
        <time>2018-04-07T13:28:24Z</time>
      </trkpt>
      <trkpt lat="44.5093" lon="4.17972">
        <ele>592.9</ele>
        <time>2018-04-07T13:28:27Z</time>
      </trkpt>
      <trkpt lat="44.50929" lon="4.17986">
        <ele>593.2</ele>
        <time>2018-04-07T13:28:30Z</time>
      </trkpt>
      <trkpt lat="44.50922" lon="4.17999">
        <ele>593.2</ele>
        <time>2018-04-07T13:28:33Z</time>
      </trkpt>
      <trkpt lat="44.50913" lon="4.18005">
        <ele>593.1</ele>
        <time>2018-04-07T13:28:36Z</time>
      </trkpt>
      <trkpt lat="44.50903" lon="4.18007">
        <ele>593.2</ele>
        <time>2018-04-07T13:28:39Z</time>
      </trkpt>
      <trkpt lat="44.50893" lon="4.18005">
        <ele>593.3</ele>
        <time>2018-04-07T13:28:42Z</time>
      </trkpt>
      <trkpt lat="44.50883" lon="4.18005">
        <ele>593.1</ele>
        <time>2018-04-07T13:28:45Z</time>
      </trkpt>
      <trkpt lat="44.50873" lon="4.18004">
        <ele>593.2</ele>
        <time>2018-04-07T13:28:48Z</time>
      </trkpt>
      <trkpt lat="44.50862" lon="4.18002">
        <ele>593.4</ele>
        <time>2018-04-07T13:28:51Z</time>
      </trkpt>
      <trkpt lat="44.50851" lon="4.18006">
        <ele>593.4</ele>
        <time>2018-04-07T13:28:54Z</time>
      </trkpt>
      <trkpt lat="44.50845" lon="4.18018">
        <ele>593.1</ele>
        <time>2018-04-07T13:28:57Z</time>
      </trkpt>
      <trkpt lat="44.5084" lon="4.18029">
        <ele>592.9</ele>
        <time>2018-04-07T13:29:00Z</time>
      </trkpt>
      <trkpt lat="44.5083" lon="4.18036">
        <ele>592.7</ele>
        <time>2018-04-07T13:29:03Z</time>
      </trkpt>
      <trkpt lat="44.50821" lon="4.18037">
        <ele>592.5</ele>
        <time>2018-04-07T13:29:05Z</time>
      </trkpt>
      <trkpt lat="44.50812" lon="4.18045">
        <ele>591.7</ele>
        <time>2018-04-07T13:29:07Z</time>
      </trkpt>
      <trkpt lat="44.50802" lon="4.18051">
        <ele>591</ele>
        <time>2018-04-07T13:29:09Z</time>
      </trkpt>
      <trkpt lat="44.5079" lon="4.18056">
        <ele>590.1</ele>
        <time>2018-04-07T13:29:11Z</time>
      </trkpt>
      <trkpt lat="44.5078" lon="4.18063">
        <ele>589.5</ele>
        <time>2018-04-07T13:29:13Z</time>
      </trkpt>
      <trkpt lat="44.50771" lon="4.18072">
        <ele>588.9</ele>
        <time>2018-04-07T13:29:15Z</time>
      </trkpt>
      <trkpt lat="44.50762" lon="4.18079">
        <ele>588.4</ele>
        <time>2018-04-07T13:29:17Z</time>
      </trkpt>
      <trkpt lat="44.50753" lon="4.18084">
        <ele>588</ele>
        <time>2018-04-07T13:29:19Z</time>
      </trkpt>
      <trkpt lat="44.50741" lon="4.18082">
        <ele>587.4</ele>
        <time>2018-04-07T13:29:22Z</time>
      </trkpt>
      <trkpt lat="44.50735" lon="4.18069">
        <ele>586.8</ele>
        <time>2018-04-07T13:29:25Z</time>
      </trkpt>
      <trkpt lat="44.50732" lon="4.18054">
        <ele>586.4</ele>
        <time>2018-04-07T13:29:28Z</time>
      </trkpt>
      <trkpt lat="44.5073" lon="4.1804">
        <ele>586.2</ele>
        <time>2018-04-07T13:29:31Z</time>
      </trkpt>
      <trkpt lat="44.50731" lon="4.18027">
        <ele>586.1</ele>
        <time>2018-04-07T13:29:34Z</time>
      </trkpt>
      <trkpt lat="44.50729" lon="4.18011">
        <ele>586</ele>
        <time>2018-04-07T13:29:37Z</time>
      </trkpt>
      <trkpt lat="44.50727" lon="4.17994">
        <ele>586</ele>
        <time>2018-04-07T13:29:40Z</time>
      </trkpt>
      <trkpt lat="44.50727" lon="4.17977">
        <ele>585.7</ele>
        <time>2018-04-07T13:29:43Z</time>
      </trkpt>
      <trkpt lat="44.50724" lon="4.17962">
        <ele>585.6</ele>
        <time>2018-04-07T13:29:46Z</time>
      </trkpt>
      <trkpt lat="44.50719" lon="4.17947">
        <ele>585.3</ele>
        <time>2018-04-07T13:29:49Z</time>
      </trkpt>
      <trkpt lat="44.50715" lon="4.17934">
        <ele>585.1</ele>
        <time>2018-04-07T13:29:51Z</time>
      </trkpt>
      <trkpt lat="44.50711" lon="4.17919">
        <ele>584.8</ele>
        <time>2018-04-07T13:29:53Z</time>
      </trkpt>
      <trkpt lat="44.50707" lon="4.17902">
        <ele>584.1</ele>
        <time>2018-04-07T13:29:55Z</time>
      </trkpt>
      <trkpt lat="44.50702" lon="4.17886">
        <ele>583.3</ele>
        <time>2018-04-07T13:29:57Z</time>
      </trkpt>
      <trkpt lat="44.50696" lon="4.17864">
        <ele>582.3</ele>
        <time>2018-04-07T13:29:59Z</time>
      </trkpt>
      <trkpt lat="44.50691" lon="4.17843">
        <ele>581.1</ele>
        <time>2018-04-07T13:30:01Z</time>
      </trkpt>
      <trkpt lat="44.50686" lon="4.17823">
        <ele>579.8</ele>
        <time>2018-04-07T13:30:03Z</time>
      </trkpt>
      <trkpt lat="44.50681" lon="4.17802">
        <ele>578.1</ele>
        <time>2018-04-07T13:30:05Z</time>
      </trkpt>
      <trkpt lat="44.50679" lon="4.17789">
        <ele>577.2</ele>
        <time>2018-04-07T13:30:06Z</time>
      </trkpt>
      <trkpt lat="44.50677" lon="4.17765">
        <ele>575.6</ele>
        <time>2018-04-07T13:30:08Z</time>
      </trkpt>
      <trkpt lat="44.50674" lon="4.17746">
        <ele>574.1</ele>
        <time>2018-04-07T13:30:10Z</time>
      </trkpt>
      <trkpt lat="44.50672" lon="4.17731">
        <ele>572.6</ele>
        <time>2018-04-07T13:30:12Z</time>
      </trkpt>
      <trkpt lat="44.50668" lon="4.17717">
        <ele>571.2</ele>
        <time>2018-04-07T13:30:14Z</time>
      </trkpt>
      <trkpt lat="44.50667" lon="4.17703">
        <ele>570</ele>
        <time>2018-04-07T13:30:16Z</time>
      </trkpt>
      <trkpt lat="44.50664" lon="4.1769">
        <ele>569.2</ele>
        <time>2018-04-07T13:30:18Z</time>
      </trkpt>
      <trkpt lat="44.50665" lon="4.17678">
        <ele>568.3</ele>
        <time>2018-04-07T13:30:20Z</time>
      </trkpt>
      <trkpt lat="44.50665" lon="4.17663">
        <ele>567.6</ele>
        <time>2018-04-07T13:30:22Z</time>
      </trkpt>
      <trkpt lat="44.50666" lon="4.1765">
        <ele>566.5</ele>
        <time>2018-04-07T13:30:25Z</time>
      </trkpt>
      <trkpt lat="44.50669" lon="4.17638">
        <ele>565</ele>
        <time>2018-04-07T13:30:37Z</time>
      </trkpt>
      <trkpt lat="44.50669" lon="4.17624">
        <ele>564.2</ele>
        <time>2018-04-07T13:31:01Z</time>
      </trkpt>
      <trkpt lat="44.50666" lon="4.17611">
        <ele>563.5</ele>
        <time>2018-04-07T13:31:05Z</time>
      </trkpt>
      <trkpt lat="44.50669" lon="4.17596">
        <ele>562.8</ele>
        <time>2018-04-07T13:31:09Z</time>
      </trkpt>
      <trkpt lat="44.50668" lon="4.17582">
        <ele>562.3</ele>
        <time>2018-04-07T13:31:12Z</time>
      </trkpt>
      <trkpt lat="44.50667" lon="4.17569">
        <ele>561.5</ele>
        <time>2018-04-07T13:31:15Z</time>
      </trkpt>
      <trkpt lat="44.50667" lon="4.17554">
        <ele>558.8</ele>
        <time>2018-04-07T13:31:21Z</time>
      </trkpt>
      <trkpt lat="44.50668" lon="4.17539">
        <ele>559.7</ele>
        <time>2018-04-07T13:31:24Z</time>
      </trkpt>
      <trkpt lat="44.50669" lon="4.17527">
        <ele>559.3</ele>
        <time>2018-04-07T13:31:27Z</time>
      </trkpt>
      <trkpt lat="44.50664" lon="4.17511">
        <ele>558.5</ele>
        <time>2018-04-07T13:31:30Z</time>
      </trkpt>
      <trkpt lat="44.50659" lon="4.17497">
        <ele>557.5</ele>
        <time>2018-04-07T13:31:33Z</time>
      </trkpt>
      <trkpt lat="44.50653" lon="4.17483">
        <ele>556.2</ele>
        <time>2018-04-07T13:31:36Z</time>
      </trkpt>
      <trkpt lat="44.50649" lon="4.17468">
        <ele>555</ele>
        <time>2018-04-07T13:31:39Z</time>
      </trkpt>
      <trkpt lat="44.50648" lon="4.17451">
        <ele>553.9</ele>
        <time>2018-04-07T13:31:42Z</time>
      </trkpt>
      <trkpt lat="44.50646" lon="4.17433">
        <ele>552.8</ele>
        <time>2018-04-07T13:31:45Z</time>
      </trkpt>
      <trkpt lat="44.50646" lon="4.17415">
        <ele>551.4</ele>
        <time>2018-04-07T13:31:48Z</time>
      </trkpt>
      <trkpt lat="44.50646" lon="4.17402">
        <ele>550.4</ele>
        <time>2018-04-07T13:31:50Z</time>
      </trkpt>
      <trkpt lat="44.50646" lon="4.17388">
        <ele>549.4</ele>
        <time>2018-04-07T13:31:52Z</time>
      </trkpt>
      <trkpt lat="44.50646" lon="4.17374">
        <ele>548.6</ele>
        <time>2018-04-07T13:31:54Z</time>
      </trkpt>
      <trkpt lat="44.50644" lon="4.17359">
        <ele>547.5</ele>
        <time>2018-04-07T13:31:56Z</time>
      </trkpt>
      <trkpt lat="44.50641" lon="4.17347">
        <ele>546.7</ele>
        <time>2018-04-07T13:31:58Z</time>
      </trkpt>
      <trkpt lat="44.50637" lon="4.17334">
        <ele>546</ele>
        <time>2018-04-07T13:32:00Z</time>
      </trkpt>
      <trkpt lat="44.50632" lon="4.17323">
        <ele>545.2</ele>
        <time>2018-04-07T13:32:02Z</time>
      </trkpt>
      <trkpt lat="44.50621" lon="4.17314">
        <ele>544</ele>
        <time>2018-04-07T13:32:05Z</time>
      </trkpt>
      <trkpt lat="44.50609" lon="4.17308">
        <ele>543.7</ele>
        <time>2018-04-07T13:32:08Z</time>
      </trkpt>
      <trkpt lat="44.50598" lon="4.17305">
        <ele>543.4</ele>
        <time>2018-04-07T13:32:11Z</time>
      </trkpt>
      <trkpt lat="44.50588" lon="4.17299">
        <ele>543.3</ele>
        <time>2018-04-07T13:32:14Z</time>
      </trkpt>
      <trkpt lat="44.50577" lon="4.17293">
        <ele>543.7</ele>
        <time>2018-04-07T13:32:17Z</time>
      </trkpt>
      <trkpt lat="44.50566" lon="4.17288">
        <ele>543.8</ele>
        <time>2018-04-07T13:32:20Z</time>
      </trkpt>
      <trkpt lat="44.50556" lon="4.1728">
        <ele>543.7</ele>
        <time>2018-04-07T13:32:23Z</time>
      </trkpt>
      <trkpt lat="44.50546" lon="4.17272">
        <ele>543.5</ele>
        <time>2018-04-07T13:32:26Z</time>
      </trkpt>
      <trkpt lat="44.50534" lon="4.17265">
        <ele>543.3</ele>
        <time>2018-04-07T13:32:30Z</time>
      </trkpt>
      <trkpt lat="44.50525" lon="4.17264">
        <ele>542.9</ele>
        <time>2018-04-07T13:32:33Z</time>
      </trkpt>
      <trkpt lat="44.50515" lon="4.1727">
        <ele>542.5</ele>
        <time>2018-04-07T13:32:36Z</time>
      </trkpt>
      <trkpt lat="44.50506" lon="4.17275">
        <ele>542.1</ele>
        <time>2018-04-07T13:32:39Z</time>
      </trkpt>
      <trkpt lat="44.50495" lon="4.17277">
        <ele>541.8</ele>
        <time>2018-04-07T13:32:42Z</time>
      </trkpt>
      <trkpt lat="44.50484" lon="4.17274">
        <ele>541.3</ele>
        <time>2018-04-07T13:32:45Z</time>
      </trkpt>
      <trkpt lat="44.50473" lon="4.17267">
        <ele>541</ele>
        <time>2018-04-07T13:32:48Z</time>
      </trkpt>
      <trkpt lat="44.50463" lon="4.17257">
        <ele>540.7</ele>
        <time>2018-04-07T13:32:51Z</time>
      </trkpt>
      <trkpt lat="44.50452" lon="4.1725">
        <ele>540.5</ele>
        <time>2018-04-07T13:32:54Z</time>
      </trkpt>
      <trkpt lat="44.50442" lon="4.17247">
        <ele>540.7</ele>
        <time>2018-04-07T13:32:57Z</time>
      </trkpt>
      <trkpt lat="44.50432" lon="4.17246">
        <ele>541</ele>
        <time>2018-04-07T13:33:01Z</time>
      </trkpt>
      <trkpt lat="44.5042" lon="4.17248">
        <ele>542</ele>
        <time>2018-04-07T13:33:06Z</time>
      </trkpt>
      <trkpt lat="44.50411" lon="4.1725">
        <ele>542.7</ele>
        <time>2018-04-07T13:33:10Z</time>
      </trkpt>
      <trkpt lat="44.504" lon="4.17251">
        <ele>543.4</ele>
        <time>2018-04-07T13:33:14Z</time>
      </trkpt>
      <trkpt lat="44.5039" lon="4.17248">
        <ele>544.1</ele>
        <time>2018-04-07T13:33:18Z</time>
      </trkpt>
      <trkpt lat="44.50381" lon="4.17242">
        <ele>544.2</ele>
        <time>2018-04-07T13:33:21Z</time>
      </trkpt>
      <trkpt lat="44.50371" lon="4.17236">
        <ele>544.4</ele>
        <time>2018-04-07T13:33:24Z</time>
      </trkpt>
      <trkpt lat="44.50358" lon="4.17233">
        <ele>544</ele>
        <time>2018-04-07T13:33:27Z</time>
      </trkpt>
      <trkpt lat="44.50347" lon="4.17242">
        <ele>543.4</ele>
        <time>2018-04-07T13:33:30Z</time>
      </trkpt>
      <trkpt lat="44.5034" lon="4.17255">
        <ele>542.9</ele>
        <time>2018-04-07T13:33:33Z</time>
      </trkpt>
      <trkpt lat="44.50338" lon="4.17267">
        <ele>542.7</ele>
        <time>2018-04-07T13:33:36Z</time>
      </trkpt>
      <trkpt lat="44.50336" lon="4.1728">
        <ele>542.7</ele>
        <time>2018-04-07T13:33:39Z</time>
      </trkpt>
      <trkpt lat="44.50331" lon="4.17292">
        <ele>543</ele>
        <time>2018-04-07T13:33:42Z</time>
      </trkpt>
      <trkpt lat="44.50323" lon="4.173">
        <ele>543.2</ele>
        <time>2018-04-07T13:33:45Z</time>
      </trkpt>
      <trkpt lat="44.50314" lon="4.17306">
        <ele>543.5</ele>
        <time>2018-04-07T13:33:48Z</time>
      </trkpt>
      <trkpt lat="44.50305" lon="4.1731">
        <ele>543.6</ele>
        <time>2018-04-07T13:33:51Z</time>
      </trkpt>
      <trkpt lat="44.50295" lon="4.17311">
        <ele>544</ele>
        <time>2018-04-07T13:33:55Z</time>
      </trkpt>
      <trkpt lat="44.50286" lon="4.17311">
        <ele>544.7</ele>
        <time>2018-04-07T13:33:59Z</time>
      </trkpt>
      <trkpt lat="44.50276" lon="4.17306">
        <ele>545.8</ele>
        <time>2018-04-07T13:34:06Z</time>
      </trkpt>
      <trkpt lat="44.50267" lon="4.17299">
        <ele>543.7</ele>
        <time>2018-04-07T13:34:13Z</time>
      </trkpt>
      <trkpt lat="44.50259" lon="4.17292">
        <ele>546.6</ele>
        <time>2018-04-07T13:34:18Z</time>
      </trkpt>
      <trkpt lat="44.5025" lon="4.17285">
        <ele>548</ele>
        <time>2018-04-07T13:34:24Z</time>
      </trkpt>
      <trkpt lat="44.50241" lon="4.17281">
        <ele>548.5</ele>
        <time>2018-04-07T13:34:29Z</time>
      </trkpt>
      <trkpt lat="44.50233" lon="4.17275">
        <ele>549.2</ele>
        <time>2018-04-07T13:34:35Z</time>
      </trkpt>
      <trkpt lat="44.50223" lon="4.17267">
        <ele>549.4</ele>
        <time>2018-04-07T13:34:40Z</time>
      </trkpt>
      <trkpt lat="44.50225" lon="4.17281">
        <ele>547.3</ele>
        <time>2018-04-07T13:34:49Z</time>
      </trkpt>
      <trkpt lat="44.50217" lon="4.17291">
        <ele>545</ele>
        <time>2018-04-07T13:34:54Z</time>
      </trkpt>
      <trkpt lat="44.50205" lon="4.17292">
        <ele>543.5</ele>
        <time>2018-04-07T13:34:57Z</time>
      </trkpt>
      <trkpt lat="44.50194" lon="4.17294">
        <ele>541.9</ele>
        <time>2018-04-07T13:35:00Z</time>
      </trkpt>
      <trkpt lat="44.50182" lon="4.17296">
        <ele>540.7</ele>
        <time>2018-04-07T13:35:03Z</time>
      </trkpt>
      <trkpt lat="44.5018" lon="4.17308">
        <ele>538.8</ele>
        <time>2018-04-07T13:35:08Z</time>
      </trkpt>
      <trkpt lat="44.50188" lon="4.17314">
        <ele>538</ele>
        <time>2018-04-07T13:35:11Z</time>
      </trkpt>
      <trkpt lat="44.50198" lon="4.17317">
        <ele>537</ele>
        <time>2018-04-07T13:35:15Z</time>
      </trkpt>
      <trkpt lat="44.50207" lon="4.17317">
        <ele>536.5</ele>
        <time>2018-04-07T13:35:18Z</time>
      </trkpt>
      <trkpt lat="44.50217" lon="4.17317">
        <ele>536</ele>
        <time>2018-04-07T13:35:21Z</time>
      </trkpt>
      <trkpt lat="44.5023" lon="4.17316">
        <ele>535</ele>
        <time>2018-04-07T13:35:25Z</time>
      </trkpt>
      <trkpt lat="44.50223" lon="4.17325">
        <ele>530.9</ele>
        <time>2018-04-07T13:35:35Z</time>
      </trkpt>
      <trkpt lat="44.50214" lon="4.17332">
        <ele>530.1</ele>
        <time>2018-04-07T13:35:37Z</time>
      </trkpt>
      <trkpt lat="44.50205" lon="4.1734">
        <ele>529.3</ele>
        <time>2018-04-07T13:35:39Z</time>
      </trkpt>
      <trkpt lat="44.50197" lon="4.17349">
        <ele>528.1</ele>
        <time>2018-04-07T13:35:41Z</time>
      </trkpt>
      <trkpt lat="44.5019" lon="4.17358">
        <ele>527.2</ele>
        <time>2018-04-07T13:35:43Z</time>
      </trkpt>
      <trkpt lat="44.5018" lon="4.17369">
        <ele>526.1</ele>
        <time>2018-04-07T13:35:45Z</time>
      </trkpt>
      <trkpt lat="44.5017" lon="4.17379">
        <ele>525</ele>
        <time>2018-04-07T13:35:47Z</time>
      </trkpt>
      <trkpt lat="44.5016" lon="4.17387">
        <ele>523.5</ele>
        <time>2018-04-07T13:35:49Z</time>
      </trkpt>
      <trkpt lat="44.5015" lon="4.17391">
        <ele>522.2</ele>
        <time>2018-04-07T13:35:51Z</time>
      </trkpt>
      <trkpt lat="44.5014" lon="4.17394">
        <ele>521.2</ele>
        <time>2018-04-07T13:35:53Z</time>
      </trkpt>
      <trkpt lat="44.5013" lon="4.1739">
        <ele>519.1</ele>
        <time>2018-04-07T13:35:56Z</time>
      </trkpt>
      <trkpt lat="44.50121" lon="4.17377">
        <ele>517.1</ele>
        <time>2018-04-07T13:35:59Z</time>
      </trkpt>
      <trkpt lat="44.50114" lon="4.17369">
        <ele>515.6</ele>
        <time>2018-04-07T13:36:02Z</time>
      </trkpt>
      <trkpt lat="44.5011" lon="4.17382">
        <ele>513.3</ele>
        <time>2018-04-07T13:36:06Z</time>
      </trkpt>
      <trkpt lat="44.5011" lon="4.17397">
        <ele>512.1</ele>
        <time>2018-04-07T13:36:09Z</time>
      </trkpt>
      <trkpt lat="44.50112" lon="4.17413">
        <ele>510.5</ele>
        <time>2018-04-07T13:36:12Z</time>
      </trkpt>
      <trkpt lat="44.50114" lon="4.17429">
        <ele>509.2</ele>
        <time>2018-04-07T13:36:15Z</time>
      </trkpt>
      <trkpt lat="44.50121" lon="4.17443">
        <ele>508.2</ele>
        <time>2018-04-07T13:36:18Z</time>
      </trkpt>
      <trkpt lat="44.5013" lon="4.17451">
        <ele>507.7</ele>
        <time>2018-04-07T13:36:20Z</time>
      </trkpt>
      <trkpt lat="44.50139" lon="4.17454">
        <ele>507.3</ele>
        <time>2018-04-07T13:36:22Z</time>
      </trkpt>
      <trkpt lat="44.50149" lon="4.17453">
        <ele>506.6</ele>
        <time>2018-04-07T13:36:24Z</time>
      </trkpt>
      <trkpt lat="44.50159" lon="4.17449">
        <ele>505.8</ele>
        <time>2018-04-07T13:36:26Z</time>
      </trkpt>
      <trkpt lat="44.50168" lon="4.17441">
        <ele>504</ele>
        <time>2018-04-07T13:36:30Z</time>
      </trkpt>
      <trkpt lat="44.50166" lon="4.17454">
        <ele>502</ele>
        <time>2018-04-07T13:36:35Z</time>
      </trkpt>
      <trkpt lat="44.50163" lon="4.17466">
        <ele>500.1</ele>
        <time>2018-04-07T13:36:38Z</time>
      </trkpt>
      <trkpt lat="44.50155" lon="4.17478">
        <ele>498.7</ele>
        <time>2018-04-07T13:36:40Z</time>
      </trkpt>
      <trkpt lat="44.50148" lon="4.17488">
        <ele>497.6</ele>
        <time>2018-04-07T13:36:42Z</time>
      </trkpt>
      <trkpt lat="44.5014" lon="4.17495">
        <ele>496.4</ele>
        <time>2018-04-07T13:36:44Z</time>
      </trkpt>
      <trkpt lat="44.50132" lon="4.17501">
        <ele>494.8</ele>
        <time>2018-04-07T13:36:46Z</time>
      </trkpt>
      <trkpt lat="44.50122" lon="4.17504">
        <ele>493.6</ele>
        <time>2018-04-07T13:36:48Z</time>
      </trkpt>
      <trkpt lat="44.50111" lon="4.17504">
        <ele>492.1</ele>
        <time>2018-04-07T13:36:50Z</time>
      </trkpt>
      <trkpt lat="44.50102" lon="4.17502">
        <ele>490.6</ele>
        <time>2018-04-07T13:36:52Z</time>
      </trkpt>
      <trkpt lat="44.50093" lon="4.17498">
        <ele>489.4</ele>
        <time>2018-04-07T13:36:54Z</time>
      </trkpt>
      <trkpt lat="44.50081" lon="4.17497">
        <ele>487.6</ele>
        <time>2018-04-07T13:36:57Z</time>
      </trkpt>
      <trkpt lat="44.5007" lon="4.17496">
        <ele>485.9</ele>
        <time>2018-04-07T13:37:00Z</time>
      </trkpt>
      <trkpt lat="44.50058" lon="4.17498">
        <ele>484.8</ele>
        <time>2018-04-07T13:37:03Z</time>
      </trkpt>
      <trkpt lat="44.50049" lon="4.17497">
        <ele>484</ele>
        <time>2018-04-07T13:37:05Z</time>
      </trkpt>
      <trkpt lat="44.50039" lon="4.17498">
        <ele>483.2</ele>
        <time>2018-04-07T13:37:07Z</time>
      </trkpt>
      <trkpt lat="44.50029" lon="4.175">
        <ele>482.6</ele>
        <time>2018-04-07T13:37:09Z</time>
      </trkpt>
      <trkpt lat="44.50019" lon="4.17499">
        <ele>481.8</ele>
        <time>2018-04-07T13:37:11Z</time>
      </trkpt>
      <trkpt lat="44.50007" lon="4.17502">
        <ele>481.1</ele>
        <time>2018-04-07T13:37:13Z</time>
      </trkpt>
      <trkpt lat="44.49997" lon="4.17506">
        <ele>480.3</ele>
        <time>2018-04-07T13:37:15Z</time>
      </trkpt>
      <trkpt lat="44.49988" lon="4.17512">
        <ele>479.4</ele>
        <time>2018-04-07T13:37:17Z</time>
      </trkpt>
      <trkpt lat="44.49979" lon="4.1752">
        <ele>479</ele>
        <time>2018-04-07T13:37:19Z</time>
      </trkpt>
      <trkpt lat="44.49972" lon="4.17528">
        <ele>478.5</ele>
        <time>2018-04-07T13:37:21Z</time>
      </trkpt>
      <trkpt lat="44.49963" lon="4.17536">
        <ele>477.6</ele>
        <time>2018-04-07T13:37:23Z</time>
      </trkpt>
      <trkpt lat="44.49956" lon="4.17544">
        <ele>477.1</ele>
        <time>2018-04-07T13:37:25Z</time>
      </trkpt>
      <trkpt lat="44.49948" lon="4.17552">
        <ele>476.7</ele>
        <time>2018-04-07T13:37:27Z</time>
      </trkpt>
      <trkpt lat="44.49938" lon="4.17562">
        <ele>476.2</ele>
        <time>2018-04-07T13:37:30Z</time>
      </trkpt>
      <trkpt lat="44.49931" lon="4.17576">
        <ele>475.6</ele>
        <time>2018-04-07T13:37:33Z</time>
      </trkpt>
      <trkpt lat="44.49925" lon="4.17587">
        <ele>475.3</ele>
        <time>2018-04-07T13:37:35Z</time>
      </trkpt>
      <trkpt lat="44.4992" lon="4.176">
        <ele>474.9</ele>
        <time>2018-04-07T13:37:37Z</time>
      </trkpt>
      <trkpt lat="44.49915" lon="4.17614">
        <ele>474.3</ele>
        <time>2018-04-07T13:37:39Z</time>
      </trkpt>
      <trkpt lat="44.49911" lon="4.17629">
        <ele>473.3</ele>
        <time>2018-04-07T13:37:41Z</time>
      </trkpt>
      <trkpt lat="44.49905" lon="4.17642">
        <ele>472.7</ele>
        <time>2018-04-07T13:37:43Z</time>
      </trkpt>
      <trkpt lat="44.49899" lon="4.17655">
        <ele>472.2</ele>
        <time>2018-04-07T13:37:45Z</time>
      </trkpt>
      <trkpt lat="44.49894" lon="4.17666">
        <ele>471.7</ele>
        <time>2018-04-07T13:37:47Z</time>
      </trkpt>
      <trkpt lat="44.49886" lon="4.17679">
        <ele>471.3</ele>
        <time>2018-04-07T13:37:50Z</time>
      </trkpt>
      <trkpt lat="44.49885" lon="4.17693">
        <ele>470.6</ele>
        <time>2018-04-07T13:37:53Z</time>
      </trkpt>
      <trkpt lat="44.49889" lon="4.17707">
        <ele>470.4</ele>
        <time>2018-04-07T13:37:57Z</time>
      </trkpt>
      <trkpt lat="44.49899" lon="4.17717">
        <ele>470.3</ele>
        <time>2018-04-07T13:38:01Z</time>
      </trkpt>
      <trkpt lat="44.49907" lon="4.17723">
        <ele>469.9</ele>
        <time>2018-04-07T13:38:04Z</time>
      </trkpt>
      <trkpt lat="44.49916" lon="4.17729">
        <ele>469.4</ele>
        <time>2018-04-07T13:38:07Z</time>
      </trkpt>
      <trkpt lat="44.49924" lon="4.17739">
        <ele>469.1</ele>
        <time>2018-04-07T13:38:10Z</time>
      </trkpt>
      <trkpt lat="44.4993" lon="4.17752">
        <ele>468.3</ele>
        <time>2018-04-07T13:38:13Z</time>
      </trkpt>
      <trkpt lat="44.49935" lon="4.17767">
        <ele>468.1</ele>
        <time>2018-04-07T13:38:16Z</time>
      </trkpt>
      <trkpt lat="44.49943" lon="4.1776">
        <ele>466.8</ele>
        <time>2018-04-07T13:38:23Z</time>
      </trkpt>
      <trkpt lat="44.49946" lon="4.17745">
        <ele>466.5</ele>
        <time>2018-04-07T13:38:26Z</time>
      </trkpt>
      <trkpt lat="44.49951" lon="4.17731">
        <ele>466.2</ele>
        <time>2018-04-07T13:38:29Z</time>
      </trkpt>
      <trkpt lat="44.49956" lon="4.17718">
        <ele>465.9</ele>
        <time>2018-04-07T13:38:32Z</time>
      </trkpt>
      <trkpt lat="44.4996" lon="4.17706">
        <ele>465.5</ele>
        <time>2018-04-07T13:38:35Z</time>
      </trkpt>
      <trkpt lat="44.49966" lon="4.17694">
        <ele>465.5</ele>
        <time>2018-04-07T13:38:38Z</time>
      </trkpt>
      <trkpt lat="44.49971" lon="4.17683">
        <ele>465.1</ele>
        <time>2018-04-07T13:38:41Z</time>
      </trkpt>
      <trkpt lat="44.49979" lon="4.17675">
        <ele>464.7</ele>
        <time>2018-04-07T13:38:44Z</time>
      </trkpt>
      <trkpt lat="44.49987" lon="4.17669">
        <ele>464.3</ele>
        <time>2018-04-07T13:38:48Z</time>
      </trkpt>
      <trkpt lat="44.49996" lon="4.17664">
        <ele>463.8</ele>
        <time>2018-04-07T13:38:55Z</time>
      </trkpt>
      <trkpt lat="44.50006" lon="4.17657">
        <ele>463.3</ele>
        <time>2018-04-07T13:38:59Z</time>
      </trkpt>
      <trkpt lat="44.50014" lon="4.17652">
        <ele>462.9</ele>
        <time>2018-04-07T13:39:02Z</time>
      </trkpt>
      <trkpt lat="44.50026" lon="4.17648">
        <ele>462.6</ele>
        <time>2018-04-07T13:39:06Z</time>
      </trkpt>
      <trkpt lat="44.50035" lon="4.17642">
        <ele>462.3</ele>
        <time>2018-04-07T13:39:09Z</time>
      </trkpt>
      <trkpt lat="44.50043" lon="4.17634">
        <ele>461.8</ele>
        <time>2018-04-07T13:39:12Z</time>
      </trkpt>
      <trkpt lat="44.50051" lon="4.17625">
        <ele>461.6</ele>
        <time>2018-04-07T13:39:16Z</time>
      </trkpt>
      <trkpt lat="44.50057" lon="4.17616">
        <ele>461.4</ele>
        <time>2018-04-07T13:39:19Z</time>
      </trkpt>
      <trkpt lat="44.50065" lon="4.17607">
        <ele>461.2</ele>
        <time>2018-04-07T13:39:22Z</time>
      </trkpt>
      <trkpt lat="44.50073" lon="4.176">
        <ele>460.8</ele>
        <time>2018-04-07T13:39:26Z</time>
      </trkpt>
      <trkpt lat="44.50084" lon="4.17593">
        <ele>460.3</ele>
        <time>2018-04-07T13:39:29Z</time>
      </trkpt>
      <trkpt lat="44.50095" lon="4.17586">
        <ele>459.7</ele>
        <time>2018-04-07T13:39:33Z</time>
      </trkpt>
      <trkpt lat="44.50106" lon="4.17587">
        <ele>459.3</ele>
        <time>2018-04-07T13:39:36Z</time>
      </trkpt>
      <trkpt lat="44.5012" lon="4.17587">
        <ele>459.1</ele>
        <time>2018-04-07T13:39:39Z</time>
      </trkpt>
      <trkpt lat="44.50129" lon="4.17586">
        <ele>458.9</ele>
        <time>2018-04-07T13:39:41Z</time>
      </trkpt>
      <trkpt lat="44.50141" lon="4.17584">
        <ele>458.4</ele>
        <time>2018-04-07T13:39:44Z</time>
      </trkpt>
      <trkpt lat="44.5015" lon="4.17583">
        <ele>458.1</ele>
        <time>2018-04-07T13:39:46Z</time>
      </trkpt>
      <trkpt lat="44.50161" lon="4.17581">
        <ele>457.6</ele>
        <time>2018-04-07T13:39:48Z</time>
      </trkpt>
      <trkpt lat="44.5017" lon="4.17578">
        <ele>457.3</ele>
        <time>2018-04-07T13:39:50Z</time>
      </trkpt>
      <trkpt lat="44.50179" lon="4.17575">
        <ele>457</ele>
        <time>2018-04-07T13:39:52Z</time>
      </trkpt>
      <trkpt lat="44.50192" lon="4.1757">
        <ele>456.7</ele>
        <time>2018-04-07T13:39:55Z</time>
      </trkpt>
      <trkpt lat="44.50202" lon="4.17564">
        <ele>456.5</ele>
        <time>2018-04-07T13:39:57Z</time>
      </trkpt>
      <trkpt lat="44.50209" lon="4.17555">
        <ele>456.4</ele>
        <time>2018-04-07T13:39:59Z</time>
      </trkpt>
      <trkpt lat="44.50215" lon="4.17544">
        <ele>456.2</ele>
        <time>2018-04-07T13:40:01Z</time>
      </trkpt>
      <trkpt lat="44.5022" lon="4.17532">
        <ele>455.9</ele>
        <time>2018-04-07T13:40:03Z</time>
      </trkpt>
      <trkpt lat="44.50225" lon="4.17519">
        <ele>455.7</ele>
        <time>2018-04-07T13:40:06Z</time>
      </trkpt>
      <trkpt lat="44.50231" lon="4.17508">
        <ele>455.5</ele>
        <time>2018-04-07T13:40:09Z</time>
      </trkpt>
      <trkpt lat="44.50241" lon="4.17507">
        <ele>455.1</ele>
        <time>2018-04-07T13:40:11Z</time>
      </trkpt>
      <trkpt lat="44.5025" lon="4.17509">
        <ele>455.1</ele>
        <time>2018-04-07T13:40:13Z</time>
      </trkpt>
      <trkpt lat="44.50261" lon="4.17511">
        <ele>455.1</ele>
        <time>2018-04-07T13:40:15Z</time>
      </trkpt>
      <trkpt lat="44.50275" lon="4.17515">
        <ele>455.1</ele>
        <time>2018-04-07T13:40:18Z</time>
      </trkpt>
      <trkpt lat="44.50284" lon="4.1752">
        <ele>455.1</ele>
        <time>2018-04-07T13:40:20Z</time>
      </trkpt>
      <trkpt lat="44.50295" lon="4.17527">
        <ele>455</ele>
        <time>2018-04-07T13:40:23Z</time>
      </trkpt>
      <trkpt lat="44.50305" lon="4.17535">
        <ele>454.9</ele>
        <time>2018-04-07T13:40:25Z</time>
      </trkpt>
      <trkpt lat="44.50314" lon="4.17539">
        <ele>454.8</ele>
        <time>2018-04-07T13:40:27Z</time>
      </trkpt>
      <trkpt lat="44.50324" lon="4.17539">
        <ele>454.6</ele>
        <time>2018-04-07T13:40:30Z</time>
      </trkpt>
      <trkpt lat="44.50335" lon="4.17538">
        <ele>454.5</ele>
        <time>2018-04-07T13:40:32Z</time>
      </trkpt>
      <trkpt lat="44.50344" lon="4.17538">
        <ele>454.4</ele>
        <time>2018-04-07T13:40:35Z</time>
      </trkpt>
      <trkpt lat="44.50356" lon="4.17536">
        <ele>454.4</ele>
        <time>2018-04-07T13:40:37Z</time>
      </trkpt>
      <trkpt lat="44.50365" lon="4.17534">
        <ele>454.3</ele>
        <time>2018-04-07T13:40:39Z</time>
      </trkpt>
      <trkpt lat="44.50375" lon="4.1753">
        <ele>454.3</ele>
        <time>2018-04-07T13:40:41Z</time>
      </trkpt>
      <trkpt lat="44.50384" lon="4.17527">
        <ele>454.2</ele>
        <time>2018-04-07T13:40:43Z</time>
      </trkpt>
      <trkpt lat="44.50394" lon="4.17521">
        <ele>454.4</ele>
        <time>2018-04-07T13:40:46Z</time>
      </trkpt>
      <trkpt lat="44.50404" lon="4.17513">
        <ele>454.5</ele>
        <time>2018-04-07T13:40:49Z</time>
      </trkpt>
      <trkpt lat="44.50411" lon="4.17505">
        <ele>454.5</ele>
        <time>2018-04-07T13:40:51Z</time>
      </trkpt>
      <trkpt lat="44.50417" lon="4.17495">
        <ele>454.5</ele>
        <time>2018-04-07T13:40:53Z</time>
      </trkpt>
      <trkpt lat="44.50423" lon="4.17483">
        <ele>454.4</ele>
        <time>2018-04-07T13:40:56Z</time>
      </trkpt>
      <trkpt lat="44.50433" lon="4.17478">
        <ele>454.4</ele>
        <time>2018-04-07T13:40:58Z</time>
      </trkpt>
      <trkpt lat="44.50443" lon="4.17483">
        <ele>454.4</ele>
        <time>2018-04-07T13:41:01Z</time>
      </trkpt>
      <trkpt lat="44.50451" lon="4.17493">
        <ele>454.2</ele>
        <time>2018-04-07T13:41:04Z</time>
      </trkpt>
      <trkpt lat="44.50461" lon="4.17499">
        <ele>454.2</ele>
        <time>2018-04-07T13:41:07Z</time>
      </trkpt>
      <trkpt lat="44.50473" lon="4.17497">
        <ele>454.2</ele>
        <time>2018-04-07T13:41:10Z</time>
      </trkpt>
      <trkpt lat="44.50482" lon="4.17503">
        <ele>454.2</ele>
        <time>2018-04-07T13:41:13Z</time>
      </trkpt>
      <trkpt lat="44.50482" lon="4.17515">
        <ele>454.4</ele>
        <time>2018-04-07T13:41:17Z</time>
      </trkpt>
      <trkpt lat="44.50477" lon="4.17528">
        <ele>454.4</ele>
        <time>2018-04-07T13:41:20Z</time>
      </trkpt>
      <trkpt lat="44.50471" lon="4.17543">
        <ele>454.3</ele>
        <time>2018-04-07T13:41:24Z</time>
      </trkpt>
      <trkpt lat="44.5047" lon="4.1756">
        <ele>454.5</ele>
        <time>2018-04-07T13:41:27Z</time>
      </trkpt>
      <trkpt lat="44.5047" lon="4.17575">
        <ele>454.7</ele>
        <time>2018-04-07T13:41:30Z</time>
      </trkpt>
      <trkpt lat="44.50469" lon="4.17591">
        <ele>454.7</ele>
        <time>2018-04-07T13:41:34Z</time>
      </trkpt>
      <trkpt lat="44.50468" lon="4.17605">
        <ele>454.8</ele>
        <time>2018-04-07T13:41:38Z</time>
      </trkpt>
      <trkpt lat="44.50468" lon="4.17618">
        <ele>454.9</ele>
        <time>2018-04-07T13:41:41Z</time>
      </trkpt>
      <trkpt lat="44.50463" lon="4.17633">
        <ele>455.5</ele>
        <time>2018-04-07T13:41:45Z</time>
      </trkpt>
      <trkpt lat="44.50458" lon="4.17649">
        <ele>455.9</ele>
        <time>2018-04-07T13:41:49Z</time>
      </trkpt>
      <trkpt lat="44.50453" lon="4.17662">
        <ele>456.2</ele>
        <time>2018-04-07T13:41:52Z</time>
      </trkpt>
      <trkpt lat="44.50449" lon="4.17673">
        <ele>456.4</ele>
        <time>2018-04-07T13:41:55Z</time>
      </trkpt>
      <trkpt lat="44.50443" lon="4.17687">
        <ele>456.8</ele>
        <time>2018-04-07T13:41:59Z</time>
      </trkpt>
      <trkpt lat="44.50439" lon="4.177">
        <ele>457.4</ele>
        <time>2018-04-07T13:42:03Z</time>
      </trkpt>
      <trkpt lat="44.50435" lon="4.17714">
        <ele>457.9</ele>
        <time>2018-04-07T13:42:07Z</time>
      </trkpt>
      <trkpt lat="44.5043" lon="4.17727">
        <ele>458.6</ele>
        <time>2018-04-07T13:42:11Z</time>
      </trkpt>
      <trkpt lat="44.50427" lon="4.1774">
        <ele>459.1</ele>
        <time>2018-04-07T13:42:15Z</time>
      </trkpt>
      <trkpt lat="44.50424" lon="4.17754">
        <ele>459.7</ele>
        <time>2018-04-07T13:42:19Z</time>
      </trkpt>
      <trkpt lat="44.5042" lon="4.17769">
        <ele>460</ele>
        <time>2018-04-07T13:42:23Z</time>
      </trkpt>
      <trkpt lat="44.50415" lon="4.17782">
        <ele>460.4</ele>
        <time>2018-04-07T13:42:27Z</time>
      </trkpt>
      <trkpt lat="44.50411" lon="4.17794">
        <ele>460.9</ele>
        <time>2018-04-07T13:42:31Z</time>
      </trkpt>
      <trkpt lat="44.50411" lon="4.17809">
        <ele>461.6</ele>
        <time>2018-04-07T13:42:35Z</time>
      </trkpt>
      <trkpt lat="44.50412" lon="4.17822">
        <ele>462.3</ele>
        <time>2018-04-07T13:42:39Z</time>
      </trkpt>
      <trkpt lat="44.50413" lon="4.17836">
        <ele>462.9</ele>
        <time>2018-04-07T13:42:43Z</time>
      </trkpt>
      <trkpt lat="44.50418" lon="4.17849">
        <ele>463.6</ele>
        <time>2018-04-07T13:42:47Z</time>
      </trkpt>
      <trkpt lat="44.50421" lon="4.17863">
        <ele>464.1</ele>
        <time>2018-04-07T13:42:51Z</time>
      </trkpt>
      <trkpt lat="44.50425" lon="4.17876">
        <ele>464.9</ele>
        <time>2018-04-07T13:42:55Z</time>
      </trkpt>
      <trkpt lat="44.50428" lon="4.1789">
        <ele>465.2</ele>
        <time>2018-04-07T13:42:59Z</time>
      </trkpt>
      <trkpt lat="44.50433" lon="4.17905">
        <ele>465.9</ele>
        <time>2018-04-07T13:43:03Z</time>
      </trkpt>
      <trkpt lat="44.50438" lon="4.17918">
        <ele>466.5</ele>
        <time>2018-04-07T13:43:07Z</time>
      </trkpt>
      <trkpt lat="44.50443" lon="4.17931">
        <ele>467.2</ele>
        <time>2018-04-07T13:43:11Z</time>
      </trkpt>
      <trkpt lat="44.50448" lon="4.17944">
        <ele>468.1</ele>
        <time>2018-04-07T13:43:15Z</time>
      </trkpt>
      <trkpt lat="44.50454" lon="4.17958">
        <ele>468.6</ele>
        <time>2018-04-07T13:43:19Z</time>
      </trkpt>
      <trkpt lat="44.50461" lon="4.17967">
        <ele>469</ele>
        <time>2018-04-07T13:43:22Z</time>
      </trkpt>
      <trkpt lat="44.50467" lon="4.17977">
        <ele>469.2</ele>
        <time>2018-04-07T13:43:25Z</time>
      </trkpt>
      <trkpt lat="44.50476" lon="4.17987">
        <ele>469.3</ele>
        <time>2018-04-07T13:43:28Z</time>
      </trkpt>
      <trkpt lat="44.50485" lon="4.17995">
        <ele>469.4</ele>
        <time>2018-04-07T13:43:31Z</time>
      </trkpt>
      <trkpt lat="44.50493" lon="4.18003">
        <ele>469.6</ele>
        <time>2018-04-07T13:43:34Z</time>
      </trkpt>
      <trkpt lat="44.50501" lon="4.18012">
        <ele>469.9</ele>
        <time>2018-04-07T13:43:37Z</time>
      </trkpt>
      <trkpt lat="44.50508" lon="4.18024">
        <ele>470.4</ele>
        <time>2018-04-07T13:43:41Z</time>
      </trkpt>
      <trkpt lat="44.50513" lon="4.18037">
        <ele>470.9</ele>
        <time>2018-04-07T13:43:45Z</time>
      </trkpt>
      <trkpt lat="44.50517" lon="4.1805">
        <ele>471.4</ele>
        <time>2018-04-07T13:43:48Z</time>
      </trkpt>
      <trkpt lat="44.50521" lon="4.18063">
        <ele>471.6</ele>
        <time>2018-04-07T13:43:51Z</time>
      </trkpt>
      <trkpt lat="44.50522" lon="4.18077">
        <ele>471.7</ele>
        <time>2018-04-07T13:43:54Z</time>
      </trkpt>
      <trkpt lat="44.50522" lon="4.18092">
        <ele>472</ele>
        <time>2018-04-07T13:43:57Z</time>
      </trkpt>
      <trkpt lat="44.5052" lon="4.18107">
        <ele>472.2</ele>
        <time>2018-04-07T13:44:00Z</time>
      </trkpt>
      <trkpt lat="44.50519" lon="4.18122">
        <ele>472.2</ele>
        <time>2018-04-07T13:44:03Z</time>
      </trkpt>
      <trkpt lat="44.50517" lon="4.18137">
        <ele>472</ele>
        <time>2018-04-07T13:44:06Z</time>
      </trkpt>
      <trkpt lat="44.50513" lon="4.18151">
        <ele>471.7</ele>
        <time>2018-04-07T13:44:09Z</time>
      </trkpt>
      <trkpt lat="44.50509" lon="4.18166">
        <ele>471.1</ele>
        <time>2018-04-07T13:44:12Z</time>
      </trkpt>
      <trkpt lat="44.50507" lon="4.18182">
        <ele>470.8</ele>
        <time>2018-04-07T13:44:15Z</time>
      </trkpt>
      <trkpt lat="44.50506" lon="4.18201">
        <ele>471</ele>
        <time>2018-04-07T13:44:18Z</time>
      </trkpt>
      <trkpt lat="44.50507" lon="4.18219">
        <ele>470.8</ele>
        <time>2018-04-07T13:44:21Z</time>
      </trkpt>
      <trkpt lat="44.5051" lon="4.18231">
        <ele>470.2</ele>
        <time>2018-04-07T13:44:23Z</time>
      </trkpt>
      <trkpt lat="44.50514" lon="4.18249">
        <ele>469.8</ele>
        <time>2018-04-07T13:44:26Z</time>
      </trkpt>
      <trkpt lat="44.50519" lon="4.18261">
        <ele>469.6</ele>
        <time>2018-04-07T13:44:28Z</time>
      </trkpt>
      <trkpt lat="44.50524" lon="4.18273">
        <ele>469.4</ele>
        <time>2018-04-07T13:44:30Z</time>
      </trkpt>
      <trkpt lat="44.50527" lon="4.18286">
        <ele>469.1</ele>
        <time>2018-04-07T13:44:32Z</time>
      </trkpt>
      <trkpt lat="44.50526" lon="4.18305">
        <ele>468.5</ele>
        <time>2018-04-07T13:44:35Z</time>
      </trkpt>
      <trkpt lat="44.50527" lon="4.18319">
        <ele>468.2</ele>
        <time>2018-04-07T13:44:37Z</time>
      </trkpt>
      <trkpt lat="44.50528" lon="4.18332">
        <ele>467.9</ele>
        <time>2018-04-07T13:44:39Z</time>
      </trkpt>
      <trkpt lat="44.5053" lon="4.18345">
        <ele>467.6</ele>
        <time>2018-04-07T13:44:41Z</time>
      </trkpt>
      <trkpt lat="44.50533" lon="4.18363">
        <ele>467.2</ele>
        <time>2018-04-07T13:44:44Z</time>
      </trkpt>
      <trkpt lat="44.50535" lon="4.18376">
        <ele>467.3</ele>
        <time>2018-04-07T13:44:46Z</time>
      </trkpt>
      <trkpt lat="44.50538" lon="4.18389">
        <ele>467.3</ele>
        <time>2018-04-07T13:44:48Z</time>
      </trkpt>
      <trkpt lat="44.50541" lon="4.18403">
        <ele>467.1</ele>
        <time>2018-04-07T13:44:50Z</time>
      </trkpt>
      <trkpt lat="44.50544" lon="4.18416">
        <ele>467</ele>
        <time>2018-04-07T13:44:52Z</time>
      </trkpt>
      <trkpt lat="44.50548" lon="4.18427">
        <ele>466.8</ele>
        <time>2018-04-07T13:44:54Z</time>
      </trkpt>
      <trkpt lat="44.50552" lon="4.1844">
        <ele>466.8</ele>
        <time>2018-04-07T13:44:56Z</time>
      </trkpt>
      <trkpt lat="44.50552" lon="4.18452">
        <ele>466.9</ele>
        <time>2018-04-07T13:44:58Z</time>
      </trkpt>
      <trkpt lat="44.50552" lon="4.18465">
        <ele>467</ele>
        <time>2018-04-07T13:45:00Z</time>
      </trkpt>
      <trkpt lat="44.50551" lon="4.18479">
        <ele>466.9</ele>
        <time>2018-04-07T13:45:02Z</time>
      </trkpt>
      <trkpt lat="44.5055" lon="4.18493">
        <ele>466.8</ele>
        <time>2018-04-07T13:45:04Z</time>
      </trkpt>
      <trkpt lat="44.50548" lon="4.18508">
        <ele>466.5</ele>
        <time>2018-04-07T13:45:06Z</time>
      </trkpt>
      <trkpt lat="44.50545" lon="4.18523">
        <ele>466.2</ele>
        <time>2018-04-07T13:45:08Z</time>
      </trkpt>
      <trkpt lat="44.50543" lon="4.18539">
        <ele>466</ele>
        <time>2018-04-07T13:45:10Z</time>
      </trkpt>
      <trkpt lat="44.50542" lon="4.18556">
        <ele>465.6</ele>
        <time>2018-04-07T13:45:12Z</time>
      </trkpt>
      <trkpt lat="44.50541" lon="4.18573">
        <ele>465.1</ele>
        <time>2018-04-07T13:45:14Z</time>
      </trkpt>
      <trkpt lat="44.5054" lon="4.1859">
        <ele>464.5</ele>
        <time>2018-04-07T13:45:16Z</time>
      </trkpt>
      <trkpt lat="44.5054" lon="4.18607">
        <ele>463.9</ele>
        <time>2018-04-07T13:45:18Z</time>
      </trkpt>
      <trkpt lat="44.5054" lon="4.18621">
        <ele>463.5</ele>
        <time>2018-04-07T13:45:20Z</time>
      </trkpt>
      <trkpt lat="44.50535" lon="4.18634">
        <ele>463.1</ele>
        <time>2018-04-07T13:45:22Z</time>
      </trkpt>
      <trkpt lat="44.50527" lon="4.18644">
        <ele>462.7</ele>
        <time>2018-04-07T13:45:24Z</time>
      </trkpt>
      <trkpt lat="44.50518" lon="4.18654">
        <ele>462.1</ele>
        <time>2018-04-07T13:45:26Z</time>
      </trkpt>
      <trkpt lat="44.5051" lon="4.18665">
        <ele>461.6</ele>
        <time>2018-04-07T13:45:28Z</time>
      </trkpt>
      <trkpt lat="44.50503" lon="4.18676">
        <ele>461.1</ele>
        <time>2018-04-07T13:45:30Z</time>
      </trkpt>
      <trkpt lat="44.50497" lon="4.18688">
        <ele>460.7</ele>
        <time>2018-04-07T13:45:32Z</time>
      </trkpt>
      <trkpt lat="44.50491" lon="4.18698">
        <ele>460.2</ele>
        <time>2018-04-07T13:45:34Z</time>
      </trkpt>
      <trkpt lat="44.50483" lon="4.18713">
        <ele>459.8</ele>
        <time>2018-04-07T13:45:37Z</time>
      </trkpt>
      <trkpt lat="44.50475" lon="4.18727">
        <ele>459.6</ele>
        <time>2018-04-07T13:45:40Z</time>
      </trkpt>
      <trkpt lat="44.50468" lon="4.18743">
        <ele>459.6</ele>
        <time>2018-04-07T13:45:43Z</time>
      </trkpt>
      <trkpt lat="44.50459" lon="4.18757">
        <ele>459.4</ele>
        <time>2018-04-07T13:45:46Z</time>
      </trkpt>
      <trkpt lat="44.50453" lon="4.18766">
        <ele>459.4</ele>
        <time>2018-04-07T13:45:48Z</time>
      </trkpt>
      <trkpt lat="44.50445" lon="4.1878">
        <ele>459.1</ele>
        <time>2018-04-07T13:45:51Z</time>
      </trkpt>
      <trkpt lat="44.50439" lon="4.18793">
        <ele>458.9</ele>
        <time>2018-04-07T13:45:54Z</time>
      </trkpt>
      <trkpt lat="44.50435" lon="4.18805">
        <ele>459</ele>
        <time>2018-04-07T13:45:57Z</time>
      </trkpt>
      <trkpt lat="44.5043" lon="4.1882">
        <ele>459.1</ele>
        <time>2018-04-07T13:46:00Z</time>
      </trkpt>
      <trkpt lat="44.50427" lon="4.18833">
        <ele>459.4</ele>
        <time>2018-04-07T13:46:03Z</time>
      </trkpt>
      <trkpt lat="44.50424" lon="4.18847">
        <ele>459.7</ele>
        <time>2018-04-07T13:46:06Z</time>
      </trkpt>
      <trkpt lat="44.50421" lon="4.18863">
        <ele>460.5</ele>
        <time>2018-04-07T13:46:10Z</time>
      </trkpt>
      <trkpt lat="44.50418" lon="4.18878">
        <ele>461.3</ele>
        <time>2018-04-07T13:46:14Z</time>
      </trkpt>
      <trkpt lat="44.50415" lon="4.18892">
        <ele>461.8</ele>
        <time>2018-04-07T13:46:18Z</time>
      </trkpt>
      <trkpt lat="44.50411" lon="4.18906">
        <ele>462.2</ele>
        <time>2018-04-07T13:46:22Z</time>
      </trkpt>
      <trkpt lat="44.50408" lon="4.18922">
        <ele>462.7</ele>
        <time>2018-04-07T13:46:26Z</time>
      </trkpt>
      <trkpt lat="44.50405" lon="4.18938">
        <ele>463.2</ele>
        <time>2018-04-07T13:46:30Z</time>
      </trkpt>
      <trkpt lat="44.50402" lon="4.18954">
        <ele>464</ele>
        <time>2018-04-07T13:46:34Z</time>
      </trkpt>
      <trkpt lat="44.504" lon="4.1897">
        <ele>464.4</ele>
        <time>2018-04-07T13:46:38Z</time>
      </trkpt>
      <trkpt lat="44.50399" lon="4.18985">
        <ele>464.5</ele>
        <time>2018-04-07T13:46:42Z</time>
      </trkpt>
      <trkpt lat="44.50398" lon="4.18997">
        <ele>464.8</ele>
        <time>2018-04-07T13:46:45Z</time>
      </trkpt>
      <trkpt lat="44.50397" lon="4.19011">
        <ele>465</ele>
        <time>2018-04-07T13:46:48Z</time>
      </trkpt>
      <trkpt lat="44.50397" lon="4.19027">
        <ele>465.4</ele>
        <time>2018-04-07T13:46:52Z</time>
      </trkpt>
      <trkpt lat="44.50396" lon="4.19042">
        <ele>465.5</ele>
        <time>2018-04-07T13:46:56Z</time>
      </trkpt>
      <trkpt lat="44.50396" lon="4.19056">
        <ele>465.4</ele>
        <time>2018-04-07T13:47:17Z</time>
      </trkpt>
      <trkpt lat="44.50394" lon="4.1907">
        <ele>465.3</ele>
        <time>2018-04-07T13:47:22Z</time>
      </trkpt>
      <trkpt lat="44.50393" lon="4.19085">
        <ele>465.1</ele>
        <time>2018-04-07T13:47:26Z</time>
      </trkpt>
      <trkpt lat="44.5039" lon="4.19101">
        <ele>464.5</ele>
        <time>2018-04-07T13:47:30Z</time>
      </trkpt>
      <trkpt lat="44.50387" lon="4.19115">
        <ele>463.9</ele>
        <time>2018-04-07T13:47:34Z</time>
      </trkpt>
      <trkpt lat="44.50384" lon="4.19132">
        <ele>463.7</ele>
        <time>2018-04-07T13:47:38Z</time>
      </trkpt>
      <trkpt lat="44.50381" lon="4.19149">
        <ele>463.2</ele>
        <time>2018-04-07T13:47:41Z</time>
      </trkpt>
      <trkpt lat="44.5038" lon="4.19163">
        <ele>462.7</ele>
        <time>2018-04-07T13:47:43Z</time>
      </trkpt>
      <trkpt lat="44.50378" lon="4.19175">
        <ele>462.2</ele>
        <time>2018-04-07T13:47:45Z</time>
      </trkpt>
      <trkpt lat="44.50376" lon="4.19188">
        <ele>461.7</ele>
        <time>2018-04-07T13:47:47Z</time>
      </trkpt>
      <trkpt lat="44.50373" lon="4.19202">
        <ele>461.3</ele>
        <time>2018-04-07T13:47:49Z</time>
      </trkpt>
      <trkpt lat="44.5037" lon="4.19215">
        <ele>460.9</ele>
        <time>2018-04-07T13:47:51Z</time>
      </trkpt>
      <trkpt lat="44.50368" lon="4.19228">
        <ele>460.4</ele>
        <time>2018-04-07T13:47:53Z</time>
      </trkpt>
      <trkpt lat="44.50366" lon="4.19244">
        <ele>459.7</ele>
        <time>2018-04-07T13:47:56Z</time>
      </trkpt>
      <trkpt lat="44.50365" lon="4.19258">
        <ele>459.1</ele>
        <time>2018-04-07T13:47:59Z</time>
      </trkpt>
      <trkpt lat="44.50362" lon="4.19271">
        <ele>458.7</ele>
        <time>2018-04-07T13:48:02Z</time>
      </trkpt>
      <trkpt lat="44.50357" lon="4.19283">
        <ele>458</ele>
        <time>2018-04-07T13:48:05Z</time>
      </trkpt>
      <trkpt lat="44.50353" lon="4.19296">
        <ele>457.2</ele>
        <time>2018-04-07T13:48:08Z</time>
      </trkpt>
      <trkpt lat="44.50348" lon="4.19309">
        <ele>456.5</ele>
        <time>2018-04-07T13:48:11Z</time>
      </trkpt>
      <trkpt lat="44.50344" lon="4.19321">
        <ele>455.7</ele>
        <time>2018-04-07T13:48:14Z</time>
      </trkpt>
      <trkpt lat="44.50338" lon="4.19334">
        <ele>455.1</ele>
        <time>2018-04-07T13:48:17Z</time>
      </trkpt>
      <trkpt lat="44.50332" lon="4.19346">
        <ele>454.4</ele>
        <time>2018-04-07T13:48:20Z</time>
      </trkpt>
      <trkpt lat="44.50326" lon="4.19358">
        <ele>453.9</ele>
        <time>2018-04-07T13:48:23Z</time>
      </trkpt>
      <trkpt lat="44.50321" lon="4.19371">
        <ele>453.4</ele>
        <time>2018-04-07T13:48:26Z</time>
      </trkpt>
      <trkpt lat="44.50317" lon="4.19382">
        <ele>452.7</ele>
        <time>2018-04-07T13:48:29Z</time>
      </trkpt>
      <trkpt lat="44.50313" lon="4.19395">
        <ele>451.6</ele>
        <time>2018-04-07T13:48:34Z</time>
      </trkpt>
      <trkpt lat="44.50307" lon="4.19409">
        <ele>450.8</ele>
        <time>2018-04-07T13:48:38Z</time>
      </trkpt>
      <trkpt lat="44.50301" lon="4.1942">
        <ele>450.5</ele>
        <time>2018-04-07T13:48:41Z</time>
      </trkpt>
      <trkpt lat="44.50295" lon="4.19431">
        <ele>450.4</ele>
        <time>2018-04-07T13:48:44Z</time>
      </trkpt>
      <trkpt lat="44.50288" lon="4.19445">
        <ele>450.1</ele>
        <time>2018-04-07T13:48:48Z</time>
      </trkpt>
      <trkpt lat="44.50282" lon="4.19454">
        <ele>449.8</ele>
        <time>2018-04-07T13:48:51Z</time>
      </trkpt>
      <trkpt lat="44.50275" lon="4.19467">
        <ele>449.9</ele>
        <time>2018-04-07T13:48:54Z</time>
      </trkpt>
      <trkpt lat="44.50267" lon="4.1948">
        <ele>449.7</ele>
        <time>2018-04-07T13:48:57Z</time>
      </trkpt>
      <trkpt lat="44.50258" lon="4.19492">
        <ele>449.2</ele>
        <time>2018-04-07T13:49:00Z</time>
      </trkpt>
      <trkpt lat="44.50249" lon="4.19504">
        <ele>448.9</ele>
        <time>2018-04-07T13:49:03Z</time>
      </trkpt>
      <trkpt lat="44.50241" lon="4.19511">
        <ele>448.8</ele>
        <time>2018-04-07T13:49:06Z</time>
      </trkpt>
      <trkpt lat="44.50233" lon="4.19521">
        <ele>448.5</ele>
        <time>2018-04-07T13:49:09Z</time>
      </trkpt>
      <trkpt lat="44.50224" lon="4.19531">
        <ele>448</ele>
        <time>2018-04-07T13:49:12Z</time>
      </trkpt>
      <trkpt lat="44.50213" lon="4.19545">
        <ele>447</ele>
        <time>2018-04-07T13:49:15Z</time>
      </trkpt>
      <trkpt lat="44.50207" lon="4.19555">
        <ele>446</ele>
        <time>2018-04-07T13:49:17Z</time>
      </trkpt>
      <trkpt lat="44.50197" lon="4.19568">
        <ele>445.1</ele>
        <time>2018-04-07T13:49:19Z</time>
      </trkpt>
      <trkpt lat="44.5019" lon="4.19579">
        <ele>444.5</ele>
        <time>2018-04-07T13:49:21Z</time>
      </trkpt>
      <trkpt lat="44.50181" lon="4.19589">
        <ele>443.8</ele>
        <time>2018-04-07T13:49:23Z</time>
      </trkpt>
      <trkpt lat="44.50173" lon="4.196">
        <ele>443.1</ele>
        <time>2018-04-07T13:49:25Z</time>
      </trkpt>
      <trkpt lat="44.50165" lon="4.19609">
        <ele>442.2</ele>
        <time>2018-04-07T13:49:27Z</time>
      </trkpt>
      <trkpt lat="44.50158" lon="4.19618">
        <ele>441.4</ele>
        <time>2018-04-07T13:49:29Z</time>
      </trkpt>
      <trkpt lat="44.50149" lon="4.19626">
        <ele>440.8</ele>
        <time>2018-04-07T13:49:31Z</time>
      </trkpt>
      <trkpt lat="44.50141" lon="4.19635">
        <ele>440.1</ele>
        <time>2018-04-07T13:49:33Z</time>
      </trkpt>
      <trkpt lat="44.50133" lon="4.19645">
        <ele>439.5</ele>
        <time>2018-04-07T13:49:35Z</time>
      </trkpt>
      <trkpt lat="44.50125" lon="4.19656">
        <ele>438.7</ele>
        <time>2018-04-07T13:49:37Z</time>
      </trkpt>
      <trkpt lat="44.50117" lon="4.19665">
        <ele>437.7</ele>
        <time>2018-04-07T13:49:39Z</time>
      </trkpt>
      <trkpt lat="44.50109" lon="4.19675">
        <ele>437.2</ele>
        <time>2018-04-07T13:49:41Z</time>
      </trkpt>
      <trkpt lat="44.50103" lon="4.19686">
        <ele>436.2</ele>
        <time>2018-04-07T13:49:43Z</time>
      </trkpt>
      <trkpt lat="44.50097" lon="4.19699">
        <ele>435.6</ele>
        <time>2018-04-07T13:49:45Z</time>
      </trkpt>
      <trkpt lat="44.50091" lon="4.19711">
        <ele>434.7</ele>
        <time>2018-04-07T13:49:47Z</time>
      </trkpt>
      <trkpt lat="44.50083" lon="4.19724">
        <ele>434.1</ele>
        <time>2018-04-07T13:49:49Z</time>
      </trkpt>
      <trkpt lat="44.50077" lon="4.19737">
        <ele>433.1</ele>
        <time>2018-04-07T13:49:51Z</time>
      </trkpt>
      <trkpt lat="44.50072" lon="4.19747">
        <ele>432.2</ele>
        <time>2018-04-07T13:49:53Z</time>
      </trkpt>
      <trkpt lat="44.50067" lon="4.19758">
        <ele>428.7</ele>
        <time>2018-04-07T13:50:12Z</time>
      </trkpt>
      <trkpt lat="44.50072" lon="4.19746">
        <ele>428.5</ele>
        <time>2018-04-07T13:50:36Z</time>
      </trkpt>
      <trkpt lat="44.50078" lon="4.19734">
        <ele>428.6</ele>
        <time>2018-04-07T13:50:42Z</time>
      </trkpt>
      <trkpt lat="44.50084" lon="4.19724">
        <ele>429.2</ele>
        <time>2018-04-07T13:50:48Z</time>
      </trkpt>
      <trkpt lat="44.5009" lon="4.19713">
        <ele>429.7</ele>
        <time>2018-04-07T13:50:54Z</time>
      </trkpt>
      <trkpt lat="44.50097" lon="4.19701">
        <ele>430.1</ele>
        <time>2018-04-07T13:51:00Z</time>
      </trkpt>
      <trkpt lat="44.50103" lon="4.19691">
        <ele>430.9</ele>
        <time>2018-04-07T13:51:06Z</time>
      </trkpt>
      <trkpt lat="44.50109" lon="4.1968">
        <ele>432.2</ele>
        <time>2018-04-07T13:51:12Z</time>
      </trkpt>
      <trkpt lat="44.50116" lon="4.1967">
        <ele>433.4</ele>
        <time>2018-04-07T13:51:20Z</time>
      </trkpt>
      <trkpt lat="44.50125" lon="4.19669">
        <ele>434.5</ele>
        <time>2018-04-07T13:51:27Z</time>
      </trkpt>
      <trkpt lat="44.50136" lon="4.19668">
        <ele>435</ele>
        <time>2018-04-07T13:51:33Z</time>
      </trkpt>
      <trkpt lat="44.50146" lon="4.19668">
        <ele>434.3</ele>
        <time>2018-04-07T13:51:39Z</time>
      </trkpt>
      <trkpt lat="44.50156" lon="4.19666">
        <ele>436.5</ele>
        <time>2018-04-07T13:51:45Z</time>
      </trkpt>
      <trkpt lat="44.50166" lon="4.19663">
        <ele>436.4</ele>
        <time>2018-04-07T13:51:51Z</time>
      </trkpt>
      <trkpt lat="44.50176" lon="4.19665">
        <ele>435.6</ele>
        <time>2018-04-07T13:51:55Z</time>
      </trkpt>
      <trkpt lat="44.50188" lon="4.19672">
        <ele>435.1</ele>
        <time>2018-04-07T13:51:58Z</time>
      </trkpt>
      <trkpt lat="44.50197" lon="4.19678">
        <ele>434.5</ele>
        <time>2018-04-07T13:52:00Z</time>
      </trkpt>
      <trkpt lat="44.50204" lon="4.19689">
        <ele>433.4</ele>
        <time>2018-04-07T13:52:03Z</time>
      </trkpt>
      <trkpt lat="44.50208" lon="4.19702">
        <ele>432.2</ele>
        <time>2018-04-07T13:52:06Z</time>
      </trkpt>
      <trkpt lat="44.50212" lon="4.19719">
        <ele>431.5</ele>
        <time>2018-04-07T13:52:08Z</time>
      </trkpt>
      <trkpt lat="44.50219" lon="4.1973">
        <ele>430.3</ele>
        <time>2018-04-07T13:52:10Z</time>
      </trkpt>
      <trkpt lat="44.50223" lon="4.19745">
        <ele>428.8</ele>
        <time>2018-04-07T13:52:13Z</time>
      </trkpt>
      <trkpt lat="44.50222" lon="4.19759">
        <ele>427.5</ele>
        <time>2018-04-07T13:52:15Z</time>
      </trkpt>
      <trkpt lat="44.50221" lon="4.19775">
        <ele>426.4</ele>
        <time>2018-04-07T13:52:17Z</time>
      </trkpt>
      <trkpt lat="44.5022" lon="4.19789">
        <ele>425.1</ele>
        <time>2018-04-07T13:52:19Z</time>
      </trkpt>
      <trkpt lat="44.50219" lon="4.19803">
        <ele>423.4</ele>
        <time>2018-04-07T13:52:21Z</time>
      </trkpt>
      <trkpt lat="44.50219" lon="4.19817">
        <ele>422.2</ele>
        <time>2018-04-07T13:52:23Z</time>
      </trkpt>
      <trkpt lat="44.50225" lon="4.19831">
        <ele>420.4</ele>
        <time>2018-04-07T13:52:26Z</time>
      </trkpt>
      <trkpt lat="44.50229" lon="4.19844">
        <ele>419</ele>
        <time>2018-04-07T13:52:28Z</time>
      </trkpt>
      <trkpt lat="44.50233" lon="4.19858">
        <ele>417.9</ele>
        <time>2018-04-07T13:52:30Z</time>
      </trkpt>
      <trkpt lat="44.50235" lon="4.19872">
        <ele>417.1</ele>
        <time>2018-04-07T13:52:32Z</time>
      </trkpt>
      <trkpt lat="44.50239" lon="4.19886">
        <ele>416.5</ele>
        <time>2018-04-07T13:52:34Z</time>
      </trkpt>
      <trkpt lat="44.50241" lon="4.19901">
        <ele>415.6</ele>
        <time>2018-04-07T13:52:36Z</time>
      </trkpt>
      <trkpt lat="44.50244" lon="4.19913">
        <ele>414.9</ele>
        <time>2018-04-07T13:52:38Z</time>
      </trkpt>
      <trkpt lat="44.50248" lon="4.1993">
        <ele>414.2</ele>
        <time>2018-04-07T13:52:41Z</time>
      </trkpt>
      <trkpt lat="44.50253" lon="4.19944">
        <ele>413.7</ele>
        <time>2018-04-07T13:52:44Z</time>
      </trkpt>
      <trkpt lat="44.50261" lon="4.19958">
        <ele>413.2</ele>
        <time>2018-04-07T13:52:47Z</time>
      </trkpt>
      <trkpt lat="44.50268" lon="4.1997">
        <ele>412.7</ele>
        <time>2018-04-07T13:52:50Z</time>
      </trkpt>
      <trkpt lat="44.50274" lon="4.19986">
        <ele>412.3</ele>
        <time>2018-04-07T13:52:53Z</time>
      </trkpt>
      <trkpt lat="44.50274" lon="4.19998">
        <ele>411.9</ele>
        <time>2018-04-07T13:52:55Z</time>
      </trkpt>
      <trkpt lat="44.50274" lon="4.20014">
        <ele>411.3</ele>
        <time>2018-04-07T13:52:58Z</time>
      </trkpt>
      <trkpt lat="44.50275" lon="4.20027">
        <ele>411</ele>
        <time>2018-04-07T13:53:01Z</time>
      </trkpt>
      <trkpt lat="44.50274" lon="4.2004">
        <ele>410.2</ele>
        <time>2018-04-07T13:53:11Z</time>
      </trkpt>
      <trkpt lat="44.50274" lon="4.20053">
        <ele>410</ele>
        <time>2018-04-07T13:53:15Z</time>
      </trkpt>
      <trkpt lat="44.50277" lon="4.20067">
        <ele>409.7</ele>
        <time>2018-04-07T13:53:19Z</time>
      </trkpt>
      <trkpt lat="44.50275" lon="4.20081">
        <ele>409.6</ele>
        <time>2018-04-07T13:53:22Z</time>
      </trkpt>
      <trkpt lat="44.50273" lon="4.20094">
        <ele>409.5</ele>
        <time>2018-04-07T13:53:25Z</time>
      </trkpt>
      <trkpt lat="44.50272" lon="4.20109">
        <ele>409.2</ele>
        <time>2018-04-07T13:53:28Z</time>
      </trkpt>
      <trkpt lat="44.5027" lon="4.20124">
        <ele>409.2</ele>
        <time>2018-04-07T13:53:31Z</time>
      </trkpt>
      <trkpt lat="44.50274" lon="4.20138">
        <ele>409.1</ele>
        <time>2018-04-07T13:53:34Z</time>
      </trkpt>
      <trkpt lat="44.50277" lon="4.20151">
        <ele>409</ele>
        <time>2018-04-07T13:53:37Z</time>
      </trkpt>
      <trkpt lat="44.50278" lon="4.20165">
        <ele>409</ele>
        <time>2018-04-07T13:53:40Z</time>
      </trkpt>
      <trkpt lat="44.50281" lon="4.2018">
        <ele>409.1</ele>
        <time>2018-04-07T13:53:44Z</time>
      </trkpt>
      <trkpt lat="44.50285" lon="4.20193">
        <ele>409.2</ele>
        <time>2018-04-07T13:53:47Z</time>
      </trkpt>
      <trkpt lat="44.50286" lon="4.20209">
        <ele>408.9</ele>
        <time>2018-04-07T13:53:51Z</time>
      </trkpt>
      <trkpt lat="44.50289" lon="4.20225">
        <ele>408.5</ele>
        <time>2018-04-07T13:53:55Z</time>
      </trkpt>
      <trkpt lat="44.50292" lon="4.20238">
        <ele>408.2</ele>
        <time>2018-04-07T13:53:58Z</time>
      </trkpt>
      <trkpt lat="44.50295" lon="4.20252">
        <ele>407.6</ele>
        <time>2018-04-07T13:54:01Z</time>
      </trkpt>
      <trkpt lat="44.50297" lon="4.20269">
        <ele>407</ele>
        <time>2018-04-07T13:54:04Z</time>
      </trkpt>
      <trkpt lat="44.50298" lon="4.20287">
        <ele>406.2</ele>
        <time>2018-04-07T13:54:07Z</time>
      </trkpt>
      <trkpt lat="44.503" lon="4.203">
        <ele>405.2</ele>
        <time>2018-04-07T13:54:13Z</time>
      </trkpt>
      <trkpt lat="44.503" lon="4.20313">
        <ele>404.6</ele>
        <time>2018-04-07T13:54:24Z</time>
      </trkpt>
      <trkpt lat="44.50304" lon="4.20325">
        <ele>404.4</ele>
        <time>2018-04-07T13:54:42Z</time>
      </trkpt>
      <trkpt lat="44.50308" lon="4.20336">
        <ele>408.2</ele>
        <time>2018-04-07T13:57:17Z</time>
      </trkpt>
      <trkpt lat="44.50315" lon="4.20344">
        <ele>409.3</ele>
        <time>2018-04-07T13:59:03Z</time>
      </trkpt>
      <trkpt lat="44.50322" lon="4.20353">
        <ele>408.6</ele>
        <time>2018-04-07T13:59:08Z</time>
      </trkpt>
      <trkpt lat="44.50327" lon="4.20366">
        <ele>407.4</ele>
        <time>2018-04-07T13:59:12Z</time>
      </trkpt>
      <trkpt lat="44.50332" lon="4.20377">
        <ele>406.4</ele>
        <time>2018-04-07T13:59:16Z</time>
      </trkpt>
      <trkpt lat="44.50338" lon="4.20389">
        <ele>404.9</ele>
        <time>2018-04-07T13:59:20Z</time>
      </trkpt>
      <trkpt lat="44.50346" lon="4.20399">
        <ele>403.4</ele>
        <time>2018-04-07T13:59:23Z</time>
      </trkpt>
      <trkpt lat="44.50354" lon="4.20409">
        <ele>401.1</ele>
        <time>2018-04-07T13:59:27Z</time>
      </trkpt>
      <trkpt lat="44.50361" lon="4.2042">
        <ele>398.6</ele>
        <time>2018-04-07T13:59:31Z</time>
      </trkpt>
      <trkpt lat="44.50363" lon="4.20436">
        <ele>396.5</ele>
        <time>2018-04-07T13:59:35Z</time>
      </trkpt>
      <trkpt lat="44.50363" lon="4.20449">
        <ele>394.9</ele>
        <time>2018-04-07T13:59:38Z</time>
      </trkpt>
      <trkpt lat="44.50371" lon="4.20459">
        <ele>392</ele>
        <time>2018-04-07T13:59:48Z</time>
      </trkpt>
      <trkpt lat="44.50379" lon="4.20469">
        <ele>390.3</ele>
        <time>2018-04-07T13:59:53Z</time>
      </trkpt>
      <trkpt lat="44.50386" lon="4.20477">
        <ele>388.7</ele>
        <time>2018-04-07T13:59:56Z</time>
      </trkpt>
      <trkpt lat="44.50389" lon="4.20491">
        <ele>386</ele>
        <time>2018-04-07T14:00:01Z</time>
      </trkpt>
      <trkpt lat="44.50398" lon="4.2049">
        <ele>383.5</ele>
        <time>2018-04-07T14:00:05Z</time>
      </trkpt>
      <trkpt lat="44.50405" lon="4.20501">
        <ele>380.8</ele>
        <time>2018-04-07T14:00:10Z</time>
      </trkpt>
      <trkpt lat="44.50406" lon="4.20515">
        <ele>378.2</ele>
        <time>2018-04-07T14:00:14Z</time>
      </trkpt>
      <trkpt lat="44.50401" lon="4.20527">
        <ele>373.5</ele>
        <time>2018-04-07T14:00:33Z</time>
      </trkpt>
      <trkpt lat="44.50393" lon="4.20532">
        <ele>373.6</ele>
        <time>2018-04-07T14:00:40Z</time>
      </trkpt>
      <trkpt lat="44.504" lon="4.20541">
        <ele>373.6</ele>
        <time>2018-04-07T14:00:58Z</time>
      </trkpt>
      <trkpt lat="44.50409" lon="4.20537">
        <ele>372.1</ele>
        <time>2018-04-07T14:01:03Z</time>
      </trkpt>
      <trkpt lat="44.50418" lon="4.2053">
        <ele>370.4</ele>
        <time>2018-04-07T14:01:08Z</time>
      </trkpt>
      <trkpt lat="44.50424" lon="4.2052">
        <ele>368.7</ele>
        <time>2018-04-07T14:01:14Z</time>
      </trkpt>
      <trkpt lat="44.50434" lon="4.20515">
        <ele>367</ele>
        <time>2018-04-07T14:01:19Z</time>
      </trkpt>
      <trkpt lat="44.50444" lon="4.20509">
        <ele>364.8</ele>
        <time>2018-04-07T14:01:23Z</time>
      </trkpt>
      <trkpt lat="44.50451" lon="4.20499">
        <ele>362</ele>
        <time>2018-04-07T14:01:28Z</time>
      </trkpt>
      <trkpt lat="44.50454" lon="4.20512">
        <ele>355.7</ele>
        <time>2018-04-07T14:01:45Z</time>
      </trkpt>
      <trkpt lat="44.50449" lon="4.20525">
        <ele>355.7</ele>
        <time>2018-04-07T14:01:50Z</time>
      </trkpt>
      <trkpt lat="44.50443" lon="4.20536">
        <ele>355.6</ele>
        <time>2018-04-07T14:01:55Z</time>
      </trkpt>
      <trkpt lat="44.50437" lon="4.20546">
        <ele>355.7</ele>
        <time>2018-04-07T14:01:58Z</time>
      </trkpt>
      <trkpt lat="44.5043" lon="4.20557">
        <ele>355.7</ele>
        <time>2018-04-07T14:02:01Z</time>
      </trkpt>
      <trkpt lat="44.5042" lon="4.20568">
        <ele>355.3</ele>
        <time>2018-04-07T14:02:04Z</time>
      </trkpt>
      <trkpt lat="44.50413" lon="4.20578">
        <ele>354.9</ele>
        <time>2018-04-07T14:02:07Z</time>
      </trkpt>
      <trkpt lat="44.50404" lon="4.20581">
        <ele>354.1</ele>
        <time>2018-04-07T14:02:10Z</time>
      </trkpt>
      <trkpt lat="44.50394" lon="4.20579">
        <ele>353.6</ele>
        <time>2018-04-07T14:02:13Z</time>
      </trkpt>
      <trkpt lat="44.50384" lon="4.20576">
        <ele>353.3</ele>
        <time>2018-04-07T14:02:16Z</time>
      </trkpt>
      <trkpt lat="44.50374" lon="4.20572">
        <ele>353</ele>
        <time>2018-04-07T14:02:19Z</time>
      </trkpt>
      <trkpt lat="44.50362" lon="4.20574">
        <ele>352.2</ele>
        <time>2018-04-07T14:02:22Z</time>
      </trkpt>
      <trkpt lat="44.50353" lon="4.20576">
        <ele>351.5</ele>
        <time>2018-04-07T14:02:24Z</time>
      </trkpt>
      <trkpt lat="44.50341" lon="4.20574">
        <ele>350.8</ele>
        <time>2018-04-07T14:02:27Z</time>
      </trkpt>
      <trkpt lat="44.50329" lon="4.20572">
        <ele>349.6</ele>
        <time>2018-04-07T14:02:30Z</time>
      </trkpt>
      <trkpt lat="44.50319" lon="4.20568">
        <ele>348.6</ele>
        <time>2018-04-07T14:02:32Z</time>
      </trkpt>
      <trkpt lat="44.5031" lon="4.20566">
        <ele>347.5</ele>
        <time>2018-04-07T14:02:34Z</time>
      </trkpt>
      <trkpt lat="44.50297" lon="4.20567">
        <ele>346</ele>
        <time>2018-04-07T14:02:37Z</time>
      </trkpt>
      <trkpt lat="44.50285" lon="4.20567">
        <ele>344.5</ele>
        <time>2018-04-07T14:02:40Z</time>
      </trkpt>
      <trkpt lat="44.50275" lon="4.20567">
        <ele>343.7</ele>
        <time>2018-04-07T14:02:42Z</time>
      </trkpt>
      <trkpt lat="44.50265" lon="4.20568">
        <ele>342.8</ele>
        <time>2018-04-07T14:02:44Z</time>
      </trkpt>
      <trkpt lat="44.50255" lon="4.20568">
        <ele>341.8</ele>
        <time>2018-04-07T14:02:46Z</time>
      </trkpt>
      <trkpt lat="44.50244" lon="4.20566">
        <ele>341</ele>
        <time>2018-04-07T14:02:48Z</time>
      </trkpt>
      <trkpt lat="44.50235" lon="4.20563">
        <ele>340.5</ele>
        <time>2018-04-07T14:02:50Z</time>
      </trkpt>
      <trkpt lat="44.50223" lon="4.20561">
        <ele>339.7</ele>
        <time>2018-04-07T14:02:53Z</time>
      </trkpt>
      <trkpt lat="44.50212" lon="4.2056">
        <ele>338.7</ele>
        <time>2018-04-07T14:02:57Z</time>
      </trkpt>
      <trkpt lat="44.50201" lon="4.2056">
        <ele>337.9</ele>
        <time>2018-04-07T14:03:01Z</time>
      </trkpt>
      <trkpt lat="44.50188" lon="4.20564">
        <ele>337.5</ele>
        <time>2018-04-07T14:03:04Z</time>
      </trkpt>
      <trkpt lat="44.50177" lon="4.20567">
        <ele>337.2</ele>
        <time>2018-04-07T14:03:06Z</time>
      </trkpt>
      <trkpt lat="44.50168" lon="4.20568">
        <ele>336.9</ele>
        <time>2018-04-07T14:03:08Z</time>
      </trkpt>
      <trkpt lat="44.50159" lon="4.20569">
        <ele>336.4</ele>
        <time>2018-04-07T14:03:11Z</time>
      </trkpt>
      <trkpt lat="44.5015" lon="4.20572">
        <ele>335.9</ele>
        <time>2018-04-07T14:03:14Z</time>
      </trkpt>
      <trkpt lat="44.50141" lon="4.20578">
        <ele>335.4</ele>
        <time>2018-04-07T14:03:17Z</time>
      </trkpt>
      <trkpt lat="44.50131" lon="4.20582">
        <ele>334.9</ele>
        <time>2018-04-07T14:03:20Z</time>
      </trkpt>
      <trkpt lat="44.50121" lon="4.20587">
        <ele>334.5</ele>
        <time>2018-04-07T14:03:23Z</time>
      </trkpt>
      <trkpt lat="44.50111" lon="4.2059">
        <ele>333.8</ele>
        <time>2018-04-07T14:03:26Z</time>
      </trkpt>
      <trkpt lat="44.50095" lon="4.20597">
        <ele>332.2</ele>
        <time>2018-04-07T14:03:31Z</time>
      </trkpt>
      <trkpt lat="44.50085" lon="4.20596">
        <ele>330</ele>
        <time>2018-04-07T14:03:34Z</time>
      </trkpt>
      <trkpt lat="44.50074" lon="4.20595">
        <ele>330</ele>
        <time>2018-04-07T14:03:37Z</time>
      </trkpt>
      <trkpt lat="44.50063" lon="4.20589">
        <ele>328.8</ele>
        <time>2018-04-07T14:03:40Z</time>
      </trkpt>
      <trkpt lat="44.50053" lon="4.20582">
        <ele>328.1</ele>
        <time>2018-04-07T14:03:43Z</time>
      </trkpt>
      <trkpt lat="44.50044" lon="4.20575">
        <ele>327.5</ele>
        <time>2018-04-07T14:03:46Z</time>
      </trkpt>
      <trkpt lat="44.50036" lon="4.20568">
        <ele>327.1</ele>
        <time>2018-04-07T14:03:49Z</time>
      </trkpt>
      <trkpt lat="44.50028" lon="4.20558">
        <ele>326.8</ele>
        <time>2018-04-07T14:03:52Z</time>
      </trkpt>
      <trkpt lat="44.50019" lon="4.20548">
        <ele>326.6</ele>
        <time>2018-04-07T14:03:55Z</time>
      </trkpt>
      <trkpt lat="44.50009" lon="4.20541">
        <ele>326.5</ele>
        <time>2018-04-07T14:03:58Z</time>
      </trkpt>
      <trkpt lat="44.5" lon="4.20534">
        <ele>326.4</ele>
        <time>2018-04-07T14:04:00Z</time>
      </trkpt>
      <trkpt lat="44.49991" lon="4.20525">
        <ele>326</ele>
        <time>2018-04-07T14:04:02Z</time>
      </trkpt>
      <trkpt lat="44.49981" lon="4.20516">
        <ele>325.6</ele>
        <time>2018-04-07T14:04:04Z</time>
      </trkpt>
      <trkpt lat="44.49971" lon="4.20507">
        <ele>325</ele>
        <time>2018-04-07T14:04:06Z</time>
      </trkpt>
      <trkpt lat="44.49962" lon="4.20499">
        <ele>324.5</ele>
        <time>2018-04-07T14:04:08Z</time>
      </trkpt>
      <trkpt lat="44.4995" lon="4.20501">
        <ele>323</ele>
        <time>2018-04-07T14:04:10Z</time>
      </trkpt>
      <trkpt lat="44.4993" lon="4.20509">
        <ele>322.9</ele>
        <time>2018-04-07T14:04:13Z</time>
      </trkpt>
      <trkpt lat="44.49916" lon="4.20513">
        <ele>321.9</ele>
        <time>2018-04-07T14:04:15Z</time>
      </trkpt>
      <trkpt lat="44.49901" lon="4.2052">
        <ele>321</ele>
        <time>2018-04-07T14:04:17Z</time>
      </trkpt>
      <trkpt lat="44.49887" lon="4.20527">
        <ele>320.4</ele>
        <time>2018-04-07T14:04:19Z</time>
      </trkpt>
      <trkpt lat="44.49874" lon="4.20535">
        <ele>319.6</ele>
        <time>2018-04-07T14:04:21Z</time>
      </trkpt>
      <trkpt lat="44.49861" lon="4.20545">
        <ele>319.1</ele>
        <time>2018-04-07T14:04:23Z</time>
      </trkpt>
      <trkpt lat="44.4985" lon="4.20558">
        <ele>318.3</ele>
        <time>2018-04-07T14:04:25Z</time>
      </trkpt>
      <trkpt lat="44.49841" lon="4.20573">
        <ele>317.9</ele>
        <time>2018-04-07T14:04:27Z</time>
      </trkpt>
      <trkpt lat="44.49833" lon="4.20587">
        <ele>317.5</ele>
        <time>2018-04-07T14:04:29Z</time>
      </trkpt>
      <trkpt lat="44.49825" lon="4.20601">
        <ele>317.2</ele>
        <time>2018-04-07T14:04:31Z</time>
      </trkpt>
      <trkpt lat="44.49817" lon="4.20614">
        <ele>316.9</ele>
        <time>2018-04-07T14:04:33Z</time>
      </trkpt>
      <trkpt lat="44.49807" lon="4.20626">
        <ele>316.6</ele>
        <time>2018-04-07T14:04:35Z</time>
      </trkpt>
      <trkpt lat="44.49799" lon="4.20637">
        <ele>316.1</ele>
        <time>2018-04-07T14:04:37Z</time>
      </trkpt>
      <trkpt lat="44.49789" lon="4.20647">
        <ele>315.5</ele>
        <time>2018-04-07T14:04:39Z</time>
      </trkpt>
      <trkpt lat="44.49778" lon="4.20654">
        <ele>314.9</ele>
        <time>2018-04-07T14:04:41Z</time>
      </trkpt>
      <trkpt lat="44.4977" lon="4.2066">
        <ele>314.4</ele>
        <time>2018-04-07T14:04:43Z</time>
      </trkpt>
      <trkpt lat="44.49759" lon="4.20666">
        <ele>314</ele>
        <time>2018-04-07T14:04:46Z</time>
      </trkpt>
      <trkpt lat="44.49748" lon="4.20665">
        <ele>313.6</ele>
        <time>2018-04-07T14:04:49Z</time>
      </trkpt>
      <trkpt lat="44.49738" lon="4.20662">
        <ele>313.3</ele>
        <time>2018-04-07T14:04:52Z</time>
      </trkpt>
      <trkpt lat="44.49729" lon="4.2066">
        <ele>313</ele>
        <time>2018-04-07T14:04:55Z</time>
      </trkpt>
      <trkpt lat="44.4972" lon="4.20655">
        <ele>313.9</ele>
        <time>2018-04-07T14:05:01Z</time>
      </trkpt>
      <trkpt lat="44.49711" lon="4.20649">
        <ele>314.1</ele>
        <time>2018-04-07T14:05:04Z</time>
      </trkpt>
      <trkpt lat="44.49702" lon="4.20639">
        <ele>314.1</ele>
        <time>2018-04-07T14:05:08Z</time>
      </trkpt>
      <trkpt lat="44.49694" lon="4.20631">
        <ele>314.8</ele>
        <time>2018-04-07T14:05:12Z</time>
      </trkpt>
      <trkpt lat="44.49686" lon="4.20622">
        <ele>315.4</ele>
        <time>2018-04-07T14:05:18Z</time>
      </trkpt>
      <trkpt lat="44.49677" lon="4.20614">
        <ele>315.9</ele>
        <time>2018-04-07T14:05:23Z</time>
      </trkpt>
      <trkpt lat="44.49686" lon="4.20623">
        <ele>316.7</ele>
        <time>2018-04-07T14:05:37Z</time>
      </trkpt>
      <trkpt lat="44.49676" lon="4.20622">
        <ele>316.2</ele>
        <time>2018-04-07T14:05:42Z</time>
      </trkpt>
      <trkpt lat="44.49665" lon="4.20614">
        <ele>315.7</ele>
        <time>2018-04-07T14:05:45Z</time>
      </trkpt>
      <trkpt lat="44.49656" lon="4.20616">
        <ele>315</ele>
        <time>2018-04-07T14:05:48Z</time>
      </trkpt>
      <trkpt lat="44.49645" lon="4.20621">
        <ele>314.1</ele>
        <time>2018-04-07T14:05:52Z</time>
      </trkpt>
      <trkpt lat="44.49636" lon="4.20623">
        <ele>313.4</ele>
        <time>2018-04-07T14:05:55Z</time>
      </trkpt>
      <trkpt lat="44.49626" lon="4.20636">
        <ele>312.6</ele>
        <time>2018-04-07T14:05:58Z</time>
      </trkpt>
      <trkpt lat="44.49618" lon="4.20645">
        <ele>311.9</ele>
        <time>2018-04-07T14:06:00Z</time>
      </trkpt>
      <trkpt lat="44.49611" lon="4.20653">
        <ele>311</ele>
        <time>2018-04-07T14:06:02Z</time>
      </trkpt>
      <trkpt lat="44.49603" lon="4.20662">
        <ele>310</ele>
        <time>2018-04-07T14:06:04Z</time>
      </trkpt>
      <trkpt lat="44.49594" lon="4.20673">
        <ele>309.2</ele>
        <time>2018-04-07T14:06:06Z</time>
      </trkpt>
      <trkpt lat="44.49586" lon="4.20685">
        <ele>308.4</ele>
        <time>2018-04-07T14:06:08Z</time>
      </trkpt>
      <trkpt lat="44.49579" lon="4.20698">
        <ele>307.7</ele>
        <time>2018-04-07T14:06:10Z</time>
      </trkpt>
      <trkpt lat="44.49574" lon="4.20711">
        <ele>307.1</ele>
        <time>2018-04-07T14:06:12Z</time>
      </trkpt>
      <trkpt lat="44.49572" lon="4.20724">
        <ele>306.3</ele>
        <time>2018-04-07T14:06:15Z</time>
      </trkpt>
      <trkpt lat="44.49563" lon="4.2073">
        <ele>305.3</ele>
        <time>2018-04-07T14:06:20Z</time>
      </trkpt>
      <trkpt lat="44.49552" lon="4.20729">
        <ele>308.2</ele>
        <time>2018-04-07T14:08:39Z</time>
      </trkpt>
      <trkpt lat="44.49547" lon="4.20718">
        <ele>308.4</ele>
        <time>2018-04-07T14:08:46Z</time>
      </trkpt>
      <trkpt lat="44.49539" lon="4.20722">
        <ele>308.4</ele>
        <time>2018-04-07T14:08:53Z</time>
      </trkpt>
      <trkpt lat="44.49532" lon="4.2073">
        <ele>308.9</ele>
        <time>2018-04-07T14:08:58Z</time>
      </trkpt>
      <trkpt lat="44.49522" lon="4.20735">
        <ele>308.6</ele>
        <time>2018-04-07T14:09:03Z</time>
      </trkpt>
      <trkpt lat="44.49512" lon="4.20736">
        <ele>308</ele>
        <time>2018-04-07T14:09:07Z</time>
      </trkpt>
      <trkpt lat="44.495" lon="4.20735">
        <ele>306.9</ele>
        <time>2018-04-07T14:09:11Z</time>
      </trkpt>
      <trkpt lat="44.4949" lon="4.20732">
        <ele>305.2</ele>
        <time>2018-04-07T14:09:15Z</time>
      </trkpt>
      <trkpt lat="44.49484" lon="4.2072">
        <ele>303.1</ele>
        <time>2018-04-07T14:09:19Z</time>
      </trkpt>
      <trkpt lat="44.4948" lon="4.20732">
        <ele>298.5</ele>
        <time>2018-04-07T14:09:31Z</time>
      </trkpt>
      <trkpt lat="44.49483" lon="4.20745">
        <ele>298.2</ele>
        <time>2018-04-07T14:09:37Z</time>
      </trkpt>
      <trkpt lat="44.49486" lon="4.20757">
        <ele>298.7</ele>
        <time>2018-04-07T14:09:44Z</time>
      </trkpt>
      <trkpt lat="44.49483" lon="4.20742">
        <ele>300.1</ele>
        <time>2018-04-07T14:09:59Z</time>
      </trkpt>
      <trkpt lat="44.4948" lon="4.20727">
        <ele>299.8</ele>
        <time>2018-04-07T14:10:03Z</time>
      </trkpt>
      <trkpt lat="44.49478" lon="4.20714">
        <ele>299.2</ele>
        <time>2018-04-07T14:10:07Z</time>
      </trkpt>
      <trkpt lat="44.49469" lon="4.2071">
        <ele>298.3</ele>
        <time>2018-04-07T14:10:14Z</time>
      </trkpt>
      <trkpt lat="44.4946" lon="4.20706">
        <ele>295.9</ele>
        <time>2018-04-07T14:10:22Z</time>
      </trkpt>
      <trkpt lat="44.49451" lon="4.20707">
        <ele>294.7</ele>
        <time>2018-04-07T14:10:27Z</time>
      </trkpt>
      <trkpt lat="44.49442" lon="4.2071">
        <ele>293.5</ele>
        <time>2018-04-07T14:10:31Z</time>
      </trkpt>
      <trkpt lat="44.49433" lon="4.20714">
        <ele>290.6</ele>
        <time>2018-04-07T14:10:39Z</time>
      </trkpt>
      <trkpt lat="44.49425" lon="4.20717">
        <ele>288.2</ele>
        <time>2018-04-07T14:10:51Z</time>
      </trkpt>
      <trkpt lat="44.49414" lon="4.20716">
        <ele>287.3</ele>
        <time>2018-04-07T14:10:55Z</time>
      </trkpt>
      <trkpt lat="44.49404" lon="4.20712">
        <ele>285.8</ele>
        <time>2018-04-07T14:11:00Z</time>
      </trkpt>
      <trkpt lat="44.49395" lon="4.20706">
        <ele>284.8</ele>
        <time>2018-04-07T14:11:05Z</time>
      </trkpt>
      <trkpt lat="44.49386" lon="4.20708">
        <ele>283.9</ele>
        <time>2018-04-07T14:11:12Z</time>
      </trkpt>
      <trkpt lat="44.4938" lon="4.20696">
        <ele>283.7</ele>
        <time>2018-04-07T14:11:18Z</time>
      </trkpt>
      <trkpt lat="44.49377" lon="4.20709">
        <ele>283</ele>
        <time>2018-04-07T14:11:26Z</time>
      </trkpt>
      <trkpt lat="44.49381" lon="4.20724">
        <ele>282.8</ele>
        <time>2018-04-07T14:11:30Z</time>
      </trkpt>
      <trkpt lat="44.49381" lon="4.20738">
        <ele>282.2</ele>
        <time>2018-04-07T14:11:33Z</time>
      </trkpt>
      <trkpt lat="44.49379" lon="4.20752">
        <ele>281.5</ele>
        <time>2018-04-07T14:11:36Z</time>
      </trkpt>
      <trkpt lat="44.49377" lon="4.20769">
        <ele>280</ele>
        <time>2018-04-07T14:11:40Z</time>
      </trkpt>
      <trkpt lat="44.49376" lon="4.20784">
        <ele>279</ele>
        <time>2018-04-07T14:11:43Z</time>
      </trkpt>
      <trkpt lat="44.49377" lon="4.20802">
        <ele>277.9</ele>
        <time>2018-04-07T14:11:46Z</time>
      </trkpt>
      <trkpt lat="44.49379" lon="4.20816">
        <ele>276.9</ele>
        <time>2018-04-07T14:11:48Z</time>
      </trkpt>
      <trkpt lat="44.49382" lon="4.20831">
        <ele>275.5</ele>
        <time>2018-04-07T14:11:50Z</time>
      </trkpt>
      <trkpt lat="44.49386" lon="4.20847">
        <ele>274.1</ele>
        <time>2018-04-07T14:11:52Z</time>
      </trkpt>
      <trkpt lat="44.49392" lon="4.20864">
        <ele>272.8</ele>
        <time>2018-04-07T14:11:54Z</time>
      </trkpt>
      <trkpt lat="44.49397" lon="4.20881">
        <ele>271.7</ele>
        <time>2018-04-07T14:11:56Z</time>
      </trkpt>
      <trkpt lat="44.49403" lon="4.20897">
        <ele>270.9</ele>
        <time>2018-04-07T14:11:58Z</time>
      </trkpt>
      <trkpt lat="44.49409" lon="4.20912">
        <ele>270.2</ele>
        <time>2018-04-07T14:12:00Z</time>
      </trkpt>
      <trkpt lat="44.49414" lon="4.20926">
        <ele>269.6</ele>
        <time>2018-04-07T14:12:02Z</time>
      </trkpt>
      <trkpt lat="44.49419" lon="4.20938">
        <ele>269.2</ele>
        <time>2018-04-07T14:12:04Z</time>
      </trkpt>
      <trkpt lat="44.49425" lon="4.20954">
        <ele>269.3</ele>
        <time>2018-04-07T14:12:07Z</time>
      </trkpt>
      <trkpt lat="44.4943" lon="4.20968">
        <ele>269.5</ele>
        <time>2018-04-07T14:12:10Z</time>
      </trkpt>
      <trkpt lat="44.49435" lon="4.20983">
        <ele>269.8</ele>
        <time>2018-04-07T14:12:13Z</time>
      </trkpt>
      <trkpt lat="44.49441" lon="4.20998">
        <ele>270.1</ele>
        <time>2018-04-07T14:12:16Z</time>
      </trkpt>
      <trkpt lat="44.49445" lon="4.2101">
        <ele>270.2</ele>
        <time>2018-04-07T14:12:18Z</time>
      </trkpt>
      <trkpt lat="44.4945" lon="4.21021">
        <ele>270</ele>
        <time>2018-04-07T14:12:20Z</time>
      </trkpt>
      <trkpt lat="44.49455" lon="4.21032">
        <ele>270.4</ele>
        <time>2018-04-07T14:12:22Z</time>
      </trkpt>
      <trkpt lat="44.4946" lon="4.21048">
        <ele>270.5</ele>
        <time>2018-04-07T14:12:25Z</time>
      </trkpt>
      <trkpt lat="44.49465" lon="4.21065">
        <ele>270.6</ele>
        <time>2018-04-07T14:12:28Z</time>
      </trkpt>
      <trkpt lat="44.49467" lon="4.21083">
        <ele>270.5</ele>
        <time>2018-04-07T14:12:31Z</time>
      </trkpt>
      <trkpt lat="44.4947" lon="4.211">
        <ele>270.4</ele>
        <time>2018-04-07T14:12:34Z</time>
      </trkpt>
      <trkpt lat="44.49474" lon="4.21116">
        <ele>270.5</ele>
        <time>2018-04-07T14:12:37Z</time>
      </trkpt>
      <trkpt lat="44.49479" lon="4.21131">
        <ele>270.6</ele>
        <time>2018-04-07T14:12:40Z</time>
      </trkpt>
      <trkpt lat="44.49484" lon="4.21146">
        <ele>270.4</ele>
        <time>2018-04-07T14:12:43Z</time>
      </trkpt>
      <trkpt lat="44.49489" lon="4.21161">
        <ele>271.1</ele>
        <time>2018-04-07T14:12:46Z</time>
      </trkpt>
      <trkpt lat="44.49494" lon="4.21175">
        <ele>271.2</ele>
        <time>2018-04-07T14:12:49Z</time>
      </trkpt>
      <trkpt lat="44.495" lon="4.21188">
        <ele>271.1</ele>
        <time>2018-04-07T14:12:52Z</time>
      </trkpt>
      <trkpt lat="44.49509" lon="4.21199">
        <ele>270.9</ele>
        <time>2018-04-07T14:12:55Z</time>
      </trkpt>
      <trkpt lat="44.49519" lon="4.21207">
        <ele>271</ele>
        <time>2018-04-07T14:12:58Z</time>
      </trkpt>
      <trkpt lat="44.49529" lon="4.2121">
        <ele>271</ele>
        <time>2018-04-07T14:13:01Z</time>
      </trkpt>
      <trkpt lat="44.4954" lon="4.21209">
        <ele>271.2</ele>
        <time>2018-04-07T14:13:05Z</time>
      </trkpt>
      <trkpt lat="44.49549" lon="4.21211">
        <ele>271.5</ele>
        <time>2018-04-07T14:13:09Z</time>
      </trkpt>
      <trkpt lat="44.49558" lon="4.21215">
        <ele>271.6</ele>
        <time>2018-04-07T14:13:12Z</time>
      </trkpt>
      <trkpt lat="44.49568" lon="4.21217">
        <ele>271.8</ele>
        <time>2018-04-07T14:13:15Z</time>
      </trkpt>
      <trkpt lat="44.49578" lon="4.2122">
        <ele>271.8</ele>
        <time>2018-04-07T14:13:18Z</time>
      </trkpt>
      <trkpt lat="44.49587" lon="4.21223">
        <ele>272.2</ele>
        <time>2018-04-07T14:13:21Z</time>
      </trkpt>
      <trkpt lat="44.49599" lon="4.21227">
        <ele>272.8</ele>
        <time>2018-04-07T14:13:25Z</time>
      </trkpt>
      <trkpt lat="44.49609" lon="4.21228">
        <ele>273.2</ele>
        <time>2018-04-07T14:13:28Z</time>
      </trkpt>
      <trkpt lat="44.49622" lon="4.21232">
        <ele>273.3</ele>
        <time>2018-04-07T14:13:31Z</time>
      </trkpt>
      <trkpt lat="44.49632" lon="4.21234">
        <ele>273.2</ele>
        <time>2018-04-07T14:13:33Z</time>
      </trkpt>
      <trkpt lat="44.49641" lon="4.21236">
        <ele>272.9</ele>
        <time>2018-04-07T14:13:35Z</time>
      </trkpt>
      <trkpt lat="44.49647" lon="4.21248">
        <ele>272.3</ele>
        <time>2018-04-07T14:13:38Z</time>
      </trkpt>
      <trkpt lat="44.49642" lon="4.21265">
        <ele>271.6</ele>
        <time>2018-04-07T14:13:41Z</time>
      </trkpt>
      <trkpt lat="44.49638" lon="4.21278">
        <ele>270.8</ele>
        <time>2018-04-07T14:13:43Z</time>
      </trkpt>
      <trkpt lat="44.49633" lon="4.21292">
        <ele>269.8</ele>
        <time>2018-04-07T14:13:45Z</time>
      </trkpt>
      <trkpt lat="44.49625" lon="4.21302">
        <ele>269</ele>
        <time>2018-04-07T14:13:47Z</time>
      </trkpt>
      <trkpt lat="44.49616" lon="4.21311">
        <ele>268.2</ele>
        <time>2018-04-07T14:13:49Z</time>
      </trkpt>
      <trkpt lat="44.49606" lon="4.2132">
        <ele>267.2</ele>
        <time>2018-04-07T14:13:51Z</time>
      </trkpt>
      <trkpt lat="44.49596" lon="4.21328">
        <ele>266.6</ele>
        <time>2018-04-07T14:13:53Z</time>
      </trkpt>
      <trkpt lat="44.49586" lon="4.21336">
        <ele>265.7</ele>
        <time>2018-04-07T14:13:55Z</time>
      </trkpt>
      <trkpt lat="44.49578" lon="4.21342">
        <ele>264.9</ele>
        <time>2018-04-07T14:13:57Z</time>
      </trkpt>
      <trkpt lat="44.49568" lon="4.21351">
        <ele>263.8</ele>
        <time>2018-04-07T14:14:00Z</time>
      </trkpt>
      <trkpt lat="44.4956" lon="4.21357">
        <ele>262.5</ele>
        <time>2018-04-07T14:14:02Z</time>
      </trkpt>
      <trkpt lat="44.49551" lon="4.21364">
        <ele>261.9</ele>
        <time>2018-04-07T14:14:04Z</time>
      </trkpt>
      <trkpt lat="44.49542" lon="4.2137">
        <ele>261.2</ele>
        <time>2018-04-07T14:14:06Z</time>
      </trkpt>
      <trkpt lat="44.49532" lon="4.21372">
        <ele>260.6</ele>
        <time>2018-04-07T14:14:08Z</time>
      </trkpt>
      <trkpt lat="44.49522" lon="4.2137">
        <ele>260.1</ele>
        <time>2018-04-07T14:14:10Z</time>
      </trkpt>
      <trkpt lat="44.49513" lon="4.21368">
        <ele>259.4</ele>
        <time>2018-04-07T14:14:12Z</time>
      </trkpt>
      <trkpt lat="44.49503" lon="4.21364">
        <ele>258.4</ele>
        <time>2018-04-07T14:14:14Z</time>
      </trkpt>
      <trkpt lat="44.49492" lon="4.21361">
        <ele>257.5</ele>
        <time>2018-04-07T14:14:16Z</time>
      </trkpt>
      <trkpt lat="44.49481" lon="4.21359">
        <ele>256.5</ele>
        <time>2018-04-07T14:14:18Z</time>
      </trkpt>
      <trkpt lat="44.49471" lon="4.21358">
        <ele>255.6</ele>
        <time>2018-04-07T14:14:20Z</time>
      </trkpt>
      <trkpt lat="44.49459" lon="4.21356">
        <ele>254.6</ele>
        <time>2018-04-07T14:14:23Z</time>
      </trkpt>
      <trkpt lat="44.49448" lon="4.21356">
        <ele>253.9</ele>
        <time>2018-04-07T14:14:26Z</time>
      </trkpt>
      <trkpt lat="44.49437" lon="4.21355">
        <ele>253.5</ele>
        <time>2018-04-07T14:14:29Z</time>
      </trkpt>
      <trkpt lat="44.49424" lon="4.21354">
        <ele>253</ele>
        <time>2018-04-07T14:14:32Z</time>
      </trkpt>
      <trkpt lat="44.4941" lon="4.21352">
        <ele>252.3</ele>
        <time>2018-04-07T14:14:35Z</time>
      </trkpt>
      <trkpt lat="44.49398" lon="4.2135">
        <ele>251.7</ele>
        <time>2018-04-07T14:14:38Z</time>
      </trkpt>
      <trkpt lat="44.49385" lon="4.21346">
        <ele>251.1</ele>
        <time>2018-04-07T14:14:41Z</time>
      </trkpt>
      <trkpt lat="44.49375" lon="4.21342">
        <ele>250.9</ele>
        <time>2018-04-07T14:14:43Z</time>
      </trkpt>
      <trkpt lat="44.49363" lon="4.21337">
        <ele>250.4</ele>
        <time>2018-04-07T14:14:45Z</time>
      </trkpt>
      <trkpt lat="44.4935" lon="4.21331">
        <ele>249.9</ele>
        <time>2018-04-07T14:14:47Z</time>
      </trkpt>
      <trkpt lat="44.49336" lon="4.21327">
        <ele>249.3</ele>
        <time>2018-04-07T14:14:49Z</time>
      </trkpt>
      <trkpt lat="44.49323" lon="4.21321">
        <ele>248.7</ele>
        <time>2018-04-07T14:14:51Z</time>
      </trkpt>
      <trkpt lat="44.49309" lon="4.21313">
        <ele>248</ele>
        <time>2018-04-07T14:14:53Z</time>
      </trkpt>
      <trkpt lat="44.49295" lon="4.21304">
        <ele>247.6</ele>
        <time>2018-04-07T14:14:55Z</time>
      </trkpt>
      <trkpt lat="44.49283" lon="4.21296">
        <ele>247</ele>
        <time>2018-04-07T14:14:57Z</time>
      </trkpt>
      <trkpt lat="44.49274" lon="4.21295">
        <ele>246.4</ele>
        <time>2018-04-07T14:14:59Z</time>
      </trkpt>
      <trkpt lat="44.49271" lon="4.21309">
        <ele>245.8</ele>
        <time>2018-04-07T14:15:01Z</time>
      </trkpt>
      <trkpt lat="44.49276" lon="4.21322">
        <ele>245</ele>
        <time>2018-04-07T14:15:03Z</time>
      </trkpt>
      <trkpt lat="44.49282" lon="4.21335">
        <ele>244.4</ele>
        <time>2018-04-07T14:15:05Z</time>
      </trkpt>
      <trkpt lat="44.49288" lon="4.21349">
        <ele>243.8</ele>
        <time>2018-04-07T14:15:07Z</time>
      </trkpt>
      <trkpt lat="44.49294" lon="4.21362">
        <ele>243.3</ele>
        <time>2018-04-07T14:15:09Z</time>
      </trkpt>
      <trkpt lat="44.49299" lon="4.21377">
        <ele>242.6</ele>
        <time>2018-04-07T14:15:11Z</time>
      </trkpt>
      <trkpt lat="44.49306" lon="4.21394">
        <ele>241.9</ele>
        <time>2018-04-07T14:15:13Z</time>
      </trkpt>
      <trkpt lat="44.49312" lon="4.21411">
        <ele>241.3</ele>
        <time>2018-04-07T14:15:15Z</time>
      </trkpt>
      <trkpt lat="44.4932" lon="4.21428">
        <ele>240.6</ele>
        <time>2018-04-07T14:15:17Z</time>
      </trkpt>
      <trkpt lat="44.49326" lon="4.21444">
        <ele>239.9</ele>
        <time>2018-04-07T14:15:19Z</time>
      </trkpt>
      <trkpt lat="44.49335" lon="4.2146">
        <ele>239.4</ele>
        <time>2018-04-07T14:15:21Z</time>
      </trkpt>
      <trkpt lat="44.49342" lon="4.21475">
        <ele>238.6</ele>
        <time>2018-04-07T14:15:23Z</time>
      </trkpt>
      <trkpt lat="44.49349" lon="4.2149">
        <ele>238</ele>
        <time>2018-04-07T14:15:25Z</time>
      </trkpt>
      <trkpt lat="44.49357" lon="4.21504">
        <ele>237.4</ele>
        <time>2018-04-07T14:15:27Z</time>
      </trkpt>
      <trkpt lat="44.49367" lon="4.21515">
        <ele>236.8</ele>
        <time>2018-04-07T14:15:29Z</time>
      </trkpt>
      <trkpt lat="44.49378" lon="4.21522">
        <ele>236.2</ele>
        <time>2018-04-07T14:15:31Z</time>
      </trkpt>
      <trkpt lat="44.49389" lon="4.21529">
        <ele>235.5</ele>
        <time>2018-04-07T14:15:33Z</time>
      </trkpt>
      <trkpt lat="44.49401" lon="4.21535">
        <ele>234.9</ele>
        <time>2018-04-07T14:15:35Z</time>
      </trkpt>
      <trkpt lat="44.49414" lon="4.2154">
        <ele>234.1</ele>
        <time>2018-04-07T14:15:37Z</time>
      </trkpt>
      <trkpt lat="44.49424" lon="4.21543">
        <ele>233.4</ele>
        <time>2018-04-07T14:15:39Z</time>
      </trkpt>
      <trkpt lat="44.49427" lon="4.21557">
        <ele>232.2</ele>
        <time>2018-04-07T14:15:42Z</time>
      </trkpt>
      <trkpt lat="44.49418" lon="4.21568">
        <ele>231.3</ele>
        <time>2018-04-07T14:15:44Z</time>
      </trkpt>
      <trkpt lat="44.49409" lon="4.21579">
        <ele>230.4</ele>
        <time>2018-04-07T14:15:46Z</time>
      </trkpt>
      <trkpt lat="44.49397" lon="4.21592">
        <ele>229.1</ele>
        <time>2018-04-07T14:15:48Z</time>
      </trkpt>
      <trkpt lat="44.49385" lon="4.21602">
        <ele>228.1</ele>
        <time>2018-04-07T14:15:50Z</time>
      </trkpt>
      <trkpt lat="44.49372" lon="4.21608">
        <ele>227</ele>
        <time>2018-04-07T14:15:52Z</time>
      </trkpt>
      <trkpt lat="44.49359" lon="4.21616">
        <ele>225.9</ele>
        <time>2018-04-07T14:15:54Z</time>
      </trkpt>
      <trkpt lat="44.49348" lon="4.21626">
        <ele>224.9</ele>
        <time>2018-04-07T14:15:56Z</time>
      </trkpt>
      <trkpt lat="44.49335" lon="4.21634">
        <ele>223.8</ele>
        <time>2018-04-07T14:15:58Z</time>
      </trkpt>
      <trkpt lat="44.49321" lon="4.21639">
        <ele>222.9</ele>
        <time>2018-04-07T14:16:00Z</time>
      </trkpt>
      <trkpt lat="44.49308" lon="4.21639">
        <ele>221.7</ele>
        <time>2018-04-07T14:16:02Z</time>
      </trkpt>
      <trkpt lat="44.49298" lon="4.21634">
        <ele>220.9</ele>
        <time>2018-04-07T14:16:04Z</time>
      </trkpt>
      <trkpt lat="44.49287" lon="4.21635">
        <ele>219.3</ele>
        <time>2018-04-07T14:16:08Z</time>
      </trkpt>
      <trkpt lat="44.49286" lon="4.2165">
        <ele>217.6</ele>
        <time>2018-04-07T14:16:13Z</time>
      </trkpt>
      <trkpt lat="44.49293" lon="4.21658">
        <ele>217.1</ele>
        <time>2018-04-07T14:16:15Z</time>
      </trkpt>
      <trkpt lat="44.49299" lon="4.21668">
        <ele>216.3</ele>
        <time>2018-04-07T14:16:17Z</time>
      </trkpt>
      <trkpt lat="44.49307" lon="4.21678">
        <ele>215.5</ele>
        <time>2018-04-07T14:16:19Z</time>
      </trkpt>
      <trkpt lat="44.49313" lon="4.21689">
        <ele>214.6</ele>
        <time>2018-04-07T14:16:21Z</time>
      </trkpt>
      <trkpt lat="44.49324" lon="4.21695">
        <ele>213.5</ele>
        <time>2018-04-07T14:16:24Z</time>
      </trkpt>
      <trkpt lat="44.49336" lon="4.21694">
        <ele>211.2</ele>
        <time>2018-04-07T14:16:30Z</time>
      </trkpt>
      <trkpt lat="44.49347" lon="4.21697">
        <ele>209</ele>
        <time>2018-04-07T14:16:58Z</time>
      </trkpt>
      <trkpt lat="44.49356" lon="4.21694">
        <ele>208.7</ele>
        <time>2018-04-07T14:17:01Z</time>
      </trkpt>
      <trkpt lat="44.49365" lon="4.21693">
        <ele>207.6</ele>
        <time>2018-04-07T14:17:05Z</time>
      </trkpt>
      <trkpt lat="44.4936" lon="4.21705">
        <ele>206.4</ele>
        <time>2018-04-07T14:17:09Z</time>
      </trkpt>
      <trkpt lat="44.49351" lon="4.21713">
        <ele>205.1</ele>
        <time>2018-04-07T14:17:12Z</time>
      </trkpt>
      <trkpt lat="44.49342" lon="4.21723">
        <ele>203.5</ele>
        <time>2018-04-07T14:17:16Z</time>
      </trkpt>
      <trkpt lat="44.4934" lon="4.21739">
        <ele>202.1</ele>
        <time>2018-04-07T14:17:20Z</time>
      </trkpt>
      <trkpt lat="44.49342" lon="4.21757">
        <ele>201.1</ele>
        <time>2018-04-07T14:17:23Z</time>
      </trkpt>
      <trkpt lat="44.49339" lon="4.21774">
        <ele>200.2</ele>
        <time>2018-04-07T14:17:26Z</time>
      </trkpt>
      <trkpt lat="44.49334" lon="4.21787">
        <ele>199.5</ele>
        <time>2018-04-07T14:17:30Z</time>
      </trkpt>
      <trkpt lat="44.49325" lon="4.2179">
        <ele>199.2</ele>
        <time>2018-04-07T14:17:34Z</time>
      </trkpt>
      <trkpt lat="44.49315" lon="4.21788">
        <ele>199.5</ele>
        <time>2018-04-07T14:17:40Z</time>
      </trkpt>
      <trkpt lat="44.49305" lon="4.21784">
        <ele>200.1</ele>
        <time>2018-04-07T14:17:46Z</time>
      </trkpt>
      <trkpt lat="44.49297" lon="4.21779">
        <ele>200.6</ele>
        <time>2018-04-07T14:17:51Z</time>
      </trkpt>
      <trkpt lat="44.49287" lon="4.21773">
        <ele>201.9</ele>
        <time>2018-04-07T14:17:58Z</time>
      </trkpt>
      <trkpt lat="44.49278" lon="4.21774">
        <ele>203.8</ele>
        <time>2018-04-07T14:18:07Z</time>
      </trkpt>
      <trkpt lat="44.49283" lon="4.21785">
        <ele>205</ele>
        <time>2018-04-07T14:18:15Z</time>
      </trkpt>
      <trkpt lat="44.49292" lon="4.21794">
        <ele>206.2</ele>
        <time>2018-04-07T14:18:22Z</time>
      </trkpt>
      <trkpt lat="44.493" lon="4.21803">
        <ele>207.4</ele>
        <time>2018-04-07T14:18:29Z</time>
      </trkpt>
      <trkpt lat="44.49308" lon="4.21809">
        <ele>208.6</ele>
        <time>2018-04-07T14:18:36Z</time>
      </trkpt>
      <trkpt lat="44.49316" lon="4.21818">
        <ele>210.5</ele>
        <time>2018-04-07T14:18:44Z</time>
      </trkpt>
      <trkpt lat="44.49325" lon="4.21822">
        <ele>211.8</ele>
        <time>2018-04-07T14:18:50Z</time>
      </trkpt>
      <trkpt lat="44.49333" lon="4.21828">
        <ele>213.4</ele>
        <time>2018-04-07T14:18:58Z</time>
      </trkpt>
      <trkpt lat="44.49342" lon="4.21832">
        <ele>214.7</ele>
        <time>2018-04-07T14:19:04Z</time>
      </trkpt>
      <trkpt lat="44.49352" lon="4.21835">
        <ele>216.1</ele>
        <time>2018-04-07T14:19:11Z</time>
      </trkpt>
      <trkpt lat="44.49361" lon="4.21835">
        <ele>217.4</ele>
        <time>2018-04-07T14:19:18Z</time>
      </trkpt>
      <trkpt lat="44.49371" lon="4.21835">
        <ele>218.6</ele>
        <time>2018-04-07T14:19:26Z</time>
      </trkpt>
      <trkpt lat="44.4938" lon="4.2183">
        <ele>219.8</ele>
        <time>2018-04-07T14:19:32Z</time>
      </trkpt>
      <trkpt lat="44.4939" lon="4.21828">
        <ele>220.9</ele>
        <time>2018-04-07T14:19:38Z</time>
      </trkpt>
      <trkpt lat="44.494" lon="4.21828">
        <ele>221.8</ele>
        <time>2018-04-07T14:19:44Z</time>
      </trkpt>
      <trkpt lat="44.49409" lon="4.21827">
        <ele>222.5</ele>
        <time>2018-04-07T14:19:50Z</time>
      </trkpt>
      <trkpt lat="44.49419" lon="4.21831">
        <ele>223.6</ele>
        <time>2018-04-07T14:19:56Z</time>
      </trkpt>
      <trkpt lat="44.49428" lon="4.21838">
        <ele>224.8</ele>
        <time>2018-04-07T14:20:03Z</time>
      </trkpt>
      <trkpt lat="44.49435" lon="4.21847">
        <ele>226</ele>
        <time>2018-04-07T14:20:09Z</time>
      </trkpt>
      <trkpt lat="44.49441" lon="4.21859">
        <ele>227.5</ele>
        <time>2018-04-07T14:20:16Z</time>
      </trkpt>
      <trkpt lat="44.49447" lon="4.21871">
        <ele>228.5</ele>
        <time>2018-04-07T14:20:22Z</time>
      </trkpt>
      <trkpt lat="44.49453" lon="4.2188">
        <ele>228.9</ele>
        <time>2018-04-07T14:20:27Z</time>
      </trkpt>
      <trkpt lat="44.49459" lon="4.21891">
        <ele>229.7</ele>
        <time>2018-04-07T14:20:33Z</time>
      </trkpt>
      <trkpt lat="44.49466" lon="4.219">
        <ele>230.8</ele>
        <time>2018-04-07T14:20:38Z</time>
      </trkpt>
      <trkpt lat="44.4947" lon="4.21912">
        <ele>231.8</ele>
        <time>2018-04-07T14:20:44Z</time>
      </trkpt>
      <trkpt lat="44.49474" lon="4.21923">
        <ele>232.7</ele>
        <time>2018-04-07T14:20:50Z</time>
      </trkpt>
      <trkpt lat="44.4948" lon="4.21933">
        <ele>233.5</ele>
        <time>2018-04-07T14:20:55Z</time>
      </trkpt>
      <trkpt lat="44.49486" lon="4.21943">
        <ele>234.7</ele>
        <time>2018-04-07T14:21:02Z</time>
      </trkpt>
      <trkpt lat="44.49495" lon="4.21953">
        <ele>235.8</ele>
        <time>2018-04-07T14:21:08Z</time>
      </trkpt>
      <trkpt lat="44.49501" lon="4.21963">
        <ele>237.1</ele>
        <time>2018-04-07T14:21:14Z</time>
      </trkpt>
      <trkpt lat="44.49507" lon="4.21975">
        <ele>238.5</ele>
        <time>2018-04-07T14:21:21Z</time>
      </trkpt>
      <trkpt lat="44.49514" lon="4.21987">
        <ele>239.6</ele>
        <time>2018-04-07T14:21:28Z</time>
      </trkpt>
      <trkpt lat="44.49521" lon="4.21998">
        <ele>240.6</ele>
        <time>2018-04-07T14:21:34Z</time>
      </trkpt>
      <trkpt lat="44.49523" lon="4.22011">
        <ele>241.5</ele>
        <time>2018-04-07T14:21:41Z</time>
      </trkpt>
      <trkpt lat="44.49527" lon="4.22023">
        <ele>242.6</ele>
        <time>2018-04-07T14:21:48Z</time>
      </trkpt>
      <trkpt lat="44.49531" lon="4.22035">
        <ele>243.6</ele>
        <time>2018-04-07T14:21:54Z</time>
      </trkpt>
      <trkpt lat="44.49532" lon="4.22048">
        <ele>244.7</ele>
        <time>2018-04-07T14:22:01Z</time>
      </trkpt>
      <trkpt lat="44.49531" lon="4.22063">
        <ele>245.7</ele>
        <time>2018-04-07T14:22:08Z</time>
      </trkpt>
      <trkpt lat="44.49529" lon="4.22076">
        <ele>247</ele>
        <time>2018-04-07T14:22:15Z</time>
      </trkpt>
      <trkpt lat="44.49525" lon="4.22089">
        <ele>248.8</ele>
        <time>2018-04-07T14:22:24Z</time>
      </trkpt>
      <trkpt lat="44.4952" lon="4.22102">
        <ele>250.7</ele>
        <time>2018-04-07T14:22:33Z</time>
      </trkpt>
      <trkpt lat="44.49517" lon="4.22115">
        <ele>252.6</ele>
        <time>2018-04-07T14:22:41Z</time>
      </trkpt>
      <trkpt lat="44.49516" lon="4.22128">
        <ele>254.4</ele>
        <time>2018-04-07T14:22:50Z</time>
      </trkpt>
      <trkpt lat="44.49517" lon="4.22142">
        <ele>256.2</ele>
        <time>2018-04-07T14:22:59Z</time>
      </trkpt>
      <trkpt lat="44.49515" lon="4.22155">
        <ele>257.2</ele>
        <time>2018-04-07T14:23:06Z</time>
      </trkpt>
      <trkpt lat="44.49511" lon="4.22168">
        <ele>258.6</ele>
        <time>2018-04-07T14:23:14Z</time>
      </trkpt>
      <trkpt lat="44.49508" lon="4.2218">
        <ele>259.9</ele>
        <time>2018-04-07T14:23:21Z</time>
      </trkpt>
      <trkpt lat="44.49504" lon="4.22192">
        <ele>261.6</ele>
        <time>2018-04-07T14:23:29Z</time>
      </trkpt>
      <trkpt lat="44.49501" lon="4.22206">
        <ele>263.3</ele>
        <time>2018-04-07T14:23:38Z</time>
      </trkpt>
      <trkpt lat="44.495" lon="4.22219">
        <ele>264.7</ele>
        <time>2018-04-07T14:23:45Z</time>
      </trkpt>
      <trkpt lat="44.49497" lon="4.22231">
        <ele>265.7</ele>
        <time>2018-04-07T14:23:51Z</time>
      </trkpt>
      <trkpt lat="44.49491" lon="4.22243">
        <ele>266.4</ele>
        <time>2018-04-07T14:23:56Z</time>
      </trkpt>
      <trkpt lat="44.49486" lon="4.22253">
        <ele>267.2</ele>
        <time>2018-04-07T14:24:01Z</time>
      </trkpt>
      <trkpt lat="44.49481" lon="4.22265">
        <ele>268.1</ele>
        <time>2018-04-07T14:24:07Z</time>
      </trkpt>
      <trkpt lat="44.49477" lon="4.22278">
        <ele>268.9</ele>
        <time>2018-04-07T14:24:13Z</time>
      </trkpt>
      <trkpt lat="44.49474" lon="4.22292">
        <ele>269.8</ele>
        <time>2018-04-07T14:24:19Z</time>
      </trkpt>
      <trkpt lat="44.49472" lon="4.22307">
        <ele>270.9</ele>
        <time>2018-04-07T14:24:25Z</time>
      </trkpt>
      <trkpt lat="44.49473" lon="4.2232">
        <ele>271.6</ele>
        <time>2018-04-07T14:24:30Z</time>
      </trkpt>
      <trkpt lat="44.49473" lon="4.22333">
        <ele>272.5</ele>
        <time>2018-04-07T14:24:36Z</time>
      </trkpt>
      <trkpt lat="44.49471" lon="4.22346">
        <ele>273.3</ele>
        <time>2018-04-07T14:24:42Z</time>
      </trkpt>
      <trkpt lat="44.49469" lon="4.22359">
        <ele>274.1</ele>
        <time>2018-04-07T14:24:47Z</time>
      </trkpt>
      <trkpt lat="44.49464" lon="4.22373">
        <ele>274.9</ele>
        <time>2018-04-07T14:24:54Z</time>
      </trkpt>
      <trkpt lat="44.4946" lon="4.22387">
        <ele>275.3</ele>
        <time>2018-04-07T14:24:59Z</time>
      </trkpt>
      <trkpt lat="44.49456" lon="4.22399">
        <ele>275.5</ele>
        <time>2018-04-07T14:25:04Z</time>
      </trkpt>
      <trkpt lat="44.49452" lon="4.22411">
        <ele>275.9</ele>
        <time>2018-04-07T14:25:09Z</time>
      </trkpt>
      <trkpt lat="44.49447" lon="4.22423">
        <ele>276.6</ele>
        <time>2018-04-07T14:25:13Z</time>
      </trkpt>
      <trkpt lat="44.49441" lon="4.22435">
        <ele>276.9</ele>
        <time>2018-04-07T14:25:16Z</time>
      </trkpt>
      <trkpt lat="44.49434" lon="4.22449">
        <ele>276.7</ele>
        <time>2018-04-07T14:25:19Z</time>
      </trkpt>
      <trkpt lat="44.49428" lon="4.22459">
        <ele>276.2</ele>
        <time>2018-04-07T14:25:21Z</time>
      </trkpt>
      <trkpt lat="44.49422" lon="4.2247">
        <ele>275.7</ele>
        <time>2018-04-07T14:25:23Z</time>
      </trkpt>
      <trkpt lat="44.49415" lon="4.22482">
        <ele>275.3</ele>
        <time>2018-04-07T14:25:25Z</time>
      </trkpt>
      <trkpt lat="44.49407" lon="4.22494">
        <ele>274.9</ele>
        <time>2018-04-07T14:25:27Z</time>
      </trkpt>
      <trkpt lat="44.49399" lon="4.22506">
        <ele>274.6</ele>
        <time>2018-04-07T14:25:29Z</time>
      </trkpt>
      <trkpt lat="44.49392" lon="4.2252">
        <ele>274.2</ele>
        <time>2018-04-07T14:25:31Z</time>
      </trkpt>
      <trkpt lat="44.49386" lon="4.22534">
        <ele>273.7</ele>
        <time>2018-04-07T14:25:33Z</time>
      </trkpt>
      <trkpt lat="44.4938" lon="4.22549">
        <ele>273.3</ele>
        <time>2018-04-07T14:25:35Z</time>
      </trkpt>
      <trkpt lat="44.49374" lon="4.22564">
        <ele>273</ele>
        <time>2018-04-07T14:25:37Z</time>
      </trkpt>
      <trkpt lat="44.49368" lon="4.22579">
        <ele>272.4</ele>
        <time>2018-04-07T14:25:39Z</time>
      </trkpt>
      <trkpt lat="44.49362" lon="4.22594">
        <ele>272</ele>
        <time>2018-04-07T14:25:41Z</time>
      </trkpt>
      <trkpt lat="44.49354" lon="4.2261">
        <ele>271.3</ele>
        <time>2018-04-07T14:25:43Z</time>
      </trkpt>
      <trkpt lat="44.49345" lon="4.22626">
        <ele>270.7</ele>
        <time>2018-04-07T14:25:45Z</time>
      </trkpt>
      <trkpt lat="44.49334" lon="4.22641">
        <ele>270.1</ele>
        <time>2018-04-07T14:25:47Z</time>
      </trkpt>
      <trkpt lat="44.49323" lon="4.22656">
        <ele>269</ele>
        <time>2018-04-07T14:25:49Z</time>
      </trkpt>
      <trkpt lat="44.49312" lon="4.22671">
        <ele>267.9</ele>
        <time>2018-04-07T14:25:51Z</time>
      </trkpt>
      <trkpt lat="44.49301" lon="4.22683">
        <ele>266.9</ele>
        <time>2018-04-07T14:25:53Z</time>
      </trkpt>
      <trkpt lat="44.49289" lon="4.22695">
        <ele>266.3</ele>
        <time>2018-04-07T14:25:55Z</time>
      </trkpt>
      <trkpt lat="44.49276" lon="4.22705">
        <ele>265.4</ele>
        <time>2018-04-07T14:25:57Z</time>
      </trkpt>
      <trkpt lat="44.49262" lon="4.22712">
        <ele>264.4</ele>
        <time>2018-04-07T14:25:59Z</time>
      </trkpt>
      <trkpt lat="44.49246" lon="4.22719">
        <ele>263.5</ele>
        <time>2018-04-07T14:26:01Z</time>
      </trkpt>
      <trkpt lat="44.49232" lon="4.22731">
        <ele>262.2</ele>
        <time>2018-04-07T14:26:03Z</time>
      </trkpt>
      <trkpt lat="44.49225" lon="4.2275">
        <ele>260.8</ele>
        <time>2018-04-07T14:26:05Z</time>
      </trkpt>
      <trkpt lat="44.49218" lon="4.22768">
        <ele>259.6</ele>
        <time>2018-04-07T14:26:07Z</time>
      </trkpt>
      <trkpt lat="44.49205" lon="4.22774">
        <ele>258.2</ele>
        <time>2018-04-07T14:26:09Z</time>
      </trkpt>
      <trkpt lat="44.49191" lon="4.22767">
        <ele>256.9</ele>
        <time>2018-04-07T14:26:11Z</time>
      </trkpt>
      <trkpt lat="44.49178" lon="4.22757">
        <ele>255.7</ele>
        <time>2018-04-07T14:26:13Z</time>
      </trkpt>
      <trkpt lat="44.49164" lon="4.2275">
        <ele>254.4</ele>
        <time>2018-04-07T14:26:15Z</time>
      </trkpt>
      <trkpt lat="44.49151" lon="4.22742">
        <ele>253.4</ele>
        <time>2018-04-07T14:26:17Z</time>
      </trkpt>
      <trkpt lat="44.49137" lon="4.22735">
        <ele>252.6</ele>
        <time>2018-04-07T14:26:19Z</time>
      </trkpt>
      <trkpt lat="44.49123" lon="4.2273">
        <ele>251.6</ele>
        <time>2018-04-07T14:26:21Z</time>
      </trkpt>
      <trkpt lat="44.49107" lon="4.22728">
        <ele>250.7</ele>
        <time>2018-04-07T14:26:23Z</time>
      </trkpt>
      <trkpt lat="44.49092" lon="4.22732">
        <ele>249.7</ele>
        <time>2018-04-07T14:26:25Z</time>
      </trkpt>
      <trkpt lat="44.49077" lon="4.2274">
        <ele>248.7</ele>
        <time>2018-04-07T14:26:27Z</time>
      </trkpt>
      <trkpt lat="44.49062" lon="4.2275">
        <ele>247.3</ele>
        <time>2018-04-07T14:26:29Z</time>
      </trkpt>
      <trkpt lat="44.49047" lon="4.22764">
        <ele>245.9</ele>
        <time>2018-04-07T14:26:31Z</time>
      </trkpt>
      <trkpt lat="44.4904" lon="4.22772">
        <ele>245.1</ele>
        <time>2018-04-07T14:26:32Z</time>
      </trkpt>
      <trkpt lat="44.49033" lon="4.22782">
        <ele>244.4</ele>
        <time>2018-04-07T14:26:33Z</time>
      </trkpt>
      <trkpt lat="44.49026" lon="4.22791">
        <ele>243.7</ele>
        <time>2018-04-07T14:26:34Z</time>
      </trkpt>
      <trkpt lat="44.49018" lon="4.228">
        <ele>243</ele>
        <time>2018-04-07T14:26:35Z</time>
      </trkpt>
      <trkpt lat="44.4901" lon="4.22809">
        <ele>242</ele>
        <time>2018-04-07T14:26:36Z</time>
      </trkpt>
      <trkpt lat="44.49003" lon="4.22817">
        <ele>240.9</ele>
        <time>2018-04-07T14:26:37Z</time>
      </trkpt>
      <trkpt lat="44.48995" lon="4.22825">
        <ele>239.9</ele>
        <time>2018-04-07T14:26:38Z</time>
      </trkpt>
      <trkpt lat="44.48986" lon="4.22832">
        <ele>238.9</ele>
        <time>2018-04-07T14:26:39Z</time>
      </trkpt>
      <trkpt lat="44.48978" lon="4.22839">
        <ele>237.8</ele>
        <time>2018-04-07T14:26:40Z</time>
      </trkpt>
      <trkpt lat="44.48969" lon="4.22846">
        <ele>236.6</ele>
        <time>2018-04-07T14:26:41Z</time>
      </trkpt>
      <trkpt lat="44.48961" lon="4.22854">
        <ele>235.5</ele>
        <time>2018-04-07T14:26:42Z</time>
      </trkpt>
      <trkpt lat="44.48953" lon="4.22862">
        <ele>234.5</ele>
        <time>2018-04-07T14:26:43Z</time>
      </trkpt>
      <trkpt lat="44.48946" lon="4.22871">
        <ele>233.4</ele>
        <time>2018-04-07T14:26:44Z</time>
      </trkpt>
      <trkpt lat="44.48938" lon="4.22879">
        <ele>232.4</ele>
        <time>2018-04-07T14:26:45Z</time>
      </trkpt>
      <trkpt lat="44.48929" lon="4.22885">
        <ele>231.5</ele>
        <time>2018-04-07T14:26:46Z</time>
      </trkpt>
      <trkpt lat="44.4892" lon="4.22887">
        <ele>230.5</ele>
        <time>2018-04-07T14:26:47Z</time>
      </trkpt>
      <trkpt lat="44.4891" lon="4.22889">
        <ele>229.5</ele>
        <time>2018-04-07T14:26:48Z</time>
      </trkpt>
      <trkpt lat="44.48901" lon="4.2289">
        <ele>228.5</ele>
        <time>2018-04-07T14:26:49Z</time>
      </trkpt>
      <trkpt lat="44.48885" lon="4.22897">
        <ele>226.1</ele>
        <time>2018-04-07T14:26:51Z</time>
      </trkpt>
      <trkpt lat="44.48874" lon="4.22913">
        <ele>223.9</ele>
        <time>2018-04-07T14:26:53Z</time>
      </trkpt>
      <trkpt lat="44.48871" lon="4.2293">
        <ele>221.7</ele>
        <time>2018-04-07T14:26:55Z</time>
      </trkpt>
      <trkpt lat="44.48871" lon="4.22946">
        <ele>219.9</ele>
        <time>2018-04-07T14:26:57Z</time>
      </trkpt>
      <trkpt lat="44.48869" lon="4.22959">
        <ele>218</ele>
        <time>2018-04-07T14:26:59Z</time>
      </trkpt>
      <trkpt lat="44.48864" lon="4.22971">
        <ele>215.3</ele>
        <time>2018-04-07T14:27:03Z</time>
      </trkpt>
      <trkpt lat="44.48854" lon="4.22982">
        <ele>213.4</ele>
        <time>2018-04-07T14:27:07Z</time>
      </trkpt>
      <trkpt lat="44.48847" lon="4.2299">
        <ele>212.5</ele>
        <time>2018-04-07T14:27:09Z</time>
      </trkpt>
      <trkpt lat="44.48837" lon="4.23001">
        <ele>211.5</ele>
        <time>2018-04-07T14:27:11Z</time>
      </trkpt>
      <trkpt lat="44.48824" lon="4.23013">
        <ele>210.3</ele>
        <time>2018-04-07T14:27:13Z</time>
      </trkpt>
      <trkpt lat="44.4881" lon="4.23025">
        <ele>208.9</ele>
        <time>2018-04-07T14:27:15Z</time>
      </trkpt>
      <trkpt lat="44.48797" lon="4.23036">
        <ele>207.2</ele>
        <time>2018-04-07T14:27:17Z</time>
      </trkpt>
      <trkpt lat="44.48786" lon="4.23046">
        <ele>205.8</ele>
        <time>2018-04-07T14:27:19Z</time>
      </trkpt>
      <trkpt lat="44.48774" lon="4.23056">
        <ele>204.4</ele>
        <time>2018-04-07T14:27:21Z</time>
      </trkpt>
      <trkpt lat="44.48762" lon="4.23068">
        <ele>203.1</ele>
        <time>2018-04-07T14:27:23Z</time>
      </trkpt>
      <trkpt lat="44.48749" lon="4.23081">
        <ele>201.8</ele>
        <time>2018-04-07T14:27:25Z</time>
      </trkpt>
      <trkpt lat="44.48739" lon="4.23096">
        <ele>200.7</ele>
        <time>2018-04-07T14:27:27Z</time>
      </trkpt>
      <trkpt lat="44.48729" lon="4.23112">
        <ele>199.7</ele>
        <time>2018-04-07T14:27:29Z</time>
      </trkpt>
      <trkpt lat="44.4872" lon="4.23128">
        <ele>198.8</ele>
        <time>2018-04-07T14:27:31Z</time>
      </trkpt>
      <trkpt lat="44.4871" lon="4.23145">
        <ele>197.9</ele>
        <time>2018-04-07T14:27:33Z</time>
      </trkpt>
      <trkpt lat="44.487" lon="4.23163">
        <ele>196.8</ele>
        <time>2018-04-07T14:27:35Z</time>
      </trkpt>
      <trkpt lat="44.48691" lon="4.23181">
        <ele>195.6</ele>
        <time>2018-04-07T14:27:37Z</time>
      </trkpt>
      <trkpt lat="44.48681" lon="4.23199">
        <ele>194.5</ele>
        <time>2018-04-07T14:27:39Z</time>
      </trkpt>
      <trkpt lat="44.48671" lon="4.23217">
        <ele>193.7</ele>
        <time>2018-04-07T14:27:41Z</time>
      </trkpt>
      <trkpt lat="44.48663" lon="4.23236">
        <ele>192.8</ele>
        <time>2018-04-07T14:27:43Z</time>
      </trkpt>
      <trkpt lat="44.48654" lon="4.23255">
        <ele>191.9</ele>
        <time>2018-04-07T14:27:45Z</time>
      </trkpt>
      <trkpt lat="44.48645" lon="4.23271">
        <ele>191.1</ele>
        <time>2018-04-07T14:27:47Z</time>
      </trkpt>
      <trkpt lat="44.48634" lon="4.23285">
        <ele>190</ele>
        <time>2018-04-07T14:27:49Z</time>
      </trkpt>
      <trkpt lat="44.48621" lon="4.23297">
        <ele>189.1</ele>
        <time>2018-04-07T14:27:51Z</time>
      </trkpt>
      <trkpt lat="44.48609" lon="4.2331">
        <ele>188</ele>
        <time>2018-04-07T14:27:53Z</time>
      </trkpt>
      <trkpt lat="44.48598" lon="4.23327">
        <ele>186.6</ele>
        <time>2018-04-07T14:27:55Z</time>
      </trkpt>
      <trkpt lat="44.48591" lon="4.23335">
        <ele>185.9</ele>
        <time>2018-04-07T14:27:56Z</time>
      </trkpt>
      <trkpt lat="44.48583" lon="4.23342">
        <ele>185.2</ele>
        <time>2018-04-07T14:27:57Z</time>
      </trkpt>
      <trkpt lat="44.48574" lon="4.23349">
        <ele>184.4</ele>
        <time>2018-04-07T14:27:58Z</time>
      </trkpt>
      <trkpt lat="44.48565" lon="4.23354">
        <ele>183.5</ele>
        <time>2018-04-07T14:27:59Z</time>
      </trkpt>
      <trkpt lat="44.48557" lon="4.23359">
        <ele>182.7</ele>
        <time>2018-04-07T14:28:00Z</time>
      </trkpt>
      <trkpt lat="44.48548" lon="4.23364">
        <ele>182</ele>
        <time>2018-04-07T14:28:01Z</time>
      </trkpt>
      <trkpt lat="44.48532" lon="4.23375">
        <ele>180.7</ele>
        <time>2018-04-07T14:28:03Z</time>
      </trkpt>
      <trkpt lat="44.48518" lon="4.23387">
        <ele>179.6</ele>
        <time>2018-04-07T14:28:05Z</time>
      </trkpt>
      <trkpt lat="44.48504" lon="4.23399">
        <ele>178.4</ele>
        <time>2018-04-07T14:28:07Z</time>
      </trkpt>
      <trkpt lat="44.48492" lon="4.23411">
        <ele>177.5</ele>
        <time>2018-04-07T14:28:09Z</time>
      </trkpt>
      <trkpt lat="44.4848" lon="4.23422">
        <ele>176.8</ele>
        <time>2018-04-07T14:28:11Z</time>
      </trkpt>
      <trkpt lat="44.48468" lon="4.23432">
        <ele>176.3</ele>
        <time>2018-04-07T14:28:13Z</time>
      </trkpt>
      <trkpt lat="44.48458" lon="4.23442">
        <ele>175.8</ele>
        <time>2018-04-07T14:28:15Z</time>
      </trkpt>
      <trkpt lat="44.48449" lon="4.23452">
        <ele>175.4</ele>
        <time>2018-04-07T14:28:17Z</time>
      </trkpt>
      <trkpt lat="44.4844" lon="4.23462">
        <ele>175.1</ele>
        <time>2018-04-07T14:28:19Z</time>
      </trkpt>
      <trkpt lat="44.48431" lon="4.23471">
        <ele>174.9</ele>
        <time>2018-04-07T14:28:21Z</time>
      </trkpt>
      <trkpt lat="44.48421" lon="4.2348">
        <ele>174.6</ele>
        <time>2018-04-07T14:28:23Z</time>
      </trkpt>
      <trkpt lat="44.48412" lon="4.23489">
        <ele>174.5</ele>
        <time>2018-04-07T14:28:25Z</time>
      </trkpt>
      <trkpt lat="44.48403" lon="4.23497">
        <ele>174.3</ele>
        <time>2018-04-07T14:28:27Z</time>
      </trkpt>
      <trkpt lat="44.48394" lon="4.23504">
        <ele>174.3</ele>
        <time>2018-04-07T14:28:29Z</time>
      </trkpt>
      <trkpt lat="44.48385" lon="4.23511">
        <ele>174.1</ele>
        <time>2018-04-07T14:28:31Z</time>
      </trkpt>
      <trkpt lat="44.48378" lon="4.23519">
        <ele>174</ele>
        <time>2018-04-07T14:28:33Z</time>
      </trkpt>
      <trkpt lat="44.48371" lon="4.23527">
        <ele>173.9</ele>
        <time>2018-04-07T14:28:35Z</time>
      </trkpt>
      <trkpt lat="44.48363" lon="4.23535">
        <ele>173.7</ele>
        <time>2018-04-07T14:28:37Z</time>
      </trkpt>
      <trkpt lat="44.48355" lon="4.23542">
        <ele>173.7</ele>
        <time>2018-04-07T14:28:39Z</time>
      </trkpt>
      <trkpt lat="44.48347" lon="4.23549">
        <ele>173.7</ele>
        <time>2018-04-07T14:28:41Z</time>
      </trkpt>
      <trkpt lat="44.48339" lon="4.23556">
        <ele>173.6</ele>
        <time>2018-04-07T14:28:43Z</time>
      </trkpt>
      <trkpt lat="44.48331" lon="4.23564">
        <ele>173.7</ele>
        <time>2018-04-07T14:28:45Z</time>
      </trkpt>
      <trkpt lat="44.48323" lon="4.23572">
        <ele>173.7</ele>
        <time>2018-04-07T14:28:47Z</time>
      </trkpt>
      <trkpt lat="44.48315" lon="4.2358">
        <ele>173.8</ele>
        <time>2018-04-07T14:28:49Z</time>
      </trkpt>
      <trkpt lat="44.48307" lon="4.23587">
        <ele>173.9</ele>
        <time>2018-04-07T14:28:51Z</time>
      </trkpt>
      <trkpt lat="44.48299" lon="4.23595">
        <ele>174</ele>
        <time>2018-04-07T14:28:53Z</time>
      </trkpt>
      <trkpt lat="44.48291" lon="4.23602">
        <ele>173.9</ele>
        <time>2018-04-07T14:28:55Z</time>
      </trkpt>
      <trkpt lat="44.48281" lon="4.23612">
        <ele>173.8</ele>
        <time>2018-04-07T14:28:58Z</time>
      </trkpt>
      <trkpt lat="44.48271" lon="4.23621">
        <ele>174</ele>
        <time>2018-04-07T14:29:01Z</time>
      </trkpt>
      <trkpt lat="44.48262" lon="4.23629">
        <ele>174.4</ele>
        <time>2018-04-07T14:29:04Z</time>
      </trkpt>
      <trkpt lat="44.48252" lon="4.23637">
        <ele>174.7</ele>
        <time>2018-04-07T14:29:07Z</time>
      </trkpt>
      <trkpt lat="44.48242" lon="4.23649">
        <ele>174.9</ele>
        <time>2018-04-07T14:29:10Z</time>
      </trkpt>
      <trkpt lat="44.48232" lon="4.23661">
        <ele>175</ele>
        <time>2018-04-07T14:29:13Z</time>
      </trkpt>
      <trkpt lat="44.48225" lon="4.2367">
        <ele>174.9</ele>
        <time>2018-04-07T14:29:15Z</time>
      </trkpt>
      <trkpt lat="44.48219" lon="4.23681">
        <ele>174.7</ele>
        <time>2018-04-07T14:29:17Z</time>
      </trkpt>
      <trkpt lat="44.4821" lon="4.23688">
        <ele>174.4</ele>
        <time>2018-04-07T14:29:19Z</time>
      </trkpt>
      <trkpt lat="44.48202" lon="4.23696">
        <ele>174.1</ele>
        <time>2018-04-07T14:29:21Z</time>
      </trkpt>
      <trkpt lat="44.48193" lon="4.23705">
        <ele>173.8</ele>
        <time>2018-04-07T14:29:23Z</time>
      </trkpt>
      <trkpt lat="44.48186" lon="4.23712">
        <ele>173.6</ele>
        <time>2018-04-07T14:29:25Z</time>
      </trkpt>
      <trkpt lat="44.48174" lon="4.23722">
        <ele>173</ele>
        <time>2018-04-07T14:29:28Z</time>
      </trkpt>
      <trkpt lat="44.48164" lon="4.23733">
        <ele>172.6</ele>
        <time>2018-04-07T14:29:31Z</time>
      </trkpt>
      <trkpt lat="44.48155" lon="4.23737">
        <ele>172.5</ele>
        <time>2018-04-07T14:29:34Z</time>
      </trkpt>
      <trkpt lat="44.48148" lon="4.23746">
        <ele>172.2</ele>
        <time>2018-04-07T14:29:38Z</time>
      </trkpt>
      <trkpt lat="44.48156" lon="4.23755">
        <ele>171.7</ele>
        <time>2018-04-07T14:29:43Z</time>
      </trkpt>
      <trkpt lat="44.48164" lon="4.23765">
        <ele>171.5</ele>
        <time>2018-04-07T14:29:47Z</time>
      </trkpt>
      <trkpt lat="44.48171" lon="4.23776">
        <ele>171.4</ele>
        <time>2018-04-07T14:29:51Z</time>
      </trkpt>
      <trkpt lat="44.48172" lon="4.23789">
        <ele>171.4</ele>
        <time>2018-04-07T14:29:56Z</time>
      </trkpt>
      <trkpt lat="44.48167" lon="4.23801">
        <ele>171.6</ele>
        <time>2018-04-07T14:30:01Z</time>
      </trkpt>
      <trkpt lat="44.48158" lon="4.2381">
        <ele>171.4</ele>
        <time>2018-04-07T14:30:06Z</time>
      </trkpt>
      <trkpt lat="44.4815" lon="4.23817">
        <ele>171.4</ele>
        <time>2018-04-07T14:30:11Z</time>
      </trkpt>
      <trkpt lat="44.4814" lon="4.23822">
        <ele>171.2</ele>
        <time>2018-04-07T14:30:16Z</time>
      </trkpt>
      <trkpt lat="44.48131" lon="4.23826">
        <ele>171</ele>
        <time>2018-04-07T14:30:21Z</time>
      </trkpt>
      <trkpt lat="44.48122" lon="4.23832">
        <ele>170.7</ele>
        <time>2018-04-07T14:30:27Z</time>
      </trkpt>
      <trkpt lat="44.48112" lon="4.23837">
        <ele>170.7</ele>
        <time>2018-04-07T14:30:33Z</time>
      </trkpt>
      <trkpt lat="44.48104" lon="4.23843">
        <ele>170.4</ele>
        <time>2018-04-07T14:30:38Z</time>
      </trkpt>
      <trkpt lat="44.48096" lon="4.23853">
        <ele>170.3</ele>
        <time>2018-04-07T14:30:43Z</time>
      </trkpt>
      <trkpt lat="44.4809" lon="4.23863">
        <ele>170.1</ele>
        <time>2018-04-07T14:30:47Z</time>
      </trkpt>
      <trkpt lat="44.48087" lon="4.23877">
        <ele>169.7</ele>
        <time>2018-04-07T14:30:52Z</time>
      </trkpt>
      <trkpt lat="44.48086" lon="4.2389">
        <ele>169.3</ele>
        <time>2018-04-07T14:30:56Z</time>
      </trkpt>
      <trkpt lat="44.48084" lon="4.23904">
        <ele>169.2</ele>
        <time>2018-04-07T14:31:00Z</time>
      </trkpt>
      <trkpt lat="44.48084" lon="4.23918">
        <ele>169.1</ele>
        <time>2018-04-07T14:31:05Z</time>
      </trkpt>
      <trkpt lat="44.48079" lon="4.23931">
        <ele>169.2</ele>
        <time>2018-04-07T14:31:11Z</time>
      </trkpt>
      <trkpt lat="44.4808" lon="4.23944">
        <ele>169.6</ele>
        <time>2018-04-07T14:31:24Z</time>
      </trkpt>
      <trkpt lat="44.48075" lon="4.23948">
        <ele>169.6</ele>
        <time>2018-04-07T14:31:46Z</time>
      </trkpt>
    </trkseg>
  </trk>
</gpx>